<?xml version="1.0" encoding="UTF-8" standalone="no" ?>
<gpx xmlns="http://www.topografix.com/GPX/1/1" xmlns:xsi="http://www.w3.org/2001/XMLSchema-instance" xsi:schemaLocation="http://www.topografix.com/GPX/1/1 http://www.topografix.com/GPX/1/1/gpx.xsd" version="1.1" creator="VisuGPX - https://www.visugpx.com">
  <metadata>
    <name>Cime du Diable - Ref Merveilles - Baisse du Basto</name>
    <desc><![CDATA[Circuit effectué le 1 octobre 2011

Vallée de la Gordolasque
Vallon des Verrairiers
Pas du Trem
Cime du Diable
Baisse Cavaline
Pas du Diable
Refuge des Merveilles
Baisse de la Valmasque
Baisse du Basto
Lac Autier
Vallée de la Gordolasque
]]></desc>
  </metadata>
  <trk>
    <name><![CDATA[Cime du Diable - Ref Merveilles - Baisse du Basto_1]]></name>
    <trkseg>
      <trkpt lat="44.06342" lon="7.39127">
        <ele>1587.2700195312</ele>
        <time>2011-10-01T06:16:02Z</time>
      </trkpt>
      <trkpt lat="44.06342" lon="7.39127">
        <ele>1590.1600341797</ele>
        <time>2011-10-01T06:16:03Z</time>
      </trkpt>
      <trkpt lat="44.06341" lon="7.39127">
        <ele>1588.7199707031</ele>
        <time>2011-10-01T06:16:04Z</time>
      </trkpt>
      <trkpt lat="44.06339" lon="7.39127">
        <ele>1589.1999511719</ele>
        <time>2011-10-01T06:16:07Z</time>
      </trkpt>
      <trkpt lat="44.06337" lon="7.39129">
        <ele>1585.8299560547</ele>
        <time>2011-10-01T06:16:09Z</time>
      </trkpt>
      <trkpt lat="44.06335" lon="7.39131">
        <ele>1589.6800537109</ele>
        <time>2011-10-01T06:16:11Z</time>
      </trkpt>
      <trkpt lat="44.06334" lon="7.39132">
        <ele>1587.75</ele>
        <time>2011-10-01T06:16:12Z</time>
      </trkpt>
      <trkpt lat="44.06334" lon="7.39134">
        <ele>1584.8699951172</ele>
        <time>2011-10-01T06:16:13Z</time>
      </trkpt>
      <trkpt lat="44.06332" lon="7.39137">
        <ele>1583.9100341797</ele>
        <time>2011-10-01T06:16:15Z</time>
      </trkpt>
      <trkpt lat="44.06331" lon="7.39139">
        <ele>1588.2399902344</ele>
        <time>2011-10-01T06:16:16Z</time>
      </trkpt>
      <trkpt lat="44.0633" lon="7.39141">
        <ele>1583.4300537109</ele>
        <time>2011-10-01T06:16:17Z</time>
      </trkpt>
      <trkpt lat="44.06328" lon="7.39146">
        <ele>1583.4300537109</ele>
        <time>2011-10-01T06:16:20Z</time>
      </trkpt>
      <trkpt lat="44.06323" lon="7.39156">
        <ele>1581.5100097656</ele>
        <time>2011-10-01T06:16:26Z</time>
      </trkpt>
      <trkpt lat="44.06323" lon="7.39162">
        <ele>1578.1400146484</ele>
        <time>2011-10-01T06:16:30Z</time>
      </trkpt>
      <trkpt lat="44.06323" lon="7.39164">
        <ele>1582.9499511719</ele>
        <time>2011-10-01T06:16:31Z</time>
      </trkpt>
      <trkpt lat="44.06321" lon="7.39192">
        <ele>1578.6199951172</ele>
        <time>2011-10-01T06:16:42Z</time>
      </trkpt>
      <trkpt lat="44.06324" lon="7.39216">
        <ele>1580.5400390625</ele>
        <time>2011-10-01T06:16:50Z</time>
      </trkpt>
      <trkpt lat="44.06318" lon="7.39225">
        <ele>1580.0600585938</ele>
        <time>2011-10-01T06:16:55Z</time>
      </trkpt>
      <trkpt lat="44.0631" lon="7.3921">
        <ele>1577.1800537109</ele>
        <time>2011-10-01T06:16:59Z</time>
      </trkpt>
      <trkpt lat="44.06304" lon="7.39199">
        <ele>1574.7800292969</ele>
        <time>2011-10-01T06:17:02Z</time>
      </trkpt>
      <trkpt lat="44.06301" lon="7.39197">
        <ele>1575.7399902344</ele>
        <time>2011-10-01T06:17:03Z</time>
      </trkpt>
      <trkpt lat="44.06286" lon="7.39197">
        <ele>1580.5400390625</ele>
        <time>2011-10-01T06:17:09Z</time>
      </trkpt>
      <trkpt lat="44.06284" lon="7.39197">
        <ele>1575.7399902344</ele>
        <time>2011-10-01T06:17:10Z</time>
      </trkpt>
      <trkpt lat="44.06279" lon="7.39197">
        <ele>1575.2600097656</ele>
        <time>2011-10-01T06:17:12Z</time>
      </trkpt>
      <trkpt lat="44.06269" lon="7.39204">
        <ele>1579.0999755859</ele>
        <time>2011-10-01T06:17:18Z</time>
      </trkpt>
      <trkpt lat="44.06267" lon="7.39218">
        <ele>1579.0999755859</ele>
        <time>2011-10-01T06:17:24Z</time>
      </trkpt>
      <trkpt lat="44.06266" lon="7.39221">
        <ele>1581.9899902344</ele>
        <time>2011-10-01T06:17:26Z</time>
      </trkpt>
      <trkpt lat="44.06262" lon="7.3922">
        <ele>1581.0300292969</ele>
        <time>2011-10-01T06:17:30Z</time>
      </trkpt>
      <trkpt lat="44.06254" lon="7.39215">
        <ele>1583.9100341797</ele>
        <time>2011-10-01T06:17:34Z</time>
      </trkpt>
      <trkpt lat="44.06252" lon="7.39213">
        <ele>1580.0600585938</ele>
        <time>2011-10-01T06:17:35Z</time>
      </trkpt>
      <trkpt lat="44.06246" lon="7.39203">
        <ele>1582.9499511719</ele>
        <time>2011-10-01T06:17:40Z</time>
      </trkpt>
      <trkpt lat="44.06242" lon="7.392">
        <ele>1582.9499511719</ele>
        <time>2011-10-01T06:17:44Z</time>
      </trkpt>
      <trkpt lat="44.06237" lon="7.39209">
        <ele>1585.8299560547</ele>
        <time>2011-10-01T06:17:49Z</time>
      </trkpt>
      <trkpt lat="44.06232" lon="7.3922">
        <ele>1589.6800537109</ele>
        <time>2011-10-01T06:17:55Z</time>
      </trkpt>
      <trkpt lat="44.06231" lon="7.39221">
        <ele>1589.1999511719</ele>
        <time>2011-10-01T06:17:56Z</time>
      </trkpt>
      <trkpt lat="44.06221" lon="7.39225">
        <ele>1590.1600341797</ele>
        <time>2011-10-01T06:18:02Z</time>
      </trkpt>
      <trkpt lat="44.06214" lon="7.39235">
        <ele>1593.0400390625</ele>
        <time>2011-10-01T06:18:09Z</time>
      </trkpt>
      <trkpt lat="44.06213" lon="7.39236">
        <ele>1591.5999755859</ele>
        <time>2011-10-01T06:18:10Z</time>
      </trkpt>
      <trkpt lat="44.0621" lon="7.3924">
        <ele>1592.0799560547</ele>
        <time>2011-10-01T06:18:24Z</time>
      </trkpt>
      <trkpt lat="44.06208" lon="7.39253">
        <ele>1592.5600585938</ele>
        <time>2011-10-01T06:18:33Z</time>
      </trkpt>
      <trkpt lat="44.06208" lon="7.39254">
        <ele>1594.9599609375</ele>
        <time>2011-10-01T06:18:35Z</time>
      </trkpt>
      <trkpt lat="44.06207" lon="7.39256">
        <ele>1594</ele>
        <time>2011-10-01T06:18:37Z</time>
      </trkpt>
      <trkpt lat="44.06205" lon="7.39259">
        <ele>1596.4100341797</ele>
        <time>2011-10-01T06:18:40Z</time>
      </trkpt>
      <trkpt lat="44.06204" lon="7.3926">
        <ele>1596.8900146484</ele>
        <time>2011-10-01T06:18:41Z</time>
      </trkpt>
      <trkpt lat="44.06203" lon="7.39262">
        <ele>1597.8499755859</ele>
        <time>2011-10-01T06:18:43Z</time>
      </trkpt>
      <trkpt lat="44.0621" lon="7.39272">
        <ele>1599.7700195312</ele>
        <time>2011-10-01T06:18:51Z</time>
      </trkpt>
      <trkpt lat="44.06213" lon="7.39279">
        <ele>1597.3699951172</ele>
        <time>2011-10-01T06:18:54Z</time>
      </trkpt>
      <trkpt lat="44.06213" lon="7.39289">
        <ele>1600.25</ele>
        <time>2011-10-01T06:18:58Z</time>
      </trkpt>
      <trkpt lat="44.0621" lon="7.39292">
        <ele>1599.2900390625</ele>
        <time>2011-10-01T06:19:02Z</time>
      </trkpt>
      <trkpt lat="44.06208" lon="7.39291">
        <ele>1598.3299560547</ele>
        <time>2011-10-01T06:19:04Z</time>
      </trkpt>
      <trkpt lat="44.06203" lon="7.39288">
        <ele>1604.5799560547</ele>
        <time>2011-10-01T06:19:08Z</time>
      </trkpt>
      <trkpt lat="44.06202" lon="7.39288">
        <ele>1601.2099609375</ele>
        <time>2011-10-01T06:19:10Z</time>
      </trkpt>
      <trkpt lat="44.06201" lon="7.39288">
        <ele>1602.6600341797</ele>
        <time>2011-10-01T06:19:11Z</time>
      </trkpt>
      <trkpt lat="44.062" lon="7.39289">
        <ele>1601.2099609375</ele>
        <time>2011-10-01T06:19:13Z</time>
      </trkpt>
      <trkpt lat="44.06197" lon="7.3929">
        <ele>1604.5799560547</ele>
        <time>2011-10-01T06:19:16Z</time>
      </trkpt>
      <trkpt lat="44.06195" lon="7.39289">
        <ele>1605.0600585938</ele>
        <time>2011-10-01T06:19:17Z</time>
      </trkpt>
      <trkpt lat="44.06192" lon="7.39289">
        <ele>1605.0600585938</ele>
        <time>2011-10-01T06:19:20Z</time>
      </trkpt>
      <trkpt lat="44.06187" lon="7.39289">
        <ele>1607.4599609375</ele>
        <time>2011-10-01T06:19:24Z</time>
      </trkpt>
      <trkpt lat="44.06185" lon="7.3929">
        <ele>1605.5400390625</ele>
        <time>2011-10-01T06:19:26Z</time>
      </trkpt>
      <trkpt lat="44.06185" lon="7.39294">
        <ele>1607.9399414062</ele>
        <time>2011-10-01T06:19:29Z</time>
      </trkpt>
      <trkpt lat="44.06185" lon="7.39297">
        <ele>1606.0200195312</ele>
        <time>2011-10-01T06:19:33Z</time>
      </trkpt>
      <trkpt lat="44.06186" lon="7.393">
        <ele>1609.3800048828</ele>
        <time>2011-10-01T06:19:36Z</time>
      </trkpt>
      <trkpt lat="44.06189" lon="7.39307">
        <ele>1611.7900390625</ele>
        <time>2011-10-01T06:19:42Z</time>
      </trkpt>
      <trkpt lat="44.06188" lon="7.39308">
        <ele>1610.8299560547</ele>
        <time>2011-10-01T06:19:43Z</time>
      </trkpt>
      <trkpt lat="44.06184" lon="7.3931">
        <ele>1612.2700195312</ele>
        <time>2011-10-01T06:19:52Z</time>
      </trkpt>
      <trkpt lat="44.06185" lon="7.39312">
        <ele>1616.1099853516</ele>
        <time>2011-10-01T06:19:57Z</time>
      </trkpt>
      <trkpt lat="44.06171" lon="7.3932">
        <ele>1617.5600585938</ele>
        <time>2011-10-01T06:20:13Z</time>
      </trkpt>
      <trkpt lat="44.06159" lon="7.39319">
        <ele>1619</ele>
        <time>2011-10-01T06:20:29Z</time>
      </trkpt>
      <trkpt lat="44.06155" lon="7.39318">
        <ele>1622.3599853516</ele>
        <time>2011-10-01T06:20:33Z</time>
      </trkpt>
      <trkpt lat="44.06153" lon="7.39318">
        <ele>1621.8800048828</ele>
        <time>2011-10-01T06:20:34Z</time>
      </trkpt>
      <trkpt lat="44.06152" lon="7.3932">
        <ele>1625.7299804688</ele>
        <time>2011-10-01T06:20:37Z</time>
      </trkpt>
      <trkpt lat="44.06152" lon="7.39321">
        <ele>1622.8399658203</ele>
        <time>2011-10-01T06:20:38Z</time>
      </trkpt>
      <trkpt lat="44.06151" lon="7.39326">
        <ele>1625.25</ele>
        <time>2011-10-01T06:20:44Z</time>
      </trkpt>
      <trkpt lat="44.06153" lon="7.39333">
        <ele>1628.1300048828</ele>
        <time>2011-10-01T06:20:50Z</time>
      </trkpt>
      <trkpt lat="44.06155" lon="7.39333">
        <ele>1625.25</ele>
        <time>2011-10-01T06:20:51Z</time>
      </trkpt>
      <trkpt lat="44.06161" lon="7.39336">
        <ele>1630.0500488281</ele>
        <time>2011-10-01T06:21:00Z</time>
      </trkpt>
      <trkpt lat="44.06162" lon="7.39337">
        <ele>1630.0500488281</ele>
        <time>2011-10-01T06:21:01Z</time>
      </trkpt>
      <trkpt lat="44.06159" lon="7.39342">
        <ele>1631.4899902344</ele>
        <time>2011-10-01T06:21:10Z</time>
      </trkpt>
      <trkpt lat="44.06157" lon="7.39342">
        <ele>1630.5300292969</ele>
        <time>2011-10-01T06:21:12Z</time>
      </trkpt>
      <trkpt lat="44.06154" lon="7.39341">
        <ele>1631.4899902344</ele>
        <time>2011-10-01T06:21:14Z</time>
      </trkpt>
      <trkpt lat="44.0615" lon="7.39335">
        <ele>1633.4200439453</ele>
        <time>2011-10-01T06:21:20Z</time>
      </trkpt>
      <trkpt lat="44.0615" lon="7.39334">
        <ele>1632.9399414062</ele>
        <time>2011-10-01T06:21:21Z</time>
      </trkpt>
      <trkpt lat="44.06142" lon="7.3933">
        <ele>1636.3000488281</ele>
        <time>2011-10-01T06:21:27Z</time>
      </trkpt>
      <trkpt lat="44.06141" lon="7.3933">
        <ele>1632.4599609375</ele>
        <time>2011-10-01T06:21:28Z</time>
      </trkpt>
      <trkpt lat="44.06138" lon="7.3933">
        <ele>1636.3000488281</ele>
        <time>2011-10-01T06:21:31Z</time>
      </trkpt>
      <trkpt lat="44.06137" lon="7.3933">
        <ele>1636.3000488281</ele>
        <time>2011-10-01T06:21:32Z</time>
      </trkpt>
      <trkpt lat="44.06134" lon="7.39329">
        <ele>1634.3800048828</ele>
        <time>2011-10-01T06:21:36Z</time>
      </trkpt>
      <trkpt lat="44.06129" lon="7.39328">
        <ele>1637.7399902344</ele>
        <time>2011-10-01T06:21:40Z</time>
      </trkpt>
      <trkpt lat="44.06122" lon="7.39315">
        <ele>1639.1899414062</ele>
        <time>2011-10-01T06:21:53Z</time>
      </trkpt>
      <trkpt lat="44.06118" lon="7.39322">
        <ele>1642.0699462891</ele>
        <time>2011-10-01T06:22:06Z</time>
      </trkpt>
      <trkpt lat="44.06119" lon="7.39335">
        <ele>1645.4300537109</ele>
        <time>2011-10-01T06:22:18Z</time>
      </trkpt>
      <trkpt lat="44.06107" lon="7.3933">
        <ele>1648.3199462891</ele>
        <time>2011-10-01T06:22:30Z</time>
      </trkpt>
      <trkpt lat="44.06102" lon="7.39332">
        <ele>1652.1600341797</ele>
        <time>2011-10-01T06:22:42Z</time>
      </trkpt>
      <trkpt lat="44.06097" lon="7.39334">
        <ele>1653.1199951172</ele>
        <time>2011-10-01T06:22:52Z</time>
      </trkpt>
      <trkpt lat="44.06099" lon="7.39337">
        <ele>1654.5699462891</ele>
        <time>2011-10-01T06:22:55Z</time>
      </trkpt>
      <trkpt lat="44.061" lon="7.39338">
        <ele>1654.0899658203</ele>
        <time>2011-10-01T06:22:56Z</time>
      </trkpt>
      <trkpt lat="44.06103" lon="7.39342">
        <ele>1655.0500488281</ele>
        <time>2011-10-01T06:22:59Z</time>
      </trkpt>
      <trkpt lat="44.06107" lon="7.39344">
        <ele>1656.9699707031</ele>
        <time>2011-10-01T06:23:05Z</time>
      </trkpt>
      <trkpt lat="44.06099" lon="7.39344">
        <ele>1658.4100341797</ele>
        <time>2011-10-01T06:23:13Z</time>
      </trkpt>
      <trkpt lat="44.06097" lon="7.39346">
        <ele>1657.4499511719</ele>
        <time>2011-10-01T06:23:15Z</time>
      </trkpt>
      <trkpt lat="44.06092" lon="7.3935">
        <ele>1660.8100585938</ele>
        <time>2011-10-01T06:23:20Z</time>
      </trkpt>
      <trkpt lat="44.06086" lon="7.39355">
        <ele>1662.7399902344</ele>
        <time>2011-10-01T06:23:25Z</time>
      </trkpt>
      <trkpt lat="44.06076" lon="7.39359">
        <ele>1662.2600097656</ele>
        <time>2011-10-01T06:23:35Z</time>
      </trkpt>
      <trkpt lat="44.06074" lon="7.39361">
        <ele>1663.6999511719</ele>
        <time>2011-10-01T06:23:38Z</time>
      </trkpt>
      <trkpt lat="44.06069" lon="7.39362">
        <ele>1667.0600585938</ele>
        <time>2011-10-01T06:23:42Z</time>
      </trkpt>
      <trkpt lat="44.06068" lon="7.39362">
        <ele>1660.3299560547</ele>
        <time>2011-10-01T06:23:43Z</time>
      </trkpt>
      <trkpt lat="44.06066" lon="7.39363">
        <ele>1665.6199951172</ele>
        <time>2011-10-01T06:23:44Z</time>
      </trkpt>
      <trkpt lat="44.06065" lon="7.39364">
        <ele>1664.6600341797</ele>
        <time>2011-10-01T06:23:45Z</time>
      </trkpt>
      <trkpt lat="44.06059" lon="7.39366">
        <ele>1667.5400390625</ele>
        <time>2011-10-01T06:23:49Z</time>
      </trkpt>
      <trkpt lat="44.06052" lon="7.39372">
        <ele>1668.0200195312</ele>
        <time>2011-10-01T06:23:56Z</time>
      </trkpt>
      <trkpt lat="44.0605" lon="7.39375">
        <ele>1671.8699951172</ele>
        <time>2011-10-01T06:24:09Z</time>
      </trkpt>
      <trkpt lat="44.0605" lon="7.39375">
        <ele>1672.3499755859</ele>
        <time>2011-10-01T06:24:10Z</time>
      </trkpt>
      <trkpt lat="44.06048" lon="7.39374">
        <ele>1673.3100585938</ele>
        <time>2011-10-01T06:24:15Z</time>
      </trkpt>
      <trkpt lat="44.06045" lon="7.39375">
        <ele>1675.2299804688</ele>
        <time>2011-10-01T06:24:17Z</time>
      </trkpt>
      <trkpt lat="44.06035" lon="7.39377">
        <ele>1674.2700195312</ele>
        <time>2011-10-01T06:24:24Z</time>
      </trkpt>
      <trkpt lat="44.06033" lon="7.39377">
        <ele>1675.2299804688</ele>
        <time>2011-10-01T06:24:26Z</time>
      </trkpt>
      <trkpt lat="44.06044" lon="7.39379">
        <ele>1679.5600585938</ele>
        <time>2011-10-01T06:24:39Z</time>
      </trkpt>
      <trkpt lat="44.06052" lon="7.39382">
        <ele>1679.5600585938</ele>
        <time>2011-10-01T06:24:45Z</time>
      </trkpt>
      <trkpt lat="44.06054" lon="7.39385">
        <ele>1679.5600585938</ele>
        <time>2011-10-01T06:24:48Z</time>
      </trkpt>
      <trkpt lat="44.0606" lon="7.39385">
        <ele>1681</ele>
        <time>2011-10-01T06:24:54Z</time>
      </trkpt>
      <trkpt lat="44.06068" lon="7.39386">
        <ele>1682.4399414062</ele>
        <time>2011-10-01T06:25:01Z</time>
      </trkpt>
      <trkpt lat="44.0607" lon="7.39387">
        <ele>1682.4399414062</ele>
        <time>2011-10-01T06:25:04Z</time>
      </trkpt>
      <trkpt lat="44.06072" lon="7.39391">
        <ele>1685.8100585938</ele>
        <time>2011-10-01T06:25:09Z</time>
      </trkpt>
      <trkpt lat="44.06068" lon="7.39404">
        <ele>1689.1700439453</ele>
        <time>2011-10-01T06:25:20Z</time>
      </trkpt>
      <trkpt lat="44.06068" lon="7.39407">
        <ele>1689.1700439453</ele>
        <time>2011-10-01T06:25:22Z</time>
      </trkpt>
      <trkpt lat="44.0607" lon="7.39413">
        <ele>1690.1400146484</ele>
        <time>2011-10-01T06:25:26Z</time>
      </trkpt>
      <trkpt lat="44.06074" lon="7.39419">
        <ele>1690.6199951172</ele>
        <time>2011-10-01T06:25:32Z</time>
      </trkpt>
      <trkpt lat="44.0608" lon="7.39424">
        <ele>1694.9399414062</ele>
        <time>2011-10-01T06:25:39Z</time>
      </trkpt>
      <trkpt lat="44.06081" lon="7.39425">
        <ele>1693.9799804688</ele>
        <time>2011-10-01T06:25:40Z</time>
      </trkpt>
      <trkpt lat="44.06084" lon="7.39429">
        <ele>1695.4200439453</ele>
        <time>2011-10-01T06:25:44Z</time>
      </trkpt>
      <trkpt lat="44.06079" lon="7.39436">
        <ele>1696.8599853516</ele>
        <time>2011-10-01T06:25:53Z</time>
      </trkpt>
      <trkpt lat="44.06076" lon="7.39438">
        <ele>1697.3399658203</ele>
        <time>2011-10-01T06:25:55Z</time>
      </trkpt>
      <trkpt lat="44.06071" lon="7.39445">
        <ele>1701.1899414062</ele>
        <time>2011-10-01T06:26:03Z</time>
      </trkpt>
      <trkpt lat="44.06077" lon="7.39451">
        <ele>1704.5500488281</ele>
        <time>2011-10-01T06:26:14Z</time>
      </trkpt>
      <trkpt lat="44.06077" lon="7.39451">
        <ele>1704.5500488281</ele>
        <time>2011-10-01T06:26:15Z</time>
      </trkpt>
      <trkpt lat="44.06076" lon="7.39452">
        <ele>1704.5500488281</ele>
        <time>2011-10-01T06:26:17Z</time>
      </trkpt>
      <trkpt lat="44.06068" lon="7.39454">
        <ele>1705.5200195312</ele>
        <time>2011-10-01T06:26:23Z</time>
      </trkpt>
      <trkpt lat="44.06062" lon="7.39456">
        <ele>1707.9200439453</ele>
        <time>2011-10-01T06:26:29Z</time>
      </trkpt>
      <trkpt lat="44.0605" lon="7.39456">
        <ele>1710.3199462891</ele>
        <time>2011-10-01T06:26:39Z</time>
      </trkpt>
      <trkpt lat="44.06046" lon="7.39456">
        <ele>1714.1700439453</ele>
        <time>2011-10-01T06:26:51Z</time>
      </trkpt>
      <trkpt lat="44.06049" lon="7.39455">
        <ele>1716.5699462891</ele>
        <time>2011-10-01T06:27:01Z</time>
      </trkpt>
      <trkpt lat="44.06055" lon="7.39459">
        <ele>1716.5699462891</ele>
        <time>2011-10-01T06:27:08Z</time>
      </trkpt>
      <trkpt lat="44.06056" lon="7.39458">
        <ele>1721.8599853516</ele>
        <time>2011-10-01T06:27:13Z</time>
      </trkpt>
      <trkpt lat="44.06056" lon="7.39457">
        <ele>1718.4899902344</ele>
        <time>2011-10-01T06:27:15Z</time>
      </trkpt>
      <trkpt lat="44.06055" lon="7.39456">
        <ele>1718.9699707031</ele>
        <time>2011-10-01T06:27:16Z</time>
      </trkpt>
      <trkpt lat="44.0605" lon="7.39456">
        <ele>1719.9399414062</ele>
        <time>2011-10-01T06:27:19Z</time>
      </trkpt>
      <trkpt lat="44.06041" lon="7.39459">
        <ele>1718.9699707031</ele>
        <time>2011-10-01T06:27:23Z</time>
      </trkpt>
      <trkpt lat="44.06031" lon="7.39465">
        <ele>1721.8599853516</ele>
        <time>2011-10-01T06:27:27Z</time>
      </trkpt>
      <trkpt lat="44.06029" lon="7.39467">
        <ele>1721.3800048828</ele>
        <time>2011-10-01T06:27:28Z</time>
      </trkpt>
      <trkpt lat="44.06023" lon="7.39471">
        <ele>1724.7399902344</ele>
        <time>2011-10-01T06:27:33Z</time>
      </trkpt>
      <trkpt lat="44.0601" lon="7.39473">
        <ele>1728.5899658203</ele>
        <time>2011-10-01T06:27:52Z</time>
      </trkpt>
      <trkpt lat="44.06009" lon="7.39472">
        <ele>1727.6300048828</ele>
        <time>2011-10-01T06:27:53Z</time>
      </trkpt>
      <trkpt lat="44.06006" lon="7.39471">
        <ele>1729.0699462891</ele>
        <time>2011-10-01T06:27:58Z</time>
      </trkpt>
      <trkpt lat="44.06008" lon="7.39476">
        <ele>1732.9100341797</ele>
        <time>2011-10-01T06:28:06Z</time>
      </trkpt>
      <trkpt lat="44.06003" lon="7.39477">
        <ele>1736.2800292969</ele>
        <time>2011-10-01T06:28:20Z</time>
      </trkpt>
      <trkpt lat="44.05998" lon="7.39476">
        <ele>1738.6800537109</ele>
        <time>2011-10-01T06:28:29Z</time>
      </trkpt>
      <trkpt lat="44.0599" lon="7.39489">
        <ele>1742.0500488281</ele>
        <time>2011-10-01T06:28:44Z</time>
      </trkpt>
      <trkpt lat="44.05988" lon="7.39487">
        <ele>1743.0100097656</ele>
        <time>2011-10-01T06:28:46Z</time>
      </trkpt>
      <trkpt lat="44.05985" lon="7.39491">
        <ele>1745.8900146484</ele>
        <time>2011-10-01T06:28:57Z</time>
      </trkpt>
      <trkpt lat="44.05981" lon="7.39494">
        <ele>1749.2600097656</ele>
        <time>2011-10-01T06:29:05Z</time>
      </trkpt>
      <trkpt lat="44.05978" lon="7.39492">
        <ele>1752.1400146484</ele>
        <time>2011-10-01T06:29:11Z</time>
      </trkpt>
      <trkpt lat="44.05977" lon="7.39492">
        <ele>1751.1800537109</ele>
        <time>2011-10-01T06:29:12Z</time>
      </trkpt>
      <trkpt lat="44.05974" lon="7.39488">
        <ele>1755.9899902344</ele>
        <time>2011-10-01T06:29:25Z</time>
      </trkpt>
      <trkpt lat="44.05973" lon="7.39488">
        <ele>1753.5799560547</ele>
        <time>2011-10-01T06:29:26Z</time>
      </trkpt>
      <trkpt lat="44.05972" lon="7.39487">
        <ele>1754.5400390625</ele>
        <time>2011-10-01T06:29:32Z</time>
      </trkpt>
      <trkpt lat="44.05972" lon="7.39488">
        <ele>1755.9899902344</ele>
        <time>2011-10-01T06:29:35Z</time>
      </trkpt>
      <trkpt lat="44.05969" lon="7.39482">
        <ele>1759.8299560547</ele>
        <time>2011-10-01T06:29:43Z</time>
      </trkpt>
      <trkpt lat="44.05968" lon="7.39482">
        <ele>1761.2700195312</ele>
        <time>2011-10-01T06:29:55Z</time>
      </trkpt>
      <trkpt lat="44.05968" lon="7.39486">
        <ele>1764.6400146484</ele>
        <time>2011-10-01T06:29:58Z</time>
      </trkpt>
      <trkpt lat="44.05968" lon="7.39488">
        <ele>1760.7900390625</ele>
        <time>2011-10-01T06:29:59Z</time>
      </trkpt>
      <trkpt lat="44.05969" lon="7.39489">
        <ele>1760.7900390625</ele>
        <time>2011-10-01T06:30:00Z</time>
      </trkpt>
      <trkpt lat="44.05969" lon="7.39489">
        <ele>1761.75</ele>
        <time>2011-10-01T06:30:02Z</time>
      </trkpt>
      <trkpt lat="44.05969" lon="7.39489">
        <ele>1765.1199951172</ele>
        <time>2011-10-01T06:30:03Z</time>
      </trkpt>
      <trkpt lat="44.05969" lon="7.39489">
        <ele>1764.6400146484</ele>
        <time>2011-10-01T06:30:04Z</time>
      </trkpt>
      <trkpt lat="44.0597" lon="7.39477">
        <ele>1766.0799560547</ele>
        <time>2011-10-01T06:30:19Z</time>
      </trkpt>
      <trkpt lat="44.05971" lon="7.39477">
        <ele>1763.1999511719</ele>
        <time>2011-10-01T06:30:20Z</time>
      </trkpt>
      <trkpt lat="44.05968" lon="7.39485">
        <ele>1767.0400390625</ele>
        <time>2011-10-01T06:30:29Z</time>
      </trkpt>
      <trkpt lat="44.05967" lon="7.39486">
        <ele>1767.0400390625</ele>
        <time>2011-10-01T06:30:30Z</time>
      </trkpt>
      <trkpt lat="44.05956" lon="7.39499">
        <ele>1768</ele>
        <time>2011-10-01T06:30:41Z</time>
      </trkpt>
      <trkpt lat="44.05954" lon="7.39499">
        <ele>1769.4399414062</ele>
        <time>2011-10-01T06:30:43Z</time>
      </trkpt>
      <trkpt lat="44.05953" lon="7.39499">
        <ele>1772.3299560547</ele>
        <time>2011-10-01T06:30:44Z</time>
      </trkpt>
      <trkpt lat="44.0595" lon="7.39498">
        <ele>1771.8499755859</ele>
        <time>2011-10-01T06:30:47Z</time>
      </trkpt>
      <trkpt lat="44.05946" lon="7.39499">
        <ele>1772.8100585938</ele>
        <time>2011-10-01T06:30:51Z</time>
      </trkpt>
      <trkpt lat="44.05944" lon="7.39501">
        <ele>1774.25</ele>
        <time>2011-10-01T06:30:53Z</time>
      </trkpt>
      <trkpt lat="44.05942" lon="7.39504">
        <ele>1777.1300048828</ele>
        <time>2011-10-01T06:31:00Z</time>
      </trkpt>
      <trkpt lat="44.05943" lon="7.39506">
        <ele>1776.1700439453</ele>
        <time>2011-10-01T06:31:01Z</time>
      </trkpt>
      <trkpt lat="44.05945" lon="7.3951">
        <ele>1778.0999755859</ele>
        <time>2011-10-01T06:31:05Z</time>
      </trkpt>
      <trkpt lat="44.05938" lon="7.39512">
        <ele>1781.4599609375</ele>
        <time>2011-10-01T06:31:19Z</time>
      </trkpt>
      <trkpt lat="44.05936" lon="7.39512">
        <ele>1782.4200439453</ele>
        <time>2011-10-01T06:31:21Z</time>
      </trkpt>
      <trkpt lat="44.05933" lon="7.39513">
        <ele>1783.3800048828</ele>
        <time>2011-10-01T06:31:23Z</time>
      </trkpt>
      <trkpt lat="44.05922" lon="7.39511">
        <ele>1787.2299804688</ele>
        <time>2011-10-01T06:31:36Z</time>
      </trkpt>
      <trkpt lat="44.05919" lon="7.39507">
        <ele>1788.6700439453</ele>
        <time>2011-10-01T06:31:43Z</time>
      </trkpt>
      <trkpt lat="44.05916" lon="7.39503">
        <ele>1789.1500244141</ele>
        <time>2011-10-01T06:31:47Z</time>
      </trkpt>
      <trkpt lat="44.05909" lon="7.39504">
        <ele>1792.0300292969</ele>
        <time>2011-10-01T06:31:57Z</time>
      </trkpt>
      <trkpt lat="44.05907" lon="7.39511">
        <ele>1795.4000244141</ele>
        <time>2011-10-01T06:32:10Z</time>
      </trkpt>
      <trkpt lat="44.05905" lon="7.39509">
        <ele>1796.3599853516</ele>
        <time>2011-10-01T06:32:12Z</time>
      </trkpt>
      <trkpt lat="44.059" lon="7.39506">
        <ele>1797.3199462891</ele>
        <time>2011-10-01T06:32:16Z</time>
      </trkpt>
      <trkpt lat="44.05898" lon="7.39504">
        <ele>1796.3599853516</ele>
        <time>2011-10-01T06:32:18Z</time>
      </trkpt>
      <trkpt lat="44.05897" lon="7.39503">
        <ele>1800.2099609375</ele>
        <time>2011-10-01T06:32:19Z</time>
      </trkpt>
      <trkpt lat="44.05896" lon="7.39502">
        <ele>1799.2399902344</ele>
        <time>2011-10-01T06:32:20Z</time>
      </trkpt>
      <trkpt lat="44.05883" lon="7.39491">
        <ele>1800.6899414062</ele>
        <time>2011-10-01T06:32:30Z</time>
      </trkpt>
      <trkpt lat="44.05875" lon="7.39482">
        <ele>1800.6899414062</ele>
        <time>2011-10-01T06:32:36Z</time>
      </trkpt>
      <trkpt lat="44.05873" lon="7.3948">
        <ele>1804.0500488281</ele>
        <time>2011-10-01T06:32:38Z</time>
      </trkpt>
      <trkpt lat="44.05871" lon="7.39476">
        <ele>1802.6099853516</ele>
        <time>2011-10-01T06:32:48Z</time>
      </trkpt>
      <trkpt lat="44.05872" lon="7.39466">
        <ele>1802.6099853516</ele>
        <time>2011-10-01T06:32:52Z</time>
      </trkpt>
      <trkpt lat="44.05875" lon="7.39453">
        <ele>1800.6899414062</ele>
        <time>2011-10-01T06:33:00Z</time>
      </trkpt>
      <trkpt lat="44.05878" lon="7.39452">
        <ele>1802.1300048828</ele>
        <time>2011-10-01T06:33:11Z</time>
      </trkpt>
      <trkpt lat="44.05878" lon="7.39452">
        <ele>1801.6500244141</ele>
        <time>2011-10-01T06:33:13Z</time>
      </trkpt>
      <trkpt lat="44.05873" lon="7.39461">
        <ele>1802.1300048828</ele>
        <time>2011-10-01T06:33:20Z</time>
      </trkpt>
      <trkpt lat="44.05872" lon="7.39465">
        <ele>1803.0899658203</ele>
        <time>2011-10-01T06:33:22Z</time>
      </trkpt>
      <trkpt lat="44.05871" lon="7.39471">
        <ele>1803.0899658203</ele>
        <time>2011-10-01T06:33:25Z</time>
      </trkpt>
      <trkpt lat="44.05869" lon="7.39475">
        <ele>1804.5300292969</ele>
        <time>2011-10-01T06:33:42Z</time>
      </trkpt>
      <trkpt lat="44.05869" lon="7.39474">
        <ele>1801.1700439453</ele>
        <time>2011-10-01T06:33:48Z</time>
      </trkpt>
      <trkpt lat="44.05869" lon="7.39474">
        <ele>1804.5300292969</ele>
        <time>2011-10-01T06:33:52Z</time>
      </trkpt>
      <trkpt lat="44.05869" lon="7.39475">
        <ele>1801.1700439453</ele>
        <time>2011-10-01T06:33:53Z</time>
      </trkpt>
      <trkpt lat="44.05869" lon="7.39475">
        <ele>1805.0100097656</ele>
        <time>2011-10-01T06:33:56Z</time>
      </trkpt>
      <trkpt lat="44.05869" lon="7.39476">
        <ele>1804.5300292969</ele>
        <time>2011-10-01T06:33:57Z</time>
      </trkpt>
      <trkpt lat="44.05869" lon="7.39476">
        <ele>1803.5699462891</ele>
        <time>2011-10-01T06:33:59Z</time>
      </trkpt>
      <trkpt lat="44.05869" lon="7.39478">
        <ele>1801.6500244141</ele>
        <time>2011-10-01T06:34:02Z</time>
      </trkpt>
      <trkpt lat="44.0587" lon="7.39478">
        <ele>1805.4899902344</ele>
        <time>2011-10-01T06:34:09Z</time>
      </trkpt>
      <trkpt lat="44.0587" lon="7.39478">
        <ele>1801.6500244141</ele>
        <time>2011-10-01T06:34:12Z</time>
      </trkpt>
      <trkpt lat="44.0587" lon="7.39478">
        <ele>1801.6500244141</ele>
        <time>2011-10-01T06:34:13Z</time>
      </trkpt>
      <trkpt lat="44.0587" lon="7.39478">
        <ele>1803.5699462891</ele>
        <time>2011-10-01T06:34:15Z</time>
      </trkpt>
      <trkpt lat="44.0587" lon="7.39478">
        <ele>1804.5300292969</ele>
        <time>2011-10-01T06:34:17Z</time>
      </trkpt>
      <trkpt lat="44.05875" lon="7.39485">
        <ele>1804.5300292969</ele>
        <time>2011-10-01T06:34:32Z</time>
      </trkpt>
      <trkpt lat="44.05877" lon="7.39496">
        <ele>1807.9000244141</ele>
        <time>2011-10-01T06:34:43Z</time>
      </trkpt>
      <trkpt lat="44.05873" lon="7.39508">
        <ele>1807.9000244141</ele>
        <time>2011-10-01T06:34:52Z</time>
      </trkpt>
      <trkpt lat="44.05872" lon="7.39511">
        <ele>1809.8199462891</ele>
        <time>2011-10-01T06:35:02Z</time>
      </trkpt>
      <trkpt lat="44.05872" lon="7.39511">
        <ele>1808.8599853516</ele>
        <time>2011-10-01T06:35:06Z</time>
      </trkpt>
      <trkpt lat="44.05872" lon="7.39511">
        <ele>1808.3800048828</ele>
        <time>2011-10-01T06:35:14Z</time>
      </trkpt>
      <trkpt lat="44.05872" lon="7.3951">
        <ele>1806.9399414062</ele>
        <time>2011-10-01T06:35:20Z</time>
      </trkpt>
      <trkpt lat="44.05872" lon="7.3951">
        <ele>1808.3800048828</ele>
        <time>2011-10-01T06:35:23Z</time>
      </trkpt>
      <trkpt lat="44.05872" lon="7.3951">
        <ele>1807.9000244141</ele>
        <time>2011-10-01T06:35:29Z</time>
      </trkpt>
      <trkpt lat="44.05872" lon="7.39509">
        <ele>1805.4899902344</ele>
        <time>2011-10-01T06:35:36Z</time>
      </trkpt>
      <trkpt lat="44.05872" lon="7.39509">
        <ele>1809.3399658203</ele>
        <time>2011-10-01T06:35:38Z</time>
      </trkpt>
      <trkpt lat="44.05873" lon="7.39509">
        <ele>1805.9699707031</ele>
        <time>2011-10-01T06:35:42Z</time>
      </trkpt>
      <trkpt lat="44.05872" lon="7.39509">
        <ele>1809.8199462891</ele>
        <time>2011-10-01T06:35:43Z</time>
      </trkpt>
      <trkpt lat="44.05873" lon="7.39508">
        <ele>1806.4499511719</ele>
        <time>2011-10-01T06:35:47Z</time>
      </trkpt>
      <trkpt lat="44.05873" lon="7.39507">
        <ele>1809.3399658203</ele>
        <time>2011-10-01T06:35:54Z</time>
      </trkpt>
      <trkpt lat="44.05873" lon="7.39508">
        <ele>1808.3800048828</ele>
        <time>2011-10-01T06:35:55Z</time>
      </trkpt>
      <trkpt lat="44.05873" lon="7.39507">
        <ele>1811.7399902344</ele>
        <time>2011-10-01T06:36:18Z</time>
      </trkpt>
      <trkpt lat="44.05873" lon="7.39507">
        <ele>1808.8599853516</ele>
        <time>2011-10-01T06:36:20Z</time>
      </trkpt>
      <trkpt lat="44.05873" lon="7.39507">
        <ele>1809.3399658203</ele>
        <time>2011-10-01T06:36:21Z</time>
      </trkpt>
      <trkpt lat="44.05873" lon="7.39507">
        <ele>1807.9000244141</ele>
        <time>2011-10-01T06:36:25Z</time>
      </trkpt>
      <trkpt lat="44.05873" lon="7.39507">
        <ele>1810.7800292969</ele>
        <time>2011-10-01T06:36:45Z</time>
      </trkpt>
      <trkpt lat="44.05873" lon="7.39507">
        <ele>1806.4499511719</ele>
        <time>2011-10-01T06:36:47Z</time>
      </trkpt>
      <trkpt lat="44.05873" lon="7.39507">
        <ele>1810.3000488281</ele>
        <time>2011-10-01T06:36:48Z</time>
      </trkpt>
      <trkpt lat="44.05873" lon="7.39507">
        <ele>1806.9399414062</ele>
        <time>2011-10-01T06:36:53Z</time>
      </trkpt>
      <trkpt lat="44.05873" lon="7.39507">
        <ele>1811.7399902344</ele>
        <time>2011-10-01T06:36:56Z</time>
      </trkpt>
      <trkpt lat="44.05873" lon="7.39507">
        <ele>1808.3800048828</ele>
        <time>2011-10-01T06:36:57Z</time>
      </trkpt>
      <trkpt lat="44.05873" lon="7.39507">
        <ele>1805.0100097656</ele>
        <time>2011-10-01T06:37:04Z</time>
      </trkpt>
      <trkpt lat="44.05873" lon="7.39507">
        <ele>1810.7800292969</ele>
        <time>2011-10-01T06:37:06Z</time>
      </trkpt>
      <trkpt lat="44.05873" lon="7.39507">
        <ele>1807.4200439453</ele>
        <time>2011-10-01T06:37:07Z</time>
      </trkpt>
      <trkpt lat="44.05873" lon="7.39507">
        <ele>1813.6600341797</ele>
        <time>2011-10-01T06:37:09Z</time>
      </trkpt>
      <trkpt lat="44.05873" lon="7.39507">
        <ele>1808.8599853516</ele>
        <time>2011-10-01T06:37:10Z</time>
      </trkpt>
      <trkpt lat="44.05873" lon="7.39507">
        <ele>1806.9399414062</ele>
        <time>2011-10-01T06:37:12Z</time>
      </trkpt>
      <trkpt lat="44.05873" lon="7.39507">
        <ele>1808.8599853516</ele>
        <time>2011-10-01T06:37:14Z</time>
      </trkpt>
      <trkpt lat="44.05873" lon="7.39507">
        <ele>1810.7800292969</ele>
        <time>2011-10-01T06:37:23Z</time>
      </trkpt>
      <trkpt lat="44.05873" lon="7.39507">
        <ele>1807.4200439453</ele>
        <time>2011-10-01T06:37:26Z</time>
      </trkpt>
      <trkpt lat="44.05873" lon="7.39508">
        <ele>1812.6999511719</ele>
        <time>2011-10-01T06:37:29Z</time>
      </trkpt>
      <trkpt lat="44.05873" lon="7.39508">
        <ele>1807.4200439453</ele>
        <time>2011-10-01T06:37:30Z</time>
      </trkpt>
      <trkpt lat="44.05873" lon="7.39508">
        <ele>1808.8599853516</ele>
        <time>2011-10-01T06:37:31Z</time>
      </trkpt>
      <trkpt lat="44.05879" lon="7.39514">
        <ele>1815.5899658203</ele>
        <time>2011-10-01T06:37:38Z</time>
      </trkpt>
      <trkpt lat="44.0588" lon="7.39515">
        <ele>1809.3399658203</ele>
        <time>2011-10-01T06:37:39Z</time>
      </trkpt>
      <trkpt lat="44.0588" lon="7.39516">
        <ele>1810.7800292969</ele>
        <time>2011-10-01T06:37:40Z</time>
      </trkpt>
      <trkpt lat="44.0588" lon="7.39517">
        <ele>1814.1500244141</ele>
        <time>2011-10-01T06:37:41Z</time>
      </trkpt>
      <trkpt lat="44.05881" lon="7.39518">
        <ele>1807.9000244141</ele>
        <time>2011-10-01T06:37:42Z</time>
      </trkpt>
      <trkpt lat="44.05881" lon="7.3952">
        <ele>1813.1800537109</ele>
        <time>2011-10-01T06:37:44Z</time>
      </trkpt>
      <trkpt lat="44.05884" lon="7.39531">
        <ele>1814.1500244141</ele>
        <time>2011-10-01T06:37:53Z</time>
      </trkpt>
      <trkpt lat="44.05887" lon="7.39534">
        <ele>1810.7800292969</ele>
        <time>2011-10-01T06:37:56Z</time>
      </trkpt>
      <trkpt lat="44.05888" lon="7.39535">
        <ele>1812.6999511719</ele>
        <time>2011-10-01T06:37:57Z</time>
      </trkpt>
      <trkpt lat="44.05888" lon="7.39536">
        <ele>1816.5500488281</ele>
        <time>2011-10-01T06:37:59Z</time>
      </trkpt>
      <trkpt lat="44.05888" lon="7.39537">
        <ele>1816.5500488281</ele>
        <time>2011-10-01T06:38:00Z</time>
      </trkpt>
      <trkpt lat="44.0589" lon="7.39543">
        <ele>1816.5500488281</ele>
        <time>2011-10-01T06:38:07Z</time>
      </trkpt>
      <trkpt lat="44.05892" lon="7.39546">
        <ele>1818.4699707031</ele>
        <time>2011-10-01T06:38:10Z</time>
      </trkpt>
      <trkpt lat="44.05893" lon="7.39549">
        <ele>1824.2399902344</ele>
        <time>2011-10-01T06:38:14Z</time>
      </trkpt>
      <trkpt lat="44.05893" lon="7.3955">
        <ele>1819.9100341797</ele>
        <time>2011-10-01T06:38:15Z</time>
      </trkpt>
      <trkpt lat="44.05893" lon="7.39552">
        <ele>1817.9899902344</ele>
        <time>2011-10-01T06:38:17Z</time>
      </trkpt>
      <trkpt lat="44.05893" lon="7.39553">
        <ele>1821.8399658203</ele>
        <time>2011-10-01T06:38:18Z</time>
      </trkpt>
      <trkpt lat="44.05893" lon="7.39554">
        <ele>1819.9100341797</ele>
        <time>2011-10-01T06:38:19Z</time>
      </trkpt>
      <trkpt lat="44.05894" lon="7.39557">
        <ele>1825.1999511719</ele>
        <time>2011-10-01T06:38:22Z</time>
      </trkpt>
      <trkpt lat="44.05894" lon="7.39558">
        <ele>1821.3499755859</ele>
        <time>2011-10-01T06:38:23Z</time>
      </trkpt>
      <trkpt lat="44.05894" lon="7.39559">
        <ele>1817.5100097656</ele>
        <time>2011-10-01T06:38:25Z</time>
      </trkpt>
      <trkpt lat="44.05894" lon="7.3956">
        <ele>1824.2399902344</ele>
        <time>2011-10-01T06:38:26Z</time>
      </trkpt>
      <trkpt lat="44.05895" lon="7.39561">
        <ele>1824.7199707031</ele>
        <time>2011-10-01T06:38:27Z</time>
      </trkpt>
      <trkpt lat="44.05895" lon="7.39562">
        <ele>1821.3499755859</ele>
        <time>2011-10-01T06:38:28Z</time>
      </trkpt>
      <trkpt lat="44.05895" lon="7.39563">
        <ele>1826.6400146484</ele>
        <time>2011-10-01T06:38:29Z</time>
      </trkpt>
      <trkpt lat="44.05896" lon="7.39564">
        <ele>1822.8000488281</ele>
        <time>2011-10-01T06:38:30Z</time>
      </trkpt>
      <trkpt lat="44.05896" lon="7.39566">
        <ele>1826.6400146484</ele>
        <time>2011-10-01T06:38:32Z</time>
      </trkpt>
      <trkpt lat="44.05897" lon="7.39569">
        <ele>1822.8000488281</ele>
        <time>2011-10-01T06:38:34Z</time>
      </trkpt>
      <trkpt lat="44.05898" lon="7.3957">
        <ele>1825.6800537109</ele>
        <time>2011-10-01T06:38:35Z</time>
      </trkpt>
      <trkpt lat="44.05906" lon="7.39579">
        <ele>1828.5600585938</ele>
        <time>2011-10-01T06:38:43Z</time>
      </trkpt>
      <trkpt lat="44.05914" lon="7.39587">
        <ele>1830.0100097656</ele>
        <time>2011-10-01T06:38:53Z</time>
      </trkpt>
      <trkpt lat="44.05915" lon="7.39589">
        <ele>1830.9699707031</ele>
        <time>2011-10-01T06:38:55Z</time>
      </trkpt>
      <trkpt lat="44.05922" lon="7.39592">
        <ele>1830.4899902344</ele>
        <time>2011-10-01T06:39:04Z</time>
      </trkpt>
      <trkpt lat="44.05924" lon="7.39595">
        <ele>1833.3699951172</ele>
        <time>2011-10-01T06:39:07Z</time>
      </trkpt>
      <trkpt lat="44.05925" lon="7.39597">
        <ele>1832.4100341797</ele>
        <time>2011-10-01T06:39:08Z</time>
      </trkpt>
      <trkpt lat="44.05927" lon="7.39604">
        <ele>1831.4499511719</ele>
        <time>2011-10-01T06:39:13Z</time>
      </trkpt>
      <trkpt lat="44.05928" lon="7.39608">
        <ele>1834.8100585938</ele>
        <time>2011-10-01T06:39:15Z</time>
      </trkpt>
      <trkpt lat="44.05929" lon="7.3961">
        <ele>1834.8100585938</ele>
        <time>2011-10-01T06:39:17Z</time>
      </trkpt>
      <trkpt lat="44.05934" lon="7.39616">
        <ele>1834.8100585938</ele>
        <time>2011-10-01T06:39:21Z</time>
      </trkpt>
      <trkpt lat="44.05937" lon="7.39619">
        <ele>1833.3699951172</ele>
        <time>2011-10-01T06:39:23Z</time>
      </trkpt>
      <trkpt lat="44.05944" lon="7.39628">
        <ele>1837.6999511719</ele>
        <time>2011-10-01T06:39:28Z</time>
      </trkpt>
      <trkpt lat="44.05946" lon="7.39637">
        <ele>1838.1800537109</ele>
        <time>2011-10-01T06:39:32Z</time>
      </trkpt>
      <trkpt lat="44.0595" lon="7.39644">
        <ele>1835.7700195312</ele>
        <time>2011-10-01T06:39:37Z</time>
      </trkpt>
      <trkpt lat="44.05951" lon="7.39647">
        <ele>1838.1800537109</ele>
        <time>2011-10-01T06:39:39Z</time>
      </trkpt>
      <trkpt lat="44.05954" lon="7.39654">
        <ele>1843.9499511719</ele>
        <time>2011-10-01T06:39:44Z</time>
      </trkpt>
      <trkpt lat="44.05954" lon="7.39655">
        <ele>1841.5400390625</ele>
        <time>2011-10-01T06:39:45Z</time>
      </trkpt>
      <trkpt lat="44.05961" lon="7.39669">
        <ele>1839.6199951172</ele>
        <time>2011-10-01T06:39:55Z</time>
      </trkpt>
      <trkpt lat="44.05962" lon="7.39672">
        <ele>1842.9799804688</ele>
        <time>2011-10-01T06:39:56Z</time>
      </trkpt>
      <trkpt lat="44.05963" lon="7.39674">
        <ele>1842.0200195312</ele>
        <time>2011-10-01T06:39:57Z</time>
      </trkpt>
      <trkpt lat="44.05965" lon="7.39675">
        <ele>1846.3499755859</ele>
        <time>2011-10-01T06:39:58Z</time>
      </trkpt>
      <trkpt lat="44.05966" lon="7.39676">
        <ele>1840.5799560547</ele>
        <time>2011-10-01T06:39:59Z</time>
      </trkpt>
      <trkpt lat="44.05969" lon="7.39679">
        <ele>1849.2299804688</ele>
        <time>2011-10-01T06:40:03Z</time>
      </trkpt>
      <trkpt lat="44.0597" lon="7.3968">
        <ele>1842.5</ele>
        <time>2011-10-01T06:40:04Z</time>
      </trkpt>
      <trkpt lat="44.0597" lon="7.3968">
        <ele>1845.8699951172</ele>
        <time>2011-10-01T06:40:05Z</time>
      </trkpt>
      <trkpt lat="44.05975" lon="7.39684">
        <ele>1843.9499511719</ele>
        <time>2011-10-01T06:40:11Z</time>
      </trkpt>
      <trkpt lat="44.05976" lon="7.39684">
        <ele>1850.1899414062</ele>
        <time>2011-10-01T06:40:13Z</time>
      </trkpt>
      <trkpt lat="44.05978" lon="7.39685">
        <ele>1845.8699951172</ele>
        <time>2011-10-01T06:40:14Z</time>
      </trkpt>
      <trkpt lat="44.05979" lon="7.39685">
        <ele>1849.2299804688</ele>
        <time>2011-10-01T06:40:15Z</time>
      </trkpt>
      <trkpt lat="44.0598" lon="7.39685">
        <ele>1845.3900146484</ele>
        <time>2011-10-01T06:40:16Z</time>
      </trkpt>
      <trkpt lat="44.05983" lon="7.39685">
        <ele>1849.7099609375</ele>
        <time>2011-10-01T06:40:18Z</time>
      </trkpt>
      <trkpt lat="44.05984" lon="7.39685">
        <ele>1847.7900390625</ele>
        <time>2011-10-01T06:40:19Z</time>
      </trkpt>
      <trkpt lat="44.05994" lon="7.39688">
        <ele>1851.6400146484</ele>
        <time>2011-10-01T06:40:26Z</time>
      </trkpt>
      <trkpt lat="44.05996" lon="7.3969">
        <ele>1852.5999755859</ele>
        <time>2011-10-01T06:40:30Z</time>
      </trkpt>
      <trkpt lat="44.05996" lon="7.39691">
        <ele>1848.75</ele>
        <time>2011-10-01T06:40:32Z</time>
      </trkpt>
      <trkpt lat="44.05997" lon="7.39691">
        <ele>1852.5999755859</ele>
        <time>2011-10-01T06:40:33Z</time>
      </trkpt>
      <trkpt lat="44.06001" lon="7.39692">
        <ele>1852.5999755859</ele>
        <time>2011-10-01T06:40:39Z</time>
      </trkpt>
      <trkpt lat="44.06005" lon="7.39693">
        <ele>1854.0400390625</ele>
        <time>2011-10-01T06:40:42Z</time>
      </trkpt>
      <trkpt lat="44.06007" lon="7.39699">
        <ele>1853.5600585938</ele>
        <time>2011-10-01T06:40:47Z</time>
      </trkpt>
      <trkpt lat="44.06009" lon="7.39701">
        <ele>1852.5999755859</ele>
        <time>2011-10-01T06:40:49Z</time>
      </trkpt>
      <trkpt lat="44.06022" lon="7.39703">
        <ele>1858.8499755859</ele>
        <time>2011-10-01T06:40:59Z</time>
      </trkpt>
      <trkpt lat="44.06021" lon="7.39703">
        <ele>1855</ele>
        <time>2011-10-01T06:41:12Z</time>
      </trkpt>
      <trkpt lat="44.06025" lon="7.39709">
        <ele>1857.8900146484</ele>
        <time>2011-10-01T06:41:18Z</time>
      </trkpt>
      <trkpt lat="44.06037" lon="7.39725">
        <ele>1858.3699951172</ele>
        <time>2011-10-01T06:41:31Z</time>
      </trkpt>
      <trkpt lat="44.06043" lon="7.39728">
        <ele>1857.8900146484</ele>
        <time>2011-10-01T06:41:36Z</time>
      </trkpt>
      <trkpt lat="44.06048" lon="7.39733">
        <ele>1861.25</ele>
        <time>2011-10-01T06:41:40Z</time>
      </trkpt>
      <trkpt lat="44.0605" lon="7.39736">
        <ele>1858.3699951172</ele>
        <time>2011-10-01T06:41:42Z</time>
      </trkpt>
      <trkpt lat="44.06052" lon="7.39737">
        <ele>1862.2099609375</ele>
        <time>2011-10-01T06:41:43Z</time>
      </trkpt>
      <trkpt lat="44.06056" lon="7.39739">
        <ele>1862.2099609375</ele>
        <time>2011-10-01T06:41:46Z</time>
      </trkpt>
      <trkpt lat="44.06059" lon="7.39742">
        <ele>1863.1700439453</ele>
        <time>2011-10-01T06:41:48Z</time>
      </trkpt>
      <trkpt lat="44.0606" lon="7.39743">
        <ele>1864.6099853516</ele>
        <time>2011-10-01T06:41:49Z</time>
      </trkpt>
      <trkpt lat="44.06073" lon="7.39758">
        <ele>1868.4599609375</ele>
        <time>2011-10-01T06:42:00Z</time>
      </trkpt>
      <trkpt lat="44.0608" lon="7.39774">
        <ele>1869.4200439453</ele>
        <time>2011-10-01T06:42:08Z</time>
      </trkpt>
      <trkpt lat="44.06085" lon="7.39784">
        <ele>1868.9399414062</ele>
        <time>2011-10-01T06:42:20Z</time>
      </trkpt>
      <trkpt lat="44.06087" lon="7.39783">
        <ele>1870.8599853516</ele>
        <time>2011-10-01T06:42:33Z</time>
      </trkpt>
      <trkpt lat="44.06088" lon="7.39791">
        <ele>1870.8599853516</ele>
        <time>2011-10-01T06:42:43Z</time>
      </trkpt>
      <trkpt lat="44.0609" lon="7.39796">
        <ele>1871.8199462891</ele>
        <time>2011-10-01T06:42:47Z</time>
      </trkpt>
      <trkpt lat="44.06091" lon="7.39809">
        <ele>1869.9000244141</ele>
        <time>2011-10-01T06:42:59Z</time>
      </trkpt>
      <trkpt lat="44.06092" lon="7.39817">
        <ele>1870.3800048828</ele>
        <time>2011-10-01T06:43:13Z</time>
      </trkpt>
      <trkpt lat="44.06099" lon="7.3982">
        <ele>1869.9000244141</ele>
        <time>2011-10-01T06:43:19Z</time>
      </trkpt>
      <trkpt lat="44.0611" lon="7.39835">
        <ele>1871.3399658203</ele>
        <time>2011-10-01T06:43:28Z</time>
      </trkpt>
      <trkpt lat="44.06112" lon="7.39842">
        <ele>1869.9000244141</ele>
        <time>2011-10-01T06:43:31Z</time>
      </trkpt>
      <trkpt lat="44.06119" lon="7.39843">
        <ele>1867.9799804688</ele>
        <time>2011-10-01T06:43:35Z</time>
      </trkpt>
      <trkpt lat="44.06122" lon="7.39844">
        <ele>1869.4200439453</ele>
        <time>2011-10-01T06:43:38Z</time>
      </trkpt>
      <trkpt lat="44.06123" lon="7.39852">
        <ele>1869.9000244141</ele>
        <time>2011-10-01T06:43:50Z</time>
      </trkpt>
      <trkpt lat="44.06126" lon="7.39859">
        <ele>1871.3399658203</ele>
        <time>2011-10-01T06:43:55Z</time>
      </trkpt>
      <trkpt lat="44.06131" lon="7.39895">
        <ele>1872.7900390625</ele>
        <time>2011-10-01T06:44:05Z</time>
      </trkpt>
      <trkpt lat="44.06132" lon="7.399">
        <ele>1872.3000488281</ele>
        <time>2011-10-01T06:44:07Z</time>
      </trkpt>
      <trkpt lat="44.06133" lon="7.39907">
        <ele>1872.3000488281</ele>
        <time>2011-10-01T06:44:11Z</time>
      </trkpt>
      <trkpt lat="44.06134" lon="7.39911">
        <ele>1871.8199462891</ele>
        <time>2011-10-01T06:44:13Z</time>
      </trkpt>
      <trkpt lat="44.06134" lon="7.39917">
        <ele>1873.2700195312</ele>
        <time>2011-10-01T06:44:16Z</time>
      </trkpt>
      <trkpt lat="44.06131" lon="7.39931">
        <ele>1874.2299804688</ele>
        <time>2011-10-01T06:44:23Z</time>
      </trkpt>
      <trkpt lat="44.06126" lon="7.39935">
        <ele>1874.2299804688</ele>
        <time>2011-10-01T06:44:26Z</time>
      </trkpt>
      <trkpt lat="44.06124" lon="7.39948">
        <ele>1876.1500244141</ele>
        <time>2011-10-01T06:44:32Z</time>
      </trkpt>
      <trkpt lat="44.06126" lon="7.3997">
        <ele>1875.6700439453</ele>
        <time>2011-10-01T06:44:40Z</time>
      </trkpt>
      <trkpt lat="44.06127" lon="7.39976">
        <ele>1878.5500488281</ele>
        <time>2011-10-01T06:44:43Z</time>
      </trkpt>
      <trkpt lat="44.06129" lon="7.39981">
        <ele>1878.5500488281</ele>
        <time>2011-10-01T06:44:46Z</time>
      </trkpt>
      <trkpt lat="44.06131" lon="7.39994">
        <ele>1880.9599609375</ele>
        <time>2011-10-01T06:44:56Z</time>
      </trkpt>
      <trkpt lat="44.06134" lon="7.40001">
        <ele>1882.4000244141</ele>
        <time>2011-10-01T06:45:04Z</time>
      </trkpt>
      <trkpt lat="44.06138" lon="7.40013">
        <ele>1886.2399902344</ele>
        <time>2011-10-01T06:45:15Z</time>
      </trkpt>
      <trkpt lat="44.06146" lon="7.40018">
        <ele>1888.1700439453</ele>
        <time>2011-10-01T06:45:24Z</time>
      </trkpt>
      <trkpt lat="44.06152" lon="7.40018">
        <ele>1889.1300048828</ele>
        <time>2011-10-01T06:45:29Z</time>
      </trkpt>
      <trkpt lat="44.06168" lon="7.40018">
        <ele>1889.6099853516</ele>
        <time>2011-10-01T06:45:41Z</time>
      </trkpt>
      <trkpt lat="44.06171" lon="7.40024">
        <ele>1890.5699462891</ele>
        <time>2011-10-01T06:45:46Z</time>
      </trkpt>
      <trkpt lat="44.06161" lon="7.40038">
        <ele>1892.9699707031</ele>
        <time>2011-10-01T06:45:56Z</time>
      </trkpt>
      <trkpt lat="44.06161" lon="7.40044">
        <ele>1894.9000244141</ele>
        <time>2011-10-01T06:46:02Z</time>
      </trkpt>
      <trkpt lat="44.06168" lon="7.40055">
        <ele>1896.8199462891</ele>
        <time>2011-10-01T06:46:16Z</time>
      </trkpt>
      <trkpt lat="44.06164" lon="7.40064">
        <ele>1900.1800537109</ele>
        <time>2011-10-01T06:46:27Z</time>
      </trkpt>
      <trkpt lat="44.06153" lon="7.40071">
        <ele>1903.0699462891</ele>
        <time>2011-10-01T06:46:38Z</time>
      </trkpt>
      <trkpt lat="44.06147" lon="7.40074">
        <ele>1905.9499511719</ele>
        <time>2011-10-01T06:46:48Z</time>
      </trkpt>
      <trkpt lat="44.06139" lon="7.40085">
        <ele>1909.3199462891</ele>
        <time>2011-10-01T06:47:01Z</time>
      </trkpt>
      <trkpt lat="44.0613" lon="7.40088">
        <ele>1910.7600097656</ele>
        <time>2011-10-01T06:47:08Z</time>
      </trkpt>
      <trkpt lat="44.06123" lon="7.40091">
        <ele>1912.1999511719</ele>
        <time>2011-10-01T06:47:14Z</time>
      </trkpt>
      <trkpt lat="44.06113" lon="7.4009">
        <ele>1914.1199951172</ele>
        <time>2011-10-01T06:47:26Z</time>
      </trkpt>
      <trkpt lat="44.06105" lon="7.40094">
        <ele>1916.5300292969</ele>
        <time>2011-10-01T06:47:36Z</time>
      </trkpt>
      <trkpt lat="44.06091" lon="7.40106">
        <ele>1919.4100341797</ele>
        <time>2011-10-01T06:47:51Z</time>
      </trkpt>
      <trkpt lat="44.06088" lon="7.40109">
        <ele>1921.8100585938</ele>
        <time>2011-10-01T06:47:57Z</time>
      </trkpt>
      <trkpt lat="44.06079" lon="7.4012">
        <ele>1924.2199707031</ele>
        <time>2011-10-01T06:48:07Z</time>
      </trkpt>
      <trkpt lat="44.06073" lon="7.40127">
        <ele>1928.0600585938</ele>
        <time>2011-10-01T06:48:19Z</time>
      </trkpt>
      <trkpt lat="44.0607" lon="7.40132">
        <ele>1929.0200195312</ele>
        <time>2011-10-01T06:48:25Z</time>
      </trkpt>
      <trkpt lat="44.06061" lon="7.40137">
        <ele>1931.4300537109</ele>
        <time>2011-10-01T06:48:34Z</time>
      </trkpt>
      <trkpt lat="44.06052" lon="7.40148">
        <ele>1934.7900390625</ele>
        <time>2011-10-01T06:48:49Z</time>
      </trkpt>
      <trkpt lat="44.0605" lon="7.40154">
        <ele>1936.7099609375</ele>
        <time>2011-10-01T06:48:58Z</time>
      </trkpt>
      <trkpt lat="44.06041" lon="7.40164">
        <ele>1940.0799560547</ele>
        <time>2011-10-01T06:49:10Z</time>
      </trkpt>
      <trkpt lat="44.06037" lon="7.4018">
        <ele>1943.9200439453</ele>
        <time>2011-10-01T06:49:25Z</time>
      </trkpt>
      <trkpt lat="44.0603" lon="7.40192">
        <ele>1947.2900390625</ele>
        <time>2011-10-01T06:49:38Z</time>
      </trkpt>
      <trkpt lat="44.06029" lon="7.40204">
        <ele>1949.6899414062</ele>
        <time>2011-10-01T06:49:49Z</time>
      </trkpt>
      <trkpt lat="44.0603" lon="7.40207">
        <ele>1953.0600585938</ele>
        <time>2011-10-01T06:49:58Z</time>
      </trkpt>
      <trkpt lat="44.06022" lon="7.40218">
        <ele>1956.4200439453</ele>
        <time>2011-10-01T06:50:14Z</time>
      </trkpt>
      <trkpt lat="44.06021" lon="7.40219">
        <ele>1954.9799804688</ele>
        <time>2011-10-01T06:50:15Z</time>
      </trkpt>
      <trkpt lat="44.06018" lon="7.40231">
        <ele>1958.3399658203</ele>
        <time>2011-10-01T06:50:27Z</time>
      </trkpt>
      <trkpt lat="44.06017" lon="7.40234">
        <ele>1959.3000488281</ele>
        <time>2011-10-01T06:50:31Z</time>
      </trkpt>
      <trkpt lat="44.06015" lon="7.40242">
        <ele>1960.75</ele>
        <time>2011-10-01T06:50:37Z</time>
      </trkpt>
      <trkpt lat="44.06015" lon="7.4025">
        <ele>1964.5899658203</ele>
        <time>2011-10-01T06:50:50Z</time>
      </trkpt>
      <trkpt lat="44.06013" lon="7.40262">
        <ele>1967.9599609375</ele>
        <time>2011-10-01T06:51:01Z</time>
      </trkpt>
      <trkpt lat="44.0601" lon="7.40264">
        <ele>1968.9200439453</ele>
        <time>2011-10-01T06:51:06Z</time>
      </trkpt>
      <trkpt lat="44.05999" lon="7.40276">
        <ele>1972.7600097656</ele>
        <time>2011-10-01T06:51:22Z</time>
      </trkpt>
      <trkpt lat="44.05993" lon="7.40281">
        <ele>1972.2800292969</ele>
        <time>2011-10-01T06:51:39Z</time>
      </trkpt>
      <trkpt lat="44.05989" lon="7.40282">
        <ele>1972.7600097656</ele>
        <time>2011-10-01T06:51:54Z</time>
      </trkpt>
      <trkpt lat="44.05981" lon="7.40309">
        <ele>1974.6899414062</ele>
        <time>2011-10-01T06:52:22Z</time>
      </trkpt>
      <trkpt lat="44.05979" lon="7.40309">
        <ele>1974.1999511719</ele>
        <time>2011-10-01T06:52:46Z</time>
      </trkpt>
      <trkpt lat="44.05979" lon="7.40309">
        <ele>1973.7199707031</ele>
        <time>2011-10-01T06:52:51Z</time>
      </trkpt>
      <trkpt lat="44.0598" lon="7.40321">
        <ele>1975.6500244141</ele>
        <time>2011-10-01T06:53:13Z</time>
      </trkpt>
      <trkpt lat="44.05981" lon="7.40324">
        <ele>1978.5300292969</ele>
        <time>2011-10-01T06:53:16Z</time>
      </trkpt>
      <trkpt lat="44.05981" lon="7.40326">
        <ele>1976.6099853516</ele>
        <time>2011-10-01T06:53:17Z</time>
      </trkpt>
      <trkpt lat="44.05982" lon="7.40347">
        <ele>1978.5300292969</ele>
        <time>2011-10-01T06:53:32Z</time>
      </trkpt>
      <trkpt lat="44.05983" lon="7.40349">
        <ele>1979.0100097656</ele>
        <time>2011-10-01T06:53:33Z</time>
      </trkpt>
      <trkpt lat="44.05985" lon="7.40367">
        <ele>1980.4499511719</ele>
        <time>2011-10-01T06:53:43Z</time>
      </trkpt>
      <trkpt lat="44.05986" lon="7.40374">
        <ele>1981.4100341797</ele>
        <time>2011-10-01T06:53:49Z</time>
      </trkpt>
      <trkpt lat="44.05984" lon="7.40385">
        <ele>1983.3399658203</ele>
        <time>2011-10-01T06:53:59Z</time>
      </trkpt>
      <trkpt lat="44.05983" lon="7.40394">
        <ele>1983.8199462891</ele>
        <time>2011-10-01T06:54:03Z</time>
      </trkpt>
      <trkpt lat="44.05981" lon="7.40403">
        <ele>1985.7399902344</ele>
        <time>2011-10-01T06:54:09Z</time>
      </trkpt>
      <trkpt lat="44.05982" lon="7.40405">
        <ele>1987.1800537109</ele>
        <time>2011-10-01T06:54:13Z</time>
      </trkpt>
      <trkpt lat="44.05983" lon="7.40407">
        <ele>1987.6600341797</ele>
        <time>2011-10-01T06:54:16Z</time>
      </trkpt>
      <trkpt lat="44.05981" lon="7.40411">
        <ele>1988.6199951172</ele>
        <time>2011-10-01T06:54:23Z</time>
      </trkpt>
      <trkpt lat="44.05983" lon="7.40416">
        <ele>1991.0300292969</ele>
        <time>2011-10-01T06:54:29Z</time>
      </trkpt>
      <trkpt lat="44.05978" lon="7.40426">
        <ele>1992.4699707031</ele>
        <time>2011-10-01T06:54:38Z</time>
      </trkpt>
      <trkpt lat="44.05972" lon="7.40432">
        <ele>1992.9499511719</ele>
        <time>2011-10-01T06:54:43Z</time>
      </trkpt>
      <trkpt lat="44.05963" lon="7.40443">
        <ele>1995.8299560547</ele>
        <time>2011-10-01T06:54:54Z</time>
      </trkpt>
      <trkpt lat="44.05953" lon="7.40442">
        <ele>1999.1999511719</ele>
        <time>2011-10-01T06:55:05Z</time>
      </trkpt>
      <trkpt lat="44.0595" lon="7.40446">
        <ele>2000.1600341797</ele>
        <time>2011-10-01T06:55:09Z</time>
      </trkpt>
      <trkpt lat="44.05949" lon="7.40453">
        <ele>2001.1199951172</ele>
        <time>2011-10-01T06:55:13Z</time>
      </trkpt>
      <trkpt lat="44.05947" lon="7.40456">
        <ele>2004.4899902344</ele>
        <time>2011-10-01T06:55:25Z</time>
      </trkpt>
      <trkpt lat="44.05939" lon="7.40457">
        <ele>2007.3699951172</ele>
        <time>2011-10-01T06:55:35Z</time>
      </trkpt>
      <trkpt lat="44.05932" lon="7.40466">
        <ele>2011.2199707031</ele>
        <time>2011-10-01T06:55:46Z</time>
      </trkpt>
      <trkpt lat="44.0593" lon="7.4047">
        <ele>2011.6999511719</ele>
        <time>2011-10-01T06:55:50Z</time>
      </trkpt>
      <trkpt lat="44.05928" lon="7.40472">
        <ele>2011.6999511719</ele>
        <time>2011-10-01T06:55:52Z</time>
      </trkpt>
      <trkpt lat="44.05922" lon="7.40477">
        <ele>2013.1400146484</ele>
        <time>2011-10-01T06:55:58Z</time>
      </trkpt>
      <trkpt lat="44.05917" lon="7.40479">
        <ele>2014.5799560547</ele>
        <time>2011-10-01T06:56:04Z</time>
      </trkpt>
      <trkpt lat="44.05914" lon="7.40479">
        <ele>2015.0600585938</ele>
        <time>2011-10-01T06:56:07Z</time>
      </trkpt>
      <trkpt lat="44.05904" lon="7.40485">
        <ele>2017.4599609375</ele>
        <time>2011-10-01T06:56:19Z</time>
      </trkpt>
      <trkpt lat="44.05898" lon="7.40492">
        <ele>2020.8299560547</ele>
        <time>2011-10-01T06:56:29Z</time>
      </trkpt>
      <trkpt lat="44.05895" lon="7.40502">
        <ele>2023.7099609375</ele>
        <time>2011-10-01T06:56:41Z</time>
      </trkpt>
      <trkpt lat="44.05888" lon="7.40515">
        <ele>2027.0799560547</ele>
        <time>2011-10-01T06:56:55Z</time>
      </trkpt>
      <trkpt lat="44.05881" lon="7.40519">
        <ele>2029</ele>
        <time>2011-10-01T06:57:02Z</time>
      </trkpt>
      <trkpt lat="44.05875" lon="7.40528">
        <ele>2032.3599853516</ele>
        <time>2011-10-01T06:57:15Z</time>
      </trkpt>
      <trkpt lat="44.05881" lon="7.40529">
        <ele>2033.3299560547</ele>
        <time>2011-10-01T06:57:20Z</time>
      </trkpt>
      <trkpt lat="44.05901" lon="7.40539">
        <ele>2037.1700439453</ele>
        <time>2011-10-01T06:57:37Z</time>
      </trkpt>
      <trkpt lat="44.05903" lon="7.4054">
        <ele>2037.1700439453</ele>
        <time>2011-10-01T06:57:39Z</time>
      </trkpt>
      <trkpt lat="44.0591" lon="7.40539">
        <ele>2038.6099853516</ele>
        <time>2011-10-01T06:57:47Z</time>
      </trkpt>
      <trkpt lat="44.05914" lon="7.40538">
        <ele>2039.5699462891</ele>
        <time>2011-10-01T06:57:51Z</time>
      </trkpt>
      <trkpt lat="44.05925" lon="7.40535">
        <ele>2041.9799804688</ele>
        <time>2011-10-01T06:58:02Z</time>
      </trkpt>
      <trkpt lat="44.05929" lon="7.40536">
        <ele>2042.9399414062</ele>
        <time>2011-10-01T06:58:06Z</time>
      </trkpt>
      <trkpt lat="44.05932" lon="7.40538">
        <ele>2043.9000244141</ele>
        <time>2011-10-01T06:58:10Z</time>
      </trkpt>
      <trkpt lat="44.05932" lon="7.40541">
        <ele>2043.9000244141</ele>
        <time>2011-10-01T06:58:26Z</time>
      </trkpt>
      <trkpt lat="44.05933" lon="7.40542">
        <ele>2043.9000244141</ele>
        <time>2011-10-01T06:59:05Z</time>
      </trkpt>
      <trkpt lat="44.05934" lon="7.40542">
        <ele>2043.9000244141</ele>
        <time>2011-10-01T06:59:08Z</time>
      </trkpt>
      <trkpt lat="44.05938" lon="7.40547">
        <ele>2047.2600097656</ele>
        <time>2011-10-01T06:59:21Z</time>
      </trkpt>
      <trkpt lat="44.05936" lon="7.40556">
        <ele>2050.1499023438</ele>
        <time>2011-10-01T06:59:31Z</time>
      </trkpt>
      <trkpt lat="44.05938" lon="7.40559">
        <ele>2050.6298828125</ele>
        <time>2011-10-01T06:59:34Z</time>
      </trkpt>
      <trkpt lat="44.05936" lon="7.40563">
        <ele>2051.5900878906</ele>
        <time>2011-10-01T06:59:37Z</time>
      </trkpt>
      <trkpt lat="44.05935" lon="7.40569">
        <ele>2053.5100097656</ele>
        <time>2011-10-01T06:59:44Z</time>
      </trkpt>
      <trkpt lat="44.05933" lon="7.40577">
        <ele>2056.3999023438</ele>
        <time>2011-10-01T06:59:56Z</time>
      </trkpt>
      <trkpt lat="44.0593" lon="7.40583">
        <ele>2058.8000488281</ele>
        <time>2011-10-01T07:00:08Z</time>
      </trkpt>
      <trkpt lat="44.0593" lon="7.40589">
        <ele>2061.1999511719</ele>
        <time>2011-10-01T07:00:16Z</time>
      </trkpt>
      <trkpt lat="44.05927" lon="7.406">
        <ele>2063.1298828125</ele>
        <time>2011-10-01T07:00:28Z</time>
      </trkpt>
      <trkpt lat="44.05926" lon="7.40605">
        <ele>2065.5300292969</ele>
        <time>2011-10-01T07:00:36Z</time>
      </trkpt>
      <trkpt lat="44.05926" lon="7.40617">
        <ele>2069.3798828125</ele>
        <time>2011-10-01T07:00:53Z</time>
      </trkpt>
      <trkpt lat="44.05927" lon="7.40627">
        <ele>2072.2600097656</ele>
        <time>2011-10-01T07:01:08Z</time>
      </trkpt>
      <trkpt lat="44.05926" lon="7.40636">
        <ele>2075.1398925781</ele>
        <time>2011-10-01T07:01:19Z</time>
      </trkpt>
      <trkpt lat="44.05927" lon="7.40648">
        <ele>2078.5100097656</ele>
        <time>2011-10-01T07:01:32Z</time>
      </trkpt>
      <trkpt lat="44.0593" lon="7.40648">
        <ele>2079.4699707031</ele>
        <time>2011-10-01T07:01:39Z</time>
      </trkpt>
      <trkpt lat="44.05928" lon="7.40659">
        <ele>2081.3898925781</ele>
        <time>2011-10-01T07:01:49Z</time>
      </trkpt>
      <trkpt lat="44.05931" lon="7.40664">
        <ele>2083.3100585938</ele>
        <time>2011-10-01T07:02:01Z</time>
      </trkpt>
      <trkpt lat="44.05924" lon="7.40681">
        <ele>2086.1999511719</ele>
        <time>2011-10-01T07:02:15Z</time>
      </trkpt>
      <trkpt lat="44.05918" lon="7.40693">
        <ele>2088.1201171875</ele>
        <time>2011-10-01T07:02:30Z</time>
      </trkpt>
      <trkpt lat="44.05919" lon="7.40697">
        <ele>2089.080078125</ele>
        <time>2011-10-01T07:02:42Z</time>
      </trkpt>
      <trkpt lat="44.05914" lon="7.40716">
        <ele>2091.9699707031</ele>
        <time>2011-10-01T07:02:55Z</time>
      </trkpt>
      <trkpt lat="44.05914" lon="7.40717">
        <ele>2091.4899902344</ele>
        <time>2011-10-01T07:02:56Z</time>
      </trkpt>
      <trkpt lat="44.0591" lon="7.40728">
        <ele>2094.3701171875</ele>
        <time>2011-10-01T07:03:04Z</time>
      </trkpt>
      <trkpt lat="44.05907" lon="7.40738">
        <ele>2095.8100585938</ele>
        <time>2011-10-01T07:03:12Z</time>
      </trkpt>
      <trkpt lat="44.05909" lon="7.40746">
        <ele>2097.25</ele>
        <time>2011-10-01T07:03:19Z</time>
      </trkpt>
      <trkpt lat="44.05909" lon="7.4075">
        <ele>2098.2099609375</ele>
        <time>2011-10-01T07:03:23Z</time>
      </trkpt>
      <trkpt lat="44.05902" lon="7.4076">
        <ele>2100.1398925781</ele>
        <time>2011-10-01T07:03:36Z</time>
      </trkpt>
      <trkpt lat="44.05898" lon="7.40767">
        <ele>2102.5400390625</ele>
        <time>2011-10-01T07:03:48Z</time>
      </trkpt>
      <trkpt lat="44.05896" lon="7.40773">
        <ele>2104.9399414062</ele>
        <time>2011-10-01T07:03:54Z</time>
      </trkpt>
      <trkpt lat="44.05898" lon="7.40777">
        <ele>2104.9399414062</ele>
        <time>2011-10-01T07:03:58Z</time>
      </trkpt>
      <trkpt lat="44.05904" lon="7.40774">
        <ele>2105.9099121094</ele>
        <time>2011-10-01T07:04:04Z</time>
      </trkpt>
      <trkpt lat="44.05912" lon="7.4077">
        <ele>2109.75</ele>
        <time>2011-10-01T07:04:15Z</time>
      </trkpt>
      <trkpt lat="44.05919" lon="7.40767">
        <ele>2111.1899414062</ele>
        <time>2011-10-01T07:04:25Z</time>
      </trkpt>
      <trkpt lat="44.05922" lon="7.40768">
        <ele>2113.1201171875</ele>
        <time>2011-10-01T07:04:32Z</time>
      </trkpt>
      <trkpt lat="44.05932" lon="7.40765">
        <ele>2116</ele>
        <time>2011-10-01T07:04:46Z</time>
      </trkpt>
      <trkpt lat="44.05934" lon="7.40768">
        <ele>2118.3999023438</ele>
        <time>2011-10-01T07:04:55Z</time>
      </trkpt>
      <trkpt lat="44.05936" lon="7.40777">
        <ele>2120.8100585938</ele>
        <time>2011-10-01T07:05:09Z</time>
      </trkpt>
      <trkpt lat="44.0594" lon="7.40774">
        <ele>2122.7299804688</ele>
        <time>2011-10-01T07:05:18Z</time>
      </trkpt>
      <trkpt lat="44.05942" lon="7.40776">
        <ele>2124.169921875</ele>
        <time>2011-10-01T07:05:21Z</time>
      </trkpt>
      <trkpt lat="44.05938" lon="7.40784">
        <ele>2124.169921875</ele>
        <time>2011-10-01T07:05:29Z</time>
      </trkpt>
      <trkpt lat="44.05935" lon="7.40786">
        <ele>2125.1298828125</ele>
        <time>2011-10-01T07:05:34Z</time>
      </trkpt>
      <trkpt lat="44.05932" lon="7.4079">
        <ele>2126.0900878906</ele>
        <time>2011-10-01T07:05:38Z</time>
      </trkpt>
      <trkpt lat="44.05931" lon="7.40793">
        <ele>2125.6101074219</ele>
        <time>2011-10-01T07:05:40Z</time>
      </trkpt>
      <trkpt lat="44.05925" lon="7.40808">
        <ele>2127.0500488281</ele>
        <time>2011-10-01T07:05:49Z</time>
      </trkpt>
      <trkpt lat="44.05923" lon="7.40815">
        <ele>2127.0500488281</ele>
        <time>2011-10-01T07:05:53Z</time>
      </trkpt>
      <trkpt lat="44.0592" lon="7.40823">
        <ele>2128.0200195312</ele>
        <time>2011-10-01T07:05:59Z</time>
      </trkpt>
      <trkpt lat="44.05919" lon="7.40828">
        <ele>2128.5</ele>
        <time>2011-10-01T07:06:03Z</time>
      </trkpt>
      <trkpt lat="44.05918" lon="7.40856">
        <ele>2131.8601074219</ele>
        <time>2011-10-01T07:06:16Z</time>
      </trkpt>
      <trkpt lat="44.0592" lon="7.40856">
        <ele>2131.3798828125</ele>
        <time>2011-10-01T07:06:20Z</time>
      </trkpt>
      <trkpt lat="44.05917" lon="7.40882">
        <ele>2131.8601074219</ele>
        <time>2011-10-01T07:06:32Z</time>
      </trkpt>
      <trkpt lat="44.05918" lon="7.40887">
        <ele>2132.8200683594</ele>
        <time>2011-10-01T07:06:34Z</time>
      </trkpt>
      <trkpt lat="44.05916" lon="7.40901">
        <ele>2133.3000488281</ele>
        <time>2011-10-01T07:06:40Z</time>
      </trkpt>
      <trkpt lat="44.05906" lon="7.40925">
        <ele>2136.669921875</ele>
        <time>2011-10-01T07:06:52Z</time>
      </trkpt>
      <trkpt lat="44.05902" lon="7.40945">
        <ele>2140.0300292969</ele>
        <time>2011-10-01T07:07:01Z</time>
      </trkpt>
      <trkpt lat="44.05902" lon="7.40946">
        <ele>2140.0300292969</ele>
        <time>2011-10-01T07:07:02Z</time>
      </trkpt>
      <trkpt lat="44.059" lon="7.40963">
        <ele>2141.9499511719</ele>
        <time>2011-10-01T07:07:10Z</time>
      </trkpt>
      <trkpt lat="44.05899" lon="7.40975">
        <ele>2143.3999023438</ele>
        <time>2011-10-01T07:07:15Z</time>
      </trkpt>
      <trkpt lat="44.05895" lon="7.40989">
        <ele>2143.3999023438</ele>
        <time>2011-10-01T07:07:21Z</time>
      </trkpt>
      <trkpt lat="44.05894" lon="7.41">
        <ele>2144.3601074219</ele>
        <time>2011-10-01T07:07:26Z</time>
      </trkpt>
      <trkpt lat="44.05893" lon="7.41003">
        <ele>2146.7600097656</ele>
        <time>2011-10-01T07:07:34Z</time>
      </trkpt>
      <trkpt lat="44.05885" lon="7.41008">
        <ele>2148.6799316406</ele>
        <time>2011-10-01T07:07:44Z</time>
      </trkpt>
      <trkpt lat="44.05884" lon="7.41009">
        <ele>2149.1599121094</ele>
        <time>2011-10-01T07:07:45Z</time>
      </trkpt>
      <trkpt lat="44.05881" lon="7.41013">
        <ele>2149.6499023438</ele>
        <time>2011-10-01T07:07:49Z</time>
      </trkpt>
      <trkpt lat="44.05888" lon="7.41021">
        <ele>2152.5300292969</ele>
        <time>2011-10-01T07:07:59Z</time>
      </trkpt>
      <trkpt lat="44.05893" lon="7.4102">
        <ele>2154.4499511719</ele>
        <time>2011-10-01T07:08:16Z</time>
      </trkpt>
      <trkpt lat="44.05893" lon="7.41024">
        <ele>2154.9299316406</ele>
        <time>2011-10-01T07:08:56Z</time>
      </trkpt>
      <trkpt lat="44.0589" lon="7.4103">
        <ele>2157.3400878906</ele>
        <time>2011-10-01T07:09:04Z</time>
      </trkpt>
      <trkpt lat="44.05888" lon="7.41032">
        <ele>2156.8601074219</ele>
        <time>2011-10-01T07:09:07Z</time>
      </trkpt>
      <trkpt lat="44.05873" lon="7.41043">
        <ele>2155.8898925781</ele>
        <time>2011-10-01T07:09:19Z</time>
      </trkpt>
      <trkpt lat="44.05863" lon="7.41059">
        <ele>2155.8898925781</ele>
        <time>2011-10-01T07:09:27Z</time>
      </trkpt>
      <trkpt lat="44.05861" lon="7.41075">
        <ele>2154.9299316406</ele>
        <time>2011-10-01T07:09:32Z</time>
      </trkpt>
      <trkpt lat="44.05861" lon="7.41082">
        <ele>2154.4499511719</ele>
        <time>2011-10-01T07:09:34Z</time>
      </trkpt>
      <trkpt lat="44.05858" lon="7.41093">
        <ele>2154.4499511719</ele>
        <time>2011-10-01T07:09:38Z</time>
      </trkpt>
      <trkpt lat="44.05848" lon="7.41106">
        <ele>2155.4099121094</ele>
        <time>2011-10-01T07:09:46Z</time>
      </trkpt>
      <trkpt lat="44.05838" lon="7.4111">
        <ele>2155.4099121094</ele>
        <time>2011-10-01T07:09:51Z</time>
      </trkpt>
      <trkpt lat="44.05832" lon="7.41112">
        <ele>2155.8898925781</ele>
        <time>2011-10-01T07:09:54Z</time>
      </trkpt>
      <trkpt lat="44.0583" lon="7.41115">
        <ele>2157.3400878906</ele>
        <time>2011-10-01T07:09:57Z</time>
      </trkpt>
      <trkpt lat="44.05829" lon="7.41117">
        <ele>2157.3400878906</ele>
        <time>2011-10-01T07:09:58Z</time>
      </trkpt>
      <trkpt lat="44.05827" lon="7.41125">
        <ele>2159.2600097656</ele>
        <time>2011-10-01T07:10:04Z</time>
      </trkpt>
      <trkpt lat="44.05837" lon="7.4113">
        <ele>2160.2199707031</ele>
        <time>2011-10-01T07:10:10Z</time>
      </trkpt>
      <trkpt lat="44.05841" lon="7.41134">
        <ele>2164.0600585938</ele>
        <time>2011-10-01T07:10:21Z</time>
      </trkpt>
      <trkpt lat="44.05839" lon="7.41138">
        <ele>2162.6201171875</ele>
        <time>2011-10-01T07:10:24Z</time>
      </trkpt>
      <trkpt lat="44.05838" lon="7.4114">
        <ele>2163.580078125</ele>
        <time>2011-10-01T07:10:26Z</time>
      </trkpt>
      <trkpt lat="44.05836" lon="7.41142">
        <ele>2165.9899902344</ele>
        <time>2011-10-01T07:10:28Z</time>
      </trkpt>
      <trkpt lat="44.0583" lon="7.41153">
        <ele>2169.3500976562</ele>
        <time>2011-10-01T07:10:42Z</time>
      </trkpt>
      <trkpt lat="44.05826" lon="7.41165">
        <ele>2171.7600097656</ele>
        <time>2011-10-01T07:10:53Z</time>
      </trkpt>
      <trkpt lat="44.05822" lon="7.41181">
        <ele>2173.6799316406</ele>
        <time>2011-10-01T07:11:08Z</time>
      </trkpt>
      <trkpt lat="44.05816" lon="7.41205">
        <ele>2176.080078125</ele>
        <time>2011-10-01T07:11:23Z</time>
      </trkpt>
      <trkpt lat="44.0581" lon="7.41222">
        <ele>2177.5200195312</ele>
        <time>2011-10-01T07:11:33Z</time>
      </trkpt>
      <trkpt lat="44.05806" lon="7.41232">
        <ele>2178</ele>
        <time>2011-10-01T07:11:38Z</time>
      </trkpt>
      <trkpt lat="44.05801" lon="7.41238">
        <ele>2178.9699707031</ele>
        <time>2011-10-01T07:11:43Z</time>
      </trkpt>
      <trkpt lat="44.05787" lon="7.41256">
        <ele>2180.4099121094</ele>
        <time>2011-10-01T07:11:55Z</time>
      </trkpt>
      <trkpt lat="44.05786" lon="7.41262">
        <ele>2178.9699707031</ele>
        <time>2011-10-01T07:11:58Z</time>
      </trkpt>
      <trkpt lat="44.05786" lon="7.41264">
        <ele>2178.9699707031</ele>
        <time>2011-10-01T07:11:59Z</time>
      </trkpt>
      <trkpt lat="44.05793" lon="7.41285">
        <ele>2179.4499511719</ele>
        <time>2011-10-01T07:12:10Z</time>
      </trkpt>
      <trkpt lat="44.05798" lon="7.41313">
        <ele>2179.4499511719</ele>
        <time>2011-10-01T07:12:26Z</time>
      </trkpt>
      <trkpt lat="44.05798" lon="7.41317">
        <ele>2178.9699707031</ele>
        <time>2011-10-01T07:12:28Z</time>
      </trkpt>
      <trkpt lat="44.05798" lon="7.41329">
        <ele>2178.9699707031</ele>
        <time>2011-10-01T07:12:36Z</time>
      </trkpt>
      <trkpt lat="44.05798" lon="7.41339">
        <ele>2179.4499511719</ele>
        <time>2011-10-01T07:12:44Z</time>
      </trkpt>
      <trkpt lat="44.05796" lon="7.41365">
        <ele>2180.4099121094</ele>
        <time>2011-10-01T07:13:00Z</time>
      </trkpt>
      <trkpt lat="44.05796" lon="7.41376">
        <ele>2180.8898925781</ele>
        <time>2011-10-01T07:13:07Z</time>
      </trkpt>
      <trkpt lat="44.05796" lon="7.41378">
        <ele>2181.3701171875</ele>
        <time>2011-10-01T07:13:09Z</time>
      </trkpt>
      <trkpt lat="44.05796" lon="7.41387">
        <ele>2181.8500976562</ele>
        <time>2011-10-01T07:13:16Z</time>
      </trkpt>
      <trkpt lat="44.05795" lon="7.41397">
        <ele>2184.25</ele>
        <time>2011-10-01T07:13:25Z</time>
      </trkpt>
      <trkpt lat="44.05795" lon="7.41411">
        <ele>2186.6599121094</ele>
        <time>2011-10-01T07:13:38Z</time>
      </trkpt>
      <trkpt lat="44.05796" lon="7.41415">
        <ele>2186.6599121094</ele>
        <time>2011-10-01T07:13:41Z</time>
      </trkpt>
      <trkpt lat="44.05795" lon="7.41427">
        <ele>2189.0600585938</ele>
        <time>2011-10-01T07:13:52Z</time>
      </trkpt>
      <trkpt lat="44.05793" lon="7.41435">
        <ele>2190.5</ele>
        <time>2011-10-01T07:14:03Z</time>
      </trkpt>
      <trkpt lat="44.05795" lon="7.41438">
        <ele>2191.4599609375</ele>
        <time>2011-10-01T07:14:07Z</time>
      </trkpt>
      <trkpt lat="44.05794" lon="7.41443">
        <ele>2192.419921875</ele>
        <time>2011-10-01T07:14:11Z</time>
      </trkpt>
      <trkpt lat="44.05797" lon="7.41452">
        <ele>2193.8701171875</ele>
        <time>2011-10-01T07:14:22Z</time>
      </trkpt>
      <trkpt lat="44.05793" lon="7.41459">
        <ele>2195.3100585938</ele>
        <time>2011-10-01T07:14:34Z</time>
      </trkpt>
      <trkpt lat="44.05798" lon="7.41465">
        <ele>2198.1899414062</ele>
        <time>2011-10-01T07:14:44Z</time>
      </trkpt>
      <trkpt lat="44.05799" lon="7.41471">
        <ele>2199.6298828125</ele>
        <time>2011-10-01T07:14:50Z</time>
      </trkpt>
      <trkpt lat="44.05799" lon="7.41474">
        <ele>2199.6298828125</ele>
        <time>2011-10-01T07:14:53Z</time>
      </trkpt>
      <trkpt lat="44.05796" lon="7.41479">
        <ele>2200.5900878906</ele>
        <time>2011-10-01T07:15:00Z</time>
      </trkpt>
      <trkpt lat="44.05801" lon="7.4149">
        <ele>2202.5200195312</ele>
        <time>2011-10-01T07:15:15Z</time>
      </trkpt>
      <trkpt lat="44.05806" lon="7.41494">
        <ele>2205.8798828125</ele>
        <time>2011-10-01T07:15:25Z</time>
      </trkpt>
      <trkpt lat="44.05813" lon="7.41497">
        <ele>2207.8100585938</ele>
        <time>2011-10-01T07:15:35Z</time>
      </trkpt>
      <trkpt lat="44.05819" lon="7.41505">
        <ele>2211.169921875</ele>
        <time>2011-10-01T07:15:46Z</time>
      </trkpt>
      <trkpt lat="44.05808" lon="7.41518">
        <ele>2213.5700683594</ele>
        <time>2011-10-01T07:15:59Z</time>
      </trkpt>
      <trkpt lat="44.05808" lon="7.4152">
        <ele>2213.0900878906</ele>
        <time>2011-10-01T07:16:01Z</time>
      </trkpt>
      <trkpt lat="44.05811" lon="7.41522">
        <ele>2214.0500488281</ele>
        <time>2011-10-01T07:16:05Z</time>
      </trkpt>
      <trkpt lat="44.05812" lon="7.41528">
        <ele>2216.4599609375</ele>
        <time>2011-10-01T07:16:11Z</time>
      </trkpt>
      <trkpt lat="44.05808" lon="7.41541">
        <ele>2219.8200683594</ele>
        <time>2011-10-01T07:16:25Z</time>
      </trkpt>
      <trkpt lat="44.05808" lon="7.41544">
        <ele>2220.3000488281</ele>
        <time>2011-10-01T07:16:28Z</time>
      </trkpt>
      <trkpt lat="44.05804" lon="7.41553">
        <ele>2221.7399902344</ele>
        <time>2011-10-01T07:16:40Z</time>
      </trkpt>
      <trkpt lat="44.05807" lon="7.41564">
        <ele>2225.1101074219</ele>
        <time>2011-10-01T07:16:51Z</time>
      </trkpt>
      <trkpt lat="44.05803" lon="7.41572">
        <ele>2226.0700683594</ele>
        <time>2011-10-01T07:17:03Z</time>
      </trkpt>
      <trkpt lat="44.058" lon="7.41574">
        <ele>2226.5500488281</ele>
        <time>2011-10-01T07:17:07Z</time>
      </trkpt>
      <trkpt lat="44.05799" lon="7.41577">
        <ele>2226.5500488281</ele>
        <time>2011-10-01T07:17:09Z</time>
      </trkpt>
      <trkpt lat="44.0579" lon="7.41586">
        <ele>2228.4699707031</ele>
        <time>2011-10-01T07:17:20Z</time>
      </trkpt>
      <trkpt lat="44.05788" lon="7.41591">
        <ele>2228.9499511719</ele>
        <time>2011-10-01T07:17:24Z</time>
      </trkpt>
      <trkpt lat="44.05789" lon="7.41598">
        <ele>2230.8798828125</ele>
        <time>2011-10-01T07:17:29Z</time>
      </trkpt>
      <trkpt lat="44.05791" lon="7.41605">
        <ele>2232.3200683594</ele>
        <time>2011-10-01T07:17:39Z</time>
      </trkpt>
      <trkpt lat="44.05792" lon="7.41617">
        <ele>2235.6799316406</ele>
        <time>2011-10-01T07:17:51Z</time>
      </trkpt>
      <trkpt lat="44.05793" lon="7.41624">
        <ele>2238.5700683594</ele>
        <time>2011-10-01T07:18:02Z</time>
      </trkpt>
      <trkpt lat="44.05794" lon="7.41627">
        <ele>2240.0100097656</ele>
        <time>2011-10-01T07:18:06Z</time>
      </trkpt>
      <trkpt lat="44.05796" lon="7.41636">
        <ele>2242.8898925781</ele>
        <time>2011-10-01T07:18:17Z</time>
      </trkpt>
      <trkpt lat="44.05795" lon="7.41643">
        <ele>2245.7800292969</ele>
        <time>2011-10-01T07:18:30Z</time>
      </trkpt>
      <trkpt lat="44.05791" lon="7.41647">
        <ele>2248.6599121094</ele>
        <time>2011-10-01T07:18:42Z</time>
      </trkpt>
      <trkpt lat="44.05788" lon="7.41665">
        <ele>2251.0600585938</ele>
        <time>2011-10-01T07:18:56Z</time>
      </trkpt>
      <trkpt lat="44.05785" lon="7.41675">
        <ele>2252.0300292969</ele>
        <time>2011-10-01T07:19:07Z</time>
      </trkpt>
      <trkpt lat="44.05782" lon="7.41684">
        <ele>2253.4699707031</ele>
        <time>2011-10-01T07:19:13Z</time>
      </trkpt>
      <trkpt lat="44.05781" lon="7.41691">
        <ele>2253.9499511719</ele>
        <time>2011-10-01T07:19:17Z</time>
      </trkpt>
      <trkpt lat="44.05781" lon="7.417">
        <ele>2254.9099121094</ele>
        <time>2011-10-01T07:19:22Z</time>
      </trkpt>
      <trkpt lat="44.0578" lon="7.41708">
        <ele>2255.3898925781</ele>
        <time>2011-10-01T07:19:26Z</time>
      </trkpt>
      <trkpt lat="44.05777" lon="7.41715">
        <ele>2255.8701171875</ele>
        <time>2011-10-01T07:19:30Z</time>
      </trkpt>
      <trkpt lat="44.05768" lon="7.41733">
        <ele>2257.7900390625</ele>
        <time>2011-10-01T07:19:42Z</time>
      </trkpt>
      <trkpt lat="44.05767" lon="7.41741">
        <ele>2257.7900390625</ele>
        <time>2011-10-01T07:19:47Z</time>
      </trkpt>
      <trkpt lat="44.05766" lon="7.41762">
        <ele>2260.1999511719</ele>
        <time>2011-10-01T07:20:00Z</time>
      </trkpt>
      <trkpt lat="44.05769" lon="7.4177">
        <ele>2262.1201171875</ele>
        <time>2011-10-01T07:20:06Z</time>
      </trkpt>
      <trkpt lat="44.05769" lon="7.41771">
        <ele>2261.1599121094</ele>
        <time>2011-10-01T07:20:08Z</time>
      </trkpt>
      <trkpt lat="44.05766" lon="7.41775">
        <ele>2261.6398925781</ele>
        <time>2011-10-01T07:20:19Z</time>
      </trkpt>
      <trkpt lat="44.05764" lon="7.41781">
        <ele>2262.1201171875</ele>
        <time>2011-10-01T07:20:23Z</time>
      </trkpt>
      <trkpt lat="44.05763" lon="7.41786">
        <ele>2262.1201171875</ele>
        <time>2011-10-01T07:20:26Z</time>
      </trkpt>
      <trkpt lat="44.05758" lon="7.41801">
        <ele>2263.5600585938</ele>
        <time>2011-10-01T07:20:37Z</time>
      </trkpt>
      <trkpt lat="44.05753" lon="7.4182">
        <ele>2265.9599609375</ele>
        <time>2011-10-01T07:20:48Z</time>
      </trkpt>
      <trkpt lat="44.05752" lon="7.41822">
        <ele>2265.4799804688</ele>
        <time>2011-10-01T07:20:50Z</time>
      </trkpt>
      <trkpt lat="44.05745" lon="7.41832">
        <ele>2267.4099121094</ele>
        <time>2011-10-01T07:21:00Z</time>
      </trkpt>
      <trkpt lat="44.05742" lon="7.41836">
        <ele>2268.3701171875</ele>
        <time>2011-10-01T07:21:03Z</time>
      </trkpt>
      <trkpt lat="44.0574" lon="7.41853">
        <ele>2268.8500976562</ele>
        <time>2011-10-01T07:21:12Z</time>
      </trkpt>
      <trkpt lat="44.05738" lon="7.41859">
        <ele>2268.8500976562</ele>
        <time>2011-10-01T07:21:16Z</time>
      </trkpt>
      <trkpt lat="44.05731" lon="7.41868">
        <ele>2269.8100585938</ele>
        <time>2011-10-01T07:21:24Z</time>
      </trkpt>
      <trkpt lat="44.05727" lon="7.41875">
        <ele>2270.7700195312</ele>
        <time>2011-10-01T07:21:28Z</time>
      </trkpt>
      <trkpt lat="44.05721" lon="7.4188">
        <ele>2271.7299804688</ele>
        <time>2011-10-01T07:21:32Z</time>
      </trkpt>
      <trkpt lat="44.05714" lon="7.41889">
        <ele>2274.1398925781</ele>
        <time>2011-10-01T07:21:42Z</time>
      </trkpt>
      <trkpt lat="44.05713" lon="7.41884">
        <ele>2277.0200195312</ele>
        <time>2011-10-01T07:21:49Z</time>
      </trkpt>
      <trkpt lat="44.05706" lon="7.41874">
        <ele>2278.9399414062</ele>
        <time>2011-10-01T07:22:03Z</time>
      </trkpt>
      <trkpt lat="44.05701" lon="7.41865">
        <ele>2282.7900390625</ele>
        <time>2011-10-01T07:22:16Z</time>
      </trkpt>
      <trkpt lat="44.05688" lon="7.4187">
        <ele>2284.2299804688</ele>
        <time>2011-10-01T07:22:29Z</time>
      </trkpt>
      <trkpt lat="44.05687" lon="7.41873">
        <ele>2284.7099609375</ele>
        <time>2011-10-01T07:22:32Z</time>
      </trkpt>
      <trkpt lat="44.05686" lon="7.41869">
        <ele>2286.6298828125</ele>
        <time>2011-10-01T07:22:41Z</time>
      </trkpt>
      <trkpt lat="44.05678" lon="7.41872">
        <ele>2288.5600585938</ele>
        <time>2011-10-01T07:22:54Z</time>
      </trkpt>
      <trkpt lat="44.05679" lon="7.41883">
        <ele>2290</ele>
        <time>2011-10-01T07:23:04Z</time>
      </trkpt>
      <trkpt lat="44.0568" lon="7.41894">
        <ele>2292.8798828125</ele>
        <time>2011-10-01T07:23:19Z</time>
      </trkpt>
      <trkpt lat="44.05678" lon="7.41897">
        <ele>2293.8400878906</ele>
        <time>2011-10-01T07:23:31Z</time>
      </trkpt>
      <trkpt lat="44.05677" lon="7.41896">
        <ele>2294.3200683594</ele>
        <time>2011-10-01T07:23:43Z</time>
      </trkpt>
      <trkpt lat="44.05674" lon="7.41901">
        <ele>2294.3200683594</ele>
        <time>2011-10-01T07:23:50Z</time>
      </trkpt>
      <trkpt lat="44.05674" lon="7.41919">
        <ele>2296.25</ele>
        <time>2011-10-01T07:24:03Z</time>
      </trkpt>
      <trkpt lat="44.05673" lon="7.41926">
        <ele>2295.7700195312</ele>
        <time>2011-10-01T07:24:07Z</time>
      </trkpt>
      <trkpt lat="44.05671" lon="7.41946">
        <ele>2297.2099609375</ele>
        <time>2011-10-01T07:24:20Z</time>
      </trkpt>
      <trkpt lat="44.05672" lon="7.41963">
        <ele>2300.5700683594</ele>
        <time>2011-10-01T07:24:33Z</time>
      </trkpt>
      <trkpt lat="44.05671" lon="7.41966">
        <ele>2300.5700683594</ele>
        <time>2011-10-01T07:24:35Z</time>
      </trkpt>
      <trkpt lat="44.05669" lon="7.41972">
        <ele>2302.0100097656</ele>
        <time>2011-10-01T07:24:41Z</time>
      </trkpt>
      <trkpt lat="44.05668" lon="7.41976">
        <ele>2302.4899902344</ele>
        <time>2011-10-01T07:24:44Z</time>
      </trkpt>
      <trkpt lat="44.05661" lon="7.41984">
        <ele>2304.419921875</ele>
        <time>2011-10-01T07:24:58Z</time>
      </trkpt>
      <trkpt lat="44.05661" lon="7.41985">
        <ele>2304.8999023438</ele>
        <time>2011-10-01T07:24:59Z</time>
      </trkpt>
      <trkpt lat="44.05661" lon="7.41993">
        <ele>2305.8601074219</ele>
        <time>2011-10-01T07:25:06Z</time>
      </trkpt>
      <trkpt lat="44.05656" lon="7.42008">
        <ele>2309.2199707031</ele>
        <time>2011-10-01T07:25:20Z</time>
      </trkpt>
      <trkpt lat="44.05656" lon="7.42024">
        <ele>2310.1899414062</ele>
        <time>2011-10-01T07:25:33Z</time>
      </trkpt>
      <trkpt lat="44.05655" lon="7.42041">
        <ele>2311.1499023438</ele>
        <time>2011-10-01T07:25:46Z</time>
      </trkpt>
      <trkpt lat="44.05654" lon="7.42044">
        <ele>2311.6298828125</ele>
        <time>2011-10-01T07:25:48Z</time>
      </trkpt>
      <trkpt lat="44.05652" lon="7.42051">
        <ele>2311.6298828125</ele>
        <time>2011-10-01T07:25:53Z</time>
      </trkpt>
      <trkpt lat="44.0565" lon="7.42066">
        <ele>2314.5100097656</ele>
        <time>2011-10-01T07:26:05Z</time>
      </trkpt>
      <trkpt lat="44.05646" lon="7.42075">
        <ele>2316.4299316406</ele>
        <time>2011-10-01T07:26:14Z</time>
      </trkpt>
      <trkpt lat="44.05641" lon="7.42089">
        <ele>2318.3601074219</ele>
        <time>2011-10-01T07:26:26Z</time>
      </trkpt>
      <trkpt lat="44.0564" lon="7.42105">
        <ele>2321.7199707031</ele>
        <time>2011-10-01T07:26:40Z</time>
      </trkpt>
      <trkpt lat="44.05639" lon="7.42109">
        <ele>2322.1999511719</ele>
        <time>2011-10-01T07:26:44Z</time>
      </trkpt>
      <trkpt lat="44.05635" lon="7.42121">
        <ele>2322.6799316406</ele>
        <time>2011-10-01T07:26:52Z</time>
      </trkpt>
      <trkpt lat="44.05634" lon="7.42124">
        <ele>2323.1599121094</ele>
        <time>2011-10-01T07:26:54Z</time>
      </trkpt>
      <trkpt lat="44.05623" lon="7.42144">
        <ele>2323.6398925781</ele>
        <time>2011-10-01T07:27:09Z</time>
      </trkpt>
      <trkpt lat="44.05623" lon="7.42148">
        <ele>2324.1201171875</ele>
        <time>2011-10-01T07:27:13Z</time>
      </trkpt>
      <trkpt lat="44.05618" lon="7.42157">
        <ele>2324.1201171875</ele>
        <time>2011-10-01T07:27:21Z</time>
      </trkpt>
      <trkpt lat="44.05619" lon="7.42169">
        <ele>2325.5700683594</ele>
        <time>2011-10-01T07:27:29Z</time>
      </trkpt>
      <trkpt lat="44.05618" lon="7.42173">
        <ele>2325.0900878906</ele>
        <time>2011-10-01T07:27:31Z</time>
      </trkpt>
      <trkpt lat="44.05616" lon="7.42176">
        <ele>2326.5300292969</ele>
        <time>2011-10-01T07:27:33Z</time>
      </trkpt>
      <trkpt lat="44.05611" lon="7.42183">
        <ele>2328.9299316406</ele>
        <time>2011-10-01T07:27:40Z</time>
      </trkpt>
      <trkpt lat="44.05609" lon="7.42192">
        <ele>2329.4099121094</ele>
        <time>2011-10-01T07:27:46Z</time>
      </trkpt>
      <trkpt lat="44.05608" lon="7.42195">
        <ele>2329.8898925781</ele>
        <time>2011-10-01T07:27:48Z</time>
      </trkpt>
      <trkpt lat="44.05608" lon="7.42203">
        <ele>2331.8100585938</ele>
        <time>2011-10-01T07:27:58Z</time>
      </trkpt>
      <trkpt lat="44.05598" lon="7.4221">
        <ele>2333.7399902344</ele>
        <time>2011-10-01T07:28:10Z</time>
      </trkpt>
      <trkpt lat="44.05588" lon="7.42214">
        <ele>2334.6999511719</ele>
        <time>2011-10-01T07:28:15Z</time>
      </trkpt>
      <trkpt lat="44.0558" lon="7.42218">
        <ele>2335.1799316406</ele>
        <time>2011-10-01T07:28:20Z</time>
      </trkpt>
      <trkpt lat="44.05577" lon="7.42224">
        <ele>2337.1000976562</ele>
        <time>2011-10-01T07:28:28Z</time>
      </trkpt>
      <trkpt lat="44.05577" lon="7.42234">
        <ele>2339.0200195312</ele>
        <time>2011-10-01T07:28:39Z</time>
      </trkpt>
      <trkpt lat="44.05575" lon="7.42238">
        <ele>2339.9899902344</ele>
        <time>2011-10-01T07:28:44Z</time>
      </trkpt>
      <trkpt lat="44.05572" lon="7.4224">
        <ele>2340.4699707031</ele>
        <time>2011-10-01T07:28:48Z</time>
      </trkpt>
      <trkpt lat="44.05572" lon="7.4224">
        <ele>2340.9499511719</ele>
        <time>2011-10-01T07:28:52Z</time>
      </trkpt>
      <trkpt lat="44.05574" lon="7.42231">
        <ele>2341.4299316406</ele>
        <time>2011-10-01T07:29:01Z</time>
      </trkpt>
      <trkpt lat="44.05571" lon="7.42225">
        <ele>2344.7900390625</ele>
        <time>2011-10-01T07:29:13Z</time>
      </trkpt>
      <trkpt lat="44.05568" lon="7.42225">
        <ele>2347.1999511719</ele>
        <time>2011-10-01T07:29:26Z</time>
      </trkpt>
      <trkpt lat="44.05566" lon="7.42224">
        <ele>2347.6799316406</ele>
        <time>2011-10-01T07:29:29Z</time>
      </trkpt>
      <trkpt lat="44.05551" lon="7.42227">
        <ele>2352</ele>
        <time>2011-10-01T07:29:46Z</time>
      </trkpt>
      <trkpt lat="44.05539" lon="7.4223">
        <ele>2353.4399414062</ele>
        <time>2011-10-01T07:29:56Z</time>
      </trkpt>
      <trkpt lat="44.05534" lon="7.42237">
        <ele>2356.330078125</ele>
        <time>2011-10-01T07:30:07Z</time>
      </trkpt>
      <trkpt lat="44.05531" lon="7.42241">
        <ele>2357.2900390625</ele>
        <time>2011-10-01T07:30:11Z</time>
      </trkpt>
      <trkpt lat="44.05526" lon="7.42254">
        <ele>2359.2099609375</ele>
        <time>2011-10-01T07:30:26Z</time>
      </trkpt>
      <trkpt lat="44.05521" lon="7.42258">
        <ele>2361.6201171875</ele>
        <time>2011-10-01T07:30:32Z</time>
      </trkpt>
      <trkpt lat="44.05519" lon="7.42263">
        <ele>2362.580078125</ele>
        <time>2011-10-01T07:30:37Z</time>
      </trkpt>
      <trkpt lat="44.05516" lon="7.42267">
        <ele>2363.5400390625</ele>
        <time>2011-10-01T07:30:50Z</time>
      </trkpt>
      <trkpt lat="44.05519" lon="7.42268">
        <ele>2364.9799804688</ele>
        <time>2011-10-01T07:31:03Z</time>
      </trkpt>
      <trkpt lat="44.05519" lon="7.42268">
        <ele>2364.9799804688</ele>
        <time>2011-10-01T07:31:04Z</time>
      </trkpt>
      <trkpt lat="44.05514" lon="7.42268">
        <ele>2364.9799804688</ele>
        <time>2011-10-01T07:31:17Z</time>
      </trkpt>
      <trkpt lat="44.05508" lon="7.42279">
        <ele>2360.169921875</ele>
        <time>2011-10-01T07:31:30Z</time>
      </trkpt>
      <trkpt lat="44.05508" lon="7.4228">
        <ele>2360.6499023438</ele>
        <time>2011-10-01T07:31:31Z</time>
      </trkpt>
      <trkpt lat="44.05506" lon="7.42283">
        <ele>2359.6899414062</ele>
        <time>2011-10-01T07:31:34Z</time>
      </trkpt>
      <trkpt lat="44.05496" lon="7.42293">
        <ele>2357.7700195312</ele>
        <time>2011-10-01T07:31:45Z</time>
      </trkpt>
      <trkpt lat="44.05495" lon="7.42296">
        <ele>2358.7299804688</ele>
        <time>2011-10-01T07:32:03Z</time>
      </trkpt>
      <trkpt lat="44.05491" lon="7.42298">
        <ele>2359.6899414062</ele>
        <time>2011-10-01T07:32:10Z</time>
      </trkpt>
      <trkpt lat="44.05484" lon="7.423">
        <ele>2360.169921875</ele>
        <time>2011-10-01T07:32:14Z</time>
      </trkpt>
      <trkpt lat="44.0546" lon="7.42297">
        <ele>2361.6201171875</ele>
        <time>2011-10-01T07:32:26Z</time>
      </trkpt>
      <trkpt lat="44.0546" lon="7.42298">
        <ele>2363.0600585938</ele>
        <time>2011-10-01T07:32:27Z</time>
      </trkpt>
      <trkpt lat="44.05463" lon="7.42299">
        <ele>2365.4599609375</ele>
        <time>2011-10-01T07:32:29Z</time>
      </trkpt>
      <trkpt lat="44.05476" lon="7.42306">
        <ele>2364.5</ele>
        <time>2011-10-01T07:32:36Z</time>
      </trkpt>
      <trkpt lat="44.05463" lon="7.42309">
        <ele>2365.9399414062</ele>
        <time>2011-10-01T07:32:44Z</time>
      </trkpt>
      <trkpt lat="44.05465" lon="7.42322">
        <ele>2366.8999023438</ele>
        <time>2011-10-01T07:32:49Z</time>
      </trkpt>
      <trkpt lat="44.05455" lon="7.42324">
        <ele>2367.8601074219</ele>
        <time>2011-10-01T07:32:55Z</time>
      </trkpt>
      <trkpt lat="44.05436" lon="7.4232">
        <ele>2368.830078125</ele>
        <time>2011-10-01T07:33:03Z</time>
      </trkpt>
      <trkpt lat="44.05429" lon="7.42327">
        <ele>2369.3100585938</ele>
        <time>2011-10-01T07:33:09Z</time>
      </trkpt>
      <trkpt lat="44.05426" lon="7.42331">
        <ele>2370.75</ele>
        <time>2011-10-01T07:33:16Z</time>
      </trkpt>
      <trkpt lat="44.05415" lon="7.42331">
        <ele>2374.5900878906</ele>
        <time>2011-10-01T07:33:27Z</time>
      </trkpt>
      <trkpt lat="44.05415" lon="7.4233">
        <ele>2375.0700683594</ele>
        <time>2011-10-01T07:33:28Z</time>
      </trkpt>
      <trkpt lat="44.05405" lon="7.42327">
        <ele>2377</ele>
        <time>2011-10-01T07:33:39Z</time>
      </trkpt>
      <trkpt lat="44.05402" lon="7.42332">
        <ele>2378.919921875</ele>
        <time>2011-10-01T07:33:49Z</time>
      </trkpt>
      <trkpt lat="44.05399" lon="7.42334">
        <ele>2379.8798828125</ele>
        <time>2011-10-01T07:34:02Z</time>
      </trkpt>
      <trkpt lat="44.05397" lon="7.42333">
        <ele>2379.8798828125</ele>
        <time>2011-10-01T07:34:36Z</time>
      </trkpt>
      <trkpt lat="44.054" lon="7.42333">
        <ele>2380.8400878906</ele>
        <time>2011-10-01T07:35:03Z</time>
      </trkpt>
      <trkpt lat="44.05401" lon="7.42333">
        <ele>2379.8798828125</ele>
        <time>2011-10-01T07:35:29Z</time>
      </trkpt>
      <trkpt lat="44.05401" lon="7.42333">
        <ele>2381.3200683594</ele>
        <time>2011-10-01T07:35:30Z</time>
      </trkpt>
      <trkpt lat="44.05401" lon="7.42336">
        <ele>2381.3200683594</ele>
        <time>2011-10-01T07:35:40Z</time>
      </trkpt>
      <trkpt lat="44.05399" lon="7.42343">
        <ele>2382.2800292969</ele>
        <time>2011-10-01T07:35:46Z</time>
      </trkpt>
      <trkpt lat="44.05396" lon="7.42347">
        <ele>2383.25</ele>
        <time>2011-10-01T07:36:03Z</time>
      </trkpt>
      <trkpt lat="44.05402" lon="7.42349">
        <ele>2382.7600097656</ele>
        <time>2011-10-01T07:36:15Z</time>
      </trkpt>
      <trkpt lat="44.054" lon="7.4235">
        <ele>2382.7600097656</ele>
        <time>2011-10-01T07:36:19Z</time>
      </trkpt>
      <trkpt lat="44.05398" lon="7.42353">
        <ele>2382.2800292969</ele>
        <time>2011-10-01T07:36:25Z</time>
      </trkpt>
      <trkpt lat="44.05397" lon="7.42354">
        <ele>2383.25</ele>
        <time>2011-10-01T07:36:27Z</time>
      </trkpt>
      <trkpt lat="44.05396" lon="7.42356">
        <ele>2382.2800292969</ele>
        <time>2011-10-01T07:36:31Z</time>
      </trkpt>
      <trkpt lat="44.05391" lon="7.42369">
        <ele>2382.2800292969</ele>
        <time>2011-10-01T07:36:44Z</time>
      </trkpt>
      <trkpt lat="44.05391" lon="7.4237">
        <ele>2382.2800292969</ele>
        <time>2011-10-01T07:36:45Z</time>
      </trkpt>
      <trkpt lat="44.05387" lon="7.42375">
        <ele>2382.2800292969</ele>
        <time>2011-10-01T07:36:56Z</time>
      </trkpt>
      <trkpt lat="44.05388" lon="7.42376">
        <ele>2381.8000488281</ele>
        <time>2011-10-01T07:37:03Z</time>
      </trkpt>
      <trkpt lat="44.05388" lon="7.42385">
        <ele>2380.3601074219</ele>
        <time>2011-10-01T07:37:12Z</time>
      </trkpt>
      <trkpt lat="44.05389" lon="7.42385">
        <ele>2381.8000488281</ele>
        <time>2011-10-01T07:37:14Z</time>
      </trkpt>
      <trkpt lat="44.0539" lon="7.42385">
        <ele>2380.8400878906</ele>
        <time>2011-10-01T07:37:16Z</time>
      </trkpt>
      <trkpt lat="44.05391" lon="7.42385">
        <ele>2380.8400878906</ele>
        <time>2011-10-01T07:37:18Z</time>
      </trkpt>
      <trkpt lat="44.05394" lon="7.42385">
        <ele>2380.8400878906</ele>
        <time>2011-10-01T07:37:21Z</time>
      </trkpt>
      <trkpt lat="44.05394" lon="7.42388">
        <ele>2382.2800292969</ele>
        <time>2011-10-01T07:37:24Z</time>
      </trkpt>
      <trkpt lat="44.05395" lon="7.42396">
        <ele>2382.7600097656</ele>
        <time>2011-10-01T07:37:30Z</time>
      </trkpt>
      <trkpt lat="44.05396" lon="7.42403">
        <ele>2382.7600097656</ele>
        <time>2011-10-01T07:37:44Z</time>
      </trkpt>
      <trkpt lat="44.05393" lon="7.42413">
        <ele>2383.25</ele>
        <time>2011-10-01T07:37:54Z</time>
      </trkpt>
      <trkpt lat="44.05392" lon="7.42416">
        <ele>2383.7299804688</ele>
        <time>2011-10-01T07:37:59Z</time>
      </trkpt>
      <trkpt lat="44.05391" lon="7.42416">
        <ele>2384.2099609375</ele>
        <time>2011-10-01T07:38:01Z</time>
      </trkpt>
      <trkpt lat="44.05387" lon="7.42415">
        <ele>2384.2099609375</ele>
        <time>2011-10-01T07:38:03Z</time>
      </trkpt>
      <trkpt lat="44.05388" lon="7.42416">
        <ele>2386.1298828125</ele>
        <time>2011-10-01T07:38:12Z</time>
      </trkpt>
      <trkpt lat="44.05389" lon="7.42424">
        <ele>2384.6899414062</ele>
        <time>2011-10-01T07:38:23Z</time>
      </trkpt>
      <trkpt lat="44.05379" lon="7.4243">
        <ele>2385.6499023438</ele>
        <time>2011-10-01T07:38:36Z</time>
      </trkpt>
      <trkpt lat="44.05379" lon="7.42435">
        <ele>2385.6499023438</ele>
        <time>2011-10-01T07:38:41Z</time>
      </trkpt>
      <trkpt lat="44.05376" lon="7.42439">
        <ele>2386.1298828125</ele>
        <time>2011-10-01T07:38:46Z</time>
      </trkpt>
      <trkpt lat="44.05377" lon="7.42447">
        <ele>2387.0900878906</ele>
        <time>2011-10-01T07:38:52Z</time>
      </trkpt>
      <trkpt lat="44.05375" lon="7.42451">
        <ele>2387.5700683594</ele>
        <time>2011-10-01T07:38:56Z</time>
      </trkpt>
      <trkpt lat="44.0537" lon="7.42465">
        <ele>2389.0100097656</ele>
        <time>2011-10-01T07:39:09Z</time>
      </trkpt>
      <trkpt lat="44.05368" lon="7.42467">
        <ele>2389.4899902344</ele>
        <time>2011-10-01T07:39:12Z</time>
      </trkpt>
      <trkpt lat="44.05366" lon="7.42469">
        <ele>2389.0100097656</ele>
        <time>2011-10-01T07:39:14Z</time>
      </trkpt>
      <trkpt lat="44.05366" lon="7.42473">
        <ele>2390.4599609375</ele>
        <time>2011-10-01T07:39:18Z</time>
      </trkpt>
      <trkpt lat="44.05361" lon="7.4248">
        <ele>2392.8601074219</ele>
        <time>2011-10-01T07:39:28Z</time>
      </trkpt>
      <trkpt lat="44.05354" lon="7.42481">
        <ele>2393.8200683594</ele>
        <time>2011-10-01T07:39:42Z</time>
      </trkpt>
      <trkpt lat="44.05353" lon="7.42481">
        <ele>2393.3400878906</ele>
        <time>2011-10-01T07:39:43Z</time>
      </trkpt>
      <trkpt lat="44.05349" lon="7.42482">
        <ele>2393.8200683594</ele>
        <time>2011-10-01T07:39:47Z</time>
      </trkpt>
      <trkpt lat="44.05347" lon="7.42483">
        <ele>2394.3000488281</ele>
        <time>2011-10-01T07:39:49Z</time>
      </trkpt>
      <trkpt lat="44.05345" lon="7.42488">
        <ele>2394.3000488281</ele>
        <time>2011-10-01T07:39:54Z</time>
      </trkpt>
      <trkpt lat="44.05341" lon="7.42496">
        <ele>2397.669921875</ele>
        <time>2011-10-01T07:40:03Z</time>
      </trkpt>
      <trkpt lat="44.05338" lon="7.42502">
        <ele>2398.6298828125</ele>
        <time>2011-10-01T07:40:13Z</time>
      </trkpt>
      <trkpt lat="44.05328" lon="7.42503">
        <ele>2400.0700683594</ele>
        <time>2011-10-01T07:40:21Z</time>
      </trkpt>
      <trkpt lat="44.05325" lon="7.42502">
        <ele>2400.0700683594</ele>
        <time>2011-10-01T07:40:24Z</time>
      </trkpt>
      <trkpt lat="44.05317" lon="7.42514">
        <ele>2402.4699707031</ele>
        <time>2011-10-01T07:40:36Z</time>
      </trkpt>
      <trkpt lat="44.05307" lon="7.42521">
        <ele>2402.4699707031</ele>
        <time>2011-10-01T07:40:44Z</time>
      </trkpt>
      <trkpt lat="44.05304" lon="7.42529">
        <ele>2403.9099121094</ele>
        <time>2011-10-01T07:40:49Z</time>
      </trkpt>
      <trkpt lat="44.05302" lon="7.42542">
        <ele>2404.3898925781</ele>
        <time>2011-10-01T07:40:58Z</time>
      </trkpt>
      <trkpt lat="44.05302" lon="7.42544">
        <ele>2405.3601074219</ele>
        <time>2011-10-01T07:41:00Z</time>
      </trkpt>
      <trkpt lat="44.05298" lon="7.42551">
        <ele>2406.8000488281</ele>
        <time>2011-10-01T07:41:08Z</time>
      </trkpt>
      <trkpt lat="44.0529" lon="7.42557">
        <ele>2409.1999511719</ele>
        <time>2011-10-01T07:41:19Z</time>
      </trkpt>
      <trkpt lat="44.05278" lon="7.42562">
        <ele>2411.6000976562</ele>
        <time>2011-10-01T07:41:33Z</time>
      </trkpt>
      <trkpt lat="44.05275" lon="7.42564">
        <ele>2412.0900878906</ele>
        <time>2011-10-01T07:41:36Z</time>
      </trkpt>
      <trkpt lat="44.05265" lon="7.4257">
        <ele>2414.4899902344</ele>
        <time>2011-10-01T07:41:48Z</time>
      </trkpt>
      <trkpt lat="44.05261" lon="7.42577">
        <ele>2417.3701171875</ele>
        <time>2011-10-01T07:41:59Z</time>
      </trkpt>
      <trkpt lat="44.05256" lon="7.42581">
        <ele>2417.8500976562</ele>
        <time>2011-10-01T07:42:06Z</time>
      </trkpt>
      <trkpt lat="44.0525" lon="7.42584">
        <ele>2418.8100585938</ele>
        <time>2011-10-01T07:42:13Z</time>
      </trkpt>
      <trkpt lat="44.05246" lon="7.42583">
        <ele>2419.3000488281</ele>
        <time>2011-10-01T07:42:15Z</time>
      </trkpt>
      <trkpt lat="44.05236" lon="7.42585">
        <ele>2422.1799316406</ele>
        <time>2011-10-01T07:42:28Z</time>
      </trkpt>
      <trkpt lat="44.05226" lon="7.42584">
        <ele>2424.580078125</ele>
        <time>2011-10-01T07:42:44Z</time>
      </trkpt>
      <trkpt lat="44.05216" lon="7.42577">
        <ele>2423.6201171875</ele>
        <time>2011-10-01T07:42:59Z</time>
      </trkpt>
      <trkpt lat="44.05214" lon="7.42576">
        <ele>2423.6201171875</ele>
        <time>2011-10-01T07:43:02Z</time>
      </trkpt>
      <trkpt lat="44.05209" lon="7.42574">
        <ele>2425.0600585938</ele>
        <time>2011-10-01T07:43:08Z</time>
      </trkpt>
      <trkpt lat="44.05195" lon="7.42577">
        <ele>2425.5400390625</ele>
        <time>2011-10-01T07:43:23Z</time>
      </trkpt>
      <trkpt lat="44.0519" lon="7.42576">
        <ele>2427.4699707031</ele>
        <time>2011-10-01T07:43:29Z</time>
      </trkpt>
      <trkpt lat="44.0518" lon="7.4258">
        <ele>2429.8701171875</ele>
        <time>2011-10-01T07:43:44Z</time>
      </trkpt>
      <trkpt lat="44.05174" lon="7.42589">
        <ele>2432.75</ele>
        <time>2011-10-01T07:43:55Z</time>
      </trkpt>
      <trkpt lat="44.05161" lon="7.42595">
        <ele>2435.6398925781</ele>
        <time>2011-10-01T07:44:12Z</time>
      </trkpt>
      <trkpt lat="44.0516" lon="7.42596">
        <ele>2435.1599121094</ele>
        <time>2011-10-01T07:44:13Z</time>
      </trkpt>
      <trkpt lat="44.05146" lon="7.42603">
        <ele>2438.5200195312</ele>
        <time>2011-10-01T07:44:30Z</time>
      </trkpt>
      <trkpt lat="44.05134" lon="7.4261">
        <ele>2439</ele>
        <time>2011-10-01T07:44:45Z</time>
      </trkpt>
      <trkpt lat="44.05133" lon="7.4261">
        <ele>2439.4799804688</ele>
        <time>2011-10-01T07:44:46Z</time>
      </trkpt>
      <trkpt lat="44.0513" lon="7.4261">
        <ele>2440.4399414062</ele>
        <time>2011-10-01T07:44:48Z</time>
      </trkpt>
      <trkpt lat="44.05123" lon="7.42609">
        <ele>2441.4099121094</ele>
        <time>2011-10-01T07:44:52Z</time>
      </trkpt>
      <trkpt lat="44.05113" lon="7.42618">
        <ele>2443.330078125</ele>
        <time>2011-10-01T07:45:03Z</time>
      </trkpt>
      <trkpt lat="44.05116" lon="7.42621">
        <ele>2445.7299804688</ele>
        <time>2011-10-01T07:45:11Z</time>
      </trkpt>
      <trkpt lat="44.05113" lon="7.4263">
        <ele>2448.1298828125</ele>
        <time>2011-10-01T07:45:20Z</time>
      </trkpt>
      <trkpt lat="44.05109" lon="7.42639">
        <ele>2451.0200195312</ele>
        <time>2011-10-01T07:45:34Z</time>
      </trkpt>
      <trkpt lat="44.05108" lon="7.4264">
        <ele>2451.0200195312</ele>
        <time>2011-10-01T07:45:35Z</time>
      </trkpt>
      <trkpt lat="44.051" lon="7.42643">
        <ele>2452.9399414062</ele>
        <time>2011-10-01T07:45:43Z</time>
      </trkpt>
      <trkpt lat="44.0509" lon="7.42651">
        <ele>2456.3100585938</ele>
        <time>2011-10-01T07:45:59Z</time>
      </trkpt>
      <trkpt lat="44.05088" lon="7.42659">
        <ele>2459.1899414062</ele>
        <time>2011-10-01T07:46:12Z</time>
      </trkpt>
      <trkpt lat="44.05077" lon="7.42664">
        <ele>2462.0700683594</ele>
        <time>2011-10-01T07:46:28Z</time>
      </trkpt>
      <trkpt lat="44.05076" lon="7.42665">
        <ele>2463.0400390625</ele>
        <time>2011-10-01T07:46:30Z</time>
      </trkpt>
      <trkpt lat="44.05072" lon="7.42668">
        <ele>2466.3999023438</ele>
        <time>2011-10-01T07:46:42Z</time>
      </trkpt>
      <trkpt lat="44.05072" lon="7.42669">
        <ele>2466.3999023438</ele>
        <time>2011-10-01T07:46:43Z</time>
      </trkpt>
      <trkpt lat="44.05073" lon="7.42678">
        <ele>2469.7600097656</ele>
        <time>2011-10-01T07:46:57Z</time>
      </trkpt>
      <trkpt lat="44.05074" lon="7.42693">
        <ele>2472.6499023438</ele>
        <time>2011-10-01T07:47:12Z</time>
      </trkpt>
      <trkpt lat="44.0507" lon="7.42697">
        <ele>2476.0100097656</ele>
        <time>2011-10-01T07:47:19Z</time>
      </trkpt>
      <trkpt lat="44.05067" lon="7.42702">
        <ele>2477.9399414062</ele>
        <time>2011-10-01T07:47:27Z</time>
      </trkpt>
      <trkpt lat="44.05066" lon="7.42706">
        <ele>2478.419921875</ele>
        <time>2011-10-01T07:47:30Z</time>
      </trkpt>
      <trkpt lat="44.05062" lon="7.42708">
        <ele>2480.3400878906</ele>
        <time>2011-10-01T07:47:36Z</time>
      </trkpt>
      <trkpt lat="44.0506" lon="7.42707">
        <ele>2476.9699707031</ele>
        <time>2011-10-01T07:47:44Z</time>
      </trkpt>
      <trkpt lat="44.05053" lon="7.42704">
        <ele>2480.3400878906</ele>
        <time>2011-10-01T07:48:00Z</time>
      </trkpt>
      <trkpt lat="44.05054" lon="7.42704">
        <ele>2476.9699707031</ele>
        <time>2011-10-01T07:48:11Z</time>
      </trkpt>
      <trkpt lat="44.05051" lon="7.42709">
        <ele>2479.8601074219</ele>
        <time>2011-10-01T07:48:25Z</time>
      </trkpt>
      <trkpt lat="44.05051" lon="7.42707">
        <ele>2479.3798828125</ele>
        <time>2011-10-01T07:48:48Z</time>
      </trkpt>
      <trkpt lat="44.05053" lon="7.42709">
        <ele>2479.8601074219</ele>
        <time>2011-10-01T07:49:11Z</time>
      </trkpt>
      <trkpt lat="44.05054" lon="7.42706">
        <ele>2479.8601074219</ele>
        <time>2011-10-01T07:49:35Z</time>
      </trkpt>
      <trkpt lat="44.05053" lon="7.42705">
        <ele>2478.419921875</ele>
        <time>2011-10-01T07:49:40Z</time>
      </trkpt>
      <trkpt lat="44.05053" lon="7.42705">
        <ele>2482.2600097656</ele>
        <time>2011-10-01T07:49:42Z</time>
      </trkpt>
      <trkpt lat="44.05053" lon="7.42705">
        <ele>2481.7800292969</ele>
        <time>2011-10-01T07:49:43Z</time>
      </trkpt>
      <trkpt lat="44.05051" lon="7.42706">
        <ele>2477.9399414062</ele>
        <time>2011-10-01T07:49:49Z</time>
      </trkpt>
      <trkpt lat="44.05051" lon="7.42706">
        <ele>2476.9699707031</ele>
        <time>2011-10-01T07:49:51Z</time>
      </trkpt>
      <trkpt lat="44.05052" lon="7.42706">
        <ele>2478.8999023438</ele>
        <time>2011-10-01T07:50:01Z</time>
      </trkpt>
      <trkpt lat="44.05051" lon="7.42706">
        <ele>2479.8601074219</ele>
        <time>2011-10-01T07:50:25Z</time>
      </trkpt>
      <trkpt lat="44.0505" lon="7.42705">
        <ele>2479.3798828125</ele>
        <time>2011-10-01T07:51:17Z</time>
      </trkpt>
      <trkpt lat="44.05051" lon="7.42704">
        <ele>2478.419921875</ele>
        <time>2011-10-01T07:51:35Z</time>
      </trkpt>
      <trkpt lat="44.05051" lon="7.42704">
        <ele>2480.8200683594</ele>
        <time>2011-10-01T07:51:38Z</time>
      </trkpt>
      <trkpt lat="44.05051" lon="7.42707">
        <ele>2481.7800292969</ele>
        <time>2011-10-01T07:51:58Z</time>
      </trkpt>
      <trkpt lat="44.05048" lon="7.42706">
        <ele>2477.9399414062</ele>
        <time>2011-10-01T07:52:10Z</time>
      </trkpt>
      <trkpt lat="44.05047" lon="7.42706">
        <ele>2481.7800292969</ele>
        <time>2011-10-01T07:52:11Z</time>
      </trkpt>
      <trkpt lat="44.05044" lon="7.42704">
        <ele>2478.8999023438</ele>
        <time>2011-10-01T07:52:18Z</time>
      </trkpt>
      <trkpt lat="44.05035" lon="7.42701">
        <ele>2482.2600097656</ele>
        <time>2011-10-01T07:52:30Z</time>
      </trkpt>
      <trkpt lat="44.05035" lon="7.427">
        <ele>2482.2600097656</ele>
        <time>2011-10-01T07:52:31Z</time>
      </trkpt>
      <trkpt lat="44.05031" lon="7.42682">
        <ele>2483.6999511719</ele>
        <time>2011-10-01T07:52:50Z</time>
      </trkpt>
      <trkpt lat="44.05027" lon="7.42678">
        <ele>2487.0700683594</ele>
        <time>2011-10-01T07:52:59Z</time>
      </trkpt>
      <trkpt lat="44.05024" lon="7.42683">
        <ele>2490.4299316406</ele>
        <time>2011-10-01T07:53:05Z</time>
      </trkpt>
      <trkpt lat="44.05023" lon="7.42685">
        <ele>2489.4699707031</ele>
        <time>2011-10-01T07:53:06Z</time>
      </trkpt>
      <trkpt lat="44.05021" lon="7.42687">
        <ele>2489.9499511719</ele>
        <time>2011-10-01T07:53:09Z</time>
      </trkpt>
      <trkpt lat="44.05018" lon="7.42681">
        <ele>2490.9099121094</ele>
        <time>2011-10-01T07:53:17Z</time>
      </trkpt>
      <trkpt lat="44.05011" lon="7.42683">
        <ele>2494.2800292969</ele>
        <time>2011-10-01T07:53:29Z</time>
      </trkpt>
      <trkpt lat="44.05004" lon="7.42682">
        <ele>2494.7600097656</ele>
        <time>2011-10-01T07:53:37Z</time>
      </trkpt>
      <trkpt lat="44.05" lon="7.42684">
        <ele>2496.1999511719</ele>
        <time>2011-10-01T07:53:41Z</time>
      </trkpt>
      <trkpt lat="44.04998" lon="7.42684">
        <ele>2494.7600097656</ele>
        <time>2011-10-01T07:53:43Z</time>
      </trkpt>
      <trkpt lat="44.04996" lon="7.42685">
        <ele>2495.7199707031</ele>
        <time>2011-10-01T07:53:45Z</time>
      </trkpt>
      <trkpt lat="44.04991" lon="7.42685">
        <ele>2498.6000976562</ele>
        <time>2011-10-01T07:53:51Z</time>
      </trkpt>
      <trkpt lat="44.04984" lon="7.42684">
        <ele>2500.5300292969</ele>
        <time>2011-10-01T07:54:02Z</time>
      </trkpt>
      <trkpt lat="44.04989" lon="7.42677">
        <ele>2502.4499511719</ele>
        <time>2011-10-01T07:54:09Z</time>
      </trkpt>
      <trkpt lat="44.04991" lon="7.42666">
        <ele>2505.8100585938</ele>
        <time>2011-10-01T07:54:22Z</time>
      </trkpt>
      <trkpt lat="44.04989" lon="7.42664">
        <ele>2507.7399902344</ele>
        <time>2011-10-01T07:54:29Z</time>
      </trkpt>
      <trkpt lat="44.04991" lon="7.42655">
        <ele>2511.1000976562</ele>
        <time>2011-10-01T07:54:38Z</time>
      </trkpt>
      <trkpt lat="44.04989" lon="7.42649">
        <ele>2512.0600585938</ele>
        <time>2011-10-01T07:54:46Z</time>
      </trkpt>
      <trkpt lat="44.04979" lon="7.4265">
        <ele>2515.9099121094</ele>
        <time>2011-10-01T07:55:00Z</time>
      </trkpt>
      <trkpt lat="44.04979" lon="7.42649">
        <ele>2515.9099121094</ele>
        <time>2011-10-01T07:55:01Z</time>
      </trkpt>
      <trkpt lat="44.04979" lon="7.42649">
        <ele>2515.9099121094</ele>
        <time>2011-10-01T07:55:02Z</time>
      </trkpt>
      <trkpt lat="44.04981" lon="7.42645">
        <ele>2517.3500976562</ele>
        <time>2011-10-01T07:55:06Z</time>
      </trkpt>
      <trkpt lat="44.04987" lon="7.42637">
        <ele>2518.7900390625</ele>
        <time>2011-10-01T07:55:13Z</time>
      </trkpt>
      <trkpt lat="44.04988" lon="7.42631">
        <ele>2520.7099609375</ele>
        <time>2011-10-01T07:55:19Z</time>
      </trkpt>
      <trkpt lat="44.04984" lon="7.42622">
        <ele>2523.1201171875</ele>
        <time>2011-10-01T07:55:31Z</time>
      </trkpt>
      <trkpt lat="44.04976" lon="7.42626">
        <ele>2525.0400390625</ele>
        <time>2011-10-01T07:55:39Z</time>
      </trkpt>
      <trkpt lat="44.04974" lon="7.42628">
        <ele>2526</ele>
        <time>2011-10-01T07:55:42Z</time>
      </trkpt>
      <trkpt lat="44.04967" lon="7.42628">
        <ele>2529.3701171875</ele>
        <time>2011-10-01T07:55:50Z</time>
      </trkpt>
      <trkpt lat="44.04966" lon="7.42628">
        <ele>2528.3999023438</ele>
        <time>2011-10-01T07:55:51Z</time>
      </trkpt>
      <trkpt lat="44.04964" lon="7.42628">
        <ele>2527.919921875</ele>
        <time>2011-10-01T07:55:53Z</time>
      </trkpt>
      <trkpt lat="44.04963" lon="7.42626">
        <ele>2529.3701171875</ele>
        <time>2011-10-01T07:55:56Z</time>
      </trkpt>
      <trkpt lat="44.04959" lon="7.42625">
        <ele>2531.7700195312</ele>
        <time>2011-10-01T07:56:06Z</time>
      </trkpt>
      <trkpt lat="44.04958" lon="7.42625">
        <ele>2532.7299804688</ele>
        <time>2011-10-01T07:56:08Z</time>
      </trkpt>
      <trkpt lat="44.04959" lon="7.42619">
        <ele>2536.1000976562</ele>
        <time>2011-10-01T07:56:17Z</time>
      </trkpt>
      <trkpt lat="44.04958" lon="7.42619">
        <ele>2535.6101074219</ele>
        <time>2011-10-01T07:56:18Z</time>
      </trkpt>
      <trkpt lat="44.04957" lon="7.42617">
        <ele>2538.0200195312</ele>
        <time>2011-10-01T07:56:28Z</time>
      </trkpt>
      <trkpt lat="44.0496" lon="7.42609">
        <ele>2540.419921875</ele>
        <time>2011-10-01T07:56:40Z</time>
      </trkpt>
      <trkpt lat="44.04955" lon="7.42608">
        <ele>2543.7900390625</ele>
        <time>2011-10-01T07:56:48Z</time>
      </trkpt>
      <trkpt lat="44.04955" lon="7.42608">
        <ele>2543.7900390625</ele>
        <time>2011-10-01T07:56:49Z</time>
      </trkpt>
      <trkpt lat="44.04958" lon="7.426">
        <ele>2546.669921875</ele>
        <time>2011-10-01T07:56:59Z</time>
      </trkpt>
      <trkpt lat="44.04953" lon="7.426">
        <ele>2548.5900878906</ele>
        <time>2011-10-01T07:57:05Z</time>
      </trkpt>
      <trkpt lat="44.04951" lon="7.42598">
        <ele>2550.5100097656</ele>
        <time>2011-10-01T07:57:14Z</time>
      </trkpt>
      <trkpt lat="44.04947" lon="7.426">
        <ele>2550.0300292969</ele>
        <time>2011-10-01T07:57:20Z</time>
      </trkpt>
      <trkpt lat="44.04945" lon="7.42601">
        <ele>2551</ele>
        <time>2011-10-01T07:57:22Z</time>
      </trkpt>
      <trkpt lat="44.04942" lon="7.42601">
        <ele>2552.919921875</ele>
        <time>2011-10-01T07:57:26Z</time>
      </trkpt>
      <trkpt lat="44.04943" lon="7.42598">
        <ele>2554.3601074219</ele>
        <time>2011-10-01T07:57:29Z</time>
      </trkpt>
      <trkpt lat="44.04942" lon="7.42598">
        <ele>2554.8400878906</ele>
        <time>2011-10-01T07:57:36Z</time>
      </trkpt>
      <trkpt lat="44.0494" lon="7.42598">
        <ele>2557.2399902344</ele>
        <time>2011-10-01T07:57:39Z</time>
      </trkpt>
      <trkpt lat="44.0494" lon="7.42598">
        <ele>2557.2399902344</ele>
        <time>2011-10-01T07:57:40Z</time>
      </trkpt>
      <trkpt lat="44.04944" lon="7.42588">
        <ele>2559.169921875</ele>
        <time>2011-10-01T07:57:50Z</time>
      </trkpt>
      <trkpt lat="44.04942" lon="7.42578">
        <ele>2563.4899902344</ele>
        <time>2011-10-01T07:58:01Z</time>
      </trkpt>
      <trkpt lat="44.04942" lon="7.42577">
        <ele>2563.4899902344</ele>
        <time>2011-10-01T07:58:02Z</time>
      </trkpt>
      <trkpt lat="44.04942" lon="7.42571">
        <ele>2565.8999023438</ele>
        <time>2011-10-01T07:58:11Z</time>
      </trkpt>
      <trkpt lat="44.04937" lon="7.42573">
        <ele>2567.8200683594</ele>
        <time>2011-10-01T07:58:19Z</time>
      </trkpt>
      <trkpt lat="44.04932" lon="7.42573">
        <ele>2570.6999511719</ele>
        <time>2011-10-01T07:58:28Z</time>
      </trkpt>
      <trkpt lat="44.04927" lon="7.42571">
        <ele>2572.1398925781</ele>
        <time>2011-10-01T07:58:36Z</time>
      </trkpt>
      <trkpt lat="44.0492" lon="7.4257">
        <ele>2575.5100097656</ele>
        <time>2011-10-01T07:58:47Z</time>
      </trkpt>
      <trkpt lat="44.04919" lon="7.42571">
        <ele>2575.5100097656</ele>
        <time>2011-10-01T07:59:01Z</time>
      </trkpt>
      <trkpt lat="44.04918" lon="7.42571">
        <ele>2575.5100097656</ele>
        <time>2011-10-01T07:59:13Z</time>
      </trkpt>
      <trkpt lat="44.04917" lon="7.42568">
        <ele>2575.9899902344</ele>
        <time>2011-10-01T07:59:27Z</time>
      </trkpt>
      <trkpt lat="44.04915" lon="7.42543">
        <ele>2575.0300292969</ele>
        <time>2011-10-01T07:59:41Z</time>
      </trkpt>
      <trkpt lat="44.04914" lon="7.42534">
        <ele>2575.9899902344</ele>
        <time>2011-10-01T07:59:45Z</time>
      </trkpt>
      <trkpt lat="44.04914" lon="7.42528">
        <ele>2575.5100097656</ele>
        <time>2011-10-01T07:59:48Z</time>
      </trkpt>
      <trkpt lat="44.04913" lon="7.42511">
        <ele>2576.4699707031</ele>
        <time>2011-10-01T07:59:58Z</time>
      </trkpt>
      <trkpt lat="44.0491" lon="7.42499">
        <ele>2577.4299316406</ele>
        <time>2011-10-01T08:00:05Z</time>
      </trkpt>
      <trkpt lat="44.04909" lon="7.42495">
        <ele>2579.3500976562</ele>
        <time>2011-10-01T08:00:07Z</time>
      </trkpt>
      <trkpt lat="44.04908" lon="7.42492">
        <ele>2579.8400878906</ele>
        <time>2011-10-01T08:00:09Z</time>
      </trkpt>
      <trkpt lat="44.04901" lon="7.42476">
        <ele>2580.8000488281</ele>
        <time>2011-10-01T08:00:19Z</time>
      </trkpt>
      <trkpt lat="44.04901" lon="7.42468">
        <ele>2581.7600097656</ele>
        <time>2011-10-01T08:00:23Z</time>
      </trkpt>
      <trkpt lat="44.04903" lon="7.42459">
        <ele>2585.1201171875</ele>
        <time>2011-10-01T08:00:35Z</time>
      </trkpt>
      <trkpt lat="44.04902" lon="7.42456">
        <ele>2588.4899902344</ele>
        <time>2011-10-01T08:00:48Z</time>
      </trkpt>
      <trkpt lat="44.04902" lon="7.42456">
        <ele>2588.0100097656</ele>
        <time>2011-10-01T08:00:49Z</time>
      </trkpt>
      <trkpt lat="44.04903" lon="7.42456">
        <ele>2585.6000976562</ele>
        <time>2011-10-01T08:01:18Z</time>
      </trkpt>
      <trkpt lat="44.04902" lon="7.4245">
        <ele>2587.0400390625</ele>
        <time>2011-10-01T08:02:50Z</time>
      </trkpt>
      <trkpt lat="44.04897" lon="7.42438">
        <ele>2590.8898925781</ele>
        <time>2011-10-01T08:02:59Z</time>
      </trkpt>
      <trkpt lat="44.04897" lon="7.42435">
        <ele>2591.8500976562</ele>
        <time>2011-10-01T08:03:02Z</time>
      </trkpt>
      <trkpt lat="44.04904" lon="7.42436">
        <ele>2594.7399902344</ele>
        <time>2011-10-01T08:03:11Z</time>
      </trkpt>
      <trkpt lat="44.04908" lon="7.42436">
        <ele>2596.1799316406</ele>
        <time>2011-10-01T08:03:16Z</time>
      </trkpt>
      <trkpt lat="44.04908" lon="7.42436">
        <ele>2597.1398925781</ele>
        <time>2011-10-01T08:03:18Z</time>
      </trkpt>
      <trkpt lat="44.04907" lon="7.42434">
        <ele>2596.6599121094</ele>
        <time>2011-10-01T08:03:20Z</time>
      </trkpt>
      <trkpt lat="44.049" lon="7.42424">
        <ele>2600.5</ele>
        <time>2011-10-01T08:03:29Z</time>
      </trkpt>
      <trkpt lat="44.04893" lon="7.42414">
        <ele>2603.8701171875</ele>
        <time>2011-10-01T08:03:41Z</time>
      </trkpt>
      <trkpt lat="44.04893" lon="7.42414">
        <ele>2603.8701171875</ele>
        <time>2011-10-01T08:03:42Z</time>
      </trkpt>
      <trkpt lat="44.04894" lon="7.42412">
        <ele>2603.8701171875</ele>
        <time>2011-10-01T08:03:44Z</time>
      </trkpt>
      <trkpt lat="44.04897" lon="7.42412">
        <ele>2605.3100585938</ele>
        <time>2011-10-01T08:03:47Z</time>
      </trkpt>
      <trkpt lat="44.04901" lon="7.4241">
        <ele>2607.7099609375</ele>
        <time>2011-10-01T08:03:58Z</time>
      </trkpt>
      <trkpt lat="44.04893" lon="7.42402">
        <ele>2611.5600585938</ele>
        <time>2011-10-01T08:04:09Z</time>
      </trkpt>
      <trkpt lat="44.04892" lon="7.42402">
        <ele>2612.0400390625</ele>
        <time>2011-10-01T08:04:10Z</time>
      </trkpt>
      <trkpt lat="44.049" lon="7.42401">
        <ele>2613.9599609375</ele>
        <time>2011-10-01T08:04:19Z</time>
      </trkpt>
      <trkpt lat="44.04902" lon="7.42396">
        <ele>2616.8500976562</ele>
        <time>2011-10-01T08:04:32Z</time>
      </trkpt>
      <trkpt lat="44.04905" lon="7.42394">
        <ele>2619.25</ele>
        <time>2011-10-01T08:04:39Z</time>
      </trkpt>
      <trkpt lat="44.04905" lon="7.42389">
        <ele>2620.6899414062</ele>
        <time>2011-10-01T08:04:51Z</time>
      </trkpt>
      <trkpt lat="44.04904" lon="7.42385">
        <ele>2622.1298828125</ele>
        <time>2011-10-01T08:04:56Z</time>
      </trkpt>
      <trkpt lat="44.04907" lon="7.42385">
        <ele>2624.0600585938</ele>
        <time>2011-10-01T08:04:59Z</time>
      </trkpt>
      <trkpt lat="44.04907" lon="7.42381">
        <ele>2626.4599609375</ele>
        <time>2011-10-01T08:05:09Z</time>
      </trkpt>
      <trkpt lat="44.04903" lon="7.42377">
        <ele>2628.3798828125</ele>
        <time>2011-10-01T08:05:15Z</time>
      </trkpt>
      <trkpt lat="44.04909" lon="7.42376">
        <ele>2628.8601074219</ele>
        <time>2011-10-01T08:05:24Z</time>
      </trkpt>
      <trkpt lat="44.04914" lon="7.42378">
        <ele>2630.7900390625</ele>
        <time>2011-10-01T08:05:30Z</time>
      </trkpt>
      <trkpt lat="44.04906" lon="7.42371">
        <ele>2632.7099609375</ele>
        <time>2011-10-01T08:05:40Z</time>
      </trkpt>
      <trkpt lat="44.04903" lon="7.42368">
        <ele>2633.1899414062</ele>
        <time>2011-10-01T08:05:44Z</time>
      </trkpt>
      <trkpt lat="44.04906" lon="7.42365">
        <ele>2634.6298828125</ele>
        <time>2011-10-01T08:05:51Z</time>
      </trkpt>
      <trkpt lat="44.04909" lon="7.42362">
        <ele>2637.5100097656</ele>
        <time>2011-10-01T08:05:58Z</time>
      </trkpt>
      <trkpt lat="44.04913" lon="7.4236">
        <ele>2639.4399414062</ele>
        <time>2011-10-01T08:06:07Z</time>
      </trkpt>
      <trkpt lat="44.04905" lon="7.42353">
        <ele>2642.8000488281</ele>
        <time>2011-10-01T08:06:16Z</time>
      </trkpt>
      <trkpt lat="44.049" lon="7.42348">
        <ele>2645.6899414062</ele>
        <time>2011-10-01T08:06:25Z</time>
      </trkpt>
      <trkpt lat="44.049" lon="7.42347">
        <ele>2646.169921875</ele>
        <time>2011-10-01T08:06:27Z</time>
      </trkpt>
      <trkpt lat="44.04903" lon="7.42343">
        <ele>2649.5300292969</ele>
        <time>2011-10-01T08:06:37Z</time>
      </trkpt>
      <trkpt lat="44.049" lon="7.42341">
        <ele>2650.0100097656</ele>
        <time>2011-10-01T08:06:43Z</time>
      </trkpt>
      <trkpt lat="44.049" lon="7.42339">
        <ele>2651.4499511719</ele>
        <time>2011-10-01T08:06:45Z</time>
      </trkpt>
      <trkpt lat="44.04903" lon="7.42337">
        <ele>2652.8999023438</ele>
        <time>2011-10-01T08:06:50Z</time>
      </trkpt>
      <trkpt lat="44.04908" lon="7.42335">
        <ele>2654.8200683594</ele>
        <time>2011-10-01T08:06:57Z</time>
      </trkpt>
      <trkpt lat="44.04909" lon="7.42333">
        <ele>2654.3400878906</ele>
        <time>2011-10-01T08:07:03Z</time>
      </trkpt>
      <trkpt lat="44.04905" lon="7.4233">
        <ele>2657.2199707031</ele>
        <time>2011-10-01T08:07:07Z</time>
      </trkpt>
      <trkpt lat="44.04905" lon="7.42326">
        <ele>2660.5900878906</ele>
        <time>2011-10-01T08:07:13Z</time>
      </trkpt>
      <trkpt lat="44.04908" lon="7.42322">
        <ele>2662.5100097656</ele>
        <time>2011-10-01T08:07:25Z</time>
      </trkpt>
      <trkpt lat="44.04908" lon="7.42322">
        <ele>2662.5100097656</ele>
        <time>2011-10-01T08:07:26Z</time>
      </trkpt>
      <trkpt lat="44.04908" lon="7.42319">
        <ele>2662.0300292969</ele>
        <time>2011-10-01T08:07:32Z</time>
      </trkpt>
      <trkpt lat="44.04906" lon="7.42316">
        <ele>2664.9099121094</ele>
        <time>2011-10-01T08:07:36Z</time>
      </trkpt>
      <trkpt lat="44.04908" lon="7.42307">
        <ele>2668.7600097656</ele>
        <time>2011-10-01T08:07:49Z</time>
      </trkpt>
      <trkpt lat="44.04907" lon="7.42304">
        <ele>2670.1999511719</ele>
        <time>2011-10-01T08:07:53Z</time>
      </trkpt>
      <trkpt lat="44.04906" lon="7.42298">
        <ele>2671.6398925781</ele>
        <time>2011-10-01T08:08:00Z</time>
      </trkpt>
      <trkpt lat="44.04911" lon="7.42293">
        <ele>2675.4899902344</ele>
        <time>2011-10-01T08:08:10Z</time>
      </trkpt>
      <trkpt lat="44.04914" lon="7.42288">
        <ele>2676.9299316406</ele>
        <time>2011-10-01T08:08:18Z</time>
      </trkpt>
      <trkpt lat="44.04911" lon="7.42281">
        <ele>2679.330078125</ele>
        <time>2011-10-01T08:08:25Z</time>
      </trkpt>
      <trkpt lat="44.0491" lon="7.42279">
        <ele>2678.3701171875</ele>
        <time>2011-10-01T08:08:27Z</time>
      </trkpt>
      <trkpt lat="44.0491" lon="7.42279">
        <ele>2680.7700195312</ele>
        <time>2011-10-01T08:08:29Z</time>
      </trkpt>
      <trkpt lat="44.0491" lon="7.42279">
        <ele>2678.8500976562</ele>
        <time>2011-10-01T08:08:38Z</time>
      </trkpt>
      <trkpt lat="44.0491" lon="7.4228">
        <ele>2680.2900390625</ele>
        <time>2011-10-01T08:08:41Z</time>
      </trkpt>
      <trkpt lat="44.04911" lon="7.42279">
        <ele>2680.7700195312</ele>
        <time>2011-10-01T08:09:01Z</time>
      </trkpt>
      <trkpt lat="44.04912" lon="7.42278">
        <ele>2679.330078125</ele>
        <time>2011-10-01T08:09:23Z</time>
      </trkpt>
      <trkpt lat="44.04912" lon="7.42278">
        <ele>2679.330078125</ele>
        <time>2011-10-01T08:09:28Z</time>
      </trkpt>
      <trkpt lat="44.04913" lon="7.42278">
        <ele>2680.7700195312</ele>
        <time>2011-10-01T08:09:30Z</time>
      </trkpt>
      <trkpt lat="44.04913" lon="7.4228">
        <ele>2678.8500976562</ele>
        <time>2011-10-01T08:09:55Z</time>
      </trkpt>
      <trkpt lat="44.04913" lon="7.4228">
        <ele>2678.3701171875</ele>
        <time>2011-10-01T08:10:28Z</time>
      </trkpt>
      <trkpt lat="44.04913" lon="7.4228">
        <ele>2678.8500976562</ele>
        <time>2011-10-01T08:11:48Z</time>
      </trkpt>
      <trkpt lat="44.04913" lon="7.42279">
        <ele>2680.2900390625</ele>
        <time>2011-10-01T08:12:32Z</time>
      </trkpt>
      <trkpt lat="44.04915" lon="7.42278">
        <ele>2679.8100585938</ele>
        <time>2011-10-01T08:12:45Z</time>
      </trkpt>
      <trkpt lat="44.04914" lon="7.42277">
        <ele>2679.8100585938</ele>
        <time>2011-10-01T08:13:20Z</time>
      </trkpt>
      <trkpt lat="44.04913" lon="7.42282">
        <ele>2680.2900390625</ele>
        <time>2011-10-01T08:13:32Z</time>
      </trkpt>
      <trkpt lat="44.04913" lon="7.42283">
        <ele>2676.9299316406</ele>
        <time>2011-10-01T08:13:34Z</time>
      </trkpt>
      <trkpt lat="44.04912" lon="7.42287">
        <ele>2677.8898925781</ele>
        <time>2011-10-01T08:13:38Z</time>
      </trkpt>
      <trkpt lat="44.04911" lon="7.42288">
        <ele>2677.8898925781</ele>
        <time>2011-10-01T08:13:49Z</time>
      </trkpt>
      <trkpt lat="44.04909" lon="7.42289">
        <ele>2675.4899902344</ele>
        <time>2011-10-01T08:13:54Z</time>
      </trkpt>
      <trkpt lat="44.04901" lon="7.42287">
        <ele>2675.4899902344</ele>
        <time>2011-10-01T08:14:01Z</time>
      </trkpt>
      <trkpt lat="44.049" lon="7.42286">
        <ele>2675.9699707031</ele>
        <time>2011-10-01T08:14:03Z</time>
      </trkpt>
      <trkpt lat="44.04894" lon="7.42284">
        <ele>2676.4499511719</ele>
        <time>2011-10-01T08:14:15Z</time>
      </trkpt>
      <trkpt lat="44.04893" lon="7.42285">
        <ele>2675.4899902344</ele>
        <time>2011-10-01T08:14:57Z</time>
      </trkpt>
      <trkpt lat="44.04892" lon="7.42284">
        <ele>2674.5200195312</ele>
        <time>2011-10-01T08:15:00Z</time>
      </trkpt>
      <trkpt lat="44.04889" lon="7.4228">
        <ele>2672.6000976562</ele>
        <time>2011-10-01T08:15:06Z</time>
      </trkpt>
      <trkpt lat="44.04887" lon="7.42281">
        <ele>2672.6000976562</ele>
        <time>2011-10-01T08:15:08Z</time>
      </trkpt>
      <trkpt lat="44.04883" lon="7.42276">
        <ele>2668.7600097656</ele>
        <time>2011-10-01T08:15:15Z</time>
      </trkpt>
      <trkpt lat="44.04882" lon="7.42274">
        <ele>2668.7600097656</ele>
        <time>2011-10-01T08:15:16Z</time>
      </trkpt>
      <trkpt lat="44.04877" lon="7.42264">
        <ele>2665.8701171875</ele>
        <time>2011-10-01T08:15:23Z</time>
      </trkpt>
      <trkpt lat="44.04874" lon="7.42263">
        <ele>2664.9099121094</ele>
        <time>2011-10-01T08:15:26Z</time>
      </trkpt>
      <trkpt lat="44.04873" lon="7.42266">
        <ele>2663.9499511719</ele>
        <time>2011-10-01T08:15:28Z</time>
      </trkpt>
      <trkpt lat="44.04872" lon="7.42267">
        <ele>2662.9899902344</ele>
        <time>2011-10-01T08:15:29Z</time>
      </trkpt>
      <trkpt lat="44.04868" lon="7.42266">
        <ele>2660.5900878906</ele>
        <time>2011-10-01T08:15:36Z</time>
      </trkpt>
      <trkpt lat="44.04865" lon="7.42277">
        <ele>2655.7800292969</ele>
        <time>2011-10-01T08:15:44Z</time>
      </trkpt>
      <trkpt lat="44.04865" lon="7.42278">
        <ele>2655.7800292969</ele>
        <time>2011-10-01T08:15:45Z</time>
      </trkpt>
      <trkpt lat="44.04862" lon="7.42284">
        <ele>2654.8200683594</ele>
        <time>2011-10-01T08:15:48Z</time>
      </trkpt>
      <trkpt lat="44.0486" lon="7.4229">
        <ele>2652.8999023438</ele>
        <time>2011-10-01T08:15:51Z</time>
      </trkpt>
      <trkpt lat="44.04859" lon="7.42294">
        <ele>2651.4499511719</ele>
        <time>2011-10-01T08:15:53Z</time>
      </trkpt>
      <trkpt lat="44.04856" lon="7.42293">
        <ele>2650.0100097656</ele>
        <time>2011-10-01T08:15:57Z</time>
      </trkpt>
      <trkpt lat="44.04852" lon="7.42282">
        <ele>2646.169921875</ele>
        <time>2011-10-01T08:16:05Z</time>
      </trkpt>
      <trkpt lat="44.04848" lon="7.4228">
        <ele>2645.6899414062</ele>
        <time>2011-10-01T08:16:09Z</time>
      </trkpt>
      <trkpt lat="44.04847" lon="7.42282">
        <ele>2644.2399902344</ele>
        <time>2011-10-01T08:16:11Z</time>
      </trkpt>
      <trkpt lat="44.04845" lon="7.42286">
        <ele>2642.3200683594</ele>
        <time>2011-10-01T08:16:15Z</time>
      </trkpt>
      <trkpt lat="44.0484" lon="7.42278">
        <ele>2638.4799804688</ele>
        <time>2011-10-01T08:16:23Z</time>
      </trkpt>
      <trkpt lat="44.04836" lon="7.42274">
        <ele>2635.5900878906</ele>
        <time>2011-10-01T08:16:30Z</time>
      </trkpt>
      <trkpt lat="44.04836" lon="7.42274">
        <ele>2635.5900878906</ele>
        <time>2011-10-01T08:16:32Z</time>
      </trkpt>
      <trkpt lat="44.04829" lon="7.42266">
        <ele>2632.7099609375</ele>
        <time>2011-10-01T08:16:39Z</time>
      </trkpt>
      <trkpt lat="44.04825" lon="7.42277">
        <ele>2628.3798828125</ele>
        <time>2011-10-01T08:16:46Z</time>
      </trkpt>
      <trkpt lat="44.04822" lon="7.42298">
        <ele>2625.0200195312</ele>
        <time>2011-10-01T08:16:55Z</time>
      </trkpt>
      <trkpt lat="44.04822" lon="7.423">
        <ele>2624.5400390625</ele>
        <time>2011-10-01T08:16:56Z</time>
      </trkpt>
      <trkpt lat="44.0482" lon="7.42303">
        <ele>2623.0900878906</ele>
        <time>2011-10-01T08:16:59Z</time>
      </trkpt>
      <trkpt lat="44.04817" lon="7.42299">
        <ele>2621.169921875</ele>
        <time>2011-10-01T08:17:04Z</time>
      </trkpt>
      <trkpt lat="44.04814" lon="7.42291">
        <ele>2617.8100585938</ele>
        <time>2011-10-01T08:17:11Z</time>
      </trkpt>
      <trkpt lat="44.04813" lon="7.42289">
        <ele>2617.330078125</ele>
        <time>2011-10-01T08:17:15Z</time>
      </trkpt>
      <trkpt lat="44.04807" lon="7.42286">
        <ele>2613</ele>
        <time>2011-10-01T08:17:21Z</time>
      </trkpt>
      <trkpt lat="44.04805" lon="7.42284">
        <ele>2612.5200195312</ele>
        <time>2011-10-01T08:17:23Z</time>
      </trkpt>
      <trkpt lat="44.04803" lon="7.42282">
        <ele>2611.5600585938</ele>
        <time>2011-10-01T08:17:25Z</time>
      </trkpt>
      <trkpt lat="44.048" lon="7.42277">
        <ele>2610.6000976562</ele>
        <time>2011-10-01T08:17:29Z</time>
      </trkpt>
      <trkpt lat="44.048" lon="7.42277">
        <ele>2610.6000976562</ele>
        <time>2011-10-01T08:17:31Z</time>
      </trkpt>
      <trkpt lat="44.04799" lon="7.4228">
        <ele>2609.6398925781</ele>
        <time>2011-10-01T08:17:33Z</time>
      </trkpt>
      <trkpt lat="44.04799" lon="7.42281">
        <ele>2609.1599121094</ele>
        <time>2011-10-01T08:17:34Z</time>
      </trkpt>
      <trkpt lat="44.04797" lon="7.42279">
        <ele>2608.669921875</ele>
        <time>2011-10-01T08:17:38Z</time>
      </trkpt>
      <trkpt lat="44.04795" lon="7.42287">
        <ele>2604.3500976562</ele>
        <time>2011-10-01T08:17:44Z</time>
      </trkpt>
      <trkpt lat="44.04794" lon="7.42291">
        <ele>2602.4299316406</ele>
        <time>2011-10-01T08:17:46Z</time>
      </trkpt>
      <trkpt lat="44.04786" lon="7.42273">
        <ele>2598.580078125</ele>
        <time>2011-10-01T08:17:56Z</time>
      </trkpt>
      <trkpt lat="44.04784" lon="7.4227">
        <ele>2597.1398925781</ele>
        <time>2011-10-01T08:17:59Z</time>
      </trkpt>
      <trkpt lat="44.04779" lon="7.42261">
        <ele>2594.7399902344</ele>
        <time>2011-10-01T08:18:05Z</time>
      </trkpt>
      <trkpt lat="44.04776" lon="7.42247">
        <ele>2592.8100585938</ele>
        <time>2011-10-01T08:18:17Z</time>
      </trkpt>
      <trkpt lat="44.04772" lon="7.42238">
        <ele>2591.3701171875</ele>
        <time>2011-10-01T08:18:25Z</time>
      </trkpt>
      <trkpt lat="44.04769" lon="7.42234">
        <ele>2588.9699707031</ele>
        <time>2011-10-01T08:18:29Z</time>
      </trkpt>
      <trkpt lat="44.04764" lon="7.42229">
        <ele>2586.080078125</ele>
        <time>2011-10-01T08:18:39Z</time>
      </trkpt>
      <trkpt lat="44.04763" lon="7.42228">
        <ele>2585.6000976562</ele>
        <time>2011-10-01T08:18:40Z</time>
      </trkpt>
      <trkpt lat="44.04758" lon="7.42222">
        <ele>2582.2399902344</ele>
        <time>2011-10-01T08:18:46Z</time>
      </trkpt>
      <trkpt lat="44.04755" lon="7.4222">
        <ele>2581.2800292969</ele>
        <time>2011-10-01T08:18:48Z</time>
      </trkpt>
      <trkpt lat="44.0475" lon="7.42213">
        <ele>2578.8701171875</ele>
        <time>2011-10-01T08:18:52Z</time>
      </trkpt>
      <trkpt lat="44.04744" lon="7.42206">
        <ele>2575.5100097656</ele>
        <time>2011-10-01T08:18:57Z</time>
      </trkpt>
      <trkpt lat="44.04743" lon="7.42205">
        <ele>2575.0300292969</ele>
        <time>2011-10-01T08:18:58Z</time>
      </trkpt>
      <trkpt lat="44.0474" lon="7.422">
        <ele>2574.0700683594</ele>
        <time>2011-10-01T08:19:01Z</time>
      </trkpt>
      <trkpt lat="44.04733" lon="7.42189">
        <ele>2574.0700683594</ele>
        <time>2011-10-01T08:19:06Z</time>
      </trkpt>
      <trkpt lat="44.04723" lon="7.42178">
        <ele>2571.1799316406</ele>
        <time>2011-10-01T08:19:17Z</time>
      </trkpt>
      <trkpt lat="44.04722" lon="7.42178">
        <ele>2571.1799316406</ele>
        <time>2011-10-01T08:19:25Z</time>
      </trkpt>
      <trkpt lat="44.04717" lon="7.42176">
        <ele>2569.7399902344</ele>
        <time>2011-10-01T08:19:29Z</time>
      </trkpt>
      <trkpt lat="44.04711" lon="7.42172">
        <ele>2566.8601074219</ele>
        <time>2011-10-01T08:19:32Z</time>
      </trkpt>
      <trkpt lat="44.04703" lon="7.42166">
        <ele>2565.419921875</ele>
        <time>2011-10-01T08:19:36Z</time>
      </trkpt>
      <trkpt lat="44.04687" lon="7.42159">
        <ele>2562.0500488281</ele>
        <time>2011-10-01T08:19:44Z</time>
      </trkpt>
      <trkpt lat="44.04684" lon="7.42157">
        <ele>2563.4899902344</ele>
        <time>2011-10-01T08:19:47Z</time>
      </trkpt>
      <trkpt lat="44.0468" lon="7.42158">
        <ele>2560.1298828125</ele>
        <time>2011-10-01T08:19:51Z</time>
      </trkpt>
      <trkpt lat="44.04671" lon="7.42155">
        <ele>2560.1298828125</ele>
        <time>2011-10-01T08:19:56Z</time>
      </trkpt>
      <trkpt lat="44.04657" lon="7.42148">
        <ele>2558.6899414062</ele>
        <time>2011-10-01T08:20:03Z</time>
      </trkpt>
      <trkpt lat="44.0465" lon="7.42137">
        <ele>2558.6899414062</ele>
        <time>2011-10-01T08:20:09Z</time>
      </trkpt>
      <trkpt lat="44.04647" lon="7.42133">
        <ele>2560.6101074219</ele>
        <time>2011-10-01T08:20:12Z</time>
      </trkpt>
      <trkpt lat="44.04643" lon="7.42118">
        <ele>2560.6101074219</ele>
        <time>2011-10-01T08:20:20Z</time>
      </trkpt>
      <trkpt lat="44.04634" lon="7.42109">
        <ele>2559.6499023438</ele>
        <time>2011-10-01T08:20:31Z</time>
      </trkpt>
      <trkpt lat="44.04626" lon="7.42102">
        <ele>2558.2099609375</ele>
        <time>2011-10-01T08:20:41Z</time>
      </trkpt>
      <trkpt lat="44.04624" lon="7.42101">
        <ele>2558.6899414062</ele>
        <time>2011-10-01T08:20:43Z</time>
      </trkpt>
      <trkpt lat="44.0462" lon="7.42098">
        <ele>2559.169921875</ele>
        <time>2011-10-01T08:20:50Z</time>
      </trkpt>
      <trkpt lat="44.04615" lon="7.42092">
        <ele>2557.2399902344</ele>
        <time>2011-10-01T08:20:57Z</time>
      </trkpt>
      <trkpt lat="44.04609" lon="7.42089">
        <ele>2557.7299804688</ele>
        <time>2011-10-01T08:21:08Z</time>
      </trkpt>
      <trkpt lat="44.04603" lon="7.42086">
        <ele>2556.2800292969</ele>
        <time>2011-10-01T08:21:18Z</time>
      </trkpt>
      <trkpt lat="44.04592" lon="7.42084">
        <ele>2556.2800292969</ele>
        <time>2011-10-01T08:21:25Z</time>
      </trkpt>
      <trkpt lat="44.04576" lon="7.42082">
        <ele>2554.3601074219</ele>
        <time>2011-10-01T08:21:33Z</time>
      </trkpt>
      <trkpt lat="44.04564" lon="7.42078">
        <ele>2553.3999023438</ele>
        <time>2011-10-01T08:21:40Z</time>
      </trkpt>
      <trkpt lat="44.0456" lon="7.42078">
        <ele>2555.3200683594</ele>
        <time>2011-10-01T08:21:43Z</time>
      </trkpt>
      <trkpt lat="44.04559" lon="7.42078">
        <ele>2554.8400878906</ele>
        <time>2011-10-01T08:21:57Z</time>
      </trkpt>
      <trkpt lat="44.04556" lon="7.42079">
        <ele>2554.8400878906</ele>
        <time>2011-10-01T08:22:20Z</time>
      </trkpt>
      <trkpt lat="44.04549" lon="7.4208">
        <ele>2551</ele>
        <time>2011-10-01T08:22:29Z</time>
      </trkpt>
      <trkpt lat="44.04547" lon="7.42081">
        <ele>2551</ele>
        <time>2011-10-01T08:22:31Z</time>
      </trkpt>
      <trkpt lat="44.04544" lon="7.42083">
        <ele>2549.0700683594</ele>
        <time>2011-10-01T08:22:34Z</time>
      </trkpt>
      <trkpt lat="44.04538" lon="7.42081">
        <ele>2549.5500488281</ele>
        <time>2011-10-01T08:22:38Z</time>
      </trkpt>
      <trkpt lat="44.04515" lon="7.42082">
        <ele>2548.1101074219</ele>
        <time>2011-10-01T08:22:50Z</time>
      </trkpt>
      <trkpt lat="44.04504" lon="7.4209">
        <ele>2545.7099609375</ele>
        <time>2011-10-01T08:22:57Z</time>
      </trkpt>
      <trkpt lat="44.04496" lon="7.42088">
        <ele>2544.2700195312</ele>
        <time>2011-10-01T08:23:02Z</time>
      </trkpt>
      <trkpt lat="44.04489" lon="7.4209">
        <ele>2541.3798828125</ele>
        <time>2011-10-01T08:23:06Z</time>
      </trkpt>
      <trkpt lat="44.04482" lon="7.42092">
        <ele>2543.3100585938</ele>
        <time>2011-10-01T08:23:09Z</time>
      </trkpt>
      <trkpt lat="44.04472" lon="7.42093">
        <ele>2544.75</ele>
        <time>2011-10-01T08:23:17Z</time>
      </trkpt>
      <trkpt lat="44.04471" lon="7.42094">
        <ele>2545.2299804688</ele>
        <time>2011-10-01T08:23:18Z</time>
      </trkpt>
      <trkpt lat="44.04467" lon="7.42093">
        <ele>2544.75</ele>
        <time>2011-10-01T08:23:22Z</time>
      </trkpt>
      <trkpt lat="44.04468" lon="7.42086">
        <ele>2545.7099609375</ele>
        <time>2011-10-01T08:23:27Z</time>
      </trkpt>
      <trkpt lat="44.04463" lon="7.42075">
        <ele>2546.1899414062</ele>
        <time>2011-10-01T08:23:35Z</time>
      </trkpt>
      <trkpt lat="44.04456" lon="7.42069">
        <ele>2547.1499023438</ele>
        <time>2011-10-01T08:23:43Z</time>
      </trkpt>
      <trkpt lat="44.04451" lon="7.42068">
        <ele>2549.0700683594</ele>
        <time>2011-10-01T08:23:48Z</time>
      </trkpt>
      <trkpt lat="44.04442" lon="7.42064">
        <ele>2545.2299804688</ele>
        <time>2011-10-01T08:23:56Z</time>
      </trkpt>
      <trkpt lat="44.04436" lon="7.42056">
        <ele>2549.5500488281</ele>
        <time>2011-10-01T08:24:02Z</time>
      </trkpt>
      <trkpt lat="44.04431" lon="7.42049">
        <ele>2548.5900878906</ele>
        <time>2011-10-01T08:24:09Z</time>
      </trkpt>
      <trkpt lat="44.0443" lon="7.42049">
        <ele>2547.6298828125</ele>
        <time>2011-10-01T08:24:11Z</time>
      </trkpt>
      <trkpt lat="44.04426" lon="7.42047">
        <ele>2546.669921875</ele>
        <time>2011-10-01T08:24:16Z</time>
      </trkpt>
      <trkpt lat="44.04425" lon="7.42044">
        <ele>2544.2700195312</ele>
        <time>2011-10-01T08:24:19Z</time>
      </trkpt>
      <trkpt lat="44.04422" lon="7.42038">
        <ele>2541.8601074219</ele>
        <time>2011-10-01T08:24:23Z</time>
      </trkpt>
      <trkpt lat="44.04414" lon="7.42038">
        <ele>2538.5</ele>
        <time>2011-10-01T08:24:30Z</time>
      </trkpt>
      <trkpt lat="44.04414" lon="7.42038">
        <ele>2538.5</ele>
        <time>2011-10-01T08:24:31Z</time>
      </trkpt>
      <trkpt lat="44.04408" lon="7.42039">
        <ele>2537.0600585938</ele>
        <time>2011-10-01T08:24:40Z</time>
      </trkpt>
      <trkpt lat="44.04405" lon="7.42042">
        <ele>2536.1000976562</ele>
        <time>2011-10-01T08:24:45Z</time>
      </trkpt>
      <trkpt lat="44.04395" lon="7.42044">
        <ele>2534.169921875</ele>
        <time>2011-10-01T08:24:52Z</time>
      </trkpt>
      <trkpt lat="44.04387" lon="7.42045">
        <ele>2534.6499023438</ele>
        <time>2011-10-01T08:25:00Z</time>
      </trkpt>
      <trkpt lat="44.04381" lon="7.42054">
        <ele>2532.25</ele>
        <time>2011-10-01T08:25:07Z</time>
      </trkpt>
      <trkpt lat="44.04379" lon="7.42057">
        <ele>2531.7700195312</ele>
        <time>2011-10-01T08:25:10Z</time>
      </trkpt>
      <trkpt lat="44.04372" lon="7.42061">
        <ele>2531.7700195312</ele>
        <time>2011-10-01T08:25:20Z</time>
      </trkpt>
      <trkpt lat="44.04367" lon="7.4206">
        <ele>2531.2900390625</ele>
        <time>2011-10-01T08:25:30Z</time>
      </trkpt>
      <trkpt lat="44.04366" lon="7.42063">
        <ele>2530.330078125</ele>
        <time>2011-10-01T08:25:43Z</time>
      </trkpt>
      <trkpt lat="44.04366" lon="7.42063">
        <ele>2528.8898925781</ele>
        <time>2011-10-01T08:25:44Z</time>
      </trkpt>
      <trkpt lat="44.04355" lon="7.42062">
        <ele>2528.3999023438</ele>
        <time>2011-10-01T08:25:54Z</time>
      </trkpt>
      <trkpt lat="44.04347" lon="7.42065">
        <ele>2527.4399414062</ele>
        <time>2011-10-01T08:26:06Z</time>
      </trkpt>
      <trkpt lat="44.04346" lon="7.42073">
        <ele>2525.5200195312</ele>
        <time>2011-10-01T08:26:17Z</time>
      </trkpt>
      <trkpt lat="44.0433" lon="7.42075">
        <ele>2525.0400390625</ele>
        <time>2011-10-01T08:26:30Z</time>
      </trkpt>
      <trkpt lat="44.04325" lon="7.42074">
        <ele>2524.080078125</ele>
        <time>2011-10-01T08:26:35Z</time>
      </trkpt>
      <trkpt lat="44.04323" lon="7.42075">
        <ele>2522.1599121094</ele>
        <time>2011-10-01T08:26:38Z</time>
      </trkpt>
      <trkpt lat="44.04319" lon="7.42079">
        <ele>2519.75</ele>
        <time>2011-10-01T08:26:43Z</time>
      </trkpt>
      <trkpt lat="44.04313" lon="7.42084">
        <ele>2516.8701171875</ele>
        <time>2011-10-01T08:26:48Z</time>
      </trkpt>
      <trkpt lat="44.04312" lon="7.42087">
        <ele>2515.4299316406</ele>
        <time>2011-10-01T08:26:51Z</time>
      </trkpt>
      <trkpt lat="44.0431" lon="7.42089">
        <ele>2514.4699707031</ele>
        <time>2011-10-01T08:26:53Z</time>
      </trkpt>
      <trkpt lat="44.04305" lon="7.42094">
        <ele>2511.580078125</ele>
        <time>2011-10-01T08:27:02Z</time>
      </trkpt>
      <trkpt lat="44.04303" lon="7.42094">
        <ele>2511.1000976562</ele>
        <time>2011-10-01T08:27:05Z</time>
      </trkpt>
      <trkpt lat="44.04299" lon="7.42096">
        <ele>2510.1398925781</ele>
        <time>2011-10-01T08:27:10Z</time>
      </trkpt>
      <trkpt lat="44.04298" lon="7.42097">
        <ele>2508.6999511719</ele>
        <time>2011-10-01T08:27:11Z</time>
      </trkpt>
      <trkpt lat="44.0429" lon="7.42103">
        <ele>2507.2600097656</ele>
        <time>2011-10-01T08:27:17Z</time>
      </trkpt>
      <trkpt lat="44.04287" lon="7.42107">
        <ele>2505.8100585938</ele>
        <time>2011-10-01T08:27:21Z</time>
      </trkpt>
      <trkpt lat="44.04282" lon="7.42109">
        <ele>2503.8898925781</ele>
        <time>2011-10-01T08:27:25Z</time>
      </trkpt>
      <trkpt lat="44.04279" lon="7.42111">
        <ele>2502.9299316406</ele>
        <time>2011-10-01T08:27:28Z</time>
      </trkpt>
      <trkpt lat="44.04277" lon="7.42113">
        <ele>2501.4899902344</ele>
        <time>2011-10-01T08:27:31Z</time>
      </trkpt>
      <trkpt lat="44.04275" lon="7.42118">
        <ele>2499.5700683594</ele>
        <time>2011-10-01T08:27:35Z</time>
      </trkpt>
      <trkpt lat="44.04272" lon="7.4212">
        <ele>2498.1201171875</ele>
        <time>2011-10-01T08:27:38Z</time>
      </trkpt>
      <trkpt lat="44.04269" lon="7.42124">
        <ele>2496.6799316406</ele>
        <time>2011-10-01T08:27:42Z</time>
      </trkpt>
      <trkpt lat="44.04266" lon="7.42127">
        <ele>2494.7600097656</ele>
        <time>2011-10-01T08:27:45Z</time>
      </trkpt>
      <trkpt lat="44.04262" lon="7.42131">
        <ele>2491.8701171875</ele>
        <time>2011-10-01T08:27:49Z</time>
      </trkpt>
      <trkpt lat="44.04261" lon="7.42132">
        <ele>2491.3898925781</ele>
        <time>2011-10-01T08:27:50Z</time>
      </trkpt>
      <trkpt lat="44.04259" lon="7.42133">
        <ele>2490.4299316406</ele>
        <time>2011-10-01T08:27:52Z</time>
      </trkpt>
      <trkpt lat="44.04258" lon="7.42134">
        <ele>2489.9499511719</ele>
        <time>2011-10-01T08:27:54Z</time>
      </trkpt>
      <trkpt lat="44.04253" lon="7.42136">
        <ele>2487.5500488281</ele>
        <time>2011-10-01T08:27:59Z</time>
      </trkpt>
      <trkpt lat="44.0425" lon="7.42137">
        <ele>2486.5900878906</ele>
        <time>2011-10-01T08:28:01Z</time>
      </trkpt>
      <trkpt lat="44.04239" lon="7.42133">
        <ele>2485.1499023438</ele>
        <time>2011-10-01T08:28:13Z</time>
      </trkpt>
      <trkpt lat="44.04235" lon="7.42133">
        <ele>2483.2199707031</ele>
        <time>2011-10-01T08:28:25Z</time>
      </trkpt>
      <trkpt lat="44.04233" lon="7.42135">
        <ele>2481.3000488281</ele>
        <time>2011-10-01T08:28:30Z</time>
      </trkpt>
      <trkpt lat="44.04232" lon="7.42134">
        <ele>2479.8601074219</ele>
        <time>2011-10-01T08:28:32Z</time>
      </trkpt>
      <trkpt lat="44.04227" lon="7.42131">
        <ele>2480.3400878906</ele>
        <time>2011-10-01T08:28:38Z</time>
      </trkpt>
      <trkpt lat="44.04223" lon="7.42129">
        <ele>2480.3400878906</ele>
        <time>2011-10-01T08:28:47Z</time>
      </trkpt>
      <trkpt lat="44.04221" lon="7.42128">
        <ele>2479.3798828125</ele>
        <time>2011-10-01T08:28:51Z</time>
      </trkpt>
      <trkpt lat="44.04209" lon="7.42128">
        <ele>2478.419921875</ele>
        <time>2011-10-01T08:29:00Z</time>
      </trkpt>
      <trkpt lat="44.04205" lon="7.42128">
        <ele>2476.9699707031</ele>
        <time>2011-10-01T08:29:03Z</time>
      </trkpt>
      <trkpt lat="44.04188" lon="7.42137">
        <ele>2474.5700683594</ele>
        <time>2011-10-01T08:29:15Z</time>
      </trkpt>
      <trkpt lat="44.04182" lon="7.42136">
        <ele>2473.1298828125</ele>
        <time>2011-10-01T08:29:19Z</time>
      </trkpt>
      <trkpt lat="44.04176" lon="7.42136">
        <ele>2471.2099609375</ele>
        <time>2011-10-01T08:29:28Z</time>
      </trkpt>
      <trkpt lat="44.04156" lon="7.42125">
        <ele>2467.3601074219</ele>
        <time>2011-10-01T08:29:38Z</time>
      </trkpt>
      <trkpt lat="44.04154" lon="7.42124">
        <ele>2467.8400878906</ele>
        <time>2011-10-01T08:29:39Z</time>
      </trkpt>
      <trkpt lat="44.04144" lon="7.42123">
        <ele>2465.919921875</ele>
        <time>2011-10-01T08:29:45Z</time>
      </trkpt>
      <trkpt lat="44.04139" lon="7.42122">
        <ele>2464.4799804688</ele>
        <time>2011-10-01T08:29:53Z</time>
      </trkpt>
      <trkpt lat="44.04139" lon="7.4212">
        <ele>2464.4799804688</ele>
        <time>2011-10-01T08:29:57Z</time>
      </trkpt>
      <trkpt lat="44.04136" lon="7.42123">
        <ele>2462.0700683594</ele>
        <time>2011-10-01T08:30:01Z</time>
      </trkpt>
      <trkpt lat="44.04131" lon="7.42126">
        <ele>2463.0400390625</ele>
        <time>2011-10-01T08:30:13Z</time>
      </trkpt>
      <trkpt lat="44.04132" lon="7.42129">
        <ele>2463.5200195312</ele>
        <time>2011-10-01T08:30:32Z</time>
      </trkpt>
      <trkpt lat="44.04132" lon="7.42129">
        <ele>2460.6298828125</ele>
        <time>2011-10-01T08:30:34Z</time>
      </trkpt>
      <trkpt lat="44.04132" lon="7.42129">
        <ele>2464</ele>
        <time>2011-10-01T08:30:35Z</time>
      </trkpt>
      <trkpt lat="44.04133" lon="7.42128">
        <ele>2464</ele>
        <time>2011-10-01T08:30:48Z</time>
      </trkpt>
      <trkpt lat="44.04134" lon="7.42126">
        <ele>2462.5500488281</ele>
        <time>2011-10-01T08:31:37Z</time>
      </trkpt>
      <trkpt lat="44.04134" lon="7.42121">
        <ele>2461.5900878906</ele>
        <time>2011-10-01T08:32:05Z</time>
      </trkpt>
      <trkpt lat="44.04134" lon="7.42116">
        <ele>2460.6298828125</ele>
        <time>2011-10-01T08:32:22Z</time>
      </trkpt>
      <trkpt lat="44.04134" lon="7.4211">
        <ele>2458.7099609375</ele>
        <time>2011-10-01T08:32:27Z</time>
      </trkpt>
      <trkpt lat="44.04139" lon="7.42087">
        <ele>2454.8601074219</ele>
        <time>2011-10-01T08:32:36Z</time>
      </trkpt>
      <trkpt lat="44.04142" lon="7.42078">
        <ele>2453.419921875</ele>
        <time>2011-10-01T08:32:40Z</time>
      </trkpt>
      <trkpt lat="44.04132" lon="7.42084">
        <ele>2451.0200195312</ele>
        <time>2011-10-01T08:32:47Z</time>
      </trkpt>
      <trkpt lat="44.04119" lon="7.42096">
        <ele>2448.1298828125</ele>
        <time>2011-10-01T08:32:53Z</time>
      </trkpt>
      <trkpt lat="44.04114" lon="7.42101">
        <ele>2446.6899414062</ele>
        <time>2011-10-01T08:32:56Z</time>
      </trkpt>
      <trkpt lat="44.04114" lon="7.42087">
        <ele>2445.25</ele>
        <time>2011-10-01T08:33:02Z</time>
      </trkpt>
      <trkpt lat="44.04115" lon="7.42079">
        <ele>2442.3701171875</ele>
        <time>2011-10-01T08:33:05Z</time>
      </trkpt>
      <trkpt lat="44.04108" lon="7.42077">
        <ele>2440.4399414062</ele>
        <time>2011-10-01T08:33:09Z</time>
      </trkpt>
      <trkpt lat="44.04099" lon="7.42078">
        <ele>2437.5600585938</ele>
        <time>2011-10-01T08:33:13Z</time>
      </trkpt>
      <trkpt lat="44.04094" lon="7.42084">
        <ele>2434.1999511719</ele>
        <time>2011-10-01T08:33:18Z</time>
      </trkpt>
      <trkpt lat="44.04094" lon="7.42096">
        <ele>2432.75</ele>
        <time>2011-10-01T08:33:22Z</time>
      </trkpt>
      <trkpt lat="44.04089" lon="7.42119">
        <ele>2429.8701171875</ele>
        <time>2011-10-01T08:33:31Z</time>
      </trkpt>
      <trkpt lat="44.04088" lon="7.42121">
        <ele>2429.3898925781</ele>
        <time>2011-10-01T08:33:32Z</time>
      </trkpt>
      <trkpt lat="44.04082" lon="7.42133">
        <ele>2426.0200195312</ele>
        <time>2011-10-01T08:33:38Z</time>
      </trkpt>
      <trkpt lat="44.04079" lon="7.4214">
        <ele>2424.580078125</ele>
        <time>2011-10-01T08:33:41Z</time>
      </trkpt>
      <trkpt lat="44.04068" lon="7.42152">
        <ele>2421.2199707031</ele>
        <time>2011-10-01T08:33:47Z</time>
      </trkpt>
      <trkpt lat="44.04065" lon="7.42157">
        <ele>2419.7800292969</ele>
        <time>2011-10-01T08:33:49Z</time>
      </trkpt>
      <trkpt lat="44.04056" lon="7.42163">
        <ele>2417.3701171875</ele>
        <time>2011-10-01T08:33:54Z</time>
      </trkpt>
      <trkpt lat="44.04048" lon="7.42168">
        <ele>2415.4499511719</ele>
        <time>2011-10-01T08:33:58Z</time>
      </trkpt>
      <trkpt lat="44.04045" lon="7.42172">
        <ele>2414.0100097656</ele>
        <time>2011-10-01T08:34:00Z</time>
      </trkpt>
      <trkpt lat="44.04044" lon="7.42175">
        <ele>2414.0100097656</ele>
        <time>2011-10-01T08:34:01Z</time>
      </trkpt>
      <trkpt lat="44.04041" lon="7.42179">
        <ele>2412.5700683594</ele>
        <time>2011-10-01T08:34:05Z</time>
      </trkpt>
      <trkpt lat="44.04029" lon="7.42188">
        <ele>2407.7600097656</ele>
        <time>2011-10-01T08:34:12Z</time>
      </trkpt>
      <trkpt lat="44.04026" lon="7.42191">
        <ele>2405.8400878906</ele>
        <time>2011-10-01T08:34:14Z</time>
      </trkpt>
      <trkpt lat="44.04023" lon="7.42193">
        <ele>2407.7600097656</ele>
        <time>2011-10-01T08:34:17Z</time>
      </trkpt>
      <trkpt lat="44.0402" lon="7.42197">
        <ele>2404.3898925781</ele>
        <time>2011-10-01T08:34:21Z</time>
      </trkpt>
      <trkpt lat="44.04017" lon="7.42199">
        <ele>2402.9499511719</ele>
        <time>2011-10-01T08:34:23Z</time>
      </trkpt>
      <trkpt lat="44.04015" lon="7.42201">
        <ele>2402.9499511719</ele>
        <time>2011-10-01T08:34:24Z</time>
      </trkpt>
      <trkpt lat="44.04011" lon="7.42205">
        <ele>2398.6298828125</ele>
        <time>2011-10-01T08:34:26Z</time>
      </trkpt>
      <trkpt lat="44.04009" lon="7.42207">
        <ele>2398.1499023438</ele>
        <time>2011-10-01T08:34:27Z</time>
      </trkpt>
      <trkpt lat="44.04005" lon="7.4221">
        <ele>2399.1101074219</ele>
        <time>2011-10-01T08:34:29Z</time>
      </trkpt>
      <trkpt lat="44.03995" lon="7.42211">
        <ele>2395.2600097656</ele>
        <time>2011-10-01T08:34:36Z</time>
      </trkpt>
      <trkpt lat="44.03989" lon="7.42213">
        <ele>2392.3798828125</ele>
        <time>2011-10-01T08:34:41Z</time>
      </trkpt>
      <trkpt lat="44.03983" lon="7.42217">
        <ele>2389.4899902344</ele>
        <time>2011-10-01T08:34:46Z</time>
      </trkpt>
      <trkpt lat="44.03981" lon="7.42217">
        <ele>2390.9399414062</ele>
        <time>2011-10-01T08:34:47Z</time>
      </trkpt>
      <trkpt lat="44.03976" lon="7.42218">
        <ele>2386.6101074219</ele>
        <time>2011-10-01T08:34:50Z</time>
      </trkpt>
      <trkpt lat="44.03964" lon="7.42218">
        <ele>2384.6899414062</ele>
        <time>2011-10-01T08:35:01Z</time>
      </trkpt>
      <trkpt lat="44.03962" lon="7.42218">
        <ele>2384.2099609375</ele>
        <time>2011-10-01T08:35:03Z</time>
      </trkpt>
      <trkpt lat="44.03955" lon="7.42217">
        <ele>2381.3200683594</ele>
        <time>2011-10-01T08:35:08Z</time>
      </trkpt>
      <trkpt lat="44.03953" lon="7.42216">
        <ele>2380.8400878906</ele>
        <time>2011-10-01T08:35:10Z</time>
      </trkpt>
      <trkpt lat="44.03952" lon="7.42215">
        <ele>2378.919921875</ele>
        <time>2011-10-01T08:35:12Z</time>
      </trkpt>
      <trkpt lat="44.03947" lon="7.42213">
        <ele>2378.4399414062</ele>
        <time>2011-10-01T08:35:17Z</time>
      </trkpt>
      <trkpt lat="44.03945" lon="7.42213">
        <ele>2375.0700683594</ele>
        <time>2011-10-01T08:35:19Z</time>
      </trkpt>
      <trkpt lat="44.03943" lon="7.42214">
        <ele>2375.5500488281</ele>
        <time>2011-10-01T08:35:20Z</time>
      </trkpt>
      <trkpt lat="44.03937" lon="7.42222">
        <ele>2373.6298828125</ele>
        <time>2011-10-01T08:35:27Z</time>
      </trkpt>
      <trkpt lat="44.03935" lon="7.42223">
        <ele>2372.1899414062</ele>
        <time>2011-10-01T08:35:29Z</time>
      </trkpt>
      <trkpt lat="44.03931" lon="7.42228">
        <ele>2370.2700195312</ele>
        <time>2011-10-01T08:35:37Z</time>
      </trkpt>
      <trkpt lat="44.03929" lon="7.42232">
        <ele>2367.8601074219</ele>
        <time>2011-10-01T08:35:41Z</time>
      </trkpt>
      <trkpt lat="44.03926" lon="7.42234">
        <ele>2368.830078125</ele>
        <time>2011-10-01T08:35:43Z</time>
      </trkpt>
      <trkpt lat="44.03922" lon="7.42241">
        <ele>2364.0200195312</ele>
        <time>2011-10-01T08:35:47Z</time>
      </trkpt>
      <trkpt lat="44.03918" lon="7.42248">
        <ele>2360.6499023438</ele>
        <time>2011-10-01T08:35:51Z</time>
      </trkpt>
      <trkpt lat="44.03917" lon="7.4225">
        <ele>2360.6499023438</ele>
        <time>2011-10-01T08:35:52Z</time>
      </trkpt>
      <trkpt lat="44.03915" lon="7.42254">
        <ele>2358.7299804688</ele>
        <time>2011-10-01T08:35:54Z</time>
      </trkpt>
      <trkpt lat="44.03911" lon="7.42259">
        <ele>2356.330078125</ele>
        <time>2011-10-01T08:35:58Z</time>
      </trkpt>
      <trkpt lat="44.03909" lon="7.42261">
        <ele>2354.4099121094</ele>
        <time>2011-10-01T08:36:04Z</time>
      </trkpt>
      <trkpt lat="44.03906" lon="7.42265">
        <ele>2352.9599609375</ele>
        <time>2011-10-01T08:36:07Z</time>
      </trkpt>
      <trkpt lat="44.03896" lon="7.42269">
        <ele>2349.6000976562</ele>
        <time>2011-10-01T08:36:19Z</time>
      </trkpt>
      <trkpt lat="44.03889" lon="7.42278">
        <ele>2345.2700195312</ele>
        <time>2011-10-01T08:36:27Z</time>
      </trkpt>
      <trkpt lat="44.03887" lon="7.4228">
        <ele>2342.3898925781</ele>
        <time>2011-10-01T08:36:29Z</time>
      </trkpt>
      <trkpt lat="44.03884" lon="7.42282">
        <ele>2342.3898925781</ele>
        <time>2011-10-01T08:36:31Z</time>
      </trkpt>
      <trkpt lat="44.03879" lon="7.42288">
        <ele>2338.5400390625</ele>
        <time>2011-10-01T08:36:36Z</time>
      </trkpt>
      <trkpt lat="44.03878" lon="7.42291">
        <ele>2337.1000976562</ele>
        <time>2011-10-01T08:36:37Z</time>
      </trkpt>
      <trkpt lat="44.03871" lon="7.42309">
        <ele>2333.7399902344</ele>
        <time>2011-10-01T08:36:44Z</time>
      </trkpt>
      <trkpt lat="44.03867" lon="7.42326">
        <ele>2330.8500976562</ele>
        <time>2011-10-01T08:36:54Z</time>
      </trkpt>
      <trkpt lat="44.03864" lon="7.42333">
        <ele>2329.8898925781</ele>
        <time>2011-10-01T08:36:58Z</time>
      </trkpt>
      <trkpt lat="44.03858" lon="7.42335">
        <ele>2327.9699707031</ele>
        <time>2011-10-01T08:37:03Z</time>
      </trkpt>
      <trkpt lat="44.03854" lon="7.42326">
        <ele>2327.0100097656</ele>
        <time>2011-10-01T08:37:06Z</time>
      </trkpt>
      <trkpt lat="44.03847" lon="7.42295">
        <ele>2323.1599121094</ele>
        <time>2011-10-01T08:37:16Z</time>
      </trkpt>
      <trkpt lat="44.03846" lon="7.4229">
        <ele>2322.1999511719</ele>
        <time>2011-10-01T08:37:18Z</time>
      </trkpt>
      <trkpt lat="44.03845" lon="7.42287">
        <ele>2322.6799316406</ele>
        <time>2011-10-01T08:37:19Z</time>
      </trkpt>
      <trkpt lat="44.0384" lon="7.42302">
        <ele>2321.2399902344</ele>
        <time>2011-10-01T08:37:26Z</time>
      </trkpt>
      <trkpt lat="44.03835" lon="7.42326">
        <ele>2317.8798828125</ele>
        <time>2011-10-01T08:37:33Z</time>
      </trkpt>
      <trkpt lat="44.0383" lon="7.42356">
        <ele>2314.5100097656</ele>
        <time>2011-10-01T08:37:42Z</time>
      </trkpt>
      <trkpt lat="44.0383" lon="7.42359">
        <ele>2314.5100097656</ele>
        <time>2011-10-01T08:37:43Z</time>
      </trkpt>
      <trkpt lat="44.03828" lon="7.42362">
        <ele>2314.0300292969</ele>
        <time>2011-10-01T08:37:46Z</time>
      </trkpt>
      <trkpt lat="44.03818" lon="7.42334">
        <ele>2310.1899414062</ele>
        <time>2011-10-01T08:37:57Z</time>
      </trkpt>
      <trkpt lat="44.03815" lon="7.42323">
        <ele>2308.7399902344</ele>
        <time>2011-10-01T08:38:00Z</time>
      </trkpt>
      <trkpt lat="44.03814" lon="7.42316">
        <ele>2307.3000488281</ele>
        <time>2011-10-01T08:38:02Z</time>
      </trkpt>
      <trkpt lat="44.0381" lon="7.42306">
        <ele>2305.8601074219</ele>
        <time>2011-10-01T08:38:06Z</time>
      </trkpt>
      <trkpt lat="44.03809" lon="7.42301">
        <ele>2305.3798828125</ele>
        <time>2011-10-01T08:38:08Z</time>
      </trkpt>
      <trkpt lat="44.03809" lon="7.42289">
        <ele>2302.9799804688</ele>
        <time>2011-10-01T08:38:12Z</time>
      </trkpt>
      <trkpt lat="44.03807" lon="7.42267">
        <ele>2299.1298828125</ele>
        <time>2011-10-01T08:38:20Z</time>
      </trkpt>
      <trkpt lat="44.03807" lon="7.42264">
        <ele>2298.6499023438</ele>
        <time>2011-10-01T08:38:21Z</time>
      </trkpt>
      <trkpt lat="44.03809" lon="7.42243">
        <ele>2295.2800292969</ele>
        <time>2011-10-01T08:38:28Z</time>
      </trkpt>
      <trkpt lat="44.0381" lon="7.42228">
        <ele>2291.919921875</ele>
        <time>2011-10-01T08:38:34Z</time>
      </trkpt>
      <trkpt lat="44.03809" lon="7.42226">
        <ele>2292.8798828125</ele>
        <time>2011-10-01T08:38:36Z</time>
      </trkpt>
      <trkpt lat="44.03808" lon="7.42227">
        <ele>2291.4399414062</ele>
        <time>2011-10-01T08:38:38Z</time>
      </trkpt>
      <trkpt lat="44.03804" lon="7.42232">
        <ele>2289.5200195312</ele>
        <time>2011-10-01T08:38:40Z</time>
      </trkpt>
      <trkpt lat="44.03791" lon="7.42253">
        <ele>2285.669921875</ele>
        <time>2011-10-01T08:38:49Z</time>
      </trkpt>
      <trkpt lat="44.03776" lon="7.42271">
        <ele>2282.3100585938</ele>
        <time>2011-10-01T08:38:58Z</time>
      </trkpt>
      <trkpt lat="44.03772" lon="7.42275">
        <ele>2281.3500976562</ele>
        <time>2011-10-01T08:39:00Z</time>
      </trkpt>
      <trkpt lat="44.03762" lon="7.42291">
        <ele>2278.9399414062</ele>
        <time>2011-10-01T08:39:06Z</time>
      </trkpt>
      <trkpt lat="44.03752" lon="7.42301">
        <ele>2275.580078125</ele>
        <time>2011-10-01T08:39:11Z</time>
      </trkpt>
      <trkpt lat="44.03737" lon="7.42324">
        <ele>2274.1398925781</ele>
        <time>2011-10-01T08:39:20Z</time>
      </trkpt>
      <trkpt lat="44.03734" lon="7.42332">
        <ele>2272.6899414062</ele>
        <time>2011-10-01T08:39:23Z</time>
      </trkpt>
      <trkpt lat="44.0373" lon="7.42338">
        <ele>2269.8100585938</ele>
        <time>2011-10-01T08:39:27Z</time>
      </trkpt>
      <trkpt lat="44.03727" lon="7.42336">
        <ele>2268.3701171875</ele>
        <time>2011-10-01T08:39:29Z</time>
      </trkpt>
      <trkpt lat="44.03719" lon="7.42332">
        <ele>2265</ele>
        <time>2011-10-01T08:39:34Z</time>
      </trkpt>
      <trkpt lat="44.03714" lon="7.42325">
        <ele>2263.080078125</ele>
        <time>2011-10-01T08:39:38Z</time>
      </trkpt>
      <trkpt lat="44.03711" lon="7.4231">
        <ele>2260.1999511719</ele>
        <time>2011-10-01T08:39:43Z</time>
      </trkpt>
      <trkpt lat="44.0371" lon="7.42308">
        <ele>2259.2399902344</ele>
        <time>2011-10-01T08:39:45Z</time>
      </trkpt>
      <trkpt lat="44.03707" lon="7.42309">
        <ele>2258.75</ele>
        <time>2011-10-01T08:39:47Z</time>
      </trkpt>
      <trkpt lat="44.03699" lon="7.42315">
        <ele>2255.3898925781</ele>
        <time>2011-10-01T08:39:51Z</time>
      </trkpt>
      <trkpt lat="44.03689" lon="7.42316">
        <ele>2251.5400390625</ele>
        <time>2011-10-01T08:39:56Z</time>
      </trkpt>
      <trkpt lat="44.03687" lon="7.42316">
        <ele>2252.0300292969</ele>
        <time>2011-10-01T08:39:57Z</time>
      </trkpt>
      <trkpt lat="44.03683" lon="7.42315">
        <ele>2248.6599121094</ele>
        <time>2011-10-01T08:39:59Z</time>
      </trkpt>
      <trkpt lat="44.03678" lon="7.4232">
        <ele>2248.1799316406</ele>
        <time>2011-10-01T08:40:03Z</time>
      </trkpt>
      <trkpt lat="44.03674" lon="7.42324">
        <ele>2246.2600097656</ele>
        <time>2011-10-01T08:40:06Z</time>
      </trkpt>
      <trkpt lat="44.03668" lon="7.42323">
        <ele>2244.330078125</ele>
        <time>2011-10-01T08:40:09Z</time>
      </trkpt>
      <trkpt lat="44.03663" lon="7.42319">
        <ele>2240.4899902344</ele>
        <time>2011-10-01T08:40:12Z</time>
      </trkpt>
      <trkpt lat="44.03655" lon="7.42317">
        <ele>2238.0900878906</ele>
        <time>2011-10-01T08:40:16Z</time>
      </trkpt>
      <trkpt lat="44.03651" lon="7.42318">
        <ele>2236.6398925781</ele>
        <time>2011-10-01T08:40:18Z</time>
      </trkpt>
      <trkpt lat="44.03643" lon="7.42319">
        <ele>2233.2800292969</ele>
        <time>2011-10-01T08:40:22Z</time>
      </trkpt>
      <trkpt lat="44.03637" lon="7.42317">
        <ele>2231.3601074219</ele>
        <time>2011-10-01T08:40:31Z</time>
      </trkpt>
      <trkpt lat="44.03634" lon="7.42316">
        <ele>2229.919921875</ele>
        <time>2011-10-01T08:40:33Z</time>
      </trkpt>
      <trkpt lat="44.03627" lon="7.42315">
        <ele>2228.4699707031</ele>
        <time>2011-10-01T08:40:36Z</time>
      </trkpt>
      <trkpt lat="44.03618" lon="7.42315">
        <ele>2225.1101074219</ele>
        <time>2011-10-01T08:40:40Z</time>
      </trkpt>
      <trkpt lat="44.03616" lon="7.42315">
        <ele>2225.1101074219</ele>
        <time>2011-10-01T08:40:41Z</time>
      </trkpt>
      <trkpt lat="44.03598" lon="7.42317">
        <ele>2220.3000488281</ele>
        <time>2011-10-01T08:40:48Z</time>
      </trkpt>
      <trkpt lat="44.03595" lon="7.42317">
        <ele>2221.2600097656</ele>
        <time>2011-10-01T08:40:49Z</time>
      </trkpt>
      <trkpt lat="44.03577" lon="7.42314">
        <ele>2218.3798828125</ele>
        <time>2011-10-01T08:40:56Z</time>
      </trkpt>
      <trkpt lat="44.03574" lon="7.42313">
        <ele>2217.8999023438</ele>
        <time>2011-10-01T08:40:57Z</time>
      </trkpt>
      <trkpt lat="44.03545" lon="7.42303">
        <ele>2216.4599609375</ele>
        <time>2011-10-01T08:41:08Z</time>
      </trkpt>
      <trkpt lat="44.03527" lon="7.42297">
        <ele>2217.419921875</ele>
        <time>2011-10-01T08:41:16Z</time>
      </trkpt>
      <trkpt lat="44.03508" lon="7.42296">
        <ele>2217.419921875</ele>
        <time>2011-10-01T08:41:25Z</time>
      </trkpt>
      <trkpt lat="44.03488" lon="7.42292">
        <ele>2216.9399414062</ele>
        <time>2011-10-01T08:41:34Z</time>
      </trkpt>
      <trkpt lat="44.03473" lon="7.42291">
        <ele>2218.8601074219</ele>
        <time>2011-10-01T08:41:48Z</time>
      </trkpt>
      <trkpt lat="44.03473" lon="7.42292">
        <ele>2218.3798828125</ele>
        <time>2011-10-01T08:42:47Z</time>
      </trkpt>
      <trkpt lat="44.03473" lon="7.42292">
        <ele>2214.5300292969</ele>
        <time>2011-10-01T08:43:28Z</time>
      </trkpt>
      <trkpt lat="44.03473" lon="7.42292">
        <ele>2218.3798828125</ele>
        <time>2011-10-01T08:43:29Z</time>
      </trkpt>
      <trkpt lat="44.03473" lon="7.42291">
        <ele>2218.3798828125</ele>
        <time>2011-10-01T08:44:09Z</time>
      </trkpt>
      <trkpt lat="44.03473" lon="7.42292">
        <ele>2215.5</ele>
        <time>2011-10-01T08:44:13Z</time>
      </trkpt>
      <trkpt lat="44.03473" lon="7.42292">
        <ele>2215.9799804688</ele>
        <time>2011-10-01T08:44:15Z</time>
      </trkpt>
      <trkpt lat="44.03471" lon="7.42291">
        <ele>2217.8999023438</ele>
        <time>2011-10-01T08:44:19Z</time>
      </trkpt>
      <trkpt lat="44.03466" lon="7.42288">
        <ele>2215.5</ele>
        <time>2011-10-01T08:44:37Z</time>
      </trkpt>
      <trkpt lat="44.03464" lon="7.42288">
        <ele>2214.5300292969</ele>
        <time>2011-10-01T08:44:44Z</time>
      </trkpt>
      <trkpt lat="44.03454" lon="7.42291">
        <ele>2210.6899414062</ele>
        <time>2011-10-01T08:44:52Z</time>
      </trkpt>
      <trkpt lat="44.0344" lon="7.42291">
        <ele>2208.7700195312</ele>
        <time>2011-10-01T08:45:00Z</time>
      </trkpt>
      <trkpt lat="44.03427" lon="7.4228">
        <ele>2206.8400878906</ele>
        <time>2011-10-01T08:45:08Z</time>
      </trkpt>
      <trkpt lat="44.03405" lon="7.42273">
        <ele>2203.4799804688</ele>
        <time>2011-10-01T08:45:20Z</time>
      </trkpt>
      <trkpt lat="44.034" lon="7.42272">
        <ele>2202.5200195312</ele>
        <time>2011-10-01T08:45:23Z</time>
      </trkpt>
      <trkpt lat="44.03389" lon="7.42275">
        <ele>2199.1499023438</ele>
        <time>2011-10-01T08:45:31Z</time>
      </trkpt>
      <trkpt lat="44.03387" lon="7.42275">
        <ele>2199.6298828125</ele>
        <time>2011-10-01T08:45:33Z</time>
      </trkpt>
      <trkpt lat="44.03379" lon="7.42278">
        <ele>2196.75</ele>
        <time>2011-10-01T08:45:38Z</time>
      </trkpt>
      <trkpt lat="44.03376" lon="7.42279">
        <ele>2196.2700195312</ele>
        <time>2011-10-01T08:45:40Z</time>
      </trkpt>
      <trkpt lat="44.03379" lon="7.42254">
        <ele>2193.3898925781</ele>
        <time>2011-10-01T08:45:54Z</time>
      </trkpt>
      <trkpt lat="44.03386" lon="7.42232">
        <ele>2189.5400390625</ele>
        <time>2011-10-01T08:46:04Z</time>
      </trkpt>
      <trkpt lat="44.03378" lon="7.42234">
        <ele>2188.1000976562</ele>
        <time>2011-10-01T08:46:10Z</time>
      </trkpt>
      <trkpt lat="44.03362" lon="7.42244">
        <ele>2184.25</ele>
        <time>2011-10-01T08:46:17Z</time>
      </trkpt>
      <trkpt lat="44.0335" lon="7.42254">
        <ele>2181.3701171875</ele>
        <time>2011-10-01T08:46:23Z</time>
      </trkpt>
      <trkpt lat="44.03344" lon="7.42261">
        <ele>2179.9299316406</ele>
        <time>2011-10-01T08:46:26Z</time>
      </trkpt>
      <trkpt lat="44.03337" lon="7.42264">
        <ele>2177.0400390625</ele>
        <time>2011-10-01T08:46:31Z</time>
      </trkpt>
      <trkpt lat="44.03336" lon="7.42258">
        <ele>2177.0400390625</ele>
        <time>2011-10-01T08:46:34Z</time>
      </trkpt>
      <trkpt lat="44.03334" lon="7.42259">
        <ele>2174.6398925781</ele>
        <time>2011-10-01T08:46:36Z</time>
      </trkpt>
      <trkpt lat="44.03331" lon="7.4226">
        <ele>2173.1999511719</ele>
        <time>2011-10-01T08:46:38Z</time>
      </trkpt>
      <trkpt lat="44.03333" lon="7.4224">
        <ele>2170.3100585938</ele>
        <time>2011-10-01T08:46:46Z</time>
      </trkpt>
      <trkpt lat="44.03337" lon="7.42225">
        <ele>2167.9099121094</ele>
        <time>2011-10-01T08:46:52Z</time>
      </trkpt>
      <trkpt lat="44.03334" lon="7.42226">
        <ele>2166.9499511719</ele>
        <time>2011-10-01T08:46:56Z</time>
      </trkpt>
      <trkpt lat="44.03317" lon="7.42245">
        <ele>2163.580078125</ele>
        <time>2011-10-01T08:47:05Z</time>
      </trkpt>
      <trkpt lat="44.03315" lon="7.42247">
        <ele>2163.1000976562</ele>
        <time>2011-10-01T08:47:06Z</time>
      </trkpt>
      <trkpt lat="44.03312" lon="7.42249">
        <ele>2162.6201171875</ele>
        <time>2011-10-01T08:47:08Z</time>
      </trkpt>
      <trkpt lat="44.03312" lon="7.42241">
        <ele>2161.1799316406</ele>
        <time>2011-10-01T08:47:12Z</time>
      </trkpt>
      <trkpt lat="44.03314" lon="7.4223">
        <ele>2159.7399902344</ele>
        <time>2011-10-01T08:47:16Z</time>
      </trkpt>
      <trkpt lat="44.0331" lon="7.42235">
        <ele>2158.3000488281</ele>
        <time>2011-10-01T08:47:21Z</time>
      </trkpt>
      <trkpt lat="44.033" lon="7.4225">
        <ele>2156.3701171875</ele>
        <time>2011-10-01T08:47:27Z</time>
      </trkpt>
      <trkpt lat="44.03294" lon="7.42245">
        <ele>2152.5300292969</ele>
        <time>2011-10-01T08:47:33Z</time>
      </trkpt>
      <trkpt lat="44.03286" lon="7.42242">
        <ele>2149.6499023438</ele>
        <time>2011-10-01T08:47:41Z</time>
      </trkpt>
      <trkpt lat="44.03279" lon="7.42248">
        <ele>2147.2399902344</ele>
        <time>2011-10-01T08:47:45Z</time>
      </trkpt>
      <trkpt lat="44.03271" lon="7.42252">
        <ele>2144.3601074219</ele>
        <time>2011-10-01T08:47:50Z</time>
      </trkpt>
      <trkpt lat="44.03267" lon="7.42255">
        <ele>2142.4399414062</ele>
        <time>2011-10-01T08:47:53Z</time>
      </trkpt>
      <trkpt lat="44.03263" lon="7.42256">
        <ele>2140.9899902344</ele>
        <time>2011-10-01T08:47:55Z</time>
      </trkpt>
      <trkpt lat="44.03257" lon="7.4226">
        <ele>2139.0700683594</ele>
        <time>2011-10-01T08:47:58Z</time>
      </trkpt>
      <trkpt lat="44.03254" lon="7.42263">
        <ele>2137.6298828125</ele>
        <time>2011-10-01T08:48:00Z</time>
      </trkpt>
      <trkpt lat="44.03252" lon="7.42264">
        <ele>2137.1499023438</ele>
        <time>2011-10-01T08:48:01Z</time>
      </trkpt>
      <trkpt lat="44.03246" lon="7.42274">
        <ele>2135.2299804688</ele>
        <time>2011-10-01T08:48:06Z</time>
      </trkpt>
      <trkpt lat="44.03239" lon="7.42278">
        <ele>2131.3798828125</ele>
        <time>2011-10-01T08:48:10Z</time>
      </trkpt>
      <trkpt lat="44.03233" lon="7.42279">
        <ele>2129.4599609375</ele>
        <time>2011-10-01T08:48:14Z</time>
      </trkpt>
      <trkpt lat="44.03225" lon="7.42288">
        <ele>2126.0900878906</ele>
        <time>2011-10-01T08:48:19Z</time>
      </trkpt>
      <trkpt lat="44.03223" lon="7.4229">
        <ele>2125.6101074219</ele>
        <time>2011-10-01T08:48:20Z</time>
      </trkpt>
      <trkpt lat="44.03209" lon="7.42294">
        <ele>2122.25</ele>
        <time>2011-10-01T08:48:26Z</time>
      </trkpt>
      <trkpt lat="44.03197" lon="7.42302">
        <ele>2117.919921875</ele>
        <time>2011-10-01T08:48:32Z</time>
      </trkpt>
      <trkpt lat="44.03185" lon="7.42305">
        <ele>2116</ele>
        <time>2011-10-01T08:48:38Z</time>
      </trkpt>
      <trkpt lat="44.03177" lon="7.42301">
        <ele>2114.080078125</ele>
        <time>2011-10-01T08:48:42Z</time>
      </trkpt>
      <trkpt lat="44.03171" lon="7.42296">
        <ele>2113.1201171875</ele>
        <time>2011-10-01T08:48:58Z</time>
      </trkpt>
      <trkpt lat="44.03172" lon="7.42297">
        <ele>2113.1201171875</ele>
        <time>2011-10-01T08:49:18Z</time>
      </trkpt>
      <trkpt lat="44.03172" lon="7.42297">
        <ele>2112.1499023438</ele>
        <time>2011-10-01T08:49:46Z</time>
      </trkpt>
      <trkpt lat="44.03172" lon="7.42298">
        <ele>2112.6298828125</ele>
        <time>2011-10-01T08:49:55Z</time>
      </trkpt>
      <trkpt lat="44.03171" lon="7.42299">
        <ele>2113.1201171875</ele>
        <time>2011-10-01T08:50:19Z</time>
      </trkpt>
      <trkpt lat="44.03172" lon="7.42306">
        <ele>2111.669921875</ele>
        <time>2011-10-01T08:50:26Z</time>
      </trkpt>
      <trkpt lat="44.03174" lon="7.4232">
        <ele>2107.830078125</ele>
        <time>2011-10-01T08:50:32Z</time>
      </trkpt>
      <trkpt lat="44.03175" lon="7.4233">
        <ele>2104.9399414062</ele>
        <time>2011-10-01T08:50:36Z</time>
      </trkpt>
      <trkpt lat="44.03177" lon="7.42335">
        <ele>2103.9799804688</ele>
        <time>2011-10-01T08:50:38Z</time>
      </trkpt>
      <trkpt lat="44.03184" lon="7.42342">
        <ele>2101.1000976562</ele>
        <time>2011-10-01T08:50:43Z</time>
      </trkpt>
      <trkpt lat="44.03188" lon="7.42358">
        <ele>2098.6999511719</ele>
        <time>2011-10-01T08:50:50Z</time>
      </trkpt>
      <trkpt lat="44.03189" lon="7.42377">
        <ele>2096.7700195312</ele>
        <time>2011-10-01T08:50:59Z</time>
      </trkpt>
      <trkpt lat="44.03189" lon="7.42376">
        <ele>2096.2900390625</ele>
        <time>2011-10-01T08:51:07Z</time>
      </trkpt>
      <trkpt lat="44.03191" lon="7.42383">
        <ele>2096.2900390625</ele>
        <time>2011-10-01T08:51:25Z</time>
      </trkpt>
      <trkpt lat="44.03191" lon="7.42381">
        <ele>2096.7700195312</ele>
        <time>2011-10-01T08:51:45Z</time>
      </trkpt>
      <trkpt lat="44.03191" lon="7.42382">
        <ele>2096.7700195312</ele>
        <time>2011-10-01T08:52:05Z</time>
      </trkpt>
      <trkpt lat="44.03192" lon="7.42383">
        <ele>2095.8100585938</ele>
        <time>2011-10-01T08:52:29Z</time>
      </trkpt>
      <trkpt lat="44.03196" lon="7.42406">
        <ele>2095.8100585938</ele>
        <time>2011-10-01T08:52:41Z</time>
      </trkpt>
      <trkpt lat="44.03201" lon="7.4243">
        <ele>2092.4499511719</ele>
        <time>2011-10-01T08:52:49Z</time>
      </trkpt>
      <trkpt lat="44.03202" lon="7.42433">
        <ele>2092.4499511719</ele>
        <time>2011-10-01T08:52:50Z</time>
      </trkpt>
      <trkpt lat="44.03206" lon="7.42473">
        <ele>2090.5200195312</ele>
        <time>2011-10-01T08:53:02Z</time>
      </trkpt>
      <trkpt lat="44.03208" lon="7.42518">
        <ele>2090.0400390625</ele>
        <time>2011-10-01T08:53:15Z</time>
      </trkpt>
      <trkpt lat="44.03209" lon="7.42521">
        <ele>2090.0400390625</ele>
        <time>2011-10-01T08:53:16Z</time>
      </trkpt>
      <trkpt lat="44.03218" lon="7.42554">
        <ele>2088.1201171875</ele>
        <time>2011-10-01T08:53:28Z</time>
      </trkpt>
      <trkpt lat="44.03221" lon="7.42564">
        <ele>2086.1999511719</ele>
        <time>2011-10-01T08:53:32Z</time>
      </trkpt>
      <trkpt lat="44.03233" lon="7.4258">
        <ele>2084.2800292969</ele>
        <time>2011-10-01T08:53:40Z</time>
      </trkpt>
      <trkpt lat="44.03239" lon="7.42585">
        <ele>2084.2800292969</ele>
        <time>2011-10-01T08:53:43Z</time>
      </trkpt>
      <trkpt lat="44.03242" lon="7.42587">
        <ele>2083.7900390625</ele>
        <time>2011-10-01T08:53:45Z</time>
      </trkpt>
      <trkpt lat="44.03252" lon="7.42589">
        <ele>2083.3100585938</ele>
        <time>2011-10-01T08:53:50Z</time>
      </trkpt>
      <trkpt lat="44.03259" lon="7.42591">
        <ele>2084.2800292969</ele>
        <time>2011-10-01T08:53:53Z</time>
      </trkpt>
      <trkpt lat="44.03272" lon="7.42598">
        <ele>2084.7600097656</ele>
        <time>2011-10-01T08:54:00Z</time>
      </trkpt>
      <trkpt lat="44.03279" lon="7.426">
        <ele>2085.2399902344</ele>
        <time>2011-10-01T08:54:04Z</time>
      </trkpt>
      <trkpt lat="44.03304" lon="7.42611">
        <ele>2082.830078125</ele>
        <time>2011-10-01T08:54:16Z</time>
      </trkpt>
      <trkpt lat="44.03325" lon="7.42603">
        <ele>2082.830078125</ele>
        <time>2011-10-01T08:54:27Z</time>
      </trkpt>
      <trkpt lat="44.03329" lon="7.42601">
        <ele>2081.8701171875</ele>
        <time>2011-10-01T08:54:29Z</time>
      </trkpt>
      <trkpt lat="44.03358" lon="7.42588">
        <ele>2078.9899902344</ele>
        <time>2011-10-01T08:54:42Z</time>
      </trkpt>
      <trkpt lat="44.03382" lon="7.42585">
        <ele>2076.1000976562</ele>
        <time>2011-10-01T08:54:52Z</time>
      </trkpt>
      <trkpt lat="44.03396" lon="7.42591">
        <ele>2075.6201171875</ele>
        <time>2011-10-01T08:54:58Z</time>
      </trkpt>
      <trkpt lat="44.0342" lon="7.4259">
        <ele>2073.2199707031</ele>
        <time>2011-10-01T08:55:09Z</time>
      </trkpt>
      <trkpt lat="44.03441" lon="7.42594">
        <ele>2070.8200683594</ele>
        <time>2011-10-01T08:55:18Z</time>
      </trkpt>
      <trkpt lat="44.03445" lon="7.42598">
        <ele>2070.3400878906</ele>
        <time>2011-10-01T08:55:20Z</time>
      </trkpt>
      <trkpt lat="44.03474" lon="7.4261">
        <ele>2067.4499511719</ele>
        <time>2011-10-01T08:55:33Z</time>
      </trkpt>
      <trkpt lat="44.03498" lon="7.42632">
        <ele>2066.9699707031</ele>
        <time>2011-10-01T08:55:45Z</time>
      </trkpt>
      <trkpt lat="44.03521" lon="7.42653">
        <ele>2066.9699707031</ele>
        <time>2011-10-01T08:55:57Z</time>
      </trkpt>
      <trkpt lat="44.03537" lon="7.42667">
        <ele>2067.4499511719</ele>
        <time>2011-10-01T08:56:07Z</time>
      </trkpt>
      <trkpt lat="44.0355" lon="7.42667">
        <ele>2071.7800292969</ele>
        <time>2011-10-01T08:56:21Z</time>
      </trkpt>
      <trkpt lat="44.03556" lon="7.42668">
        <ele>2070.8200683594</ele>
        <time>2011-10-01T08:56:26Z</time>
      </trkpt>
      <trkpt lat="44.03558" lon="7.42668">
        <ele>2071.3000488281</ele>
        <time>2011-10-01T08:56:28Z</time>
      </trkpt>
      <trkpt lat="44.03584" lon="7.4268">
        <ele>2072.7399902344</ele>
        <time>2011-10-01T08:56:44Z</time>
      </trkpt>
      <trkpt lat="44.036" lon="7.42686">
        <ele>2074.6599121094</ele>
        <time>2011-10-01T08:56:55Z</time>
      </trkpt>
      <trkpt lat="44.03618" lon="7.42689">
        <ele>2077.5500488281</ele>
        <time>2011-10-01T08:57:08Z</time>
      </trkpt>
      <trkpt lat="44.03619" lon="7.42689">
        <ele>2077.0700683594</ele>
        <time>2011-10-01T08:57:09Z</time>
      </trkpt>
      <trkpt lat="44.03636" lon="7.42689">
        <ele>2081.3898925781</ele>
        <time>2011-10-01T08:57:22Z</time>
      </trkpt>
      <trkpt lat="44.03647" lon="7.42687">
        <ele>2083.7900390625</ele>
        <time>2011-10-01T08:57:35Z</time>
      </trkpt>
      <trkpt lat="44.03659" lon="7.42688">
        <ele>2086.6799316406</ele>
        <time>2011-10-01T08:57:48Z</time>
      </trkpt>
      <trkpt lat="44.03667" lon="7.4269">
        <ele>2088.1201171875</ele>
        <time>2011-10-01T08:57:55Z</time>
      </trkpt>
      <trkpt lat="44.03671" lon="7.42692">
        <ele>2089.5600585938</ele>
        <time>2011-10-01T08:57:59Z</time>
      </trkpt>
      <trkpt lat="44.03673" lon="7.42693">
        <ele>2090.0400390625</ele>
        <time>2011-10-01T08:58:01Z</time>
      </trkpt>
      <trkpt lat="44.03683" lon="7.42701">
        <ele>2091</ele>
        <time>2011-10-01T08:58:10Z</time>
      </trkpt>
      <trkpt lat="44.03687" lon="7.42701">
        <ele>2092.9299316406</ele>
        <time>2011-10-01T08:58:13Z</time>
      </trkpt>
      <trkpt lat="44.03693" lon="7.427">
        <ele>2093.8898925781</ele>
        <time>2011-10-01T08:58:22Z</time>
      </trkpt>
      <trkpt lat="44.03697" lon="7.42706">
        <ele>2095.330078125</ele>
        <time>2011-10-01T08:58:27Z</time>
      </trkpt>
      <trkpt lat="44.03701" lon="7.4271">
        <ele>2099.1799316406</ele>
        <time>2011-10-01T08:58:30Z</time>
      </trkpt>
      <trkpt lat="44.03702" lon="7.42712">
        <ele>2095.8100585938</ele>
        <time>2011-10-01T08:58:31Z</time>
      </trkpt>
      <trkpt lat="44.03703" lon="7.42713">
        <ele>2095.8100585938</ele>
        <time>2011-10-01T08:58:32Z</time>
      </trkpt>
      <trkpt lat="44.03707" lon="7.42719">
        <ele>2097.25</ele>
        <time>2011-10-01T08:58:36Z</time>
      </trkpt>
      <trkpt lat="44.03709" lon="7.42726">
        <ele>2098.6999511719</ele>
        <time>2011-10-01T08:58:42Z</time>
      </trkpt>
      <trkpt lat="44.03711" lon="7.42728">
        <ele>2098.6999511719</ele>
        <time>2011-10-01T08:58:44Z</time>
      </trkpt>
      <trkpt lat="44.03714" lon="7.42731">
        <ele>2099.1799316406</ele>
        <time>2011-10-01T08:58:49Z</time>
      </trkpt>
      <trkpt lat="44.03719" lon="7.42734">
        <ele>2099.1799316406</ele>
        <time>2011-10-01T08:58:54Z</time>
      </trkpt>
      <trkpt lat="44.03724" lon="7.42738">
        <ele>2100.1398925781</ele>
        <time>2011-10-01T08:58:59Z</time>
      </trkpt>
      <trkpt lat="44.03735" lon="7.42746">
        <ele>2101.580078125</ele>
        <time>2011-10-01T08:59:08Z</time>
      </trkpt>
      <trkpt lat="44.03741" lon="7.42752">
        <ele>2103.0200195312</ele>
        <time>2011-10-01T08:59:16Z</time>
      </trkpt>
      <trkpt lat="44.03743" lon="7.42753">
        <ele>2103.9799804688</ele>
        <time>2011-10-01T08:59:18Z</time>
      </trkpt>
      <trkpt lat="44.03745" lon="7.42759">
        <ele>2103.9799804688</ele>
        <time>2011-10-01T08:59:23Z</time>
      </trkpt>
      <trkpt lat="44.03758" lon="7.4278">
        <ele>2107.3500976562</ele>
        <time>2011-10-01T08:59:41Z</time>
      </trkpt>
      <trkpt lat="44.03764" lon="7.42788">
        <ele>2109.2700195312</ele>
        <time>2011-10-01T08:59:54Z</time>
      </trkpt>
      <trkpt lat="44.03765" lon="7.42791">
        <ele>2109.2700195312</ele>
        <time>2011-10-01T08:59:58Z</time>
      </trkpt>
      <trkpt lat="44.03776" lon="7.42799">
        <ele>2110.7099609375</ele>
        <time>2011-10-01T09:00:10Z</time>
      </trkpt>
      <trkpt lat="44.03786" lon="7.42813">
        <ele>2112.6298828125</ele>
        <time>2011-10-01T09:00:23Z</time>
      </trkpt>
      <trkpt lat="44.03788" lon="7.42815">
        <ele>2113.1201171875</ele>
        <time>2011-10-01T09:00:25Z</time>
      </trkpt>
      <trkpt lat="44.03795" lon="7.42822">
        <ele>2117.4399414062</ele>
        <time>2011-10-01T09:00:38Z</time>
      </trkpt>
      <trkpt lat="44.03799" lon="7.42825">
        <ele>2117.4399414062</ele>
        <time>2011-10-01T09:00:50Z</time>
      </trkpt>
      <trkpt lat="44.03805" lon="7.42828">
        <ele>2119.8400878906</ele>
        <time>2011-10-01T09:01:27Z</time>
      </trkpt>
      <trkpt lat="44.03807" lon="7.42832">
        <ele>2121.2900390625</ele>
        <time>2011-10-01T09:01:31Z</time>
      </trkpt>
      <trkpt lat="44.03811" lon="7.4284">
        <ele>2123.6899414062</ele>
        <time>2011-10-01T09:01:39Z</time>
      </trkpt>
      <trkpt lat="44.03818" lon="7.42846">
        <ele>2126.5700683594</ele>
        <time>2011-10-01T09:01:49Z</time>
      </trkpt>
      <trkpt lat="44.03819" lon="7.42848">
        <ele>2126.5700683594</ele>
        <time>2011-10-01T09:01:51Z</time>
      </trkpt>
      <trkpt lat="44.0382" lon="7.4285">
        <ele>2127.5300292969</ele>
        <time>2011-10-01T09:01:53Z</time>
      </trkpt>
      <trkpt lat="44.03829" lon="7.4286">
        <ele>2130.8999023438</ele>
        <time>2011-10-01T09:02:06Z</time>
      </trkpt>
      <trkpt lat="44.03836" lon="7.42864">
        <ele>2132.3400878906</ele>
        <time>2011-10-01T09:02:14Z</time>
      </trkpt>
      <trkpt lat="44.0384" lon="7.42869">
        <ele>2132.8200683594</ele>
        <time>2011-10-01T09:02:19Z</time>
      </trkpt>
      <trkpt lat="44.03849" lon="7.42876">
        <ele>2134.7399902344</ele>
        <time>2011-10-01T09:02:28Z</time>
      </trkpt>
      <trkpt lat="44.03856" lon="7.42882">
        <ele>2137.6298828125</ele>
        <time>2011-10-01T09:02:38Z</time>
      </trkpt>
      <trkpt lat="44.03875" lon="7.4289">
        <ele>2138.1101074219</ele>
        <time>2011-10-01T09:02:54Z</time>
      </trkpt>
      <trkpt lat="44.03881" lon="7.42891">
        <ele>2139.5500488281</ele>
        <time>2011-10-01T09:02:58Z</time>
      </trkpt>
      <trkpt lat="44.03885" lon="7.42892">
        <ele>2139.5500488281</ele>
        <time>2011-10-01T09:03:02Z</time>
      </trkpt>
      <trkpt lat="44.03895" lon="7.42901">
        <ele>2141.9499511719</ele>
        <time>2011-10-01T09:03:10Z</time>
      </trkpt>
      <trkpt lat="44.03899" lon="7.42903">
        <ele>2140.9899902344</ele>
        <time>2011-10-01T09:03:13Z</time>
      </trkpt>
      <trkpt lat="44.03902" lon="7.4291">
        <ele>2142.919921875</ele>
        <time>2011-10-01T09:03:19Z</time>
      </trkpt>
      <trkpt lat="44.03904" lon="7.4292">
        <ele>2143.8798828125</ele>
        <time>2011-10-01T09:03:26Z</time>
      </trkpt>
      <trkpt lat="44.03905" lon="7.42932">
        <ele>2144.8400878906</ele>
        <time>2011-10-01T09:03:34Z</time>
      </trkpt>
      <trkpt lat="44.03901" lon="7.42949">
        <ele>2146.2800292969</ele>
        <time>2011-10-01T09:03:44Z</time>
      </trkpt>
      <trkpt lat="44.03897" lon="7.42956">
        <ele>2148.1999511719</ele>
        <time>2011-10-01T09:03:50Z</time>
      </trkpt>
      <trkpt lat="44.03894" lon="7.42965">
        <ele>2150.1298828125</ele>
        <time>2011-10-01T09:03:59Z</time>
      </trkpt>
      <trkpt lat="44.03905" lon="7.42954">
        <ele>2153.0100097656</ele>
        <time>2011-10-01T09:04:11Z</time>
      </trkpt>
      <trkpt lat="44.03911" lon="7.42946">
        <ele>2155.4099121094</ele>
        <time>2011-10-01T09:04:20Z</time>
      </trkpt>
      <trkpt lat="44.03917" lon="7.42941">
        <ele>2157.3400878906</ele>
        <time>2011-10-01T09:04:29Z</time>
      </trkpt>
      <trkpt lat="44.03926" lon="7.42936">
        <ele>2160.6999511719</ele>
        <time>2011-10-01T09:04:42Z</time>
      </trkpt>
      <trkpt lat="44.03927" lon="7.42936">
        <ele>2160.2199707031</ele>
        <time>2011-10-01T09:04:43Z</time>
      </trkpt>
      <trkpt lat="44.03931" lon="7.42938">
        <ele>2163.580078125</ele>
        <time>2011-10-01T09:04:53Z</time>
      </trkpt>
      <trkpt lat="44.03941" lon="7.4293">
        <ele>2165.9899902344</ele>
        <time>2011-10-01T09:05:06Z</time>
      </trkpt>
      <trkpt lat="44.03949" lon="7.42924">
        <ele>2168.8701171875</ele>
        <time>2011-10-01T09:05:19Z</time>
      </trkpt>
      <trkpt lat="44.03951" lon="7.42923">
        <ele>2168.8701171875</ele>
        <time>2011-10-01T09:05:21Z</time>
      </trkpt>
      <trkpt lat="44.03954" lon="7.42919">
        <ele>2169.830078125</ele>
        <time>2011-10-01T09:05:25Z</time>
      </trkpt>
      <trkpt lat="44.03954" lon="7.42917">
        <ele>2170.7900390625</ele>
        <time>2011-10-01T09:05:27Z</time>
      </trkpt>
      <trkpt lat="44.03961" lon="7.42912">
        <ele>2173.6799316406</ele>
        <time>2011-10-01T09:05:38Z</time>
      </trkpt>
      <trkpt lat="44.03964" lon="7.42909">
        <ele>2174.6398925781</ele>
        <time>2011-10-01T09:05:46Z</time>
      </trkpt>
      <trkpt lat="44.0397" lon="7.42909">
        <ele>2178</ele>
        <time>2011-10-01T09:05:56Z</time>
      </trkpt>
      <trkpt lat="44.03973" lon="7.42903">
        <ele>2177.0400390625</ele>
        <time>2011-10-01T09:06:03Z</time>
      </trkpt>
      <trkpt lat="44.03975" lon="7.42902">
        <ele>2180.8898925781</ele>
        <time>2011-10-01T09:06:06Z</time>
      </trkpt>
      <trkpt lat="44.03979" lon="7.42902">
        <ele>2182.330078125</ele>
        <time>2011-10-01T09:06:12Z</time>
      </trkpt>
      <trkpt lat="44.0398" lon="7.42902">
        <ele>2183.2900390625</ele>
        <time>2011-10-01T09:06:14Z</time>
      </trkpt>
      <trkpt lat="44.03989" lon="7.42896">
        <ele>2183.2900390625</ele>
        <time>2011-10-01T09:06:23Z</time>
      </trkpt>
      <trkpt lat="44.03994" lon="7.42894">
        <ele>2186.1799316406</ele>
        <time>2011-10-01T09:06:28Z</time>
      </trkpt>
      <trkpt lat="44.03998" lon="7.42885">
        <ele>2187.6201171875</ele>
        <time>2011-10-01T09:06:36Z</time>
      </trkpt>
      <trkpt lat="44.04001" lon="7.42878">
        <ele>2189.0600585938</ele>
        <time>2011-10-01T09:06:42Z</time>
      </trkpt>
      <trkpt lat="44.04005" lon="7.42879">
        <ele>2190.5</ele>
        <time>2011-10-01T09:06:48Z</time>
      </trkpt>
      <trkpt lat="44.04011" lon="7.42871">
        <ele>2193.3898925781</ele>
        <time>2011-10-01T09:07:01Z</time>
      </trkpt>
      <trkpt lat="44.04012" lon="7.42869">
        <ele>2193.3898925781</ele>
        <time>2011-10-01T09:07:03Z</time>
      </trkpt>
      <trkpt lat="44.04016" lon="7.42867">
        <ele>2194.830078125</ele>
        <time>2011-10-01T09:07:10Z</time>
      </trkpt>
      <trkpt lat="44.04019" lon="7.42867">
        <ele>2195.7900390625</ele>
        <time>2011-10-01T09:07:13Z</time>
      </trkpt>
      <trkpt lat="44.04023" lon="7.42881">
        <ele>2198.1899414062</ele>
        <time>2011-10-01T09:07:24Z</time>
      </trkpt>
      <trkpt lat="44.04027" lon="7.42893">
        <ele>2202.0400390625</ele>
        <time>2011-10-01T09:07:35Z</time>
      </trkpt>
      <trkpt lat="44.04028" lon="7.42894">
        <ele>2202.0400390625</ele>
        <time>2011-10-01T09:07:36Z</time>
      </trkpt>
      <trkpt lat="44.04028" lon="7.42904">
        <ele>2204.4399414062</ele>
        <time>2011-10-01T09:07:48Z</time>
      </trkpt>
      <trkpt lat="44.04029" lon="7.42906">
        <ele>2204.919921875</ele>
        <time>2011-10-01T09:07:50Z</time>
      </trkpt>
      <trkpt lat="44.04029" lon="7.42908">
        <ele>2206.3601074219</ele>
        <time>2011-10-01T09:07:53Z</time>
      </trkpt>
      <trkpt lat="44.04031" lon="7.42915">
        <ele>2208.7700195312</ele>
        <time>2011-10-01T09:08:04Z</time>
      </trkpt>
      <trkpt lat="44.04038" lon="7.42917">
        <ele>2212.1298828125</ele>
        <time>2011-10-01T09:08:15Z</time>
      </trkpt>
      <trkpt lat="44.04042" lon="7.42916">
        <ele>2214.0500488281</ele>
        <time>2011-10-01T09:08:21Z</time>
      </trkpt>
      <trkpt lat="44.04043" lon="7.42916">
        <ele>2214.5300292969</ele>
        <time>2011-10-01T09:08:22Z</time>
      </trkpt>
      <trkpt lat="44.04045" lon="7.42917">
        <ele>2215.5</ele>
        <time>2011-10-01T09:08:25Z</time>
      </trkpt>
      <trkpt lat="44.04055" lon="7.42918">
        <ele>2218.3798828125</ele>
        <time>2011-10-01T09:08:37Z</time>
      </trkpt>
      <trkpt lat="44.04063" lon="7.42917">
        <ele>2221.2600097656</ele>
        <time>2011-10-01T09:08:49Z</time>
      </trkpt>
      <trkpt lat="44.0407" lon="7.42913">
        <ele>2224.1499023438</ele>
        <time>2011-10-01T09:08:59Z</time>
      </trkpt>
      <trkpt lat="44.04077" lon="7.42906">
        <ele>2225.1101074219</ele>
        <time>2011-10-01T09:09:08Z</time>
      </trkpt>
      <trkpt lat="44.04086" lon="7.42891">
        <ele>2227.5100097656</ele>
        <time>2011-10-01T09:09:20Z</time>
      </trkpt>
      <trkpt lat="44.0409" lon="7.42889">
        <ele>2229.4299316406</ele>
        <time>2011-10-01T09:09:25Z</time>
      </trkpt>
      <trkpt lat="44.04099" lon="7.42881">
        <ele>2229.4299316406</ele>
        <time>2011-10-01T09:09:33Z</time>
      </trkpt>
      <trkpt lat="44.04103" lon="7.4288">
        <ele>2231.3601074219</ele>
        <time>2011-10-01T09:09:37Z</time>
      </trkpt>
      <trkpt lat="44.04099" lon="7.42897">
        <ele>2233.7600097656</ele>
        <time>2011-10-01T09:09:49Z</time>
      </trkpt>
      <trkpt lat="44.04095" lon="7.4291">
        <ele>2234.7199707031</ele>
        <time>2011-10-01T09:09:58Z</time>
      </trkpt>
      <trkpt lat="44.041" lon="7.42905">
        <ele>2237.6101074219</ele>
        <time>2011-10-01T09:10:05Z</time>
      </trkpt>
      <trkpt lat="44.04105" lon="7.42903">
        <ele>2239.5300292969</ele>
        <time>2011-10-01T09:10:12Z</time>
      </trkpt>
      <trkpt lat="44.04108" lon="7.42901">
        <ele>2240.9699707031</ele>
        <time>2011-10-01T09:10:18Z</time>
      </trkpt>
      <trkpt lat="44.04116" lon="7.42899">
        <ele>2245.7800292969</ele>
        <time>2011-10-01T09:10:30Z</time>
      </trkpt>
      <trkpt lat="44.04118" lon="7.42899">
        <ele>2244.8200683594</ele>
        <time>2011-10-01T09:10:32Z</time>
      </trkpt>
      <trkpt lat="44.04121" lon="7.42907">
        <ele>2247.2199707031</ele>
        <time>2011-10-01T09:10:43Z</time>
      </trkpt>
      <trkpt lat="44.04122" lon="7.42907">
        <ele>2247.6999511719</ele>
        <time>2011-10-01T09:10:44Z</time>
      </trkpt>
      <trkpt lat="44.04124" lon="7.42907">
        <ele>2249.1398925781</ele>
        <time>2011-10-01T09:10:48Z</time>
      </trkpt>
      <trkpt lat="44.04126" lon="7.42905">
        <ele>2248.6599121094</ele>
        <time>2011-10-01T09:10:51Z</time>
      </trkpt>
      <trkpt lat="44.0413" lon="7.42905">
        <ele>2250.580078125</ele>
        <time>2011-10-01T09:10:57Z</time>
      </trkpt>
      <trkpt lat="44.04132" lon="7.42904">
        <ele>2250.580078125</ele>
        <time>2011-10-01T09:11:00Z</time>
      </trkpt>
      <trkpt lat="44.0414" lon="7.42907">
        <ele>2253.9499511719</ele>
        <time>2011-10-01T09:11:11Z</time>
      </trkpt>
      <trkpt lat="44.04141" lon="7.42905">
        <ele>2253.9499511719</ele>
        <time>2011-10-01T09:11:13Z</time>
      </trkpt>
      <trkpt lat="44.04146" lon="7.42903">
        <ele>2256.3500976562</ele>
        <time>2011-10-01T09:11:18Z</time>
      </trkpt>
      <trkpt lat="44.04151" lon="7.42899">
        <ele>2255.8701171875</ele>
        <time>2011-10-01T09:11:23Z</time>
      </trkpt>
      <trkpt lat="44.04153" lon="7.42896">
        <ele>2257.7900390625</ele>
        <time>2011-10-01T09:11:26Z</time>
      </trkpt>
      <trkpt lat="44.04158" lon="7.42905">
        <ele>2259.7199707031</ele>
        <time>2011-10-01T09:11:34Z</time>
      </trkpt>
      <trkpt lat="44.04167" lon="7.42905">
        <ele>2262.6000976562</ele>
        <time>2011-10-01T09:11:46Z</time>
      </trkpt>
      <trkpt lat="44.04173" lon="7.4291">
        <ele>2265</ele>
        <time>2011-10-01T09:11:55Z</time>
      </trkpt>
      <trkpt lat="44.04177" lon="7.42916">
        <ele>2264.0400390625</ele>
        <time>2011-10-01T09:12:00Z</time>
      </trkpt>
      <trkpt lat="44.04178" lon="7.42921">
        <ele>2263.5600585938</ele>
        <time>2011-10-01T09:12:02Z</time>
      </trkpt>
      <trkpt lat="44.04182" lon="7.42932">
        <ele>2264.0400390625</ele>
        <time>2011-10-01T09:12:07Z</time>
      </trkpt>
      <trkpt lat="44.04189" lon="7.42939">
        <ele>2265.4799804688</ele>
        <time>2011-10-01T09:12:15Z</time>
      </trkpt>
      <trkpt lat="44.04191" lon="7.4295">
        <ele>2266.9299316406</ele>
        <time>2011-10-01T09:12:24Z</time>
      </trkpt>
      <trkpt lat="44.04202" lon="7.4295">
        <ele>2264.5200195312</ele>
        <time>2011-10-01T09:12:34Z</time>
      </trkpt>
      <trkpt lat="44.04211" lon="7.42951">
        <ele>2264.5200195312</ele>
        <time>2011-10-01T09:12:40Z</time>
      </trkpt>
      <trkpt lat="44.04214" lon="7.42953">
        <ele>2264.5200195312</ele>
        <time>2011-10-01T09:12:42Z</time>
      </trkpt>
      <trkpt lat="44.04217" lon="7.42969">
        <ele>2267.8898925781</ele>
        <time>2011-10-01T09:12:53Z</time>
      </trkpt>
      <trkpt lat="44.04219" lon="7.42974">
        <ele>2268.8500976562</ele>
        <time>2011-10-01T09:12:58Z</time>
      </trkpt>
      <trkpt lat="44.04227" lon="7.4298">
        <ele>2270.7700195312</ele>
        <time>2011-10-01T09:13:08Z</time>
      </trkpt>
      <trkpt lat="44.04236" lon="7.42986">
        <ele>2274.6201171875</ele>
        <time>2011-10-01T09:13:21Z</time>
      </trkpt>
      <trkpt lat="44.04242" lon="7.42994">
        <ele>2276.5400390625</ele>
        <time>2011-10-01T09:13:35Z</time>
      </trkpt>
      <trkpt lat="44.04244" lon="7.42997">
        <ele>2278.9399414062</ele>
        <time>2011-10-01T09:13:47Z</time>
      </trkpt>
      <trkpt lat="44.04244" lon="7.43006">
        <ele>2280.8701171875</ele>
        <time>2011-10-01T09:13:54Z</time>
      </trkpt>
      <trkpt lat="44.04247" lon="7.43011">
        <ele>2283.2700195312</ele>
        <time>2011-10-01T09:14:02Z</time>
      </trkpt>
      <trkpt lat="44.04249" lon="7.43014">
        <ele>2284.2299804688</ele>
        <time>2011-10-01T09:14:09Z</time>
      </trkpt>
      <trkpt lat="44.04249" lon="7.43025">
        <ele>2288.080078125</ele>
        <time>2011-10-01T09:14:21Z</time>
      </trkpt>
      <trkpt lat="44.04253" lon="7.43034">
        <ele>2291.4399414062</ele>
        <time>2011-10-01T09:14:31Z</time>
      </trkpt>
      <trkpt lat="44.04254" lon="7.43042">
        <ele>2293.8400878906</ele>
        <time>2011-10-01T09:14:42Z</time>
      </trkpt>
      <trkpt lat="44.04256" lon="7.43046">
        <ele>2294.8000488281</ele>
        <time>2011-10-01T09:14:47Z</time>
      </trkpt>
      <trkpt lat="44.04266" lon="7.43049">
        <ele>2296.7299804688</ele>
        <time>2011-10-01T09:14:59Z</time>
      </trkpt>
      <trkpt lat="44.04273" lon="7.4305">
        <ele>2297.6899414062</ele>
        <time>2011-10-01T09:15:06Z</time>
      </trkpt>
      <trkpt lat="44.04282" lon="7.43051">
        <ele>2300.0900878906</ele>
        <time>2011-10-01T09:15:17Z</time>
      </trkpt>
      <trkpt lat="44.04286" lon="7.4305">
        <ele>2301.5300292969</ele>
        <time>2011-10-01T09:15:21Z</time>
      </trkpt>
      <trkpt lat="44.04289" lon="7.4305">
        <ele>2302.4899902344</ele>
        <time>2011-10-01T09:15:24Z</time>
      </trkpt>
      <trkpt lat="44.04292" lon="7.43051">
        <ele>2302.9799804688</ele>
        <time>2011-10-01T09:15:28Z</time>
      </trkpt>
      <trkpt lat="44.04297" lon="7.43052">
        <ele>2304.8999023438</ele>
        <time>2011-10-01T09:15:35Z</time>
      </trkpt>
      <trkpt lat="44.0431" lon="7.43055">
        <ele>2307.3000488281</ele>
        <time>2011-10-01T09:15:49Z</time>
      </trkpt>
      <trkpt lat="44.04314" lon="7.43057">
        <ele>2308.7399902344</ele>
        <time>2011-10-01T09:15:54Z</time>
      </trkpt>
      <trkpt lat="44.04324" lon="7.43061">
        <ele>2311.1499023438</ele>
        <time>2011-10-01T09:16:05Z</time>
      </trkpt>
      <trkpt lat="44.04331" lon="7.43065">
        <ele>2314.0300292969</ele>
        <time>2011-10-01T09:16:16Z</time>
      </trkpt>
      <trkpt lat="44.04334" lon="7.43066">
        <ele>2313.0700683594</ele>
        <time>2011-10-01T09:16:19Z</time>
      </trkpt>
      <trkpt lat="44.04342" lon="7.43066">
        <ele>2314.5100097656</ele>
        <time>2011-10-01T09:16:25Z</time>
      </trkpt>
      <trkpt lat="44.04351" lon="7.43068">
        <ele>2315.4699707031</ele>
        <time>2011-10-01T09:16:40Z</time>
      </trkpt>
      <trkpt lat="44.04364" lon="7.43068">
        <ele>2316.4299316406</ele>
        <time>2011-10-01T09:17:02Z</time>
      </trkpt>
      <trkpt lat="44.04373" lon="7.43068">
        <ele>2315.4699707031</ele>
        <time>2011-10-01T09:17:10Z</time>
      </trkpt>
      <trkpt lat="44.04381" lon="7.43074">
        <ele>2317.3999023438</ele>
        <time>2011-10-01T09:17:19Z</time>
      </trkpt>
      <trkpt lat="44.04387" lon="7.43076">
        <ele>2317.8798828125</ele>
        <time>2011-10-01T09:17:24Z</time>
      </trkpt>
      <trkpt lat="44.044" lon="7.4308">
        <ele>2318.3601074219</ele>
        <time>2011-10-01T09:17:37Z</time>
      </trkpt>
      <trkpt lat="44.04403" lon="7.43083">
        <ele>2319.8000488281</ele>
        <time>2011-10-01T09:17:41Z</time>
      </trkpt>
      <trkpt lat="44.04404" lon="7.43085">
        <ele>2319.8000488281</ele>
        <time>2011-10-01T09:18:01Z</time>
      </trkpt>
      <trkpt lat="44.04411" lon="7.43088">
        <ele>2319.8000488281</ele>
        <time>2011-10-01T09:18:11Z</time>
      </trkpt>
      <trkpt lat="44.04413" lon="7.43089">
        <ele>2319.8000488281</ele>
        <time>2011-10-01T09:18:13Z</time>
      </trkpt>
      <trkpt lat="44.0443" lon="7.43094">
        <ele>2320.7600097656</ele>
        <time>2011-10-01T09:18:27Z</time>
      </trkpt>
      <trkpt lat="44.04446" lon="7.43097">
        <ele>2323.6398925781</ele>
        <time>2011-10-01T09:18:43Z</time>
      </trkpt>
      <trkpt lat="44.04455" lon="7.43099">
        <ele>2326.5300292969</ele>
        <time>2011-10-01T09:18:52Z</time>
      </trkpt>
      <trkpt lat="44.04465" lon="7.431">
        <ele>2331.330078125</ele>
        <time>2011-10-01T09:19:04Z</time>
      </trkpt>
      <trkpt lat="44.04471" lon="7.43099">
        <ele>2330.8500976562</ele>
        <time>2011-10-01T09:19:13Z</time>
      </trkpt>
      <trkpt lat="44.04472" lon="7.43098">
        <ele>2331.8100585938</ele>
        <time>2011-10-01T09:19:15Z</time>
      </trkpt>
      <trkpt lat="44.04483" lon="7.43098">
        <ele>2334.2199707031</ele>
        <time>2011-10-01T09:19:29Z</time>
      </trkpt>
      <trkpt lat="44.04485" lon="7.43099">
        <ele>2335.6599121094</ele>
        <time>2011-10-01T09:19:32Z</time>
      </trkpt>
      <trkpt lat="44.04493" lon="7.43101">
        <ele>2339.0200195312</ele>
        <time>2011-10-01T09:19:44Z</time>
      </trkpt>
      <trkpt lat="44.04502" lon="7.43101">
        <ele>2341.9099121094</ele>
        <time>2011-10-01T09:19:57Z</time>
      </trkpt>
      <trkpt lat="44.04516" lon="7.43103">
        <ele>2345.2700195312</ele>
        <time>2011-10-01T09:20:11Z</time>
      </trkpt>
      <trkpt lat="44.04521" lon="7.43105">
        <ele>2347.1999511719</ele>
        <time>2011-10-01T09:20:17Z</time>
      </trkpt>
      <trkpt lat="44.04522" lon="7.43106">
        <ele>2346.7199707031</ele>
        <time>2011-10-01T09:20:19Z</time>
      </trkpt>
      <trkpt lat="44.0453" lon="7.43105">
        <ele>2350.5600585938</ele>
        <time>2011-10-01T09:20:31Z</time>
      </trkpt>
      <trkpt lat="44.04531" lon="7.43105">
        <ele>2350.080078125</ele>
        <time>2011-10-01T09:20:32Z</time>
      </trkpt>
      <trkpt lat="44.04544" lon="7.43098">
        <ele>2352.4799804688</ele>
        <time>2011-10-01T09:20:47Z</time>
      </trkpt>
      <trkpt lat="44.04548" lon="7.43094">
        <ele>2352.4799804688</ele>
        <time>2011-10-01T09:20:50Z</time>
      </trkpt>
      <trkpt lat="44.04552" lon="7.43091">
        <ele>2353.4399414062</ele>
        <time>2011-10-01T09:20:54Z</time>
      </trkpt>
      <trkpt lat="44.04554" lon="7.43089">
        <ele>2352.9599609375</ele>
        <time>2011-10-01T09:20:56Z</time>
      </trkpt>
      <trkpt lat="44.04562" lon="7.43085">
        <ele>2351.0400390625</ele>
        <time>2011-10-01T09:21:03Z</time>
      </trkpt>
      <trkpt lat="44.04566" lon="7.43082">
        <ele>2348.1599121094</ele>
        <time>2011-10-01T09:21:08Z</time>
      </trkpt>
      <trkpt lat="44.0458" lon="7.43081">
        <ele>2349.1201171875</ele>
        <time>2011-10-01T09:21:19Z</time>
      </trkpt>
      <trkpt lat="44.04582" lon="7.4308">
        <ele>2349.6000976562</ele>
        <time>2011-10-01T09:21:21Z</time>
      </trkpt>
      <trkpt lat="44.04587" lon="7.4308">
        <ele>2351.5200195312</ele>
        <time>2011-10-01T09:21:27Z</time>
      </trkpt>
      <trkpt lat="44.04596" lon="7.43079">
        <ele>2354.8898925781</ele>
        <time>2011-10-01T09:21:39Z</time>
      </trkpt>
      <trkpt lat="44.04601" lon="7.43081">
        <ele>2358.25</ele>
        <time>2011-10-01T09:21:48Z</time>
      </trkpt>
      <trkpt lat="44.04602" lon="7.43081">
        <ele>2359.2099609375</ele>
        <time>2011-10-01T09:21:50Z</time>
      </trkpt>
      <trkpt lat="44.04604" lon="7.4308">
        <ele>2358.7299804688</ele>
        <time>2011-10-01T09:21:52Z</time>
      </trkpt>
      <trkpt lat="44.04609" lon="7.43078">
        <ele>2360.169921875</ele>
        <time>2011-10-01T09:21:56Z</time>
      </trkpt>
      <trkpt lat="44.04622" lon="7.43076">
        <ele>2362.580078125</ele>
        <time>2011-10-01T09:22:11Z</time>
      </trkpt>
      <trkpt lat="44.04631" lon="7.43079">
        <ele>2365.9399414062</ele>
        <time>2011-10-01T09:22:23Z</time>
      </trkpt>
      <trkpt lat="44.04632" lon="7.43081">
        <ele>2367.3798828125</ele>
        <time>2011-10-01T09:22:27Z</time>
      </trkpt>
      <trkpt lat="44.04638" lon="7.43085">
        <ele>2371.2299804688</ele>
        <time>2011-10-01T09:22:38Z</time>
      </trkpt>
      <trkpt lat="44.04644" lon="7.4309">
        <ele>2374.5900878906</ele>
        <time>2011-10-01T09:22:50Z</time>
      </trkpt>
      <trkpt lat="44.04651" lon="7.43092">
        <ele>2376.5200195312</ele>
        <time>2011-10-01T09:23:01Z</time>
      </trkpt>
      <trkpt lat="44.04658" lon="7.4309">
        <ele>2378.919921875</ele>
        <time>2011-10-01T09:23:09Z</time>
      </trkpt>
      <trkpt lat="44.04672" lon="7.43081">
        <ele>2381.3200683594</ele>
        <time>2011-10-01T09:23:24Z</time>
      </trkpt>
      <trkpt lat="44.04681" lon="7.43078">
        <ele>2383.7299804688</ele>
        <time>2011-10-01T09:23:38Z</time>
      </trkpt>
      <trkpt lat="44.04683" lon="7.43076">
        <ele>2383.25</ele>
        <time>2011-10-01T09:23:44Z</time>
      </trkpt>
      <trkpt lat="44.04696" lon="7.43062">
        <ele>2387.5700683594</ele>
        <time>2011-10-01T09:24:00Z</time>
      </trkpt>
      <trkpt lat="44.04702" lon="7.43061">
        <ele>2390.4599609375</ele>
        <time>2011-10-01T09:24:12Z</time>
      </trkpt>
      <trkpt lat="44.04705" lon="7.43063">
        <ele>2392.3798828125</ele>
        <time>2011-10-01T09:24:27Z</time>
      </trkpt>
      <trkpt lat="44.04709" lon="7.43059">
        <ele>2394.7800292969</ele>
        <time>2011-10-01T09:24:34Z</time>
      </trkpt>
      <trkpt lat="44.04711" lon="7.43054">
        <ele>2396.6999511719</ele>
        <time>2011-10-01T09:24:39Z</time>
      </trkpt>
      <trkpt lat="44.04716" lon="7.43051">
        <ele>2399.1101074219</ele>
        <time>2011-10-01T09:24:47Z</time>
      </trkpt>
      <trkpt lat="44.04721" lon="7.43055">
        <ele>2400.5500488281</ele>
        <time>2011-10-01T09:24:58Z</time>
      </trkpt>
      <trkpt lat="44.04725" lon="7.4306">
        <ele>2403.9099121094</ele>
        <time>2011-10-01T09:25:08Z</time>
      </trkpt>
      <trkpt lat="44.04726" lon="7.43069">
        <ele>2407.2800292969</ele>
        <time>2011-10-01T09:25:20Z</time>
      </trkpt>
      <trkpt lat="44.04721" lon="7.43075">
        <ele>2409.6799316406</ele>
        <time>2011-10-01T09:25:29Z</time>
      </trkpt>
      <trkpt lat="44.04725" lon="7.43082">
        <ele>2413.0500488281</ele>
        <time>2011-10-01T09:25:40Z</time>
      </trkpt>
      <trkpt lat="44.04729" lon="7.43085">
        <ele>2416.4099121094</ele>
        <time>2011-10-01T09:25:54Z</time>
      </trkpt>
      <trkpt lat="44.04734" lon="7.43082">
        <ele>2419.7800292969</ele>
        <time>2011-10-01T09:26:04Z</time>
      </trkpt>
      <trkpt lat="44.04739" lon="7.43082">
        <ele>2422.1799316406</ele>
        <time>2011-10-01T09:26:15Z</time>
      </trkpt>
      <trkpt lat="44.04743" lon="7.43076">
        <ele>2424.580078125</ele>
        <time>2011-10-01T09:26:23Z</time>
      </trkpt>
      <trkpt lat="44.04752" lon="7.43079">
        <ele>2428.4299316406</ele>
        <time>2011-10-01T09:26:33Z</time>
      </trkpt>
      <trkpt lat="44.04752" lon="7.43079">
        <ele>2425.0600585938</ele>
        <time>2011-10-01T09:26:34Z</time>
      </trkpt>
      <trkpt lat="44.04753" lon="7.4308">
        <ele>2426.0200195312</ele>
        <time>2011-10-01T09:26:35Z</time>
      </trkpt>
      <trkpt lat="44.04755" lon="7.4308">
        <ele>2425.5400390625</ele>
        <time>2011-10-01T09:26:50Z</time>
      </trkpt>
      <trkpt lat="44.04755" lon="7.4308">
        <ele>2426.0200195312</ele>
        <time>2011-10-01T09:27:34Z</time>
      </trkpt>
      <trkpt lat="44.04753" lon="7.4308">
        <ele>2425.5400390625</ele>
        <time>2011-10-01T09:28:04Z</time>
      </trkpt>
      <trkpt lat="44.04754" lon="7.43081">
        <ele>2426.0200195312</ele>
        <time>2011-10-01T09:28:25Z</time>
      </trkpt>
      <trkpt lat="44.04754" lon="7.4308">
        <ele>2426.0200195312</ele>
        <time>2011-10-01T09:28:52Z</time>
      </trkpt>
      <trkpt lat="44.04751" lon="7.43083">
        <ele>2425.5400390625</ele>
        <time>2011-10-01T09:29:31Z</time>
      </trkpt>
      <trkpt lat="44.04751" lon="7.43081">
        <ele>2425.5400390625</ele>
        <time>2011-10-01T09:29:58Z</time>
      </trkpt>
      <trkpt lat="44.04751" lon="7.4308">
        <ele>2426.5</ele>
        <time>2011-10-01T09:30:28Z</time>
      </trkpt>
      <trkpt lat="44.04752" lon="7.43079">
        <ele>2426.9899902344</ele>
        <time>2011-10-01T09:31:33Z</time>
      </trkpt>
      <trkpt lat="44.04752" lon="7.4308">
        <ele>2426.5</ele>
        <time>2011-10-01T09:32:04Z</time>
      </trkpt>
      <trkpt lat="44.0475" lon="7.43072">
        <ele>2426.9899902344</ele>
        <time>2011-10-01T09:32:12Z</time>
      </trkpt>
      <trkpt lat="44.04745" lon="7.43071">
        <ele>2425.0600585938</ele>
        <time>2011-10-01T09:32:29Z</time>
      </trkpt>
      <trkpt lat="44.04744" lon="7.43073">
        <ele>2425.0600585938</ele>
        <time>2011-10-01T09:32:49Z</time>
      </trkpt>
      <trkpt lat="44.04744" lon="7.43072">
        <ele>2425.0600585938</ele>
        <time>2011-10-01T09:33:22Z</time>
      </trkpt>
      <trkpt lat="44.04743" lon="7.43073">
        <ele>2425.5400390625</ele>
        <time>2011-10-01T09:34:11Z</time>
      </trkpt>
      <trkpt lat="44.04744" lon="7.43072">
        <ele>2426.5</ele>
        <time>2011-10-01T09:34:55Z</time>
      </trkpt>
      <trkpt lat="44.04747" lon="7.43072">
        <ele>2427.4699707031</ele>
        <time>2011-10-01T09:35:02Z</time>
      </trkpt>
      <trkpt lat="44.04764" lon="7.43069">
        <ele>2427.4699707031</ele>
        <time>2011-10-01T09:35:21Z</time>
      </trkpt>
      <trkpt lat="44.04765" lon="7.43068">
        <ele>2427.9499511719</ele>
        <time>2011-10-01T09:35:24Z</time>
      </trkpt>
      <trkpt lat="44.04771" lon="7.43056">
        <ele>2427.9499511719</ele>
        <time>2011-10-01T09:35:33Z</time>
      </trkpt>
      <trkpt lat="44.04782" lon="7.43042">
        <ele>2425.0600585938</ele>
        <time>2011-10-01T09:35:50Z</time>
      </trkpt>
      <trkpt lat="44.04783" lon="7.43042">
        <ele>2424.580078125</ele>
        <time>2011-10-01T09:35:51Z</time>
      </trkpt>
      <trkpt lat="44.04796" lon="7.43039">
        <ele>2421.6999511719</ele>
        <time>2011-10-01T09:36:03Z</time>
      </trkpt>
      <trkpt lat="44.04798" lon="7.43039">
        <ele>2421.6999511719</ele>
        <time>2011-10-01T09:36:04Z</time>
      </trkpt>
      <trkpt lat="44.04814" lon="7.43045">
        <ele>2420.7399902344</ele>
        <time>2011-10-01T09:36:16Z</time>
      </trkpt>
      <trkpt lat="44.04813" lon="7.43045">
        <ele>2419.7800292969</ele>
        <time>2011-10-01T09:36:18Z</time>
      </trkpt>
      <trkpt lat="44.04813" lon="7.43045">
        <ele>2420.7399902344</ele>
        <time>2011-10-01T09:36:19Z</time>
      </trkpt>
      <trkpt lat="44.04816" lon="7.43046">
        <ele>2419.3000488281</ele>
        <time>2011-10-01T09:36:31Z</time>
      </trkpt>
      <trkpt lat="44.04826" lon="7.43053">
        <ele>2415.9299316406</ele>
        <time>2011-10-01T09:36:40Z</time>
      </trkpt>
      <trkpt lat="44.04831" lon="7.43053">
        <ele>2414.9699707031</ele>
        <time>2011-10-01T09:36:43Z</time>
      </trkpt>
      <trkpt lat="44.04842" lon="7.43069">
        <ele>2412.0900878906</ele>
        <time>2011-10-01T09:36:52Z</time>
      </trkpt>
      <trkpt lat="44.04849" lon="7.43071">
        <ele>2410.1599121094</ele>
        <time>2011-10-01T09:36:56Z</time>
      </trkpt>
      <trkpt lat="44.04872" lon="7.43069">
        <ele>2408.2399902344</ele>
        <time>2011-10-01T09:37:06Z</time>
      </trkpt>
      <trkpt lat="44.04899" lon="7.43064">
        <ele>2405.8400878906</ele>
        <time>2011-10-01T09:37:18Z</time>
      </trkpt>
      <trkpt lat="44.04917" lon="7.43069">
        <ele>2402.9499511719</ele>
        <time>2011-10-01T09:37:26Z</time>
      </trkpt>
      <trkpt lat="44.04922" lon="7.43073">
        <ele>2402.9499511719</ele>
        <time>2011-10-01T09:37:30Z</time>
      </trkpt>
      <trkpt lat="44.04923" lon="7.43074">
        <ele>2401.0300292969</ele>
        <time>2011-10-01T09:37:32Z</time>
      </trkpt>
      <trkpt lat="44.04926" lon="7.43097">
        <ele>2400.0700683594</ele>
        <time>2011-10-01T09:37:43Z</time>
      </trkpt>
      <trkpt lat="44.04929" lon="7.43123">
        <ele>2396.6999511719</ele>
        <time>2011-10-01T09:37:54Z</time>
      </trkpt>
      <trkpt lat="44.04931" lon="7.43134">
        <ele>2395.2600097656</ele>
        <time>2011-10-01T09:37:58Z</time>
      </trkpt>
      <trkpt lat="44.04933" lon="7.43149">
        <ele>2392.3798828125</ele>
        <time>2011-10-01T09:38:03Z</time>
      </trkpt>
      <trkpt lat="44.04932" lon="7.43154">
        <ele>2391.419921875</ele>
        <time>2011-10-01T09:38:05Z</time>
      </trkpt>
      <trkpt lat="44.04931" lon="7.43162">
        <ele>2389.4899902344</ele>
        <time>2011-10-01T09:38:08Z</time>
      </trkpt>
      <trkpt lat="44.0493" lon="7.43167">
        <ele>2388.5300292969</ele>
        <time>2011-10-01T09:38:10Z</time>
      </trkpt>
      <trkpt lat="44.0493" lon="7.43176">
        <ele>2387.0900878906</ele>
        <time>2011-10-01T09:38:13Z</time>
      </trkpt>
      <trkpt lat="44.04931" lon="7.43182">
        <ele>2387.0900878906</ele>
        <time>2011-10-01T09:38:15Z</time>
      </trkpt>
      <trkpt lat="44.04934" lon="7.43192">
        <ele>2384.6899414062</ele>
        <time>2011-10-01T09:38:19Z</time>
      </trkpt>
      <trkpt lat="44.04943" lon="7.4321">
        <ele>2380.8400878906</ele>
        <time>2011-10-01T09:38:26Z</time>
      </trkpt>
      <trkpt lat="44.04945" lon="7.43223">
        <ele>2378.4399414062</ele>
        <time>2011-10-01T09:38:30Z</time>
      </trkpt>
      <trkpt lat="44.04947" lon="7.43237">
        <ele>2377.9599609375</ele>
        <time>2011-10-01T09:38:34Z</time>
      </trkpt>
      <trkpt lat="44.0495" lon="7.43252">
        <ele>2376.0400390625</ele>
        <time>2011-10-01T09:38:39Z</time>
      </trkpt>
      <trkpt lat="44.04951" lon="7.43257">
        <ele>2375.0700683594</ele>
        <time>2011-10-01T09:38:41Z</time>
      </trkpt>
      <trkpt lat="44.04952" lon="7.43266">
        <ele>2372.1899414062</ele>
        <time>2011-10-01T09:38:45Z</time>
      </trkpt>
      <trkpt lat="44.04953" lon="7.43271">
        <ele>2371.7099609375</ele>
        <time>2011-10-01T09:38:47Z</time>
      </trkpt>
      <trkpt lat="44.04954" lon="7.43278">
        <ele>2370.2700195312</ele>
        <time>2011-10-01T09:38:50Z</time>
      </trkpt>
      <trkpt lat="44.04966" lon="7.43297">
        <ele>2368.3500976562</ele>
        <time>2011-10-01T09:38:58Z</time>
      </trkpt>
      <trkpt lat="44.0497" lon="7.43313">
        <ele>2366.8999023438</ele>
        <time>2011-10-01T09:39:03Z</time>
      </trkpt>
      <trkpt lat="44.04972" lon="7.43326">
        <ele>2365.4599609375</ele>
        <time>2011-10-01T09:39:07Z</time>
      </trkpt>
      <trkpt lat="44.04972" lon="7.43346">
        <ele>2361.1398925781</ele>
        <time>2011-10-01T09:39:14Z</time>
      </trkpt>
      <trkpt lat="44.04972" lon="7.43347">
        <ele>2360.6499023438</ele>
        <time>2011-10-01T09:39:15Z</time>
      </trkpt>
      <trkpt lat="44.04975" lon="7.43347">
        <ele>2361.1398925781</ele>
        <time>2011-10-01T09:39:17Z</time>
      </trkpt>
      <trkpt lat="44.04981" lon="7.43343">
        <ele>2359.6899414062</ele>
        <time>2011-10-01T09:39:20Z</time>
      </trkpt>
      <trkpt lat="44.05001" lon="7.43345">
        <ele>2359.2099609375</ele>
        <time>2011-10-01T09:39:30Z</time>
      </trkpt>
      <trkpt lat="44.05003" lon="7.43346">
        <ele>2357.7700195312</ele>
        <time>2011-10-01T09:39:31Z</time>
      </trkpt>
      <trkpt lat="44.05011" lon="7.43346">
        <ele>2357.7700195312</ele>
        <time>2011-10-01T09:39:35Z</time>
      </trkpt>
      <trkpt lat="44.05018" lon="7.43363">
        <ele>2356.330078125</ele>
        <time>2011-10-01T09:39:44Z</time>
      </trkpt>
      <trkpt lat="44.05017" lon="7.43367">
        <ele>2355.8500976562</ele>
        <time>2011-10-01T09:39:46Z</time>
      </trkpt>
      <trkpt lat="44.05017" lon="7.4337">
        <ele>2356.330078125</ele>
        <time>2011-10-01T09:39:48Z</time>
      </trkpt>
      <trkpt lat="44.05016" lon="7.43384">
        <ele>2354.4099121094</ele>
        <time>2011-10-01T09:39:54Z</time>
      </trkpt>
      <trkpt lat="44.05022" lon="7.43407">
        <ele>2352.4799804688</ele>
        <time>2011-10-01T09:40:03Z</time>
      </trkpt>
      <trkpt lat="44.05024" lon="7.4342">
        <ele>2352</ele>
        <time>2011-10-01T09:40:09Z</time>
      </trkpt>
      <trkpt lat="44.05024" lon="7.43427">
        <ele>2350.5600585938</ele>
        <time>2011-10-01T09:40:12Z</time>
      </trkpt>
      <trkpt lat="44.05025" lon="7.43436">
        <ele>2348.1599121094</ele>
        <time>2011-10-01T09:40:16Z</time>
      </trkpt>
      <trkpt lat="44.05024" lon="7.43444">
        <ele>2346.2299804688</ele>
        <time>2011-10-01T09:40:21Z</time>
      </trkpt>
      <trkpt lat="44.05024" lon="7.43446">
        <ele>2345.75</ele>
        <time>2011-10-01T09:40:22Z</time>
      </trkpt>
      <trkpt lat="44.05026" lon="7.43452">
        <ele>2344.3100585938</ele>
        <time>2011-10-01T09:40:25Z</time>
      </trkpt>
      <trkpt lat="44.0503" lon="7.43485">
        <ele>2343.830078125</ele>
        <time>2011-10-01T09:40:36Z</time>
      </trkpt>
      <trkpt lat="44.05032" lon="7.43496">
        <ele>2342.8701171875</ele>
        <time>2011-10-01T09:40:40Z</time>
      </trkpt>
      <trkpt lat="44.05027" lon="7.43514">
        <ele>2343.830078125</ele>
        <time>2011-10-01T09:40:48Z</time>
      </trkpt>
      <trkpt lat="44.05029" lon="7.43517">
        <ele>2342.3898925781</ele>
        <time>2011-10-01T09:40:51Z</time>
      </trkpt>
      <trkpt lat="44.0503" lon="7.43519">
        <ele>2341.4299316406</ele>
        <time>2011-10-01T09:40:53Z</time>
      </trkpt>
      <trkpt lat="44.05033" lon="7.43527">
        <ele>2339.0200195312</ele>
        <time>2011-10-01T09:40:57Z</time>
      </trkpt>
      <trkpt lat="44.05037" lon="7.43541">
        <ele>2337.1000976562</ele>
        <time>2011-10-01T09:41:02Z</time>
      </trkpt>
      <trkpt lat="44.05041" lon="7.43547">
        <ele>2335.1799316406</ele>
        <time>2011-10-01T09:41:06Z</time>
      </trkpt>
      <trkpt lat="44.05042" lon="7.43551">
        <ele>2333.7399902344</ele>
        <time>2011-10-01T09:41:09Z</time>
      </trkpt>
      <trkpt lat="44.0504" lon="7.43559">
        <ele>2333.2600097656</ele>
        <time>2011-10-01T09:41:13Z</time>
      </trkpt>
      <trkpt lat="44.05039" lon="7.43563">
        <ele>2332.3000488281</ele>
        <time>2011-10-01T09:41:15Z</time>
      </trkpt>
      <trkpt lat="44.05038" lon="7.43573">
        <ele>2330.3701171875</ele>
        <time>2011-10-01T09:41:19Z</time>
      </trkpt>
      <trkpt lat="44.05037" lon="7.43576">
        <ele>2329.4099121094</ele>
        <time>2011-10-01T09:41:20Z</time>
      </trkpt>
      <trkpt lat="44.0504" lon="7.43585">
        <ele>2328.9299316406</ele>
        <time>2011-10-01T09:41:24Z</time>
      </trkpt>
      <trkpt lat="44.05042" lon="7.43588">
        <ele>2327.4899902344</ele>
        <time>2011-10-01T09:41:26Z</time>
      </trkpt>
      <trkpt lat="44.05043" lon="7.43589">
        <ele>2327.9699707031</ele>
        <time>2011-10-01T09:41:27Z</time>
      </trkpt>
      <trkpt lat="44.05045" lon="7.43591">
        <ele>2327.0100097656</ele>
        <time>2011-10-01T09:41:31Z</time>
      </trkpt>
      <trkpt lat="44.05047" lon="7.43583">
        <ele>2326.0500488281</ele>
        <time>2011-10-01T09:41:36Z</time>
      </trkpt>
      <trkpt lat="44.05052" lon="7.43587">
        <ele>2325.0900878906</ele>
        <time>2011-10-01T09:41:41Z</time>
      </trkpt>
      <trkpt lat="44.05054" lon="7.43592">
        <ele>2323.1599121094</ele>
        <time>2011-10-01T09:41:44Z</time>
      </trkpt>
      <trkpt lat="44.05057" lon="7.43598">
        <ele>2321.2399902344</ele>
        <time>2011-10-01T09:41:47Z</time>
      </trkpt>
      <trkpt lat="44.05065" lon="7.43606">
        <ele>2319.8000488281</ele>
        <time>2011-10-01T09:41:54Z</time>
      </trkpt>
      <trkpt lat="44.05072" lon="7.43613">
        <ele>2317.3999023438</ele>
        <time>2011-10-01T09:41:59Z</time>
      </trkpt>
      <trkpt lat="44.05077" lon="7.43617">
        <ele>2316.4299316406</ele>
        <time>2011-10-01T09:42:02Z</time>
      </trkpt>
      <trkpt lat="44.05081" lon="7.43621">
        <ele>2315.4699707031</ele>
        <time>2011-10-01T09:42:04Z</time>
      </trkpt>
      <trkpt lat="44.05093" lon="7.4363">
        <ele>2314.9899902344</ele>
        <time>2011-10-01T09:42:11Z</time>
      </trkpt>
      <trkpt lat="44.05098" lon="7.43637">
        <ele>2314.5100097656</ele>
        <time>2011-10-01T09:42:15Z</time>
      </trkpt>
      <trkpt lat="44.05098" lon="7.43649">
        <ele>2311.6298828125</ele>
        <time>2011-10-01T09:42:21Z</time>
      </trkpt>
      <trkpt lat="44.05103" lon="7.43669">
        <ele>2308.7399902344</ele>
        <time>2011-10-01T09:42:28Z</time>
      </trkpt>
      <trkpt lat="44.05106" lon="7.43673">
        <ele>2307.7800292969</ele>
        <time>2011-10-01T09:42:30Z</time>
      </trkpt>
      <trkpt lat="44.0511" lon="7.43681">
        <ele>2307.7800292969</ele>
        <time>2011-10-01T09:42:35Z</time>
      </trkpt>
      <trkpt lat="44.05111" lon="7.43687">
        <ele>2306.3400878906</ele>
        <time>2011-10-01T09:42:38Z</time>
      </trkpt>
      <trkpt lat="44.05112" lon="7.43699">
        <ele>2305.3798828125</ele>
        <time>2011-10-01T09:42:45Z</time>
      </trkpt>
      <trkpt lat="44.05114" lon="7.43704">
        <ele>2302.9799804688</ele>
        <time>2011-10-01T09:42:54Z</time>
      </trkpt>
      <trkpt lat="44.05116" lon="7.43709">
        <ele>2302.0100097656</ele>
        <time>2011-10-01T09:43:04Z</time>
      </trkpt>
      <trkpt lat="44.05119" lon="7.43711">
        <ele>2300.0900878906</ele>
        <time>2011-10-01T09:43:13Z</time>
      </trkpt>
      <trkpt lat="44.05121" lon="7.43712">
        <ele>2299.6101074219</ele>
        <time>2011-10-01T09:43:17Z</time>
      </trkpt>
      <trkpt lat="44.0512" lon="7.43715">
        <ele>2299.1298828125</ele>
        <time>2011-10-01T09:43:20Z</time>
      </trkpt>
      <trkpt lat="44.0512" lon="7.43717">
        <ele>2298.6499023438</ele>
        <time>2011-10-01T09:43:22Z</time>
      </trkpt>
      <trkpt lat="44.05124" lon="7.43721">
        <ele>2297.2099609375</ele>
        <time>2011-10-01T09:43:26Z</time>
      </trkpt>
      <trkpt lat="44.05127" lon="7.43724">
        <ele>2297.2099609375</ele>
        <time>2011-10-01T09:43:29Z</time>
      </trkpt>
      <trkpt lat="44.0513" lon="7.43734">
        <ele>2294.8000488281</ele>
        <time>2011-10-01T09:43:35Z</time>
      </trkpt>
      <trkpt lat="44.0513" lon="7.43738">
        <ele>2293.8400878906</ele>
        <time>2011-10-01T09:43:37Z</time>
      </trkpt>
      <trkpt lat="44.05125" lon="7.43745">
        <ele>2291.919921875</ele>
        <time>2011-10-01T09:43:41Z</time>
      </trkpt>
      <trkpt lat="44.05123" lon="7.43749">
        <ele>2290.4799804688</ele>
        <time>2011-10-01T09:43:44Z</time>
      </trkpt>
      <trkpt lat="44.05125" lon="7.43753">
        <ele>2288.080078125</ele>
        <time>2011-10-01T09:43:49Z</time>
      </trkpt>
      <trkpt lat="44.05128" lon="7.43755">
        <ele>2286.6298828125</ele>
        <time>2011-10-01T09:43:53Z</time>
      </trkpt>
      <trkpt lat="44.05132" lon="7.43757">
        <ele>2286.1499023438</ele>
        <time>2011-10-01T09:43:56Z</time>
      </trkpt>
      <trkpt lat="44.05135" lon="7.43768">
        <ele>2283.75</ele>
        <time>2011-10-01T09:44:01Z</time>
      </trkpt>
      <trkpt lat="44.05135" lon="7.43772">
        <ele>2283.75</ele>
        <time>2011-10-01T09:44:02Z</time>
      </trkpt>
      <trkpt lat="44.05138" lon="7.43791">
        <ele>2285.1899414062</ele>
        <time>2011-10-01T09:44:08Z</time>
      </trkpt>
      <trkpt lat="44.05138" lon="7.43796">
        <ele>2286.1499023438</ele>
        <time>2011-10-01T09:44:10Z</time>
      </trkpt>
      <trkpt lat="44.05133" lon="7.43819">
        <ele>2285.1899414062</ele>
        <time>2011-10-01T09:44:19Z</time>
      </trkpt>
      <trkpt lat="44.05133" lon="7.43849">
        <ele>2282.3100585938</ele>
        <time>2011-10-01T09:44:31Z</time>
      </trkpt>
      <trkpt lat="44.05138" lon="7.43881">
        <ele>2280.8701171875</ele>
        <time>2011-10-01T09:44:41Z</time>
      </trkpt>
      <trkpt lat="44.05136" lon="7.439">
        <ele>2282.3100585938</ele>
        <time>2011-10-01T09:44:48Z</time>
      </trkpt>
      <trkpt lat="44.05133" lon="7.43909">
        <ele>2282.7900390625</ele>
        <time>2011-10-01T09:44:52Z</time>
      </trkpt>
      <trkpt lat="44.0513" lon="7.43912">
        <ele>2282.7900390625</ele>
        <time>2011-10-01T09:44:54Z</time>
      </trkpt>
      <trkpt lat="44.05125" lon="7.43918">
        <ele>2282.7900390625</ele>
        <time>2011-10-01T09:44:58Z</time>
      </trkpt>
      <trkpt lat="44.05127" lon="7.43941">
        <ele>2284.7099609375</ele>
        <time>2011-10-01T09:45:09Z</time>
      </trkpt>
      <trkpt lat="44.05127" lon="7.43945">
        <ele>2284.2299804688</ele>
        <time>2011-10-01T09:45:11Z</time>
      </trkpt>
      <trkpt lat="44.05117" lon="7.43964">
        <ele>2285.1899414062</ele>
        <time>2011-10-01T09:45:22Z</time>
      </trkpt>
      <trkpt lat="44.05117" lon="7.43966">
        <ele>2285.1899414062</ele>
        <time>2011-10-01T09:45:24Z</time>
      </trkpt>
      <trkpt lat="44.05124" lon="7.43982">
        <ele>2287.5900878906</ele>
        <time>2011-10-01T09:45:36Z</time>
      </trkpt>
      <trkpt lat="44.05135" lon="7.43989">
        <ele>2286.6298828125</ele>
        <time>2011-10-01T09:45:46Z</time>
      </trkpt>
      <trkpt lat="44.05138" lon="7.44023">
        <ele>2284.2299804688</ele>
        <time>2011-10-01T09:46:00Z</time>
      </trkpt>
      <trkpt lat="44.0514" lon="7.44033">
        <ele>2282.3100585938</ele>
        <time>2011-10-01T09:46:05Z</time>
      </trkpt>
      <trkpt lat="44.05142" lon="7.44031">
        <ele>2280.8701171875</ele>
        <time>2011-10-01T09:46:08Z</time>
      </trkpt>
      <trkpt lat="44.05148" lon="7.44033">
        <ele>2279.419921875</ele>
        <time>2011-10-01T09:46:14Z</time>
      </trkpt>
      <trkpt lat="44.05149" lon="7.44041">
        <ele>2277.9799804688</ele>
        <time>2011-10-01T09:46:17Z</time>
      </trkpt>
      <trkpt lat="44.05149" lon="7.44047">
        <ele>2277.5</ele>
        <time>2011-10-01T09:46:19Z</time>
      </trkpt>
      <trkpt lat="44.0515" lon="7.44053">
        <ele>2275.580078125</ele>
        <time>2011-10-01T09:46:24Z</time>
      </trkpt>
      <trkpt lat="44.05151" lon="7.44055">
        <ele>2274.6201171875</ele>
        <time>2011-10-01T09:46:26Z</time>
      </trkpt>
      <trkpt lat="44.05162" lon="7.44055">
        <ele>2275.580078125</ele>
        <time>2011-10-01T09:46:34Z</time>
      </trkpt>
      <trkpt lat="44.05165" lon="7.4406">
        <ele>2276.5400390625</ele>
        <time>2011-10-01T09:46:37Z</time>
      </trkpt>
      <trkpt lat="44.05168" lon="7.4407">
        <ele>2277.0200195312</ele>
        <time>2011-10-01T09:46:42Z</time>
      </trkpt>
      <trkpt lat="44.05169" lon="7.44078">
        <ele>2277.5</ele>
        <time>2011-10-01T09:46:46Z</time>
      </trkpt>
      <trkpt lat="44.05171" lon="7.44093">
        <ele>2278.4599609375</ele>
        <time>2011-10-01T09:46:54Z</time>
      </trkpt>
      <trkpt lat="44.05172" lon="7.44098">
        <ele>2278.9399414062</ele>
        <time>2011-10-01T09:46:57Z</time>
      </trkpt>
      <trkpt lat="44.05172" lon="7.44113">
        <ele>2278.4599609375</ele>
        <time>2011-10-01T09:47:05Z</time>
      </trkpt>
      <trkpt lat="44.05171" lon="7.44125">
        <ele>2277.9799804688</ele>
        <time>2011-10-01T09:47:11Z</time>
      </trkpt>
      <trkpt lat="44.05171" lon="7.44136">
        <ele>2276.5400390625</ele>
        <time>2011-10-01T09:47:16Z</time>
      </trkpt>
      <trkpt lat="44.05171" lon="7.44145">
        <ele>2275.580078125</ele>
        <time>2011-10-01T09:47:20Z</time>
      </trkpt>
      <trkpt lat="44.05176" lon="7.44165">
        <ele>2272.6899414062</ele>
        <time>2011-10-01T09:47:28Z</time>
      </trkpt>
      <trkpt lat="44.05179" lon="7.44183">
        <ele>2272.6899414062</ele>
        <time>2011-10-01T09:47:33Z</time>
      </trkpt>
      <trkpt lat="44.05177" lon="7.44195">
        <ele>2273.169921875</ele>
        <time>2011-10-01T09:47:37Z</time>
      </trkpt>
      <trkpt lat="44.05176" lon="7.44218">
        <ele>2270.7700195312</ele>
        <time>2011-10-01T09:47:50Z</time>
      </trkpt>
      <trkpt lat="44.05175" lon="7.44224">
        <ele>2270.2900390625</ele>
        <time>2011-10-01T09:47:54Z</time>
      </trkpt>
      <trkpt lat="44.05174" lon="7.4424">
        <ele>2267.4099121094</ele>
        <time>2011-10-01T09:48:06Z</time>
      </trkpt>
      <trkpt lat="44.05173" lon="7.44245">
        <ele>2266.9299316406</ele>
        <time>2011-10-01T09:48:08Z</time>
      </trkpt>
      <trkpt lat="44.05173" lon="7.44261">
        <ele>2266.4499511719</ele>
        <time>2011-10-01T09:48:15Z</time>
      </trkpt>
      <trkpt lat="44.05175" lon="7.44264">
        <ele>2266.9299316406</ele>
        <time>2011-10-01T09:48:17Z</time>
      </trkpt>
      <trkpt lat="44.05183" lon="7.44277">
        <ele>2264.0400390625</ele>
        <time>2011-10-01T09:48:26Z</time>
      </trkpt>
      <trkpt lat="44.05191" lon="7.44285">
        <ele>2260.6799316406</ele>
        <time>2011-10-01T09:48:33Z</time>
      </trkpt>
      <trkpt lat="44.05194" lon="7.44289">
        <ele>2260.1999511719</ele>
        <time>2011-10-01T09:48:36Z</time>
      </trkpt>
      <trkpt lat="44.05197" lon="7.4429">
        <ele>2259.2399902344</ele>
        <time>2011-10-01T09:48:39Z</time>
      </trkpt>
      <trkpt lat="44.05201" lon="7.44304">
        <ele>2256.3500976562</ele>
        <time>2011-10-01T09:48:47Z</time>
      </trkpt>
      <trkpt lat="44.05199" lon="7.44326">
        <ele>2253.4699707031</ele>
        <time>2011-10-01T09:48:56Z</time>
      </trkpt>
      <trkpt lat="44.05206" lon="7.4434">
        <ele>2250.1000976562</ele>
        <time>2011-10-01T09:49:04Z</time>
      </trkpt>
      <trkpt lat="44.05209" lon="7.44345">
        <ele>2248.6599121094</ele>
        <time>2011-10-01T09:49:07Z</time>
      </trkpt>
      <trkpt lat="44.0521" lon="7.44359">
        <ele>2247.2199707031</ele>
        <time>2011-10-01T09:49:12Z</time>
      </trkpt>
      <trkpt lat="44.05208" lon="7.44375">
        <ele>2245.7800292969</ele>
        <time>2011-10-01T09:49:19Z</time>
      </trkpt>
      <trkpt lat="44.05205" lon="7.4438">
        <ele>2247.2199707031</ele>
        <time>2011-10-01T09:49:23Z</time>
      </trkpt>
      <trkpt lat="44.05206" lon="7.44395">
        <ele>2246.7399902344</ele>
        <time>2011-10-01T09:49:29Z</time>
      </trkpt>
      <trkpt lat="44.05207" lon="7.44405">
        <ele>2247.6999511719</ele>
        <time>2011-10-01T09:49:33Z</time>
      </trkpt>
      <trkpt lat="44.05202" lon="7.44404">
        <ele>2248.6599121094</ele>
        <time>2011-10-01T09:49:38Z</time>
      </trkpt>
      <trkpt lat="44.0519" lon="7.44399">
        <ele>2252.5100097656</ele>
        <time>2011-10-01T09:49:50Z</time>
      </trkpt>
      <trkpt lat="44.05189" lon="7.44404">
        <ele>2253.4699707031</ele>
        <time>2011-10-01T09:49:54Z</time>
      </trkpt>
      <trkpt lat="44.05191" lon="7.44416">
        <ele>2253.9499511719</ele>
        <time>2011-10-01T09:49:59Z</time>
      </trkpt>
      <trkpt lat="44.05192" lon="7.44433">
        <ele>2255.8701171875</ele>
        <time>2011-10-01T09:50:09Z</time>
      </trkpt>
      <trkpt lat="44.05182" lon="7.44432">
        <ele>2258.2700195312</ele>
        <time>2011-10-01T09:50:20Z</time>
      </trkpt>
      <trkpt lat="44.05178" lon="7.44432">
        <ele>2260.6799316406</ele>
        <time>2011-10-01T09:50:24Z</time>
      </trkpt>
      <trkpt lat="44.05175" lon="7.44447">
        <ele>2262.6000976562</ele>
        <time>2011-10-01T09:50:35Z</time>
      </trkpt>
      <trkpt lat="44.05174" lon="7.44454">
        <ele>2263.080078125</ele>
        <time>2011-10-01T09:50:39Z</time>
      </trkpt>
      <trkpt lat="44.05174" lon="7.44458">
        <ele>2263.5600585938</ele>
        <time>2011-10-01T09:50:41Z</time>
      </trkpt>
      <trkpt lat="44.05177" lon="7.44466">
        <ele>2264.0400390625</ele>
        <time>2011-10-01T09:50:45Z</time>
      </trkpt>
      <trkpt lat="44.05193" lon="7.4448">
        <ele>2262.6000976562</ele>
        <time>2011-10-01T09:50:55Z</time>
      </trkpt>
      <trkpt lat="44.05194" lon="7.44481">
        <ele>2262.1201171875</ele>
        <time>2011-10-01T09:50:56Z</time>
      </trkpt>
      <trkpt lat="44.05198" lon="7.44482">
        <ele>2261.6398925781</ele>
        <time>2011-10-01T09:50:58Z</time>
      </trkpt>
      <trkpt lat="44.05201" lon="7.44482">
        <ele>2261.1599121094</ele>
        <time>2011-10-01T09:51:00Z</time>
      </trkpt>
      <trkpt lat="44.05206" lon="7.44481">
        <ele>2260.1999511719</ele>
        <time>2011-10-01T09:51:04Z</time>
      </trkpt>
      <trkpt lat="44.05209" lon="7.44486">
        <ele>2259.2399902344</ele>
        <time>2011-10-01T09:51:07Z</time>
      </trkpt>
      <trkpt lat="44.05212" lon="7.44499">
        <ele>2259.2399902344</ele>
        <time>2011-10-01T09:51:11Z</time>
      </trkpt>
      <trkpt lat="44.05216" lon="7.44511">
        <ele>2258.75</ele>
        <time>2011-10-01T09:51:15Z</time>
      </trkpt>
      <trkpt lat="44.0522" lon="7.44525">
        <ele>2257.3100585938</ele>
        <time>2011-10-01T09:51:20Z</time>
      </trkpt>
      <trkpt lat="44.05242" lon="7.44553">
        <ele>2258.2700195312</ele>
        <time>2011-10-01T09:51:34Z</time>
      </trkpt>
      <trkpt lat="44.05252" lon="7.44558">
        <ele>2257.3100585938</ele>
        <time>2011-10-01T09:51:44Z</time>
      </trkpt>
      <trkpt lat="44.05257" lon="7.44561">
        <ele>2256.3500976562</ele>
        <time>2011-10-01T09:51:56Z</time>
      </trkpt>
      <trkpt lat="44.05265" lon="7.44568">
        <ele>2256.3500976562</ele>
        <time>2011-10-01T09:52:01Z</time>
      </trkpt>
      <trkpt lat="44.05265" lon="7.44581">
        <ele>2254.9099121094</ele>
        <time>2011-10-01T09:52:06Z</time>
      </trkpt>
      <trkpt lat="44.05264" lon="7.44597">
        <ele>2255.8701171875</ele>
        <time>2011-10-01T09:52:13Z</time>
      </trkpt>
      <trkpt lat="44.05272" lon="7.44602">
        <ele>2253.9499511719</ele>
        <time>2011-10-01T09:52:27Z</time>
      </trkpt>
      <trkpt lat="44.0527" lon="7.44604">
        <ele>2253.9499511719</ele>
        <time>2011-10-01T09:52:40Z</time>
      </trkpt>
      <trkpt lat="44.05266" lon="7.44616">
        <ele>2252.0300292969</ele>
        <time>2011-10-01T09:52:50Z</time>
      </trkpt>
      <trkpt lat="44.05269" lon="7.44621">
        <ele>2250.580078125</ele>
        <time>2011-10-01T09:52:54Z</time>
      </trkpt>
      <trkpt lat="44.0527" lon="7.44622">
        <ele>2250.580078125</ele>
        <time>2011-10-01T09:52:55Z</time>
      </trkpt>
      <trkpt lat="44.05266" lon="7.44631">
        <ele>2248.6599121094</ele>
        <time>2011-10-01T09:53:01Z</time>
      </trkpt>
      <trkpt lat="44.05265" lon="7.44635">
        <ele>2248.6599121094</ele>
        <time>2011-10-01T09:53:04Z</time>
      </trkpt>
      <trkpt lat="44.0527" lon="7.44662">
        <ele>2247.2199707031</ele>
        <time>2011-10-01T09:53:14Z</time>
      </trkpt>
      <trkpt lat="44.05272" lon="7.44664">
        <ele>2246.7399902344</ele>
        <time>2011-10-01T09:53:15Z</time>
      </trkpt>
      <trkpt lat="44.05275" lon="7.4467">
        <ele>2244.8200683594</ele>
        <time>2011-10-01T09:53:18Z</time>
      </trkpt>
      <trkpt lat="44.05278" lon="7.44686">
        <ele>2240.9699707031</ele>
        <time>2011-10-01T09:53:24Z</time>
      </trkpt>
      <trkpt lat="44.05277" lon="7.44693">
        <ele>2240.0100097656</ele>
        <time>2011-10-01T09:53:27Z</time>
      </trkpt>
      <trkpt lat="44.05278" lon="7.44696">
        <ele>2239.0500488281</ele>
        <time>2011-10-01T09:53:30Z</time>
      </trkpt>
      <trkpt lat="44.05279" lon="7.44698">
        <ele>2238.0900878906</ele>
        <time>2011-10-01T09:53:32Z</time>
      </trkpt>
      <trkpt lat="44.05278" lon="7.44706">
        <ele>2236.1599121094</ele>
        <time>2011-10-01T09:53:38Z</time>
      </trkpt>
      <trkpt lat="44.05278" lon="7.44707">
        <ele>2235.1999511719</ele>
        <time>2011-10-01T09:53:39Z</time>
      </trkpt>
      <trkpt lat="44.05276" lon="7.44713">
        <ele>2234.2399902344</ele>
        <time>2011-10-01T09:53:42Z</time>
      </trkpt>
      <trkpt lat="44.05265" lon="7.44718">
        <ele>2231.3601074219</ele>
        <time>2011-10-01T09:53:49Z</time>
      </trkpt>
      <trkpt lat="44.0526" lon="7.44731">
        <ele>2229.4299316406</ele>
        <time>2011-10-01T09:53:58Z</time>
      </trkpt>
      <trkpt lat="44.05265" lon="7.44731">
        <ele>2227.9899902344</ele>
        <time>2011-10-01T09:54:02Z</time>
      </trkpt>
      <trkpt lat="44.05268" lon="7.44732">
        <ele>2228.4699707031</ele>
        <time>2011-10-01T09:54:18Z</time>
      </trkpt>
      <trkpt lat="44.05268" lon="7.44732">
        <ele>2227.5100097656</ele>
        <time>2011-10-01T09:54:23Z</time>
      </trkpt>
      <trkpt lat="44.05273" lon="7.44734">
        <ele>2224.6298828125</ele>
        <time>2011-10-01T09:54:32Z</time>
      </trkpt>
      <trkpt lat="44.05274" lon="7.44734">
        <ele>2223.669921875</ele>
        <time>2011-10-01T09:54:33Z</time>
      </trkpt>
      <trkpt lat="44.05276" lon="7.44736">
        <ele>2224.6298828125</ele>
        <time>2011-10-01T09:54:36Z</time>
      </trkpt>
      <trkpt lat="44.05276" lon="7.44741">
        <ele>2223.669921875</ele>
        <time>2011-10-01T09:54:40Z</time>
      </trkpt>
      <trkpt lat="44.05276" lon="7.4475">
        <ele>2222.7099609375</ele>
        <time>2011-10-01T09:54:45Z</time>
      </trkpt>
      <trkpt lat="44.05278" lon="7.44752">
        <ele>2222.2199707031</ele>
        <time>2011-10-01T09:54:47Z</time>
      </trkpt>
      <trkpt lat="44.05287" lon="7.44755">
        <ele>2218.8601074219</ele>
        <time>2011-10-01T09:54:56Z</time>
      </trkpt>
      <trkpt lat="44.05287" lon="7.44756">
        <ele>2217.8999023438</ele>
        <time>2011-10-01T09:54:57Z</time>
      </trkpt>
      <trkpt lat="44.05286" lon="7.44763">
        <ele>2215.9799804688</ele>
        <time>2011-10-01T09:55:00Z</time>
      </trkpt>
      <trkpt lat="44.05286" lon="7.44767">
        <ele>2215.9799804688</ele>
        <time>2011-10-01T09:55:02Z</time>
      </trkpt>
      <trkpt lat="44.05285" lon="7.44774">
        <ele>2214.5300292969</ele>
        <time>2011-10-01T09:55:05Z</time>
      </trkpt>
      <trkpt lat="44.05286" lon="7.44778">
        <ele>2214.0500488281</ele>
        <time>2011-10-01T09:55:07Z</time>
      </trkpt>
      <trkpt lat="44.053" lon="7.44772">
        <ele>2209.7299804688</ele>
        <time>2011-10-01T09:55:17Z</time>
      </trkpt>
      <trkpt lat="44.05309" lon="7.44772">
        <ele>2207.3200683594</ele>
        <time>2011-10-01T09:55:23Z</time>
      </trkpt>
      <trkpt lat="44.05329" lon="7.44785">
        <ele>2203.9599609375</ele>
        <time>2011-10-01T09:55:35Z</time>
      </trkpt>
      <trkpt lat="44.05352" lon="7.44805">
        <ele>2201.5600585938</ele>
        <time>2011-10-01T09:55:48Z</time>
      </trkpt>
      <trkpt lat="44.05353" lon="7.44805">
        <ele>2201.5600585938</ele>
        <time>2011-10-01T09:56:04Z</time>
      </trkpt>
      <trkpt lat="44.05354" lon="7.44806">
        <ele>2201.080078125</ele>
        <time>2011-10-01T09:56:23Z</time>
      </trkpt>
      <trkpt lat="44.05354" lon="7.44807">
        <ele>2200.5900878906</ele>
        <time>2011-10-01T09:56:37Z</time>
      </trkpt>
      <trkpt lat="44.05353" lon="7.44805">
        <ele>2201.080078125</ele>
        <time>2011-10-01T09:56:53Z</time>
      </trkpt>
      <trkpt lat="44.05357" lon="7.44809">
        <ele>2197.7099609375</ele>
        <time>2011-10-01T09:57:21Z</time>
      </trkpt>
      <trkpt lat="44.05362" lon="7.44811">
        <ele>2196.2700195312</ele>
        <time>2011-10-01T09:57:26Z</time>
      </trkpt>
      <trkpt lat="44.05368" lon="7.44814">
        <ele>2193.3898925781</ele>
        <time>2011-10-01T09:57:31Z</time>
      </trkpt>
      <trkpt lat="44.05371" lon="7.44817">
        <ele>2191.9399414062</ele>
        <time>2011-10-01T09:57:36Z</time>
      </trkpt>
      <trkpt lat="44.05372" lon="7.44815">
        <ele>2191.4599609375</ele>
        <time>2011-10-01T09:57:38Z</time>
      </trkpt>
      <trkpt lat="44.05375" lon="7.44812">
        <ele>2189.5400390625</ele>
        <time>2011-10-01T09:57:42Z</time>
      </trkpt>
      <trkpt lat="44.05375" lon="7.44815">
        <ele>2189.0600585938</ele>
        <time>2011-10-01T09:57:45Z</time>
      </trkpt>
      <trkpt lat="44.05376" lon="7.44817">
        <ele>2188.1000976562</ele>
        <time>2011-10-01T09:57:47Z</time>
      </trkpt>
      <trkpt lat="44.0538" lon="7.44814">
        <ele>2186.6599121094</ele>
        <time>2011-10-01T09:57:51Z</time>
      </trkpt>
      <trkpt lat="44.05384" lon="7.44825">
        <ele>2183.7700195312</ele>
        <time>2011-10-01T09:58:00Z</time>
      </trkpt>
      <trkpt lat="44.05371" lon="7.44853">
        <ele>2180.8898925781</ele>
        <time>2011-10-01T09:58:11Z</time>
      </trkpt>
      <trkpt lat="44.0537" lon="7.44855">
        <ele>2181.3701171875</ele>
        <time>2011-10-01T09:58:12Z</time>
      </trkpt>
      <trkpt lat="44.05368" lon="7.44863">
        <ele>2179.9299316406</ele>
        <time>2011-10-01T09:58:15Z</time>
      </trkpt>
      <trkpt lat="44.05367" lon="7.44867">
        <ele>2178.4799804688</ele>
        <time>2011-10-01T09:58:17Z</time>
      </trkpt>
      <trkpt lat="44.05366" lon="7.44868">
        <ele>2178.9699707031</ele>
        <time>2011-10-01T09:58:38Z</time>
      </trkpt>
      <trkpt lat="44.05374" lon="7.44846">
        <ele>2182.8100585938</ele>
        <time>2011-10-01T09:58:47Z</time>
      </trkpt>
      <trkpt lat="44.05376" lon="7.44839">
        <ele>2183.2900390625</ele>
        <time>2011-10-01T09:58:51Z</time>
      </trkpt>
      <trkpt lat="44.05378" lon="7.44837">
        <ele>2183.2900390625</ele>
        <time>2011-10-01T09:58:53Z</time>
      </trkpt>
      <trkpt lat="44.05383" lon="7.44817">
        <ele>2183.7700195312</ele>
        <time>2011-10-01T09:59:02Z</time>
      </trkpt>
      <trkpt lat="44.05378" lon="7.44812">
        <ele>2186.1799316406</ele>
        <time>2011-10-01T09:59:14Z</time>
      </trkpt>
      <trkpt lat="44.05374" lon="7.44815">
        <ele>2187.1398925781</ele>
        <time>2011-10-01T09:59:18Z</time>
      </trkpt>
      <trkpt lat="44.05366" lon="7.4481">
        <ele>2190.5</ele>
        <time>2011-10-01T09:59:32Z</time>
      </trkpt>
      <trkpt lat="44.05365" lon="7.44812">
        <ele>2191.4599609375</ele>
        <time>2011-10-01T09:59:34Z</time>
      </trkpt>
      <trkpt lat="44.0536" lon="7.44808">
        <ele>2194.3500976562</ele>
        <time>2011-10-01T09:59:46Z</time>
      </trkpt>
      <trkpt lat="44.05353" lon="7.44801">
        <ele>2198.1899414062</ele>
        <time>2011-10-01T09:59:57Z</time>
      </trkpt>
      <trkpt lat="44.05352" lon="7.448">
        <ele>2197.7099609375</ele>
        <time>2011-10-01T09:59:58Z</time>
      </trkpt>
      <trkpt lat="44.05352" lon="7.44805">
        <ele>2200.5900878906</ele>
        <time>2011-10-01T10:00:11Z</time>
      </trkpt>
      <trkpt lat="44.05353" lon="7.44803">
        <ele>2201.080078125</ele>
        <time>2011-10-01T10:00:15Z</time>
      </trkpt>
      <trkpt lat="44.05352" lon="7.44795">
        <ele>2200.5900878906</ele>
        <time>2011-10-01T10:00:33Z</time>
      </trkpt>
      <trkpt lat="44.05358" lon="7.44793">
        <ele>2200.5900878906</ele>
        <time>2011-10-01T10:00:38Z</time>
      </trkpt>
      <trkpt lat="44.05367" lon="7.44792">
        <ele>2202.0400390625</ele>
        <time>2011-10-01T10:00:52Z</time>
      </trkpt>
      <trkpt lat="44.05365" lon="7.44795">
        <ele>2200.5900878906</ele>
        <time>2011-10-01T10:02:27Z</time>
      </trkpt>
      <trkpt lat="44.05365" lon="7.44796">
        <ele>2200.5900878906</ele>
        <time>2011-10-01T10:03:12Z</time>
      </trkpt>
      <trkpt lat="44.05365" lon="7.44797">
        <ele>2200.1101074219</ele>
        <time>2011-10-01T10:03:32Z</time>
      </trkpt>
      <trkpt lat="44.05362" lon="7.44799">
        <ele>2201.080078125</ele>
        <time>2011-10-01T10:03:47Z</time>
      </trkpt>
      <trkpt lat="44.05362" lon="7.44799">
        <ele>2200.1101074219</ele>
        <time>2011-10-01T10:03:51Z</time>
      </trkpt>
      <trkpt lat="44.05361" lon="7.44801">
        <ele>2199.1499023438</ele>
        <time>2011-10-01T10:04:02Z</time>
      </trkpt>
      <trkpt lat="44.05355" lon="7.44806">
        <ele>2197.7099609375</ele>
        <time>2011-10-01T10:04:14Z</time>
      </trkpt>
      <trkpt lat="44.05356" lon="7.44806">
        <ele>2197.2299804688</ele>
        <time>2011-10-01T10:04:15Z</time>
      </trkpt>
      <trkpt lat="44.05361" lon="7.44811">
        <ele>2194.830078125</ele>
        <time>2011-10-01T10:04:23Z</time>
      </trkpt>
      <trkpt lat="44.05364" lon="7.44813">
        <ele>2193.3898925781</ele>
        <time>2011-10-01T10:04:26Z</time>
      </trkpt>
      <trkpt lat="44.05369" lon="7.44813">
        <ele>2190.9799804688</ele>
        <time>2011-10-01T10:04:30Z</time>
      </trkpt>
      <trkpt lat="44.0537" lon="7.44816">
        <ele>2190.0200195312</ele>
        <time>2011-10-01T10:04:33Z</time>
      </trkpt>
      <trkpt lat="44.05371" lon="7.44816">
        <ele>2189.5400390625</ele>
        <time>2011-10-01T10:04:35Z</time>
      </trkpt>
      <trkpt lat="44.05375" lon="7.44815">
        <ele>2186.6599121094</ele>
        <time>2011-10-01T10:04:44Z</time>
      </trkpt>
      <trkpt lat="44.05376" lon="7.44816">
        <ele>2185.6899414062</ele>
        <time>2011-10-01T10:04:45Z</time>
      </trkpt>
      <trkpt lat="44.05386" lon="7.44812">
        <ele>2182.8100585938</ele>
        <time>2011-10-01T10:04:54Z</time>
      </trkpt>
      <trkpt lat="44.05378" lon="7.44844">
        <ele>2181.8500976562</ele>
        <time>2011-10-01T10:05:06Z</time>
      </trkpt>
      <trkpt lat="44.05376" lon="7.44847">
        <ele>2180.8898925781</ele>
        <time>2011-10-01T10:05:08Z</time>
      </trkpt>
      <trkpt lat="44.05375" lon="7.44848">
        <ele>2180.4099121094</ele>
        <time>2011-10-01T10:05:09Z</time>
      </trkpt>
      <trkpt lat="44.0537" lon="7.44863">
        <ele>2177.5200195312</ele>
        <time>2011-10-01T10:05:15Z</time>
      </trkpt>
      <trkpt lat="44.05368" lon="7.44867">
        <ele>2176.5600585938</ele>
        <time>2011-10-01T10:05:17Z</time>
      </trkpt>
      <trkpt lat="44.05366" lon="7.44883">
        <ele>2174.6398925781</ele>
        <time>2011-10-01T10:05:23Z</time>
      </trkpt>
      <trkpt lat="44.0536" lon="7.44893">
        <ele>2173.6799316406</ele>
        <time>2011-10-01T10:05:27Z</time>
      </trkpt>
      <trkpt lat="44.05354" lon="7.44925">
        <ele>2171.2700195312</ele>
        <time>2011-10-01T10:05:37Z</time>
      </trkpt>
      <trkpt lat="44.05352" lon="7.44938">
        <ele>2170.7900390625</ele>
        <time>2011-10-01T10:05:41Z</time>
      </trkpt>
      <trkpt lat="44.05352" lon="7.44955">
        <ele>2170.7900390625</ele>
        <time>2011-10-01T10:05:47Z</time>
      </trkpt>
      <trkpt lat="44.05355" lon="7.44989">
        <ele>2169.830078125</ele>
        <time>2011-10-01T10:05:59Z</time>
      </trkpt>
      <trkpt lat="44.05356" lon="7.45015">
        <ele>2166.9499511719</ele>
        <time>2011-10-01T10:06:08Z</time>
      </trkpt>
      <trkpt lat="44.05358" lon="7.45019">
        <ele>2165.9899902344</ele>
        <time>2011-10-01T10:06:10Z</time>
      </trkpt>
      <trkpt lat="44.05363" lon="7.45025">
        <ele>2165.5100097656</ele>
        <time>2011-10-01T10:06:14Z</time>
      </trkpt>
      <trkpt lat="44.05373" lon="7.4505">
        <ele>2165.5100097656</ele>
        <time>2011-10-01T10:06:23Z</time>
      </trkpt>
      <trkpt lat="44.05373" lon="7.45064">
        <ele>2165.0300292969</ele>
        <time>2011-10-01T10:06:28Z</time>
      </trkpt>
      <trkpt lat="44.05376" lon="7.45073">
        <ele>2166.4699707031</ele>
        <time>2011-10-01T10:06:33Z</time>
      </trkpt>
      <trkpt lat="44.05399" lon="7.45091">
        <ele>2165.9899902344</ele>
        <time>2011-10-01T10:06:45Z</time>
      </trkpt>
      <trkpt lat="44.05414" lon="7.45118">
        <ele>2166.4699707031</ele>
        <time>2011-10-01T10:06:55Z</time>
      </trkpt>
      <trkpt lat="44.05426" lon="7.4513">
        <ele>2165.9899902344</ele>
        <time>2011-10-01T10:07:03Z</time>
      </trkpt>
      <trkpt lat="44.05444" lon="7.45115">
        <ele>2163.580078125</ele>
        <time>2011-10-01T10:07:13Z</time>
      </trkpt>
      <trkpt lat="44.05464" lon="7.45111">
        <ele>2162.1398925781</ele>
        <time>2011-10-01T10:07:24Z</time>
      </trkpt>
      <trkpt lat="44.05478" lon="7.45122">
        <ele>2164.0600585938</ele>
        <time>2011-10-01T10:07:31Z</time>
      </trkpt>
      <trkpt lat="44.0549" lon="7.45142">
        <ele>2159.7399902344</ele>
        <time>2011-10-01T10:07:41Z</time>
      </trkpt>
      <trkpt lat="44.05512" lon="7.45153">
        <ele>2160.2199707031</ele>
        <time>2011-10-01T10:07:52Z</time>
      </trkpt>
      <trkpt lat="44.0553" lon="7.45141">
        <ele>2160.2199707031</ele>
        <time>2011-10-01T10:08:00Z</time>
      </trkpt>
      <trkpt lat="44.05539" lon="7.45139">
        <ele>2163.1000976562</ele>
        <time>2011-10-01T10:08:05Z</time>
      </trkpt>
      <trkpt lat="44.05541" lon="7.45139">
        <ele>2161.1799316406</ele>
        <time>2011-10-01T10:08:06Z</time>
      </trkpt>
      <trkpt lat="44.05544" lon="7.45138">
        <ele>2160.2199707031</ele>
        <time>2011-10-01T10:08:08Z</time>
      </trkpt>
      <trkpt lat="44.05546" lon="7.45136">
        <ele>2160.6999511719</ele>
        <time>2011-10-01T10:08:10Z</time>
      </trkpt>
      <trkpt lat="44.05553" lon="7.4515">
        <ele>2162.1398925781</ele>
        <time>2011-10-01T10:08:20Z</time>
      </trkpt>
      <trkpt lat="44.05553" lon="7.45153">
        <ele>2160.2199707031</ele>
        <time>2011-10-01T10:08:21Z</time>
      </trkpt>
      <trkpt lat="44.05554" lon="7.45167">
        <ele>2160.2199707031</ele>
        <time>2011-10-01T10:08:25Z</time>
      </trkpt>
      <trkpt lat="44.05556" lon="7.45186">
        <ele>2155.8898925781</ele>
        <time>2011-10-01T10:08:33Z</time>
      </trkpt>
      <trkpt lat="44.05557" lon="7.45197">
        <ele>2152.5300292969</ele>
        <time>2011-10-01T10:08:40Z</time>
      </trkpt>
      <trkpt lat="44.05558" lon="7.452">
        <ele>2151.0900878906</ele>
        <time>2011-10-01T10:08:42Z</time>
      </trkpt>
      <trkpt lat="44.05559" lon="7.45202">
        <ele>2150.6101074219</ele>
        <time>2011-10-01T10:08:44Z</time>
      </trkpt>
      <trkpt lat="44.05567" lon="7.45187">
        <ele>2146.7600097656</ele>
        <time>2011-10-01T10:08:53Z</time>
      </trkpt>
      <trkpt lat="44.05576" lon="7.4516">
        <ele>2142.919921875</ele>
        <time>2011-10-01T10:09:03Z</time>
      </trkpt>
      <trkpt lat="44.05579" lon="7.45154">
        <ele>2141.9499511719</ele>
        <time>2011-10-01T10:09:06Z</time>
      </trkpt>
      <trkpt lat="44.05581" lon="7.45153">
        <ele>2140.9899902344</ele>
        <time>2011-10-01T10:09:09Z</time>
      </trkpt>
      <trkpt lat="44.0559" lon="7.45181">
        <ele>2137.6298828125</ele>
        <time>2011-10-01T10:09:19Z</time>
      </trkpt>
      <trkpt lat="44.05593" lon="7.45188">
        <ele>2137.6298828125</ele>
        <time>2011-10-01T10:09:21Z</time>
      </trkpt>
      <trkpt lat="44.05608" lon="7.45201">
        <ele>2136.669921875</ele>
        <time>2011-10-01T10:09:26Z</time>
      </trkpt>
      <trkpt lat="44.05618" lon="7.4521">
        <ele>2136.1899414062</ele>
        <time>2011-10-01T10:09:30Z</time>
      </trkpt>
      <trkpt lat="44.05626" lon="7.45212">
        <ele>2137.6298828125</ele>
        <time>2011-10-01T10:09:34Z</time>
      </trkpt>
      <trkpt lat="44.05634" lon="7.45199">
        <ele>2137.6298828125</ele>
        <time>2011-10-01T10:09:40Z</time>
      </trkpt>
      <trkpt lat="44.05642" lon="7.45192">
        <ele>2137.1499023438</ele>
        <time>2011-10-01T10:09:47Z</time>
      </trkpt>
      <trkpt lat="44.05648" lon="7.45185">
        <ele>2135.7099609375</ele>
        <time>2011-10-01T10:09:54Z</time>
      </trkpt>
      <trkpt lat="44.0565" lon="7.45176">
        <ele>2135.7099609375</ele>
        <time>2011-10-01T10:10:04Z</time>
      </trkpt>
      <trkpt lat="44.05654" lon="7.45191">
        <ele>2134.2600097656</ele>
        <time>2011-10-01T10:10:13Z</time>
      </trkpt>
      <trkpt lat="44.05659" lon="7.45196">
        <ele>2134.7399902344</ele>
        <time>2011-10-01T10:10:17Z</time>
      </trkpt>
      <trkpt lat="44.05662" lon="7.45198">
        <ele>2134.2600097656</ele>
        <time>2011-10-01T10:10:19Z</time>
      </trkpt>
      <trkpt lat="44.05668" lon="7.45223">
        <ele>2132.3400878906</ele>
        <time>2011-10-01T10:10:29Z</time>
      </trkpt>
      <trkpt lat="44.05668" lon="7.45224">
        <ele>2131.8601074219</ele>
        <time>2011-10-01T10:10:37Z</time>
      </trkpt>
      <trkpt lat="44.05671" lon="7.4521">
        <ele>2131.3798828125</ele>
        <time>2011-10-01T10:10:46Z</time>
      </trkpt>
      <trkpt lat="44.05672" lon="7.45207">
        <ele>2130.8999023438</ele>
        <time>2011-10-01T10:10:48Z</time>
      </trkpt>
      <trkpt lat="44.05675" lon="7.452">
        <ele>2130.8999023438</ele>
        <time>2011-10-01T10:10:53Z</time>
      </trkpt>
      <trkpt lat="44.0569" lon="7.4519">
        <ele>2130.8999023438</ele>
        <time>2011-10-01T10:11:09Z</time>
      </trkpt>
      <trkpt lat="44.05695" lon="7.45189">
        <ele>2131.3798828125</ele>
        <time>2011-10-01T10:11:30Z</time>
      </trkpt>
      <trkpt lat="44.05693" lon="7.45182">
        <ele>2128.9799804688</ele>
        <time>2011-10-01T10:11:35Z</time>
      </trkpt>
      <trkpt lat="44.05693" lon="7.45175">
        <ele>2128.0200195312</ele>
        <time>2011-10-01T10:11:38Z</time>
      </trkpt>
      <trkpt lat="44.05696" lon="7.4517">
        <ele>2127.5300292969</ele>
        <time>2011-10-01T10:11:40Z</time>
      </trkpt>
      <trkpt lat="44.05698" lon="7.45167">
        <ele>2127.0500488281</ele>
        <time>2011-10-01T10:11:41Z</time>
      </trkpt>
      <trkpt lat="44.05708" lon="7.45155">
        <ele>2125.1298828125</ele>
        <time>2011-10-01T10:11:47Z</time>
      </trkpt>
      <trkpt lat="44.05711" lon="7.45152">
        <ele>2124.6499023438</ele>
        <time>2011-10-01T10:11:49Z</time>
      </trkpt>
      <trkpt lat="44.05721" lon="7.45144">
        <ele>2121.7700195312</ele>
        <time>2011-10-01T10:11:56Z</time>
      </trkpt>
      <trkpt lat="44.05725" lon="7.45145">
        <ele>2120.3200683594</ele>
        <time>2011-10-01T10:12:00Z</time>
      </trkpt>
      <trkpt lat="44.05728" lon="7.45153">
        <ele>2119.3601074219</ele>
        <time>2011-10-01T10:12:05Z</time>
      </trkpt>
      <trkpt lat="44.0573" lon="7.45158">
        <ele>2119.3601074219</ele>
        <time>2011-10-01T10:12:09Z</time>
      </trkpt>
      <trkpt lat="44.05736" lon="7.45168">
        <ele>2116.4799804688</ele>
        <time>2011-10-01T10:12:21Z</time>
      </trkpt>
      <trkpt lat="44.0574" lon="7.45175">
        <ele>2116.9599609375</ele>
        <time>2011-10-01T10:12:37Z</time>
      </trkpt>
      <trkpt lat="44.05743" lon="7.45176">
        <ele>2116.9599609375</ele>
        <time>2011-10-01T10:12:56Z</time>
      </trkpt>
      <trkpt lat="44.05743" lon="7.45176">
        <ele>2116</ele>
        <time>2011-10-01T10:13:14Z</time>
      </trkpt>
      <trkpt lat="44.05741" lon="7.45186">
        <ele>2116.4799804688</ele>
        <time>2011-10-01T10:13:27Z</time>
      </trkpt>
      <trkpt lat="44.05739" lon="7.45196">
        <ele>2116.4799804688</ele>
        <time>2011-10-01T10:13:46Z</time>
      </trkpt>
      <trkpt lat="44.05736" lon="7.45202">
        <ele>2116.7199707031</ele>
        <time>2011-10-01T10:14:08Z</time>
      </trkpt>
      <trkpt lat="44.05736" lon="7.45144">
        <ele>2121.2</ele>
        <time>2011-10-01T11:10:40.546Z</time>
      </trkpt>
      <trkpt lat="44.05736" lon="7.45144">
        <ele>2109.75</ele>
        <time>2011-10-01T11:10:41Z</time>
      </trkpt>
      <trkpt lat="44.05724" lon="7.45139">
        <ele>2112.1499023438</ele>
        <time>2011-10-01T11:10:59Z</time>
      </trkpt>
      <trkpt lat="44.05715" lon="7.45137">
        <ele>2114.5600585938</ele>
        <time>2011-10-01T11:11:14Z</time>
      </trkpt>
      <trkpt lat="44.05708" lon="7.45138">
        <ele>2116.9599609375</ele>
        <time>2011-10-01T11:11:25Z</time>
      </trkpt>
      <trkpt lat="44.05705" lon="7.45142">
        <ele>2117.4399414062</ele>
        <time>2011-10-01T11:11:30Z</time>
      </trkpt>
      <trkpt lat="44.05699" lon="7.4513">
        <ele>2119.8400878906</ele>
        <time>2011-10-01T11:11:45Z</time>
      </trkpt>
      <trkpt lat="44.05698" lon="7.45126">
        <ele>2119.8400878906</ele>
        <time>2011-10-01T11:11:49Z</time>
      </trkpt>
      <trkpt lat="44.05694" lon="7.45118">
        <ele>2121.2900390625</ele>
        <time>2011-10-01T11:11:56Z</time>
      </trkpt>
      <trkpt lat="44.05688" lon="7.45108">
        <ele>2121.2900390625</ele>
        <time>2011-10-01T11:12:12Z</time>
      </trkpt>
      <trkpt lat="44.05688" lon="7.45106">
        <ele>2121.2900390625</ele>
        <time>2011-10-01T11:12:26Z</time>
      </trkpt>
      <trkpt lat="44.05687" lon="7.45086">
        <ele>2120.8100585938</ele>
        <time>2011-10-01T11:12:42Z</time>
      </trkpt>
      <trkpt lat="44.05688" lon="7.45071">
        <ele>2119.8400878906</ele>
        <time>2011-10-01T11:12:53Z</time>
      </trkpt>
      <trkpt lat="44.05692" lon="7.45046">
        <ele>2120.3200683594</ele>
        <time>2011-10-01T11:13:09Z</time>
      </trkpt>
      <trkpt lat="44.05698" lon="7.45029">
        <ele>2118.8798828125</ele>
        <time>2011-10-01T11:13:21Z</time>
      </trkpt>
      <trkpt lat="44.05701" lon="7.45021">
        <ele>2119.8400878906</ele>
        <time>2011-10-01T11:13:26Z</time>
      </trkpt>
      <trkpt lat="44.05705" lon="7.45005">
        <ele>2120.8100585938</ele>
        <time>2011-10-01T11:13:35Z</time>
      </trkpt>
      <trkpt lat="44.05705" lon="7.45">
        <ele>2120.8100585938</ele>
        <time>2011-10-01T11:13:38Z</time>
      </trkpt>
      <trkpt lat="44.05706" lon="7.44991">
        <ele>2121.7700195312</ele>
        <time>2011-10-01T11:13:44Z</time>
      </trkpt>
      <trkpt lat="44.05708" lon="7.44985">
        <ele>2121.7700195312</ele>
        <time>2011-10-01T11:13:48Z</time>
      </trkpt>
      <trkpt lat="44.05708" lon="7.44971">
        <ele>2124.6499023438</ele>
        <time>2011-10-01T11:13:58Z</time>
      </trkpt>
      <trkpt lat="44.05708" lon="7.4497">
        <ele>2124.169921875</ele>
        <time>2011-10-01T11:13:59Z</time>
      </trkpt>
      <trkpt lat="44.05709" lon="7.44955">
        <ele>2127.5300292969</ele>
        <time>2011-10-01T11:14:13Z</time>
      </trkpt>
      <trkpt lat="44.05708" lon="7.44957">
        <ele>2127.5300292969</ele>
        <time>2011-10-01T11:14:15Z</time>
      </trkpt>
      <trkpt lat="44.05706" lon="7.44959">
        <ele>2128.9799804688</ele>
        <time>2011-10-01T11:14:18Z</time>
      </trkpt>
      <trkpt lat="44.05707" lon="7.4495">
        <ele>2129.4599609375</ele>
        <time>2011-10-01T11:14:27Z</time>
      </trkpt>
      <trkpt lat="44.05708" lon="7.44939">
        <ele>2128.9799804688</ele>
        <time>2011-10-01T11:14:33Z</time>
      </trkpt>
      <trkpt lat="44.05707" lon="7.44932">
        <ele>2128.9799804688</ele>
        <time>2011-10-01T11:14:36Z</time>
      </trkpt>
      <trkpt lat="44.05706" lon="7.44923">
        <ele>2128.9799804688</ele>
        <time>2011-10-01T11:14:40Z</time>
      </trkpt>
      <trkpt lat="44.05706" lon="7.44917">
        <ele>2130.419921875</ele>
        <time>2011-10-01T11:14:43Z</time>
      </trkpt>
      <trkpt lat="44.05706" lon="7.44895">
        <ele>2131.3798828125</ele>
        <time>2011-10-01T11:14:56Z</time>
      </trkpt>
      <trkpt lat="44.05706" lon="7.44891">
        <ele>2131.3798828125</ele>
        <time>2011-10-01T11:14:58Z</time>
      </trkpt>
      <trkpt lat="44.05704" lon="7.44886">
        <ele>2132.3400878906</ele>
        <time>2011-10-01T11:15:01Z</time>
      </trkpt>
      <trkpt lat="44.05704" lon="7.44876">
        <ele>2131.8601074219</ele>
        <time>2011-10-01T11:15:07Z</time>
      </trkpt>
      <trkpt lat="44.05709" lon="7.44841">
        <ele>2133.3000488281</ele>
        <time>2011-10-01T11:15:28Z</time>
      </trkpt>
      <trkpt lat="44.05709" lon="7.44835">
        <ele>2134.2600097656</ele>
        <time>2011-10-01T11:15:32Z</time>
      </trkpt>
      <trkpt lat="44.05708" lon="7.44831">
        <ele>2135.2299804688</ele>
        <time>2011-10-01T11:15:35Z</time>
      </trkpt>
      <trkpt lat="44.05708" lon="7.44826">
        <ele>2135.7099609375</ele>
        <time>2011-10-01T11:15:38Z</time>
      </trkpt>
      <trkpt lat="44.05709" lon="7.448">
        <ele>2138.1101074219</ele>
        <time>2011-10-01T11:15:53Z</time>
      </trkpt>
      <trkpt lat="44.05708" lon="7.44795">
        <ele>2139.5500488281</ele>
        <time>2011-10-01T11:15:56Z</time>
      </trkpt>
      <trkpt lat="44.05709" lon="7.44772">
        <ele>2142.919921875</ele>
        <time>2011-10-01T11:16:10Z</time>
      </trkpt>
      <trkpt lat="44.05709" lon="7.44752">
        <ele>2143.8798828125</ele>
        <time>2011-10-01T11:16:21Z</time>
      </trkpt>
      <trkpt lat="44.05709" lon="7.44741">
        <ele>2145.3200683594</ele>
        <time>2011-10-01T11:16:27Z</time>
      </trkpt>
      <trkpt lat="44.05708" lon="7.44736">
        <ele>2145.8000488281</ele>
        <time>2011-10-01T11:16:30Z</time>
      </trkpt>
      <trkpt lat="44.05707" lon="7.44719">
        <ele>2146.2800292969</ele>
        <time>2011-10-01T11:16:40Z</time>
      </trkpt>
      <trkpt lat="44.0571" lon="7.44697">
        <ele>2148.6799316406</ele>
        <time>2011-10-01T11:16:52Z</time>
      </trkpt>
      <trkpt lat="44.05711" lon="7.44692">
        <ele>2148.1999511719</ele>
        <time>2011-10-01T11:16:55Z</time>
      </trkpt>
      <trkpt lat="44.05713" lon="7.44683">
        <ele>2148.6799316406</ele>
        <time>2011-10-01T11:17:02Z</time>
      </trkpt>
      <trkpt lat="44.05716" lon="7.44649">
        <ele>2150.1298828125</ele>
        <time>2011-10-01T11:17:15Z</time>
      </trkpt>
      <trkpt lat="44.05722" lon="7.44621">
        <ele>2151.0900878906</ele>
        <time>2011-10-01T11:17:25Z</time>
      </trkpt>
      <trkpt lat="44.0573" lon="7.44593">
        <ele>2151.0900878906</ele>
        <time>2011-10-01T11:17:35Z</time>
      </trkpt>
      <trkpt lat="44.05741" lon="7.44564">
        <ele>2152.0500488281</ele>
        <time>2011-10-01T11:17:47Z</time>
      </trkpt>
      <trkpt lat="44.05745" lon="7.44552">
        <ele>2153.4899902344</ele>
        <time>2011-10-01T11:17:52Z</time>
      </trkpt>
      <trkpt lat="44.05751" lon="7.44533">
        <ele>2153.9699707031</ele>
        <time>2011-10-01T11:17:59Z</time>
      </trkpt>
      <trkpt lat="44.05758" lon="7.44516">
        <ele>2155.8898925781</ele>
        <time>2011-10-01T11:18:09Z</time>
      </trkpt>
      <trkpt lat="44.05761" lon="7.44501">
        <ele>2154.9299316406</ele>
        <time>2011-10-01T11:18:17Z</time>
      </trkpt>
      <trkpt lat="44.05766" lon="7.4448">
        <ele>2155.8898925781</ele>
        <time>2011-10-01T11:18:25Z</time>
      </trkpt>
      <trkpt lat="44.05775" lon="7.44447">
        <ele>2154.9299316406</ele>
        <time>2011-10-01T11:18:37Z</time>
      </trkpt>
      <trkpt lat="44.05782" lon="7.44409">
        <ele>2155.4099121094</ele>
        <time>2011-10-01T11:18:51Z</time>
      </trkpt>
      <trkpt lat="44.05796" lon="7.44383">
        <ele>2156.3701171875</ele>
        <time>2011-10-01T11:19:03Z</time>
      </trkpt>
      <trkpt lat="44.05804" lon="7.44358">
        <ele>2156.8601074219</ele>
        <time>2011-10-01T11:19:12Z</time>
      </trkpt>
      <trkpt lat="44.05809" lon="7.44336">
        <ele>2157.8200683594</ele>
        <time>2011-10-01T11:19:21Z</time>
      </trkpt>
      <trkpt lat="44.05809" lon="7.44331">
        <ele>2157.8200683594</ele>
        <time>2011-10-01T11:19:23Z</time>
      </trkpt>
      <trkpt lat="44.05812" lon="7.44319">
        <ele>2157.8200683594</ele>
        <time>2011-10-01T11:19:28Z</time>
      </trkpt>
      <trkpt lat="44.05828" lon="7.44305">
        <ele>2157.8200683594</ele>
        <time>2011-10-01T11:19:37Z</time>
      </trkpt>
      <trkpt lat="44.05833" lon="7.44301">
        <ele>2158.3000488281</ele>
        <time>2011-10-01T11:19:41Z</time>
      </trkpt>
      <trkpt lat="44.05836" lon="7.44293">
        <ele>2158.3000488281</ele>
        <time>2011-10-01T11:19:58Z</time>
      </trkpt>
      <trkpt lat="44.05838" lon="7.44293">
        <ele>2161.1799316406</ele>
        <time>2011-10-01T11:20:14Z</time>
      </trkpt>
      <trkpt lat="44.05838" lon="7.44292">
        <ele>2158.3000488281</ele>
        <time>2011-10-01T11:20:16Z</time>
      </trkpt>
      <trkpt lat="44.05846" lon="7.4429">
        <ele>2158.3000488281</ele>
        <time>2011-10-01T11:20:35Z</time>
      </trkpt>
      <trkpt lat="44.05846" lon="7.4429">
        <ele>2157.8200683594</ele>
        <time>2011-10-01T11:20:36Z</time>
      </trkpt>
      <trkpt lat="44.05844" lon="7.4429">
        <ele>2158.3000488281</ele>
        <time>2011-10-01T11:20:57Z</time>
      </trkpt>
      <trkpt lat="44.05843" lon="7.44288">
        <ele>2159.2600097656</ele>
        <time>2011-10-01T11:21:18Z</time>
      </trkpt>
      <trkpt lat="44.05843" lon="7.44284">
        <ele>2158.7800292969</ele>
        <time>2011-10-01T11:22:02Z</time>
      </trkpt>
      <trkpt lat="44.05849" lon="7.44279">
        <ele>2159.7399902344</ele>
        <time>2011-10-01T11:22:20Z</time>
      </trkpt>
      <trkpt lat="44.0585" lon="7.44279">
        <ele>2160.2199707031</ele>
        <time>2011-10-01T11:22:22Z</time>
      </trkpt>
      <trkpt lat="44.05853" lon="7.44274">
        <ele>2161.1799316406</ele>
        <time>2011-10-01T11:22:27Z</time>
      </trkpt>
      <trkpt lat="44.05859" lon="7.4427">
        <ele>2162.6201171875</ele>
        <time>2011-10-01T11:22:40Z</time>
      </trkpt>
      <trkpt lat="44.0586" lon="7.44269">
        <ele>2162.1398925781</ele>
        <time>2011-10-01T11:22:41Z</time>
      </trkpt>
      <trkpt lat="44.05868" lon="7.44257">
        <ele>2163.1000976562</ele>
        <time>2011-10-01T11:22:53Z</time>
      </trkpt>
      <trkpt lat="44.0587" lon="7.44253">
        <ele>2164.0600585938</ele>
        <time>2011-10-01T11:23:01Z</time>
      </trkpt>
      <trkpt lat="44.05873" lon="7.44249">
        <ele>2164.5500488281</ele>
        <time>2011-10-01T11:23:05Z</time>
      </trkpt>
      <trkpt lat="44.05878" lon="7.44246">
        <ele>2164.0600585938</ele>
        <time>2011-10-01T11:23:10Z</time>
      </trkpt>
      <trkpt lat="44.05892" lon="7.44241">
        <ele>2165.0300292969</ele>
        <time>2011-10-01T11:23:24Z</time>
      </trkpt>
      <trkpt lat="44.05895" lon="7.44241">
        <ele>2164.5500488281</ele>
        <time>2011-10-01T11:23:28Z</time>
      </trkpt>
      <trkpt lat="44.059" lon="7.44243">
        <ele>2164.5500488281</ele>
        <time>2011-10-01T11:23:33Z</time>
      </trkpt>
      <trkpt lat="44.05902" lon="7.44244">
        <ele>2165.9899902344</ele>
        <time>2011-10-01T11:23:35Z</time>
      </trkpt>
      <trkpt lat="44.05915" lon="7.44248">
        <ele>2167.9099121094</ele>
        <time>2011-10-01T11:23:48Z</time>
      </trkpt>
      <trkpt lat="44.05915" lon="7.44248">
        <ele>2166.9499511719</ele>
        <time>2011-10-01T11:23:49Z</time>
      </trkpt>
      <trkpt lat="44.0592" lon="7.44252">
        <ele>2166.9499511719</ele>
        <time>2011-10-01T11:23:55Z</time>
      </trkpt>
      <trkpt lat="44.05929" lon="7.44262">
        <ele>2165.9899902344</ele>
        <time>2011-10-01T11:24:05Z</time>
      </trkpt>
      <trkpt lat="44.05934" lon="7.44272">
        <ele>2165.5100097656</ele>
        <time>2011-10-01T11:24:11Z</time>
      </trkpt>
      <trkpt lat="44.05937" lon="7.4428">
        <ele>2165.0300292969</ele>
        <time>2011-10-01T11:24:16Z</time>
      </trkpt>
      <trkpt lat="44.05943" lon="7.44282">
        <ele>2164.5500488281</ele>
        <time>2011-10-01T11:24:21Z</time>
      </trkpt>
      <trkpt lat="44.05945" lon="7.44282">
        <ele>2165.0300292969</ele>
        <time>2011-10-01T11:24:23Z</time>
      </trkpt>
      <trkpt lat="44.05954" lon="7.44281">
        <ele>2164.5500488281</ele>
        <time>2011-10-01T11:24:30Z</time>
      </trkpt>
      <trkpt lat="44.05967" lon="7.44278">
        <ele>2165.9899902344</ele>
        <time>2011-10-01T11:24:38Z</time>
      </trkpt>
      <trkpt lat="44.0599" lon="7.44277">
        <ele>2166.9499511719</ele>
        <time>2011-10-01T11:24:52Z</time>
      </trkpt>
      <trkpt lat="44.05998" lon="7.44275">
        <ele>2167.9099121094</ele>
        <time>2011-10-01T11:25:01Z</time>
      </trkpt>
      <trkpt lat="44.06003" lon="7.44275">
        <ele>2169.830078125</ele>
        <time>2011-10-01T11:25:06Z</time>
      </trkpt>
      <trkpt lat="44.06005" lon="7.44276">
        <ele>2170.3100585938</ele>
        <time>2011-10-01T11:25:08Z</time>
      </trkpt>
      <trkpt lat="44.06013" lon="7.44291">
        <ele>2167.9099121094</ele>
        <time>2011-10-01T11:25:21Z</time>
      </trkpt>
      <trkpt lat="44.06014" lon="7.44293">
        <ele>2167.4299316406</ele>
        <time>2011-10-01T11:25:22Z</time>
      </trkpt>
      <trkpt lat="44.06028" lon="7.44318">
        <ele>2165.5100097656</ele>
        <time>2011-10-01T11:25:41Z</time>
      </trkpt>
      <trkpt lat="44.06034" lon="7.44325">
        <ele>2163.580078125</ele>
        <time>2011-10-01T11:25:48Z</time>
      </trkpt>
      <trkpt lat="44.06049" lon="7.44321">
        <ele>2163.1000976562</ele>
        <time>2011-10-01T11:26:01Z</time>
      </trkpt>
      <trkpt lat="44.06052" lon="7.4432">
        <ele>2163.580078125</ele>
        <time>2011-10-01T11:26:04Z</time>
      </trkpt>
      <trkpt lat="44.0606" lon="7.44323">
        <ele>2165.0300292969</ele>
        <time>2011-10-01T11:26:10Z</time>
      </trkpt>
      <trkpt lat="44.06072" lon="7.44325">
        <ele>2168.3898925781</ele>
        <time>2011-10-01T11:26:21Z</time>
      </trkpt>
      <trkpt lat="44.06081" lon="7.44323">
        <ele>2170.3100585938</ele>
        <time>2011-10-01T11:26:30Z</time>
      </trkpt>
      <trkpt lat="44.06087" lon="7.44323">
        <ele>2171.7600097656</ele>
        <time>2011-10-01T11:26:36Z</time>
      </trkpt>
      <trkpt lat="44.06098" lon="7.44321">
        <ele>2174.6398925781</ele>
        <time>2011-10-01T11:26:49Z</time>
      </trkpt>
      <trkpt lat="44.06105" lon="7.44319">
        <ele>2177.0400390625</ele>
        <time>2011-10-01T11:27:05Z</time>
      </trkpt>
      <trkpt lat="44.0612" lon="7.44315">
        <ele>2178.9699707031</ele>
        <time>2011-10-01T11:27:20Z</time>
      </trkpt>
      <trkpt lat="44.06126" lon="7.44311">
        <ele>2180.8898925781</ele>
        <time>2011-10-01T11:27:28Z</time>
      </trkpt>
      <trkpt lat="44.06132" lon="7.44309">
        <ele>2181.8500976562</ele>
        <time>2011-10-01T11:27:34Z</time>
      </trkpt>
      <trkpt lat="44.06145" lon="7.44314">
        <ele>2184.7299804688</ele>
        <time>2011-10-01T11:27:46Z</time>
      </trkpt>
      <trkpt lat="44.06147" lon="7.44315">
        <ele>2186.1799316406</ele>
        <time>2011-10-01T11:27:48Z</time>
      </trkpt>
      <trkpt lat="44.06155" lon="7.44321">
        <ele>2191.9399414062</ele>
        <time>2011-10-01T11:27:59Z</time>
      </trkpt>
      <trkpt lat="44.06156" lon="7.4432">
        <ele>2188.580078125</ele>
        <time>2011-10-01T11:28:00Z</time>
      </trkpt>
      <trkpt lat="44.06156" lon="7.44313">
        <ele>2193.3898925781</ele>
        <time>2011-10-01T11:28:05Z</time>
      </trkpt>
      <trkpt lat="44.06156" lon="7.44312">
        <ele>2190.0200195312</ele>
        <time>2011-10-01T11:28:06Z</time>
      </trkpt>
      <trkpt lat="44.06155" lon="7.44308">
        <ele>2191.9399414062</ele>
        <time>2011-10-01T11:28:09Z</time>
      </trkpt>
      <trkpt lat="44.06156" lon="7.44304">
        <ele>2191.9399414062</ele>
        <time>2011-10-01T11:28:12Z</time>
      </trkpt>
      <trkpt lat="44.06156" lon="7.44297">
        <ele>2194.830078125</ele>
        <time>2011-10-01T11:28:19Z</time>
      </trkpt>
      <trkpt lat="44.06159" lon="7.44295">
        <ele>2198.1899414062</ele>
        <time>2011-10-01T11:28:25Z</time>
      </trkpt>
      <trkpt lat="44.06161" lon="7.44302">
        <ele>2199.1499023438</ele>
        <time>2011-10-01T11:28:31Z</time>
      </trkpt>
      <trkpt lat="44.06171" lon="7.44316">
        <ele>2198.1899414062</ele>
        <time>2011-10-01T11:28:42Z</time>
      </trkpt>
      <trkpt lat="44.06173" lon="7.44316">
        <ele>2198.1899414062</ele>
        <time>2011-10-01T11:28:43Z</time>
      </trkpt>
      <trkpt lat="44.0618" lon="7.44317">
        <ele>2200.5900878906</ele>
        <time>2011-10-01T11:28:48Z</time>
      </trkpt>
      <trkpt lat="44.06183" lon="7.44318">
        <ele>2200.5900878906</ele>
        <time>2011-10-01T11:28:51Z</time>
      </trkpt>
      <trkpt lat="44.06192" lon="7.44314">
        <ele>2202.0400390625</ele>
        <time>2011-10-01T11:29:00Z</time>
      </trkpt>
      <trkpt lat="44.06194" lon="7.44311">
        <ele>2203.4799804688</ele>
        <time>2011-10-01T11:29:03Z</time>
      </trkpt>
      <trkpt lat="44.06201" lon="7.443">
        <ele>2203.9599609375</ele>
        <time>2011-10-01T11:29:12Z</time>
      </trkpt>
      <trkpt lat="44.06205" lon="7.44295">
        <ele>2204.919921875</ele>
        <time>2011-10-01T11:29:16Z</time>
      </trkpt>
      <trkpt lat="44.06207" lon="7.44293">
        <ele>2204.919921875</ele>
        <time>2011-10-01T11:29:18Z</time>
      </trkpt>
      <trkpt lat="44.0621" lon="7.44287">
        <ele>2204.919921875</ele>
        <time>2011-10-01T11:29:23Z</time>
      </trkpt>
      <trkpt lat="44.06213" lon="7.44283">
        <ele>2206.3601074219</ele>
        <time>2011-10-01T11:29:26Z</time>
      </trkpt>
      <trkpt lat="44.06218" lon="7.44277">
        <ele>2206.8400878906</ele>
        <time>2011-10-01T11:29:32Z</time>
      </trkpt>
      <trkpt lat="44.06219" lon="7.44275">
        <ele>2207.8100585938</ele>
        <time>2011-10-01T11:29:34Z</time>
      </trkpt>
      <trkpt lat="44.06221" lon="7.44271">
        <ele>2208.7700195312</ele>
        <time>2011-10-01T11:29:37Z</time>
      </trkpt>
      <trkpt lat="44.06225" lon="7.44265">
        <ele>2209.25</ele>
        <time>2011-10-01T11:29:42Z</time>
      </trkpt>
      <trkpt lat="44.06231" lon="7.44258">
        <ele>2207.3200683594</ele>
        <time>2011-10-01T11:29:48Z</time>
      </trkpt>
      <trkpt lat="44.06244" lon="7.44255">
        <ele>2205.8798828125</ele>
        <time>2011-10-01T11:29:57Z</time>
      </trkpt>
      <trkpt lat="44.06247" lon="7.44256">
        <ele>2205.8798828125</ele>
        <time>2011-10-01T11:30:00Z</time>
      </trkpt>
      <trkpt lat="44.06248" lon="7.44261">
        <ele>2204.919921875</ele>
        <time>2011-10-01T11:30:03Z</time>
      </trkpt>
      <trkpt lat="44.06254" lon="7.44269">
        <ele>2205.3999023438</ele>
        <time>2011-10-01T11:30:09Z</time>
      </trkpt>
      <trkpt lat="44.06258" lon="7.44274">
        <ele>2204.919921875</ele>
        <time>2011-10-01T11:30:12Z</time>
      </trkpt>
      <trkpt lat="44.0626" lon="7.44281">
        <ele>2203.4799804688</ele>
        <time>2011-10-01T11:30:16Z</time>
      </trkpt>
      <trkpt lat="44.0626" lon="7.44282">
        <ele>2203.4799804688</ele>
        <time>2011-10-01T11:30:17Z</time>
      </trkpt>
      <trkpt lat="44.06266" lon="7.44287">
        <ele>2201.5600585938</ele>
        <time>2011-10-01T11:30:22Z</time>
      </trkpt>
      <trkpt lat="44.06285" lon="7.44293">
        <ele>2199.6298828125</ele>
        <time>2011-10-01T11:30:32Z</time>
      </trkpt>
      <trkpt lat="44.06301" lon="7.44297">
        <ele>2199.6298828125</ele>
        <time>2011-10-01T11:30:41Z</time>
      </trkpt>
      <trkpt lat="44.06308" lon="7.44299">
        <ele>2200.1101074219</ele>
        <time>2011-10-01T11:30:46Z</time>
      </trkpt>
      <trkpt lat="44.06316" lon="7.44303">
        <ele>2201.5600585938</ele>
        <time>2011-10-01T11:30:57Z</time>
      </trkpt>
      <trkpt lat="44.06324" lon="7.4431">
        <ele>2202.0400390625</ele>
        <time>2011-10-01T11:31:04Z</time>
      </trkpt>
      <trkpt lat="44.06329" lon="7.44319">
        <ele>2202.5200195312</ele>
        <time>2011-10-01T11:31:08Z</time>
      </trkpt>
      <trkpt lat="44.06333" lon="7.44331">
        <ele>2204.4399414062</ele>
        <time>2011-10-01T11:31:14Z</time>
      </trkpt>
      <trkpt lat="44.06357" lon="7.44322">
        <ele>2207.3200683594</ele>
        <time>2011-10-01T11:31:29Z</time>
      </trkpt>
      <trkpt lat="44.06358" lon="7.44321">
        <ele>2207.8100585938</ele>
        <time>2011-10-01T11:31:30Z</time>
      </trkpt>
      <trkpt lat="44.06376" lon="7.44317">
        <ele>2206.8400878906</ele>
        <time>2011-10-01T11:31:41Z</time>
      </trkpt>
      <trkpt lat="44.06382" lon="7.44315">
        <ele>2204.919921875</ele>
        <time>2011-10-01T11:31:44Z</time>
      </trkpt>
      <trkpt lat="44.06397" lon="7.44311">
        <ele>2202.0400390625</ele>
        <time>2011-10-01T11:31:51Z</time>
      </trkpt>
      <trkpt lat="44.06413" lon="7.44306">
        <ele>2203</ele>
        <time>2011-10-01T11:31:57Z</time>
      </trkpt>
      <trkpt lat="44.06421" lon="7.4431">
        <ele>2202.5200195312</ele>
        <time>2011-10-01T11:32:16Z</time>
      </trkpt>
      <trkpt lat="44.06427" lon="7.44315">
        <ele>2203.4799804688</ele>
        <time>2011-10-01T11:32:36Z</time>
      </trkpt>
      <trkpt lat="44.0643" lon="7.44323">
        <ele>2205.3999023438</ele>
        <time>2011-10-01T11:32:51Z</time>
      </trkpt>
      <trkpt lat="44.06439" lon="7.44307">
        <ele>2206.8400878906</ele>
        <time>2011-10-01T11:33:04Z</time>
      </trkpt>
      <trkpt lat="44.0644" lon="7.44306">
        <ele>2206.8400878906</ele>
        <time>2011-10-01T11:33:05Z</time>
      </trkpt>
      <trkpt lat="44.06459" lon="7.44303">
        <ele>2207.8100585938</ele>
        <time>2011-10-01T11:33:17Z</time>
      </trkpt>
      <trkpt lat="44.06467" lon="7.44293">
        <ele>2208.2900390625</ele>
        <time>2011-10-01T11:33:24Z</time>
      </trkpt>
      <trkpt lat="44.06467" lon="7.44286">
        <ele>2210.2099609375</ele>
        <time>2011-10-01T11:33:28Z</time>
      </trkpt>
      <trkpt lat="44.06467" lon="7.44283">
        <ele>2210.2099609375</ele>
        <time>2011-10-01T11:33:31Z</time>
      </trkpt>
      <trkpt lat="44.06468" lon="7.4428">
        <ele>2211.6499023438</ele>
        <time>2011-10-01T11:33:34Z</time>
      </trkpt>
      <trkpt lat="44.0647" lon="7.44277">
        <ele>2212.1298828125</ele>
        <time>2011-10-01T11:33:37Z</time>
      </trkpt>
      <trkpt lat="44.06477" lon="7.44264">
        <ele>2213.5700683594</ele>
        <time>2011-10-01T11:33:47Z</time>
      </trkpt>
      <trkpt lat="44.06482" lon="7.44257">
        <ele>2214.5300292969</ele>
        <time>2011-10-01T11:33:52Z</time>
      </trkpt>
      <trkpt lat="44.06481" lon="7.44245">
        <ele>2215.9799804688</ele>
        <time>2011-10-01T11:33:59Z</time>
      </trkpt>
      <trkpt lat="44.06482" lon="7.44236">
        <ele>2215.0100097656</ele>
        <time>2011-10-01T11:34:04Z</time>
      </trkpt>
      <trkpt lat="44.06505" lon="7.44222">
        <ele>2216.9399414062</ele>
        <time>2011-10-01T11:34:19Z</time>
      </trkpt>
      <trkpt lat="44.06525" lon="7.44204">
        <ele>2217.419921875</ele>
        <time>2011-10-01T11:34:30Z</time>
      </trkpt>
      <trkpt lat="44.0653" lon="7.44199">
        <ele>2217.8999023438</ele>
        <time>2011-10-01T11:34:33Z</time>
      </trkpt>
      <trkpt lat="44.06543" lon="7.44191">
        <ele>2218.8601074219</ele>
        <time>2011-10-01T11:34:45Z</time>
      </trkpt>
      <trkpt lat="44.06548" lon="7.44186">
        <ele>2220.3000488281</ele>
        <time>2011-10-01T11:34:57Z</time>
      </trkpt>
      <trkpt lat="44.06556" lon="7.44187">
        <ele>2222.7099609375</ele>
        <time>2011-10-01T11:35:06Z</time>
      </trkpt>
      <trkpt lat="44.06561" lon="7.44187">
        <ele>2224.1499023438</ele>
        <time>2011-10-01T11:35:11Z</time>
      </trkpt>
      <trkpt lat="44.06572" lon="7.44193">
        <ele>2227.5100097656</ele>
        <time>2011-10-01T11:35:23Z</time>
      </trkpt>
      <trkpt lat="44.06577" lon="7.44196">
        <ele>2227.5100097656</ele>
        <time>2011-10-01T11:35:27Z</time>
      </trkpt>
      <trkpt lat="44.0658" lon="7.442">
        <ele>2228.4699707031</ele>
        <time>2011-10-01T11:35:31Z</time>
      </trkpt>
      <trkpt lat="44.06588" lon="7.44212">
        <ele>2231.3601074219</ele>
        <time>2011-10-01T11:35:41Z</time>
      </trkpt>
      <trkpt lat="44.06593" lon="7.44216">
        <ele>2232.3200683594</ele>
        <time>2011-10-01T11:35:45Z</time>
      </trkpt>
      <trkpt lat="44.06595" lon="7.44221">
        <ele>2233.7600097656</ele>
        <time>2011-10-01T11:35:57Z</time>
      </trkpt>
      <trkpt lat="44.06598" lon="7.44228">
        <ele>2233.7600097656</ele>
        <time>2011-10-01T11:36:08Z</time>
      </trkpt>
      <trkpt lat="44.06602" lon="7.44243">
        <ele>2231.8400878906</ele>
        <time>2011-10-01T11:36:19Z</time>
      </trkpt>
      <trkpt lat="44.06603" lon="7.44246">
        <ele>2231.8400878906</ele>
        <time>2011-10-01T11:36:21Z</time>
      </trkpt>
      <trkpt lat="44.06604" lon="7.44249">
        <ele>2231.8400878906</ele>
        <time>2011-10-01T11:36:23Z</time>
      </trkpt>
      <trkpt lat="44.06604" lon="7.44252">
        <ele>2230.3999023438</ele>
        <time>2011-10-01T11:36:25Z</time>
      </trkpt>
      <trkpt lat="44.06605" lon="7.44254">
        <ele>2234.2399902344</ele>
        <time>2011-10-01T11:36:27Z</time>
      </trkpt>
      <trkpt lat="44.06605" lon="7.44255">
        <ele>2234.2399902344</ele>
        <time>2011-10-01T11:36:28Z</time>
      </trkpt>
      <trkpt lat="44.06605" lon="7.44261">
        <ele>2235.1999511719</ele>
        <time>2011-10-01T11:36:44Z</time>
      </trkpt>
      <trkpt lat="44.06606" lon="7.4426">
        <ele>2235.1999511719</ele>
        <time>2011-10-01T11:36:54Z</time>
      </trkpt>
      <trkpt lat="44.06609" lon="7.44256">
        <ele>2237.1298828125</ele>
        <time>2011-10-01T11:37:00Z</time>
      </trkpt>
      <trkpt lat="44.06609" lon="7.44253">
        <ele>2237.1298828125</ele>
        <time>2011-10-01T11:37:03Z</time>
      </trkpt>
      <trkpt lat="44.06611" lon="7.44249">
        <ele>2239.0500488281</ele>
        <time>2011-10-01T11:37:24Z</time>
      </trkpt>
      <trkpt lat="44.06615" lon="7.44244">
        <ele>2240.0100097656</ele>
        <time>2011-10-01T11:37:33Z</time>
      </trkpt>
      <trkpt lat="44.06623" lon="7.44243">
        <ele>2243.3701171875</ele>
        <time>2011-10-01T11:37:42Z</time>
      </trkpt>
      <trkpt lat="44.06626" lon="7.44241">
        <ele>2242.8898925781</ele>
        <time>2011-10-01T11:38:08Z</time>
      </trkpt>
      <trkpt lat="44.06625" lon="7.44242">
        <ele>2241.9299316406</ele>
        <time>2011-10-01T11:38:37Z</time>
      </trkpt>
      <trkpt lat="44.06625" lon="7.44242">
        <ele>2242.8898925781</ele>
        <time>2011-10-01T11:38:39Z</time>
      </trkpt>
      <trkpt lat="44.06625" lon="7.44242">
        <ele>2241.4499511719</ele>
        <time>2011-10-01T11:39:01Z</time>
      </trkpt>
      <trkpt lat="44.06625" lon="7.44242">
        <ele>2242.4099121094</ele>
        <time>2011-10-01T11:39:23Z</time>
      </trkpt>
      <trkpt lat="44.0663" lon="7.44241">
        <ele>2243.8500976562</ele>
        <time>2011-10-01T11:39:37Z</time>
      </trkpt>
      <trkpt lat="44.06638" lon="7.44236">
        <ele>2246.2600097656</ele>
        <time>2011-10-01T11:39:53Z</time>
      </trkpt>
      <trkpt lat="44.06644" lon="7.44238">
        <ele>2250.1000976562</ele>
        <time>2011-10-01T11:40:08Z</time>
      </trkpt>
      <trkpt lat="44.0665" lon="7.44236">
        <ele>2252.5100097656</ele>
        <time>2011-10-01T11:40:20Z</time>
      </trkpt>
      <trkpt lat="44.06652" lon="7.44241">
        <ele>2254.4299316406</ele>
        <time>2011-10-01T11:40:32Z</time>
      </trkpt>
      <trkpt lat="44.06657" lon="7.44242">
        <ele>2255.8701171875</ele>
        <time>2011-10-01T11:40:40Z</time>
      </trkpt>
      <trkpt lat="44.06662" lon="7.44239">
        <ele>2256.3500976562</ele>
        <time>2011-10-01T11:40:46Z</time>
      </trkpt>
      <trkpt lat="44.06668" lon="7.44242">
        <ele>2259.2399902344</ele>
        <time>2011-10-01T11:40:57Z</time>
      </trkpt>
      <trkpt lat="44.06668" lon="7.44243">
        <ele>2260.1999511719</ele>
        <time>2011-10-01T11:40:59Z</time>
      </trkpt>
      <trkpt lat="44.06668" lon="7.44242">
        <ele>2260.1999511719</ele>
        <time>2011-10-01T11:41:00Z</time>
      </trkpt>
      <trkpt lat="44.06671" lon="7.4424">
        <ele>2260.1999511719</ele>
        <time>2011-10-01T11:41:03Z</time>
      </trkpt>
      <trkpt lat="44.06676" lon="7.44223">
        <ele>2253.4699707031</ele>
        <time>2011-10-01T11:41:12Z</time>
      </trkpt>
      <trkpt lat="44.06677" lon="7.44221">
        <ele>2260.1999511719</ele>
        <time>2011-10-01T11:41:13Z</time>
      </trkpt>
      <trkpt lat="44.0668" lon="7.44219">
        <ele>2256.830078125</ele>
        <time>2011-10-01T11:41:16Z</time>
      </trkpt>
      <trkpt lat="44.06681" lon="7.44219">
        <ele>2260.6799316406</ele>
        <time>2011-10-01T11:41:17Z</time>
      </trkpt>
      <trkpt lat="44.06681" lon="7.44219">
        <ele>2260.6799316406</ele>
        <time>2011-10-01T11:41:18Z</time>
      </trkpt>
      <trkpt lat="44.06685" lon="7.44216">
        <ele>2257.3100585938</ele>
        <time>2011-10-01T11:41:22Z</time>
      </trkpt>
      <trkpt lat="44.06688" lon="7.44213">
        <ele>2261.1599121094</ele>
        <time>2011-10-01T11:41:25Z</time>
      </trkpt>
      <trkpt lat="44.06688" lon="7.44213">
        <ele>2261.1599121094</ele>
        <time>2011-10-01T11:41:26Z</time>
      </trkpt>
      <trkpt lat="44.06693" lon="7.44217">
        <ele>2263.5600585938</ele>
        <time>2011-10-01T11:41:38Z</time>
      </trkpt>
      <trkpt lat="44.06694" lon="7.44217">
        <ele>2263.080078125</ele>
        <time>2011-10-01T11:41:39Z</time>
      </trkpt>
      <trkpt lat="44.06697" lon="7.44217">
        <ele>2265</ele>
        <time>2011-10-01T11:41:42Z</time>
      </trkpt>
      <trkpt lat="44.06707" lon="7.44216">
        <ele>2267.8898925781</ele>
        <time>2011-10-01T11:41:57Z</time>
      </trkpt>
      <trkpt lat="44.06712" lon="7.44215">
        <ele>2269.8100585938</ele>
        <time>2011-10-01T11:42:04Z</time>
      </trkpt>
      <trkpt lat="44.06714" lon="7.44214">
        <ele>2269.8100585938</ele>
        <time>2011-10-01T11:42:08Z</time>
      </trkpt>
      <trkpt lat="44.06721" lon="7.44207">
        <ele>2269.330078125</ele>
        <time>2011-10-01T11:42:18Z</time>
      </trkpt>
      <trkpt lat="44.06724" lon="7.44203">
        <ele>2268.8500976562</ele>
        <time>2011-10-01T11:42:22Z</time>
      </trkpt>
      <trkpt lat="44.06731" lon="7.44198">
        <ele>2270.2900390625</ele>
        <time>2011-10-01T11:42:29Z</time>
      </trkpt>
      <trkpt lat="44.06742" lon="7.44199">
        <ele>2274.1398925781</ele>
        <time>2011-10-01T11:42:42Z</time>
      </trkpt>
      <trkpt lat="44.06751" lon="7.44202">
        <ele>2276.5400390625</ele>
        <time>2011-10-01T11:42:54Z</time>
      </trkpt>
      <trkpt lat="44.06765" lon="7.44194">
        <ele>2278.9399414062</ele>
        <time>2011-10-01T11:43:08Z</time>
      </trkpt>
      <trkpt lat="44.06774" lon="7.44191">
        <ele>2279.8999023438</ele>
        <time>2011-10-01T11:43:28Z</time>
      </trkpt>
      <trkpt lat="44.06778" lon="7.4419">
        <ele>2279.8999023438</ele>
        <time>2011-10-01T11:43:31Z</time>
      </trkpt>
      <trkpt lat="44.06785" lon="7.44187">
        <ele>2281.830078125</ele>
        <time>2011-10-01T11:43:38Z</time>
      </trkpt>
      <trkpt lat="44.06789" lon="7.44183">
        <ele>2284.2299804688</ele>
        <time>2011-10-01T11:43:44Z</time>
      </trkpt>
      <trkpt lat="44.06791" lon="7.44182">
        <ele>2282.7900390625</ele>
        <time>2011-10-01T11:43:46Z</time>
      </trkpt>
      <trkpt lat="44.06804" lon="7.44176">
        <ele>2283.75</ele>
        <time>2011-10-01T11:43:58Z</time>
      </trkpt>
      <trkpt lat="44.06807" lon="7.44175">
        <ele>2284.7099609375</ele>
        <time>2011-10-01T11:44:00Z</time>
      </trkpt>
      <trkpt lat="44.06809" lon="7.44174">
        <ele>2284.2299804688</ele>
        <time>2011-10-01T11:44:02Z</time>
      </trkpt>
      <trkpt lat="44.06814" lon="7.44176">
        <ele>2284.7099609375</ele>
        <time>2011-10-01T11:44:06Z</time>
      </trkpt>
      <trkpt lat="44.06831" lon="7.44174">
        <ele>2286.1499023438</ele>
        <time>2011-10-01T11:44:21Z</time>
      </trkpt>
      <trkpt lat="44.06837" lon="7.44175">
        <ele>2287.1101074219</ele>
        <time>2011-10-01T11:44:27Z</time>
      </trkpt>
      <trkpt lat="44.06844" lon="7.44173">
        <ele>2287.1101074219</ele>
        <time>2011-10-01T11:44:34Z</time>
      </trkpt>
      <trkpt lat="44.06841" lon="7.44175">
        <ele>2286.6298828125</ele>
        <time>2011-10-01T11:44:59Z</time>
      </trkpt>
      <trkpt lat="44.06838" lon="7.44176">
        <ele>2287.1101074219</ele>
        <time>2011-10-01T11:45:16Z</time>
      </trkpt>
      <trkpt lat="44.0684" lon="7.44178">
        <ele>2287.5900878906</ele>
        <time>2011-10-01T11:45:45Z</time>
      </trkpt>
      <trkpt lat="44.06841" lon="7.44175">
        <ele>2288.080078125</ele>
        <time>2011-10-01T11:46:20Z</time>
      </trkpt>
      <trkpt lat="44.06845" lon="7.44172">
        <ele>2288.5600585938</ele>
        <time>2011-10-01T11:46:37Z</time>
      </trkpt>
      <trkpt lat="44.06847" lon="7.44172">
        <ele>2290.4799804688</ele>
        <time>2011-10-01T11:47:01Z</time>
      </trkpt>
      <trkpt lat="44.06853" lon="7.4417">
        <ele>2289.5200195312</ele>
        <time>2011-10-01T11:47:12Z</time>
      </trkpt>
      <trkpt lat="44.06868" lon="7.44172">
        <ele>2288.080078125</ele>
        <time>2011-10-01T11:47:34Z</time>
      </trkpt>
      <trkpt lat="44.06885" lon="7.44173">
        <ele>2287.5900878906</ele>
        <time>2011-10-01T11:47:51Z</time>
      </trkpt>
      <trkpt lat="44.0689" lon="7.44174">
        <ele>2288.5600585938</ele>
        <time>2011-10-01T11:47:54Z</time>
      </trkpt>
      <trkpt lat="44.06892" lon="7.44174">
        <ele>2287.5900878906</ele>
        <time>2011-10-01T11:47:55Z</time>
      </trkpt>
      <trkpt lat="44.06908" lon="7.44173">
        <ele>2288.5600585938</ele>
        <time>2011-10-01T11:48:06Z</time>
      </trkpt>
      <trkpt lat="44.06918" lon="7.4417">
        <ele>2289.0400390625</ele>
        <time>2011-10-01T11:48:16Z</time>
      </trkpt>
      <trkpt lat="44.06924" lon="7.44163">
        <ele>2288.080078125</ele>
        <time>2011-10-01T11:48:22Z</time>
      </trkpt>
      <trkpt lat="44.06935" lon="7.44149">
        <ele>2289.5200195312</ele>
        <time>2011-10-01T11:48:32Z</time>
      </trkpt>
      <trkpt lat="44.06937" lon="7.44146">
        <ele>2289.5200195312</ele>
        <time>2011-10-01T11:48:34Z</time>
      </trkpt>
      <trkpt lat="44.06955" lon="7.44127">
        <ele>2291.919921875</ele>
        <time>2011-10-01T11:48:50Z</time>
      </trkpt>
      <trkpt lat="44.06971" lon="7.44117">
        <ele>2291.919921875</ele>
        <time>2011-10-01T11:49:02Z</time>
      </trkpt>
      <trkpt lat="44.06988" lon="7.44107">
        <ele>2290</ele>
        <time>2011-10-01T11:49:11Z</time>
      </trkpt>
      <trkpt lat="44.07" lon="7.44105">
        <ele>2292.8798828125</ele>
        <time>2011-10-01T11:49:24Z</time>
      </trkpt>
      <trkpt lat="44.07004" lon="7.44104">
        <ele>2292.8798828125</ele>
        <time>2011-10-01T11:49:27Z</time>
      </trkpt>
      <trkpt lat="44.07014" lon="7.441">
        <ele>2295.2800292969</ele>
        <time>2011-10-01T11:49:38Z</time>
      </trkpt>
      <trkpt lat="44.07022" lon="7.44094">
        <ele>2294.8000488281</ele>
        <time>2011-10-01T11:49:51Z</time>
      </trkpt>
      <trkpt lat="44.07027" lon="7.44086">
        <ele>2294.8000488281</ele>
        <time>2011-10-01T11:49:56Z</time>
      </trkpt>
      <trkpt lat="44.07031" lon="7.44082">
        <ele>2295.2800292969</ele>
        <time>2011-10-01T11:50:00Z</time>
      </trkpt>
      <trkpt lat="44.07034" lon="7.44079">
        <ele>2295.7700195312</ele>
        <time>2011-10-01T11:50:04Z</time>
      </trkpt>
      <trkpt lat="44.07043" lon="7.44076">
        <ele>2297.6899414062</ele>
        <time>2011-10-01T11:50:14Z</time>
      </trkpt>
      <trkpt lat="44.07051" lon="7.44072">
        <ele>2299.1298828125</ele>
        <time>2011-10-01T11:50:23Z</time>
      </trkpt>
      <trkpt lat="44.07054" lon="7.44069">
        <ele>2299.6101074219</ele>
        <time>2011-10-01T11:50:27Z</time>
      </trkpt>
      <trkpt lat="44.07057" lon="7.44065">
        <ele>2300.0900878906</ele>
        <time>2011-10-01T11:50:31Z</time>
      </trkpt>
      <trkpt lat="44.0707" lon="7.44061">
        <ele>2302.9799804688</ele>
        <time>2011-10-01T11:50:43Z</time>
      </trkpt>
      <trkpt lat="44.07079" lon="7.4406">
        <ele>2303.4599609375</ele>
        <time>2011-10-01T11:50:51Z</time>
      </trkpt>
      <trkpt lat="44.07081" lon="7.44058">
        <ele>2302.4899902344</ele>
        <time>2011-10-01T11:50:53Z</time>
      </trkpt>
      <trkpt lat="44.07088" lon="7.4405">
        <ele>2303.4599609375</ele>
        <time>2011-10-01T11:51:04Z</time>
      </trkpt>
      <trkpt lat="44.07087" lon="7.44049">
        <ele>2302.9799804688</ele>
        <time>2011-10-01T11:51:24Z</time>
      </trkpt>
      <trkpt lat="44.07093" lon="7.44048">
        <ele>2305.3798828125</ele>
        <time>2011-10-01T11:51:44Z</time>
      </trkpt>
      <trkpt lat="44.07097" lon="7.4404">
        <ele>2303.9399414062</ele>
        <time>2011-10-01T11:51:49Z</time>
      </trkpt>
      <trkpt lat="44.07103" lon="7.44037">
        <ele>2303.9399414062</ele>
        <time>2011-10-01T11:51:52Z</time>
      </trkpt>
      <trkpt lat="44.07109" lon="7.44036">
        <ele>2303.9399414062</ele>
        <time>2011-10-01T11:51:55Z</time>
      </trkpt>
      <trkpt lat="44.07116" lon="7.44018">
        <ele>2304.8999023438</ele>
        <time>2011-10-01T11:52:02Z</time>
      </trkpt>
      <trkpt lat="44.07128" lon="7.43997">
        <ele>2304.8999023438</ele>
        <time>2011-10-01T11:52:11Z</time>
      </trkpt>
      <trkpt lat="44.07145" lon="7.43986">
        <ele>2306.3400878906</ele>
        <time>2011-10-01T11:52:20Z</time>
      </trkpt>
      <trkpt lat="44.07157" lon="7.43978">
        <ele>2304.8999023438</ele>
        <time>2011-10-01T11:52:26Z</time>
      </trkpt>
      <trkpt lat="44.07171" lon="7.43971">
        <ele>2307.3000488281</ele>
        <time>2011-10-01T11:52:37Z</time>
      </trkpt>
      <trkpt lat="44.07172" lon="7.43971">
        <ele>2306.8200683594</ele>
        <time>2011-10-01T11:52:38Z</time>
      </trkpt>
      <trkpt lat="44.07175" lon="7.43971">
        <ele>2306.3400878906</ele>
        <time>2011-10-01T11:52:40Z</time>
      </trkpt>
      <trkpt lat="44.07183" lon="7.43971">
        <ele>2308.2600097656</ele>
        <time>2011-10-01T11:52:45Z</time>
      </trkpt>
      <trkpt lat="44.07194" lon="7.43972">
        <ele>2308.2600097656</ele>
        <time>2011-10-01T11:52:50Z</time>
      </trkpt>
      <trkpt lat="44.07204" lon="7.43967">
        <ele>2309.6999511719</ele>
        <time>2011-10-01T11:52:57Z</time>
      </trkpt>
      <trkpt lat="44.07212" lon="7.43972">
        <ele>2310.669921875</ele>
        <time>2011-10-01T11:53:04Z</time>
      </trkpt>
      <trkpt lat="44.07215" lon="7.43972">
        <ele>2311.6298828125</ele>
        <time>2011-10-01T11:53:07Z</time>
      </trkpt>
      <trkpt lat="44.0722" lon="7.4397">
        <ele>2313.0700683594</ele>
        <time>2011-10-01T11:53:13Z</time>
      </trkpt>
      <trkpt lat="44.07231" lon="7.43967">
        <ele>2314.9899902344</ele>
        <time>2011-10-01T11:53:22Z</time>
      </trkpt>
      <trkpt lat="44.07235" lon="7.43966">
        <ele>2314.5100097656</ele>
        <time>2011-10-01T11:53:26Z</time>
      </trkpt>
      <trkpt lat="44.0724" lon="7.4397">
        <ele>2315.9499511719</ele>
        <time>2011-10-01T11:53:30Z</time>
      </trkpt>
      <trkpt lat="44.07256" lon="7.4398">
        <ele>2318.3601074219</ele>
        <time>2011-10-01T11:53:44Z</time>
      </trkpt>
      <trkpt lat="44.0726" lon="7.43981">
        <ele>2318.8400878906</ele>
        <time>2011-10-01T11:53:47Z</time>
      </trkpt>
      <trkpt lat="44.07267" lon="7.43979">
        <ele>2320.2800292969</ele>
        <time>2011-10-01T11:53:55Z</time>
      </trkpt>
      <trkpt lat="44.07279" lon="7.43967">
        <ele>2322.1999511719</ele>
        <time>2011-10-01T11:54:09Z</time>
      </trkpt>
      <trkpt lat="44.07286" lon="7.43961">
        <ele>2323.6398925781</ele>
        <time>2011-10-01T11:54:16Z</time>
      </trkpt>
      <trkpt lat="44.07295" lon="7.43958">
        <ele>2324.6101074219</ele>
        <time>2011-10-01T11:54:24Z</time>
      </trkpt>
      <trkpt lat="44.07302" lon="7.4397">
        <ele>2328.4499511719</ele>
        <time>2011-10-01T11:54:37Z</time>
      </trkpt>
      <trkpt lat="44.07306" lon="7.43981">
        <ele>2331.8100585938</ele>
        <time>2011-10-01T11:54:49Z</time>
      </trkpt>
      <trkpt lat="44.07317" lon="7.43978">
        <ele>2334.2199707031</ele>
        <time>2011-10-01T11:55:01Z</time>
      </trkpt>
      <trkpt lat="44.07325" lon="7.43971">
        <ele>2338.0600585938</ele>
        <time>2011-10-01T11:55:12Z</time>
      </trkpt>
      <trkpt lat="44.07333" lon="7.4397">
        <ele>2339.5100097656</ele>
        <time>2011-10-01T11:55:22Z</time>
      </trkpt>
      <trkpt lat="44.07336" lon="7.43969">
        <ele>2341.4299316406</ele>
        <time>2011-10-01T11:55:27Z</time>
      </trkpt>
      <trkpt lat="44.07337" lon="7.43969">
        <ele>2341.9099121094</ele>
        <time>2011-10-01T11:55:28Z</time>
      </trkpt>
      <trkpt lat="44.0735" lon="7.43954">
        <ele>2342.3898925781</ele>
        <time>2011-10-01T11:55:43Z</time>
      </trkpt>
      <trkpt lat="44.07351" lon="7.43952">
        <ele>2342.8701171875</ele>
        <time>2011-10-01T11:55:45Z</time>
      </trkpt>
      <trkpt lat="44.07359" lon="7.43942">
        <ele>2345.2700195312</ele>
        <time>2011-10-01T11:55:55Z</time>
      </trkpt>
      <trkpt lat="44.07359" lon="7.4394">
        <ele>2346.2299804688</ele>
        <time>2011-10-01T11:55:57Z</time>
      </trkpt>
      <trkpt lat="44.07361" lon="7.43936">
        <ele>2347.1999511719</ele>
        <time>2011-10-01T11:56:01Z</time>
      </trkpt>
      <trkpt lat="44.07367" lon="7.43933">
        <ele>2347.6799316406</ele>
        <time>2011-10-01T11:56:07Z</time>
      </trkpt>
      <trkpt lat="44.07373" lon="7.43927">
        <ele>2350.5600585938</ele>
        <time>2011-10-01T11:56:14Z</time>
      </trkpt>
      <trkpt lat="44.07378" lon="7.4393">
        <ele>2352.4799804688</ele>
        <time>2011-10-01T11:56:28Z</time>
      </trkpt>
      <trkpt lat="44.07383" lon="7.43929">
        <ele>2355.8500976562</ele>
        <time>2011-10-01T11:56:34Z</time>
      </trkpt>
      <trkpt lat="44.07383" lon="7.43928">
        <ele>2355.3701171875</ele>
        <time>2011-10-01T11:56:35Z</time>
      </trkpt>
      <trkpt lat="44.07384" lon="7.43927">
        <ele>2355.3701171875</ele>
        <time>2011-10-01T11:56:36Z</time>
      </trkpt>
      <trkpt lat="44.07386" lon="7.43925">
        <ele>2355.3701171875</ele>
        <time>2011-10-01T11:56:39Z</time>
      </trkpt>
      <trkpt lat="44.0739" lon="7.43924">
        <ele>2356.330078125</ele>
        <time>2011-10-01T11:56:42Z</time>
      </trkpt>
      <trkpt lat="44.07395" lon="7.43921">
        <ele>2357.7700195312</ele>
        <time>2011-10-01T11:56:48Z</time>
      </trkpt>
      <trkpt lat="44.07401" lon="7.43914">
        <ele>2358.7299804688</ele>
        <time>2011-10-01T11:56:55Z</time>
      </trkpt>
      <trkpt lat="44.07406" lon="7.43914">
        <ele>2359.6899414062</ele>
        <time>2011-10-01T11:57:00Z</time>
      </trkpt>
      <trkpt lat="44.0741" lon="7.43912">
        <ele>2360.6499023438</ele>
        <time>2011-10-01T11:57:04Z</time>
      </trkpt>
      <trkpt lat="44.07421" lon="7.43905">
        <ele>2361.6201171875</ele>
        <time>2011-10-01T11:57:16Z</time>
      </trkpt>
      <trkpt lat="44.07425" lon="7.43905">
        <ele>2362.1000976562</ele>
        <time>2011-10-01T11:57:19Z</time>
      </trkpt>
      <trkpt lat="44.07436" lon="7.43895">
        <ele>2362.580078125</ele>
        <time>2011-10-01T11:57:31Z</time>
      </trkpt>
      <trkpt lat="44.07451" lon="7.4388">
        <ele>2364.5</ele>
        <time>2011-10-01T11:57:46Z</time>
      </trkpt>
      <trkpt lat="44.07465" lon="7.43879">
        <ele>2366.419921875</ele>
        <time>2011-10-01T11:57:58Z</time>
      </trkpt>
      <trkpt lat="44.0747" lon="7.43879">
        <ele>2368.3500976562</ele>
        <time>2011-10-01T11:58:02Z</time>
      </trkpt>
      <trkpt lat="44.07488" lon="7.43874">
        <ele>2368.830078125</ele>
        <time>2011-10-01T11:58:15Z</time>
      </trkpt>
      <trkpt lat="44.0749" lon="7.43873">
        <ele>2369.7900390625</ele>
        <time>2011-10-01T11:58:17Z</time>
      </trkpt>
      <trkpt lat="44.07503" lon="7.43868">
        <ele>2369.7900390625</ele>
        <time>2011-10-01T11:58:28Z</time>
      </trkpt>
      <trkpt lat="44.07506" lon="7.43865">
        <ele>2369.3100585938</ele>
        <time>2011-10-01T11:58:32Z</time>
      </trkpt>
      <trkpt lat="44.0751" lon="7.43862">
        <ele>2370.75</ele>
        <time>2011-10-01T11:58:36Z</time>
      </trkpt>
      <trkpt lat="44.07518" lon="7.43858">
        <ele>2372.1899414062</ele>
        <time>2011-10-01T11:58:43Z</time>
      </trkpt>
      <trkpt lat="44.07534" lon="7.43856">
        <ele>2374.5900878906</ele>
        <time>2011-10-01T11:58:55Z</time>
      </trkpt>
      <trkpt lat="44.07547" lon="7.43854">
        <ele>2377.4799804688</ele>
        <time>2011-10-01T11:59:07Z</time>
      </trkpt>
      <trkpt lat="44.07552" lon="7.43851">
        <ele>2376.5200195312</ele>
        <time>2011-10-01T11:59:11Z</time>
      </trkpt>
      <trkpt lat="44.07565" lon="7.43837">
        <ele>2377.9599609375</ele>
        <time>2011-10-01T11:59:24Z</time>
      </trkpt>
      <trkpt lat="44.07568" lon="7.43835">
        <ele>2378.4399414062</ele>
        <time>2011-10-01T11:59:27Z</time>
      </trkpt>
      <trkpt lat="44.07582" lon="7.43825">
        <ele>2379.3999023438</ele>
        <time>2011-10-01T11:59:41Z</time>
      </trkpt>
      <trkpt lat="44.07583" lon="7.43825">
        <ele>2380.3601074219</ele>
        <time>2011-10-01T11:59:42Z</time>
      </trkpt>
      <trkpt lat="44.07591" lon="7.43823">
        <ele>2380.3601074219</ele>
        <time>2011-10-01T11:59:47Z</time>
      </trkpt>
      <trkpt lat="44.076" lon="7.43818">
        <ele>2380.3601074219</ele>
        <time>2011-10-01T11:59:55Z</time>
      </trkpt>
      <trkpt lat="44.07603" lon="7.43817">
        <ele>2381.3200683594</ele>
        <time>2011-10-01T12:00:00Z</time>
      </trkpt>
      <trkpt lat="44.07606" lon="7.43816">
        <ele>2380.8400878906</ele>
        <time>2011-10-01T12:00:04Z</time>
      </trkpt>
      <trkpt lat="44.07612" lon="7.43823">
        <ele>2380.3601074219</ele>
        <time>2011-10-01T12:00:10Z</time>
      </trkpt>
      <trkpt lat="44.07634" lon="7.43821">
        <ele>2381.8000488281</ele>
        <time>2011-10-01T12:00:22Z</time>
      </trkpt>
      <trkpt lat="44.0766" lon="7.43806">
        <ele>2382.2800292969</ele>
        <time>2011-10-01T12:00:35Z</time>
      </trkpt>
      <trkpt lat="44.07686" lon="7.43799">
        <ele>2383.7299804688</ele>
        <time>2011-10-01T12:00:47Z</time>
      </trkpt>
      <trkpt lat="44.07696" lon="7.43795">
        <ele>2384.2099609375</ele>
        <time>2011-10-01T12:00:52Z</time>
      </trkpt>
      <trkpt lat="44.07708" lon="7.43787">
        <ele>2385.169921875</ele>
        <time>2011-10-01T12:00:59Z</time>
      </trkpt>
      <trkpt lat="44.0773" lon="7.4377">
        <ele>2385.6499023438</ele>
        <time>2011-10-01T12:01:11Z</time>
      </trkpt>
      <trkpt lat="44.07737" lon="7.43758">
        <ele>2386.6101074219</ele>
        <time>2011-10-01T12:01:19Z</time>
      </trkpt>
      <trkpt lat="44.07739" lon="7.43756">
        <ele>2388.0500488281</ele>
        <time>2011-10-01T12:01:21Z</time>
      </trkpt>
      <trkpt lat="44.07742" lon="7.43757">
        <ele>2388.0500488281</ele>
        <time>2011-10-01T12:01:24Z</time>
      </trkpt>
      <trkpt lat="44.07745" lon="7.43755">
        <ele>2388.0500488281</ele>
        <time>2011-10-01T12:01:27Z</time>
      </trkpt>
      <trkpt lat="44.07748" lon="7.43751">
        <ele>2389.4899902344</ele>
        <time>2011-10-01T12:01:31Z</time>
      </trkpt>
      <trkpt lat="44.07747" lon="7.43747">
        <ele>2389.9699707031</ele>
        <time>2011-10-01T12:01:35Z</time>
      </trkpt>
      <trkpt lat="44.07748" lon="7.4374">
        <ele>2391.8999023438</ele>
        <time>2011-10-01T12:01:42Z</time>
      </trkpt>
      <trkpt lat="44.07754" lon="7.43741">
        <ele>2394.7800292969</ele>
        <time>2011-10-01T12:01:56Z</time>
      </trkpt>
      <trkpt lat="44.07762" lon="7.43741">
        <ele>2397.669921875</ele>
        <time>2011-10-01T12:02:06Z</time>
      </trkpt>
      <trkpt lat="44.07765" lon="7.43742">
        <ele>2398.6298828125</ele>
        <time>2011-10-01T12:02:09Z</time>
      </trkpt>
      <trkpt lat="44.07771" lon="7.43741">
        <ele>2399.1101074219</ele>
        <time>2011-10-01T12:02:15Z</time>
      </trkpt>
      <trkpt lat="44.07787" lon="7.43741">
        <ele>2402.9499511719</ele>
        <time>2011-10-01T12:02:31Z</time>
      </trkpt>
      <trkpt lat="44.0779" lon="7.43739">
        <ele>2403.9099121094</ele>
        <time>2011-10-01T12:02:34Z</time>
      </trkpt>
      <trkpt lat="44.07797" lon="7.43747">
        <ele>2405.3601074219</ele>
        <time>2011-10-01T12:02:44Z</time>
      </trkpt>
      <trkpt lat="44.07798" lon="7.43751">
        <ele>2405.3601074219</ele>
        <time>2011-10-01T12:02:48Z</time>
      </trkpt>
      <trkpt lat="44.07806" lon="7.43762">
        <ele>2406.8000488281</ele>
        <time>2011-10-01T12:02:57Z</time>
      </trkpt>
      <trkpt lat="44.07813" lon="7.43778">
        <ele>2410.6398925781</ele>
        <time>2011-10-01T12:03:11Z</time>
      </trkpt>
      <trkpt lat="44.07813" lon="7.43779">
        <ele>2410.6398925781</ele>
        <time>2011-10-01T12:03:12Z</time>
      </trkpt>
      <trkpt lat="44.07816" lon="7.43789">
        <ele>2412.0900878906</ele>
        <time>2011-10-01T12:03:21Z</time>
      </trkpt>
      <trkpt lat="44.07818" lon="7.43792">
        <ele>2412.5700683594</ele>
        <time>2011-10-01T12:03:23Z</time>
      </trkpt>
      <trkpt lat="44.07824" lon="7.43795">
        <ele>2414.0100097656</ele>
        <time>2011-10-01T12:03:30Z</time>
      </trkpt>
      <trkpt lat="44.07831" lon="7.438">
        <ele>2417.3701171875</ele>
        <time>2011-10-01T12:03:44Z</time>
      </trkpt>
      <trkpt lat="44.07837" lon="7.43802">
        <ele>2420.2600097656</ele>
        <time>2011-10-01T12:03:54Z</time>
      </trkpt>
      <trkpt lat="44.0784" lon="7.43791">
        <ele>2422.1799316406</ele>
        <time>2011-10-01T12:04:06Z</time>
      </trkpt>
      <trkpt lat="44.0784" lon="7.43784">
        <ele>2424.1000976562</ele>
        <time>2011-10-01T12:04:14Z</time>
      </trkpt>
      <trkpt lat="44.07833" lon="7.43767">
        <ele>2427.4699707031</ele>
        <time>2011-10-01T12:04:31Z</time>
      </trkpt>
      <trkpt lat="44.0783" lon="7.43753">
        <ele>2431.3100585938</ele>
        <time>2011-10-01T12:04:45Z</time>
      </trkpt>
      <trkpt lat="44.07826" lon="7.43745">
        <ele>2431.3100585938</ele>
        <time>2011-10-01T12:04:52Z</time>
      </trkpt>
      <trkpt lat="44.07831" lon="7.4374">
        <ele>2435.6398925781</ele>
        <time>2011-10-01T12:05:05Z</time>
      </trkpt>
      <trkpt lat="44.07829" lon="7.43731">
        <ele>2436.1201171875</ele>
        <time>2011-10-01T12:05:12Z</time>
      </trkpt>
      <trkpt lat="44.07828" lon="7.43728">
        <ele>2438.0400390625</ele>
        <time>2011-10-01T12:05:15Z</time>
      </trkpt>
      <trkpt lat="44.07835" lon="7.43726">
        <ele>2439.9599609375</ele>
        <time>2011-10-01T12:05:22Z</time>
      </trkpt>
      <trkpt lat="44.07842" lon="7.43733">
        <ele>2442.8500976562</ele>
        <time>2011-10-01T12:05:38Z</time>
      </trkpt>
      <trkpt lat="44.07845" lon="7.43735">
        <ele>2443.330078125</ele>
        <time>2011-10-01T12:05:42Z</time>
      </trkpt>
      <trkpt lat="44.07847" lon="7.43738">
        <ele>2442.8500976562</ele>
        <time>2011-10-01T12:05:45Z</time>
      </trkpt>
      <trkpt lat="44.0785" lon="7.43743">
        <ele>2442.3701171875</ele>
        <time>2011-10-01T12:05:49Z</time>
      </trkpt>
      <trkpt lat="44.07851" lon="7.43746">
        <ele>2442.8500976562</ele>
        <time>2011-10-01T12:05:51Z</time>
      </trkpt>
      <trkpt lat="44.07859" lon="7.43754">
        <ele>2443.330078125</ele>
        <time>2011-10-01T12:05:59Z</time>
      </trkpt>
      <trkpt lat="44.07869" lon="7.43759">
        <ele>2445.7299804688</ele>
        <time>2011-10-01T12:06:09Z</time>
      </trkpt>
      <trkpt lat="44.0787" lon="7.4376">
        <ele>2444.7700195312</ele>
        <time>2011-10-01T12:06:11Z</time>
      </trkpt>
      <trkpt lat="44.07872" lon="7.43762">
        <ele>2445.7299804688</ele>
        <time>2011-10-01T12:06:14Z</time>
      </trkpt>
      <trkpt lat="44.07875" lon="7.43763">
        <ele>2446.6899414062</ele>
        <time>2011-10-01T12:06:18Z</time>
      </trkpt>
      <trkpt lat="44.07878" lon="7.43765">
        <ele>2447.169921875</ele>
        <time>2011-10-01T12:06:22Z</time>
      </trkpt>
      <trkpt lat="44.07874" lon="7.4376">
        <ele>2449.1000976562</ele>
        <time>2011-10-01T12:06:28Z</time>
      </trkpt>
      <trkpt lat="44.07873" lon="7.43756">
        <ele>2448.6201171875</ele>
        <time>2011-10-01T12:06:31Z</time>
      </trkpt>
      <trkpt lat="44.07872" lon="7.43752">
        <ele>2450.0600585938</ele>
        <time>2011-10-01T12:06:34Z</time>
      </trkpt>
      <trkpt lat="44.0787" lon="7.43741">
        <ele>2452.9399414062</ele>
        <time>2011-10-01T12:06:46Z</time>
      </trkpt>
      <trkpt lat="44.07869" lon="7.43741">
        <ele>2452.9399414062</ele>
        <time>2011-10-01T12:06:47Z</time>
      </trkpt>
      <trkpt lat="44.0787" lon="7.43735">
        <ele>2455.3400878906</ele>
        <time>2011-10-01T12:06:54Z</time>
      </trkpt>
      <trkpt lat="44.07878" lon="7.43736">
        <ele>2458.2299804688</ele>
        <time>2011-10-01T12:07:05Z</time>
      </trkpt>
      <trkpt lat="44.07882" lon="7.43734">
        <ele>2458.7099609375</ele>
        <time>2011-10-01T12:07:17Z</time>
      </trkpt>
      <trkpt lat="44.07883" lon="7.43732">
        <ele>2461.1101074219</ele>
        <time>2011-10-01T12:07:32Z</time>
      </trkpt>
      <trkpt lat="44.07887" lon="7.43733">
        <ele>2462.0700683594</ele>
        <time>2011-10-01T12:07:38Z</time>
      </trkpt>
      <trkpt lat="44.07894" lon="7.4374">
        <ele>2465.4399414062</ele>
        <time>2011-10-01T12:07:49Z</time>
      </trkpt>
      <trkpt lat="44.07894" lon="7.43741">
        <ele>2465.4399414062</ele>
        <time>2011-10-01T12:07:50Z</time>
      </trkpt>
      <trkpt lat="44.07901" lon="7.43747">
        <ele>2466.3999023438</ele>
        <time>2011-10-01T12:07:59Z</time>
      </trkpt>
      <trkpt lat="44.07904" lon="7.4375">
        <ele>2465.919921875</ele>
        <time>2011-10-01T12:08:03Z</time>
      </trkpt>
      <trkpt lat="44.07908" lon="7.43754">
        <ele>2466.8798828125</ele>
        <time>2011-10-01T12:08:07Z</time>
      </trkpt>
      <trkpt lat="44.07912" lon="7.43753">
        <ele>2468.8000488281</ele>
        <time>2011-10-01T12:08:13Z</time>
      </trkpt>
      <trkpt lat="44.07904" lon="7.43738">
        <ele>2471.2099609375</ele>
        <time>2011-10-01T12:08:25Z</time>
      </trkpt>
      <trkpt lat="44.07902" lon="7.43726">
        <ele>2473.1298828125</ele>
        <time>2011-10-01T12:08:34Z</time>
      </trkpt>
      <trkpt lat="44.07899" lon="7.43717">
        <ele>2476.4899902344</ele>
        <time>2011-10-01T12:08:42Z</time>
      </trkpt>
      <trkpt lat="44.07897" lon="7.43709">
        <ele>2478.419921875</ele>
        <time>2011-10-01T12:08:49Z</time>
      </trkpt>
      <trkpt lat="44.07895" lon="7.43706">
        <ele>2477.9399414062</ele>
        <time>2011-10-01T12:08:53Z</time>
      </trkpt>
      <trkpt lat="44.07904" lon="7.43706">
        <ele>2481.7800292969</ele>
        <time>2011-10-01T12:09:04Z</time>
      </trkpt>
      <trkpt lat="44.07905" lon="7.43706">
        <ele>2481.7800292969</ele>
        <time>2011-10-01T12:09:05Z</time>
      </trkpt>
      <trkpt lat="44.07911" lon="7.43713">
        <ele>2483.2199707031</ele>
        <time>2011-10-01T12:09:15Z</time>
      </trkpt>
      <trkpt lat="44.0792" lon="7.43717">
        <ele>2484.6599121094</ele>
        <time>2011-10-01T12:09:23Z</time>
      </trkpt>
      <trkpt lat="44.07927" lon="7.43723">
        <ele>2486.1101074219</ele>
        <time>2011-10-01T12:09:32Z</time>
      </trkpt>
      <trkpt lat="44.07928" lon="7.43724">
        <ele>2487.0700683594</ele>
        <time>2011-10-01T12:09:34Z</time>
      </trkpt>
      <trkpt lat="44.07936" lon="7.43731">
        <ele>2488.0300292969</ele>
        <time>2011-10-01T12:09:48Z</time>
      </trkpt>
      <trkpt lat="44.0794" lon="7.43737">
        <ele>2488.9899902344</ele>
        <time>2011-10-01T12:09:53Z</time>
      </trkpt>
      <trkpt lat="44.07947" lon="7.43745">
        <ele>2491.8701171875</ele>
        <time>2011-10-01T12:10:04Z</time>
      </trkpt>
      <trkpt lat="44.07949" lon="7.43747">
        <ele>2492.3601074219</ele>
        <time>2011-10-01T12:10:07Z</time>
      </trkpt>
      <trkpt lat="44.07951" lon="7.43752">
        <ele>2495.7199707031</ele>
        <time>2011-10-01T12:10:14Z</time>
      </trkpt>
      <trkpt lat="44.07952" lon="7.43758">
        <ele>2496.1999511719</ele>
        <time>2011-10-01T12:10:20Z</time>
      </trkpt>
      <trkpt lat="44.07955" lon="7.43761">
        <ele>2498.6000976562</ele>
        <time>2011-10-01T12:10:26Z</time>
      </trkpt>
      <trkpt lat="44.07962" lon="7.43763">
        <ele>2501.4899902344</ele>
        <time>2011-10-01T12:10:38Z</time>
      </trkpt>
      <trkpt lat="44.07963" lon="7.43763">
        <ele>2501.0100097656</ele>
        <time>2011-10-01T12:10:40Z</time>
      </trkpt>
      <trkpt lat="44.07968" lon="7.43764">
        <ele>2503.8898925781</ele>
        <time>2011-10-01T12:10:52Z</time>
      </trkpt>
      <trkpt lat="44.07969" lon="7.43767">
        <ele>2503.4099121094</ele>
        <time>2011-10-01T12:10:57Z</time>
      </trkpt>
      <trkpt lat="44.07975" lon="7.4378">
        <ele>2505.8100585938</ele>
        <time>2011-10-01T12:11:12Z</time>
      </trkpt>
      <trkpt lat="44.07977" lon="7.43771">
        <ele>2509.6599121094</ele>
        <time>2011-10-01T12:11:24Z</time>
      </trkpt>
      <trkpt lat="44.07977" lon="7.4377">
        <ele>2509.6599121094</ele>
        <time>2011-10-01T12:11:25Z</time>
      </trkpt>
      <trkpt lat="44.07976" lon="7.43766">
        <ele>2510.6201171875</ele>
        <time>2011-10-01T12:11:29Z</time>
      </trkpt>
      <trkpt lat="44.07976" lon="7.43762">
        <ele>2511.1000976562</ele>
        <time>2011-10-01T12:11:33Z</time>
      </trkpt>
      <trkpt lat="44.07977" lon="7.43758">
        <ele>2513.5</ele>
        <time>2011-10-01T12:11:41Z</time>
      </trkpt>
      <trkpt lat="44.07974" lon="7.43746">
        <ele>2514.9499511719</ele>
        <time>2011-10-01T12:11:52Z</time>
      </trkpt>
      <trkpt lat="44.07979" lon="7.43746">
        <ele>2518.7900390625</ele>
        <time>2011-10-01T12:12:04Z</time>
      </trkpt>
      <trkpt lat="44.0798" lon="7.43743">
        <ele>2520.2299804688</ele>
        <time>2011-10-01T12:12:10Z</time>
      </trkpt>
      <trkpt lat="44.07977" lon="7.43728">
        <ele>2523.1201171875</ele>
        <time>2011-10-01T12:12:21Z</time>
      </trkpt>
      <trkpt lat="44.07977" lon="7.43726">
        <ele>2522.6398925781</ele>
        <time>2011-10-01T12:12:23Z</time>
      </trkpt>
      <trkpt lat="44.07983" lon="7.43729">
        <ele>2526</ele>
        <time>2011-10-01T12:12:33Z</time>
      </trkpt>
      <trkpt lat="44.0799" lon="7.43733">
        <ele>2527.919921875</ele>
        <time>2011-10-01T12:12:42Z</time>
      </trkpt>
      <trkpt lat="44.07998" lon="7.43744">
        <ele>2530.330078125</ele>
        <time>2011-10-01T12:12:56Z</time>
      </trkpt>
      <trkpt lat="44.08" lon="7.43755">
        <ele>2533.6899414062</ele>
        <time>2011-10-01T12:13:06Z</time>
      </trkpt>
      <trkpt lat="44.08002" lon="7.43763">
        <ele>2535.6101074219</ele>
        <time>2011-10-01T12:13:13Z</time>
      </trkpt>
      <trkpt lat="44.08009" lon="7.43767">
        <ele>2537.0600585938</ele>
        <time>2011-10-01T12:13:27Z</time>
      </trkpt>
      <trkpt lat="44.08013" lon="7.43773">
        <ele>2539.9399414062</ele>
        <time>2011-10-01T12:13:35Z</time>
      </trkpt>
      <trkpt lat="44.08014" lon="7.43776">
        <ele>2541.3798828125</ele>
        <time>2011-10-01T12:13:40Z</time>
      </trkpt>
      <trkpt lat="44.08023" lon="7.43788">
        <ele>2542.3400878906</ele>
        <time>2011-10-01T12:13:52Z</time>
      </trkpt>
      <trkpt lat="44.08022" lon="7.438">
        <ele>2542.3400878906</ele>
        <time>2011-10-01T12:13:59Z</time>
      </trkpt>
      <trkpt lat="44.08023" lon="7.43816">
        <ele>2545.2299804688</ele>
        <time>2011-10-01T12:14:12Z</time>
      </trkpt>
      <trkpt lat="44.08025" lon="7.43824">
        <ele>2546.669921875</ele>
        <time>2011-10-01T12:14:19Z</time>
      </trkpt>
      <trkpt lat="44.08026" lon="7.43828">
        <ele>2547.1499023438</ele>
        <time>2011-10-01T12:14:22Z</time>
      </trkpt>
      <trkpt lat="44.08033" lon="7.43832">
        <ele>2549.0700683594</ele>
        <time>2011-10-01T12:14:29Z</time>
      </trkpt>
      <trkpt lat="44.08044" lon="7.43837">
        <ele>2552.919921875</ele>
        <time>2011-10-01T12:14:42Z</time>
      </trkpt>
      <trkpt lat="44.08047" lon="7.4384">
        <ele>2551.4799804688</ele>
        <time>2011-10-01T12:14:46Z</time>
      </trkpt>
      <trkpt lat="44.08049" lon="7.43841">
        <ele>2552.4399414062</ele>
        <time>2011-10-01T12:15:02Z</time>
      </trkpt>
      <trkpt lat="44.0805" lon="7.43843">
        <ele>2552.919921875</ele>
        <time>2011-10-01T12:15:21Z</time>
      </trkpt>
      <trkpt lat="44.08051" lon="7.43843">
        <ele>2552.4399414062</ele>
        <time>2011-10-01T12:16:04Z</time>
      </trkpt>
      <trkpt lat="44.08051" lon="7.43843">
        <ele>2552.4399414062</ele>
        <time>2011-10-01T12:16:20Z</time>
      </trkpt>
      <trkpt lat="44.08056" lon="7.43849">
        <ele>2552.4399414062</ele>
        <time>2011-10-01T12:16:29Z</time>
      </trkpt>
      <trkpt lat="44.08056" lon="7.43845">
        <ele>2552.4399414062</ele>
        <time>2011-10-01T12:16:48Z</time>
      </trkpt>
      <trkpt lat="44.08052" lon="7.43843">
        <ele>2553.8798828125</ele>
        <time>2011-10-01T12:17:03Z</time>
      </trkpt>
      <trkpt lat="44.08051" lon="7.43845">
        <ele>2552.4399414062</ele>
        <time>2011-10-01T12:17:25Z</time>
      </trkpt>
      <trkpt lat="44.08052" lon="7.43841">
        <ele>2552.919921875</ele>
        <time>2011-10-01T12:18:24Z</time>
      </trkpt>
      <trkpt lat="44.08051" lon="7.43845">
        <ele>2554.8400878906</ele>
        <time>2011-10-01T12:20:03Z</time>
      </trkpt>
      <trkpt lat="44.08053" lon="7.43843">
        <ele>2553.8798828125</ele>
        <time>2011-10-01T12:20:48Z</time>
      </trkpt>
      <trkpt lat="44.08057" lon="7.43847">
        <ele>2551.9599609375</ele>
        <time>2011-10-01T12:21:01Z</time>
      </trkpt>
      <trkpt lat="44.08056" lon="7.43847">
        <ele>2552.919921875</ele>
        <time>2011-10-01T12:21:18Z</time>
      </trkpt>
      <trkpt lat="44.08055" lon="7.43848">
        <ele>2552.919921875</ele>
        <time>2011-10-01T12:21:36Z</time>
      </trkpt>
      <trkpt lat="44.08058" lon="7.43849">
        <ele>2552.4399414062</ele>
        <time>2011-10-01T12:22:03Z</time>
      </trkpt>
      <trkpt lat="44.08063" lon="7.43861">
        <ele>2551</ele>
        <time>2011-10-01T12:22:13Z</time>
      </trkpt>
      <trkpt lat="44.08064" lon="7.43867">
        <ele>2551</ele>
        <time>2011-10-01T12:22:17Z</time>
      </trkpt>
      <trkpt lat="44.08064" lon="7.43871">
        <ele>2549.5500488281</ele>
        <time>2011-10-01T12:22:20Z</time>
      </trkpt>
      <trkpt lat="44.08065" lon="7.43877">
        <ele>2548.5900878906</ele>
        <time>2011-10-01T12:22:25Z</time>
      </trkpt>
      <trkpt lat="44.08068" lon="7.43881">
        <ele>2548.1101074219</ele>
        <time>2011-10-01T12:22:29Z</time>
      </trkpt>
      <trkpt lat="44.08075" lon="7.43891">
        <ele>2545.7099609375</ele>
        <time>2011-10-01T12:22:39Z</time>
      </trkpt>
      <trkpt lat="44.08084" lon="7.43895">
        <ele>2543.3100585938</ele>
        <time>2011-10-01T12:22:48Z</time>
      </trkpt>
      <trkpt lat="44.08086" lon="7.43895">
        <ele>2542.3400878906</ele>
        <time>2011-10-01T12:22:50Z</time>
      </trkpt>
      <trkpt lat="44.08088" lon="7.43896">
        <ele>2541.8601074219</ele>
        <time>2011-10-01T12:22:51Z</time>
      </trkpt>
      <trkpt lat="44.08091" lon="7.43898">
        <ele>2539.4599609375</ele>
        <time>2011-10-01T12:22:55Z</time>
      </trkpt>
      <trkpt lat="44.08096" lon="7.439">
        <ele>2538.9799804688</ele>
        <time>2011-10-01T12:22:59Z</time>
      </trkpt>
      <trkpt lat="44.081" lon="7.439">
        <ele>2537.0600585938</ele>
        <time>2011-10-01T12:23:02Z</time>
      </trkpt>
      <trkpt lat="44.08104" lon="7.439">
        <ele>2534.6499023438</ele>
        <time>2011-10-01T12:23:04Z</time>
      </trkpt>
      <trkpt lat="44.08122" lon="7.43901">
        <ele>2529.8500976562</ele>
        <time>2011-10-01T12:23:13Z</time>
      </trkpt>
      <trkpt lat="44.08124" lon="7.43902">
        <ele>2529.3701171875</ele>
        <time>2011-10-01T12:23:14Z</time>
      </trkpt>
      <trkpt lat="44.08125" lon="7.43902">
        <ele>2529.8500976562</ele>
        <time>2011-10-01T12:23:15Z</time>
      </trkpt>
      <trkpt lat="44.08131" lon="7.43902">
        <ele>2527.919921875</ele>
        <time>2011-10-01T12:23:20Z</time>
      </trkpt>
      <trkpt lat="44.08134" lon="7.43904">
        <ele>2526.9599609375</ele>
        <time>2011-10-01T12:23:24Z</time>
      </trkpt>
      <trkpt lat="44.08141" lon="7.43906">
        <ele>2524.080078125</ele>
        <time>2011-10-01T12:23:31Z</time>
      </trkpt>
      <trkpt lat="44.08147" lon="7.43908">
        <ele>2522.1599121094</ele>
        <time>2011-10-01T12:23:36Z</time>
      </trkpt>
      <trkpt lat="44.08153" lon="7.43909">
        <ele>2518.7900390625</ele>
        <time>2011-10-01T12:23:42Z</time>
      </trkpt>
      <trkpt lat="44.08158" lon="7.4391">
        <ele>2516.8701171875</ele>
        <time>2011-10-01T12:23:46Z</time>
      </trkpt>
      <trkpt lat="44.08162" lon="7.43912">
        <ele>2515.9099121094</ele>
        <time>2011-10-01T12:23:48Z</time>
      </trkpt>
      <trkpt lat="44.08167" lon="7.43915">
        <ele>2514.4699707031</ele>
        <time>2011-10-01T12:23:51Z</time>
      </trkpt>
      <trkpt lat="44.08168" lon="7.43913">
        <ele>2512.5400390625</ele>
        <time>2011-10-01T12:23:54Z</time>
      </trkpt>
      <trkpt lat="44.08168" lon="7.43911">
        <ele>2513.0200195312</ele>
        <time>2011-10-01T12:23:55Z</time>
      </trkpt>
      <trkpt lat="44.08166" lon="7.43902">
        <ele>2510.1398925781</ele>
        <time>2011-10-01T12:23:58Z</time>
      </trkpt>
      <trkpt lat="44.08164" lon="7.43891">
        <ele>2507.7399902344</ele>
        <time>2011-10-01T12:24:02Z</time>
      </trkpt>
      <trkpt lat="44.08164" lon="7.43889">
        <ele>2506.7700195312</ele>
        <time>2011-10-01T12:24:03Z</time>
      </trkpt>
      <trkpt lat="44.08164" lon="7.43878">
        <ele>2505.330078125</ele>
        <time>2011-10-01T12:24:07Z</time>
      </trkpt>
      <trkpt lat="44.08163" lon="7.43867">
        <ele>2503.4099121094</ele>
        <time>2011-10-01T12:24:11Z</time>
      </trkpt>
      <trkpt lat="44.08162" lon="7.43861">
        <ele>2502.4499511719</ele>
        <time>2011-10-01T12:24:13Z</time>
      </trkpt>
      <trkpt lat="44.08159" lon="7.43847">
        <ele>2499.080078125</ele>
        <time>2011-10-01T12:24:18Z</time>
      </trkpt>
      <trkpt lat="44.08166" lon="7.43844">
        <ele>2496.1999511719</ele>
        <time>2011-10-01T12:24:26Z</time>
      </trkpt>
      <trkpt lat="44.08168" lon="7.43845">
        <ele>2495.2399902344</ele>
        <time>2011-10-01T12:24:27Z</time>
      </trkpt>
      <trkpt lat="44.08176" lon="7.43848">
        <ele>2493.3200683594</ele>
        <time>2011-10-01T12:24:31Z</time>
      </trkpt>
      <trkpt lat="44.08178" lon="7.43849">
        <ele>2492.3601074219</ele>
        <time>2011-10-01T12:24:33Z</time>
      </trkpt>
      <trkpt lat="44.08181" lon="7.43849">
        <ele>2490.9099121094</ele>
        <time>2011-10-01T12:24:35Z</time>
      </trkpt>
      <trkpt lat="44.08191" lon="7.43852">
        <ele>2487.0700683594</ele>
        <time>2011-10-01T12:24:41Z</time>
      </trkpt>
      <trkpt lat="44.08193" lon="7.43853">
        <ele>2487.0700683594</ele>
        <time>2011-10-01T12:24:42Z</time>
      </trkpt>
      <trkpt lat="44.08196" lon="7.43854">
        <ele>2485.6298828125</ele>
        <time>2011-10-01T12:24:44Z</time>
      </trkpt>
      <trkpt lat="44.08203" lon="7.43858">
        <ele>2484.1799316406</ele>
        <time>2011-10-01T12:24:48Z</time>
      </trkpt>
      <trkpt lat="44.0821" lon="7.43864">
        <ele>2481.3000488281</ele>
        <time>2011-10-01T12:24:53Z</time>
      </trkpt>
      <trkpt lat="44.08216" lon="7.43868">
        <ele>2479.3798828125</ele>
        <time>2011-10-01T12:25:00Z</time>
      </trkpt>
      <trkpt lat="44.08218" lon="7.43864">
        <ele>2478.419921875</ele>
        <time>2011-10-01T12:25:03Z</time>
      </trkpt>
      <trkpt lat="44.08219" lon="7.43857">
        <ele>2476.4899902344</ele>
        <time>2011-10-01T12:25:07Z</time>
      </trkpt>
      <trkpt lat="44.08217" lon="7.43849">
        <ele>2473.6101074219</ele>
        <time>2011-10-01T12:25:10Z</time>
      </trkpt>
      <trkpt lat="44.08216" lon="7.43834">
        <ele>2470.7299804688</ele>
        <time>2011-10-01T12:25:16Z</time>
      </trkpt>
      <trkpt lat="44.08218" lon="7.43824">
        <ele>2470.2399902344</ele>
        <time>2011-10-01T12:25:19Z</time>
      </trkpt>
      <trkpt lat="44.08219" lon="7.43818">
        <ele>2469.2800292969</ele>
        <time>2011-10-01T12:25:21Z</time>
      </trkpt>
      <trkpt lat="44.08219" lon="7.43815">
        <ele>2467.3601074219</ele>
        <time>2011-10-01T12:25:22Z</time>
      </trkpt>
      <trkpt lat="44.08219" lon="7.43804">
        <ele>2465.919921875</ele>
        <time>2011-10-01T12:25:26Z</time>
      </trkpt>
      <trkpt lat="44.08218" lon="7.43781">
        <ele>2462.5500488281</ele>
        <time>2011-10-01T12:25:37Z</time>
      </trkpt>
      <trkpt lat="44.08223" lon="7.43785">
        <ele>2460.6298828125</ele>
        <time>2011-10-01T12:25:41Z</time>
      </trkpt>
      <trkpt lat="44.08225" lon="7.4379">
        <ele>2459.669921875</ele>
        <time>2011-10-01T12:25:43Z</time>
      </trkpt>
      <trkpt lat="44.08229" lon="7.438">
        <ele>2459.669921875</ele>
        <time>2011-10-01T12:25:46Z</time>
      </trkpt>
      <trkpt lat="44.08244" lon="7.43822">
        <ele>2455.8200683594</ele>
        <time>2011-10-01T12:25:57Z</time>
      </trkpt>
      <trkpt lat="44.08254" lon="7.43827">
        <ele>2452.4599609375</ele>
        <time>2011-10-01T12:26:03Z</time>
      </trkpt>
      <trkpt lat="44.08265" lon="7.43832">
        <ele>2450.5400390625</ele>
        <time>2011-10-01T12:26:10Z</time>
      </trkpt>
      <trkpt lat="44.08268" lon="7.43832">
        <ele>2449.1000976562</ele>
        <time>2011-10-01T12:26:12Z</time>
      </trkpt>
      <trkpt lat="44.08273" lon="7.43833">
        <ele>2446.6899414062</ele>
        <time>2011-10-01T12:26:16Z</time>
      </trkpt>
      <trkpt lat="44.08277" lon="7.43833">
        <ele>2446.6899414062</ele>
        <time>2011-10-01T12:26:18Z</time>
      </trkpt>
      <trkpt lat="44.08283" lon="7.4383">
        <ele>2444.2900390625</ele>
        <time>2011-10-01T12:26:23Z</time>
      </trkpt>
      <trkpt lat="44.08288" lon="7.43829">
        <ele>2442.8500976562</ele>
        <time>2011-10-01T12:26:26Z</time>
      </trkpt>
      <trkpt lat="44.0829" lon="7.43828">
        <ele>2441.8898925781</ele>
        <time>2011-10-01T12:26:28Z</time>
      </trkpt>
      <trkpt lat="44.08297" lon="7.43828">
        <ele>2441.4099121094</ele>
        <time>2011-10-01T12:26:32Z</time>
      </trkpt>
      <trkpt lat="44.08302" lon="7.43827">
        <ele>2439</ele>
        <time>2011-10-01T12:26:36Z</time>
      </trkpt>
      <trkpt lat="44.08305" lon="7.43828">
        <ele>2438.5200195312</ele>
        <time>2011-10-01T12:26:38Z</time>
      </trkpt>
      <trkpt lat="44.08309" lon="7.43828">
        <ele>2436.1201171875</ele>
        <time>2011-10-01T12:26:42Z</time>
      </trkpt>
      <trkpt lat="44.08311" lon="7.43828">
        <ele>2435.6398925781</ele>
        <time>2011-10-01T12:26:45Z</time>
      </trkpt>
      <trkpt lat="44.08314" lon="7.43829">
        <ele>2434.1999511719</ele>
        <time>2011-10-01T12:26:48Z</time>
      </trkpt>
      <trkpt lat="44.08317" lon="7.43825">
        <ele>2432.2700195312</ele>
        <time>2011-10-01T12:26:52Z</time>
      </trkpt>
      <trkpt lat="44.08318" lon="7.43824">
        <ele>2432.75</ele>
        <time>2011-10-01T12:26:53Z</time>
      </trkpt>
      <trkpt lat="44.08324" lon="7.43822">
        <ele>2430.830078125</ele>
        <time>2011-10-01T12:26:58Z</time>
      </trkpt>
      <trkpt lat="44.08336" lon="7.43829">
        <ele>2427.4699707031</ele>
        <time>2011-10-01T12:27:04Z</time>
      </trkpt>
      <trkpt lat="44.08337" lon="7.43823">
        <ele>2426.9899902344</ele>
        <time>2011-10-01T12:27:11Z</time>
      </trkpt>
      <trkpt lat="44.08342" lon="7.43817">
        <ele>2424.1000976562</ele>
        <time>2011-10-01T12:27:19Z</time>
      </trkpt>
      <trkpt lat="44.08345" lon="7.43808">
        <ele>2422.1799316406</ele>
        <time>2011-10-01T12:27:25Z</time>
      </trkpt>
      <trkpt lat="44.08355" lon="7.43788">
        <ele>2421.2199707031</ele>
        <time>2011-10-01T12:27:36Z</time>
      </trkpt>
      <trkpt lat="44.08361" lon="7.4378">
        <ele>2421.2199707031</ele>
        <time>2011-10-01T12:27:48Z</time>
      </trkpt>
      <trkpt lat="44.08362" lon="7.43782">
        <ele>2421.2199707031</ele>
        <time>2011-10-01T12:28:18Z</time>
      </trkpt>
      <trkpt lat="44.08362" lon="7.43779">
        <ele>2421.2199707031</ele>
        <time>2011-10-01T12:28:28Z</time>
      </trkpt>
      <trkpt lat="44.08362" lon="7.43777">
        <ele>2422.1799316406</ele>
        <time>2011-10-01T12:28:30Z</time>
      </trkpt>
      <trkpt lat="44.08364" lon="7.4377">
        <ele>2421.6999511719</ele>
        <time>2011-10-01T12:28:35Z</time>
      </trkpt>
      <trkpt lat="44.08368" lon="7.43766">
        <ele>2422.1799316406</ele>
        <time>2011-10-01T12:28:40Z</time>
      </trkpt>
      <trkpt lat="44.0837" lon="7.43763">
        <ele>2421.6999511719</ele>
        <time>2011-10-01T12:28:43Z</time>
      </trkpt>
      <trkpt lat="44.08382" lon="7.43751">
        <ele>2421.6999511719</ele>
        <time>2011-10-01T12:28:55Z</time>
      </trkpt>
      <trkpt lat="44.08387" lon="7.43749">
        <ele>2422.1799316406</ele>
        <time>2011-10-01T12:28:59Z</time>
      </trkpt>
      <trkpt lat="44.0839" lon="7.43748">
        <ele>2420.7399902344</ele>
        <time>2011-10-01T12:29:02Z</time>
      </trkpt>
      <trkpt lat="44.08392" lon="7.43746">
        <ele>2420.2600097656</ele>
        <time>2011-10-01T12:29:04Z</time>
      </trkpt>
      <trkpt lat="44.08395" lon="7.43745">
        <ele>2420.7399902344</ele>
        <time>2011-10-01T12:29:06Z</time>
      </trkpt>
      <trkpt lat="44.08401" lon="7.43738">
        <ele>2417.3701171875</ele>
        <time>2011-10-01T12:29:12Z</time>
      </trkpt>
      <trkpt lat="44.08403" lon="7.43731">
        <ele>2416.8898925781</ele>
        <time>2011-10-01T12:29:16Z</time>
      </trkpt>
      <trkpt lat="44.08406" lon="7.4373">
        <ele>2415.4499511719</ele>
        <time>2011-10-01T12:29:20Z</time>
      </trkpt>
      <trkpt lat="44.08408" lon="7.43732">
        <ele>2414.9699707031</ele>
        <time>2011-10-01T12:29:22Z</time>
      </trkpt>
      <trkpt lat="44.08413" lon="7.43738">
        <ele>2413.5300292969</ele>
        <time>2011-10-01T12:29:27Z</time>
      </trkpt>
      <trkpt lat="44.08419" lon="7.43739">
        <ele>2411.1201171875</ele>
        <time>2011-10-01T12:29:32Z</time>
      </trkpt>
      <trkpt lat="44.08429" lon="7.43747">
        <ele>2408.2399902344</ele>
        <time>2011-10-01T12:29:41Z</time>
      </trkpt>
      <trkpt lat="44.08443" lon="7.43749">
        <ele>2405.3601074219</ele>
        <time>2011-10-01T12:29:51Z</time>
      </trkpt>
      <trkpt lat="44.08445" lon="7.43746">
        <ele>2405.3601074219</ele>
        <time>2011-10-01T12:29:53Z</time>
      </trkpt>
      <trkpt lat="44.08449" lon="7.43734">
        <ele>2404.8798828125</ele>
        <time>2011-10-01T12:30:01Z</time>
      </trkpt>
      <trkpt lat="44.08454" lon="7.43727">
        <ele>2404.8798828125</ele>
        <time>2011-10-01T12:30:15Z</time>
      </trkpt>
      <trkpt lat="44.0846" lon="7.43718">
        <ele>2403.9099121094</ele>
        <time>2011-10-01T12:30:25Z</time>
      </trkpt>
      <trkpt lat="44.08463" lon="7.43704">
        <ele>2405.8400878906</ele>
        <time>2011-10-01T12:30:38Z</time>
      </trkpt>
      <trkpt lat="44.0846" lon="7.4369">
        <ele>2408.2399902344</ele>
        <time>2011-10-01T12:30:51Z</time>
      </trkpt>
      <trkpt lat="44.08461" lon="7.43677">
        <ele>2410.6398925781</ele>
        <time>2011-10-01T12:31:05Z</time>
      </trkpt>
      <trkpt lat="44.08463" lon="7.43669">
        <ele>2412.0900878906</ele>
        <time>2011-10-01T12:31:13Z</time>
      </trkpt>
      <trkpt lat="44.08456" lon="7.43653">
        <ele>2414.0100097656</ele>
        <time>2011-10-01T12:31:23Z</time>
      </trkpt>
      <trkpt lat="44.08462" lon="7.43647">
        <ele>2415.4499511719</ele>
        <time>2011-10-01T12:31:31Z</time>
      </trkpt>
      <trkpt lat="44.08464" lon="7.43639">
        <ele>2416.4099121094</ele>
        <time>2011-10-01T12:31:36Z</time>
      </trkpt>
      <trkpt lat="44.08465" lon="7.43637">
        <ele>2417.3701171875</ele>
        <time>2011-10-01T12:31:38Z</time>
      </trkpt>
      <trkpt lat="44.08468" lon="7.43633">
        <ele>2416.8898925781</ele>
        <time>2011-10-01T12:31:42Z</time>
      </trkpt>
      <trkpt lat="44.08471" lon="7.43631">
        <ele>2418.330078125</ele>
        <time>2011-10-01T12:31:45Z</time>
      </trkpt>
      <trkpt lat="44.08471" lon="7.4363">
        <ele>2418.330078125</ele>
        <time>2011-10-01T12:31:46Z</time>
      </trkpt>
      <trkpt lat="44.0848" lon="7.4362">
        <ele>2422.1799316406</ele>
        <time>2011-10-01T12:31:59Z</time>
      </trkpt>
      <trkpt lat="44.0848" lon="7.43619">
        <ele>2421.6999511719</ele>
        <time>2011-10-01T12:32:00Z</time>
      </trkpt>
      <trkpt lat="44.08482" lon="7.43617">
        <ele>2422.1799316406</ele>
        <time>2011-10-01T12:32:02Z</time>
      </trkpt>
      <trkpt lat="44.08485" lon="7.43604">
        <ele>2424.580078125</ele>
        <time>2011-10-01T12:32:11Z</time>
      </trkpt>
      <trkpt lat="44.08488" lon="7.43602">
        <ele>2425.5400390625</ele>
        <time>2011-10-01T12:32:15Z</time>
      </trkpt>
      <trkpt lat="44.08493" lon="7.43608">
        <ele>2426.9899902344</ele>
        <time>2011-10-01T12:32:21Z</time>
      </trkpt>
      <trkpt lat="44.08493" lon="7.43603">
        <ele>2428.9099121094</ele>
        <time>2011-10-01T12:32:27Z</time>
      </trkpt>
      <trkpt lat="44.08504" lon="7.43602">
        <ele>2432.2700195312</ele>
        <time>2011-10-01T12:32:42Z</time>
      </trkpt>
      <trkpt lat="44.08516" lon="7.43596">
        <ele>2435.1599121094</ele>
        <time>2011-10-01T12:32:57Z</time>
      </trkpt>
      <trkpt lat="44.08515" lon="7.4359">
        <ele>2437.5600585938</ele>
        <time>2011-10-01T12:33:08Z</time>
      </trkpt>
      <trkpt lat="44.08521" lon="7.43587">
        <ele>2438.5200195312</ele>
        <time>2011-10-01T12:33:15Z</time>
      </trkpt>
      <trkpt lat="44.08531" lon="7.43583">
        <ele>2439.4799804688</ele>
        <time>2011-10-01T12:33:28Z</time>
      </trkpt>
      <trkpt lat="44.08533" lon="7.43583">
        <ele>2440.919921875</ele>
        <time>2011-10-01T12:33:31Z</time>
      </trkpt>
      <trkpt lat="44.08541" lon="7.43578">
        <ele>2441.8898925781</ele>
        <time>2011-10-01T12:33:45Z</time>
      </trkpt>
      <trkpt lat="44.08549" lon="7.43581">
        <ele>2444.2900390625</ele>
        <time>2011-10-01T12:33:57Z</time>
      </trkpt>
      <trkpt lat="44.08554" lon="7.43583">
        <ele>2445.25</ele>
        <time>2011-10-01T12:34:03Z</time>
      </trkpt>
      <trkpt lat="44.08558" lon="7.4358">
        <ele>2447.169921875</ele>
        <time>2011-10-01T12:34:09Z</time>
      </trkpt>
      <trkpt lat="44.08561" lon="7.43579">
        <ele>2448.1298828125</ele>
        <time>2011-10-01T12:34:13Z</time>
      </trkpt>
      <trkpt lat="44.08568" lon="7.43576">
        <ele>2449.1000976562</ele>
        <time>2011-10-01T12:34:21Z</time>
      </trkpt>
      <trkpt lat="44.0858" lon="7.43575">
        <ele>2449.1000976562</ele>
        <time>2011-10-01T12:34:33Z</time>
      </trkpt>
      <trkpt lat="44.08587" lon="7.43574">
        <ele>2448.6201171875</ele>
        <time>2011-10-01T12:34:40Z</time>
      </trkpt>
      <trkpt lat="44.08591" lon="7.43574">
        <ele>2448.6201171875</ele>
        <time>2011-10-01T12:34:44Z</time>
      </trkpt>
      <trkpt lat="44.0861" lon="7.4356">
        <ele>2449.580078125</ele>
        <time>2011-10-01T12:35:01Z</time>
      </trkpt>
      <trkpt lat="44.08614" lon="7.43557">
        <ele>2449.580078125</ele>
        <time>2011-10-01T12:35:05Z</time>
      </trkpt>
      <trkpt lat="44.08621" lon="7.43551">
        <ele>2451.5</ele>
        <time>2011-10-01T12:35:12Z</time>
      </trkpt>
      <trkpt lat="44.08624" lon="7.43552">
        <ele>2451.5</ele>
        <time>2011-10-01T12:35:15Z</time>
      </trkpt>
      <trkpt lat="44.08639" lon="7.43542">
        <ele>2454.3798828125</ele>
        <time>2011-10-01T12:35:30Z</time>
      </trkpt>
      <trkpt lat="44.08641" lon="7.4354">
        <ele>2454.3798828125</ele>
        <time>2011-10-01T12:35:32Z</time>
      </trkpt>
      <trkpt lat="44.08644" lon="7.43538">
        <ele>2454.3798828125</ele>
        <time>2011-10-01T12:35:36Z</time>
      </trkpt>
      <trkpt lat="44.08649" lon="7.43537">
        <ele>2454.3798828125</ele>
        <time>2011-10-01T12:35:42Z</time>
      </trkpt>
      <trkpt lat="44.0866" lon="7.43535">
        <ele>2454.8601074219</ele>
        <time>2011-10-01T12:35:54Z</time>
      </trkpt>
      <trkpt lat="44.08662" lon="7.43534">
        <ele>2454.8601074219</ele>
        <time>2011-10-01T12:35:57Z</time>
      </trkpt>
      <trkpt lat="44.08676" lon="7.43537">
        <ele>2457.2700195312</ele>
        <time>2011-10-01T12:36:11Z</time>
      </trkpt>
      <trkpt lat="44.08686" lon="7.43528">
        <ele>2460.1499023438</ele>
        <time>2011-10-01T12:36:25Z</time>
      </trkpt>
      <trkpt lat="44.08688" lon="7.43521">
        <ele>2461.1101074219</ele>
        <time>2011-10-01T12:36:32Z</time>
      </trkpt>
      <trkpt lat="44.08688" lon="7.43514">
        <ele>2461.5900878906</ele>
        <time>2011-10-01T12:36:37Z</time>
      </trkpt>
      <trkpt lat="44.08689" lon="7.43511">
        <ele>2463.0400390625</ele>
        <time>2011-10-01T12:36:40Z</time>
      </trkpt>
      <trkpt lat="44.08696" lon="7.4351">
        <ele>2463.5200195312</ele>
        <time>2011-10-01T12:36:46Z</time>
      </trkpt>
      <trkpt lat="44.08698" lon="7.43504">
        <ele>2464.4799804688</ele>
        <time>2011-10-01T12:36:52Z</time>
      </trkpt>
      <trkpt lat="44.08698" lon="7.43501">
        <ele>2465.4399414062</ele>
        <time>2011-10-01T12:36:55Z</time>
      </trkpt>
      <trkpt lat="44.08705" lon="7.43495">
        <ele>2465.919921875</ele>
        <time>2011-10-01T12:37:07Z</time>
      </trkpt>
      <trkpt lat="44.0871" lon="7.43492">
        <ele>2465.4399414062</ele>
        <time>2011-10-01T12:37:13Z</time>
      </trkpt>
      <trkpt lat="44.08717" lon="7.43487">
        <ele>2464.4799804688</ele>
        <time>2011-10-01T12:37:25Z</time>
      </trkpt>
      <trkpt lat="44.08725" lon="7.43479">
        <ele>2463.5200195312</ele>
        <time>2011-10-01T12:37:35Z</time>
      </trkpt>
      <trkpt lat="44.08727" lon="7.43477">
        <ele>2463.0400390625</ele>
        <time>2011-10-01T12:37:37Z</time>
      </trkpt>
      <trkpt lat="44.08731" lon="7.43476">
        <ele>2462.5500488281</ele>
        <time>2011-10-01T12:37:42Z</time>
      </trkpt>
      <trkpt lat="44.08742" lon="7.43475">
        <ele>2464</ele>
        <time>2011-10-01T12:37:53Z</time>
      </trkpt>
      <trkpt lat="44.08744" lon="7.43464">
        <ele>2465.4399414062</ele>
        <time>2011-10-01T12:38:03Z</time>
      </trkpt>
      <trkpt lat="44.08744" lon="7.43456">
        <ele>2466.8798828125</ele>
        <time>2011-10-01T12:38:09Z</time>
      </trkpt>
      <trkpt lat="44.08744" lon="7.43447">
        <ele>2466.3999023438</ele>
        <time>2011-10-01T12:38:20Z</time>
      </trkpt>
      <trkpt lat="44.08747" lon="7.43441">
        <ele>2466.3999023438</ele>
        <time>2011-10-01T12:38:32Z</time>
      </trkpt>
      <trkpt lat="44.08747" lon="7.4344">
        <ele>2465.4399414062</ele>
        <time>2011-10-01T12:38:33Z</time>
      </trkpt>
      <trkpt lat="44.0876" lon="7.43435">
        <ele>2462.5500488281</ele>
        <time>2011-10-01T12:38:49Z</time>
      </trkpt>
      <trkpt lat="44.08766" lon="7.43432">
        <ele>2463.0400390625</ele>
        <time>2011-10-01T12:39:02Z</time>
      </trkpt>
      <trkpt lat="44.08768" lon="7.43428">
        <ele>2463.0400390625</ele>
        <time>2011-10-01T12:39:12Z</time>
      </trkpt>
      <trkpt lat="44.08772" lon="7.43415">
        <ele>2462.5500488281</ele>
        <time>2011-10-01T12:39:24Z</time>
      </trkpt>
      <trkpt lat="44.08774" lon="7.43406">
        <ele>2461.1101074219</ele>
        <time>2011-10-01T12:39:34Z</time>
      </trkpt>
      <trkpt lat="44.08777" lon="7.43403">
        <ele>2461.5900878906</ele>
        <time>2011-10-01T12:39:38Z</time>
      </trkpt>
      <trkpt lat="44.08786" lon="7.43403">
        <ele>2462.0700683594</ele>
        <time>2011-10-01T12:39:46Z</time>
      </trkpt>
      <trkpt lat="44.08794" lon="7.43398">
        <ele>2461.5900878906</ele>
        <time>2011-10-01T12:39:56Z</time>
      </trkpt>
      <trkpt lat="44.088" lon="7.43394">
        <ele>2462.5500488281</ele>
        <time>2011-10-01T12:40:04Z</time>
      </trkpt>
      <trkpt lat="44.08808" lon="7.43396">
        <ele>2461.5900878906</ele>
        <time>2011-10-01T12:40:12Z</time>
      </trkpt>
      <trkpt lat="44.08813" lon="7.43394">
        <ele>2464.4799804688</ele>
        <time>2011-10-01T12:40:21Z</time>
      </trkpt>
      <trkpt lat="44.08815" lon="7.4339">
        <ele>2465.919921875</ele>
        <time>2011-10-01T12:40:37Z</time>
      </trkpt>
      <trkpt lat="44.08819" lon="7.43384">
        <ele>2465.919921875</ele>
        <time>2011-10-01T12:40:50Z</time>
      </trkpt>
      <trkpt lat="44.0882" lon="7.43384">
        <ele>2465.919921875</ele>
        <time>2011-10-01T12:40:51Z</time>
      </trkpt>
      <trkpt lat="44.08823" lon="7.43374">
        <ele>2467.8400878906</ele>
        <time>2011-10-01T12:41:03Z</time>
      </trkpt>
      <trkpt lat="44.08823" lon="7.43371">
        <ele>2468.3200683594</ele>
        <time>2011-10-01T12:41:06Z</time>
      </trkpt>
      <trkpt lat="44.08826" lon="7.43365">
        <ele>2469.2800292969</ele>
        <time>2011-10-01T12:41:12Z</time>
      </trkpt>
      <trkpt lat="44.08835" lon="7.43361">
        <ele>2469.7600097656</ele>
        <time>2011-10-01T12:41:25Z</time>
      </trkpt>
      <trkpt lat="44.08844" lon="7.43361">
        <ele>2468.3200683594</ele>
        <time>2011-10-01T12:41:36Z</time>
      </trkpt>
      <trkpt lat="44.08852" lon="7.43357">
        <ele>2467.3601074219</ele>
        <time>2011-10-01T12:41:50Z</time>
      </trkpt>
      <trkpt lat="44.08853" lon="7.43357">
        <ele>2468.3200683594</ele>
        <time>2011-10-01T12:41:51Z</time>
      </trkpt>
      <trkpt lat="44.0886" lon="7.43358">
        <ele>2467.3601074219</ele>
        <time>2011-10-01T12:41:57Z</time>
      </trkpt>
      <trkpt lat="44.08872" lon="7.43356">
        <ele>2465.919921875</ele>
        <time>2011-10-01T12:42:09Z</time>
      </trkpt>
      <trkpt lat="44.08884" lon="7.43353">
        <ele>2466.3999023438</ele>
        <time>2011-10-01T12:42:19Z</time>
      </trkpt>
      <trkpt lat="44.08886" lon="7.43352">
        <ele>2466.3999023438</ele>
        <time>2011-10-01T12:42:22Z</time>
      </trkpt>
      <trkpt lat="44.08887" lon="7.4335">
        <ele>2465.919921875</ele>
        <time>2011-10-01T12:42:24Z</time>
      </trkpt>
      <trkpt lat="44.08889" lon="7.43346">
        <ele>2467.3601074219</ele>
        <time>2011-10-01T12:42:28Z</time>
      </trkpt>
      <trkpt lat="44.08891" lon="7.43344">
        <ele>2467.8400878906</ele>
        <time>2011-10-01T12:42:31Z</time>
      </trkpt>
      <trkpt lat="44.089" lon="7.43337">
        <ele>2470.2399902344</ele>
        <time>2011-10-01T12:42:45Z</time>
      </trkpt>
      <trkpt lat="44.08903" lon="7.43338">
        <ele>2469.2800292969</ele>
        <time>2011-10-01T12:42:51Z</time>
      </trkpt>
      <trkpt lat="44.08907" lon="7.43341">
        <ele>2468.8000488281</ele>
        <time>2011-10-01T12:42:55Z</time>
      </trkpt>
      <trkpt lat="44.0891" lon="7.4334">
        <ele>2469.2800292969</ele>
        <time>2011-10-01T12:42:59Z</time>
      </trkpt>
      <trkpt lat="44.08912" lon="7.4334">
        <ele>2469.7600097656</ele>
        <time>2011-10-01T12:43:01Z</time>
      </trkpt>
      <trkpt lat="44.08914" lon="7.4334">
        <ele>2469.7600097656</ele>
        <time>2011-10-01T12:43:03Z</time>
      </trkpt>
      <trkpt lat="44.08916" lon="7.43338">
        <ele>2469.2800292969</ele>
        <time>2011-10-01T12:43:06Z</time>
      </trkpt>
      <trkpt lat="44.08915" lon="7.43334">
        <ele>2469.7600097656</ele>
        <time>2011-10-01T12:43:10Z</time>
      </trkpt>
      <trkpt lat="44.08918" lon="7.43321">
        <ele>2473.1298828125</ele>
        <time>2011-10-01T12:43:22Z</time>
      </trkpt>
      <trkpt lat="44.08923" lon="7.43315">
        <ele>2476.0100097656</ele>
        <time>2011-10-01T12:43:33Z</time>
      </trkpt>
      <trkpt lat="44.08931" lon="7.43305">
        <ele>2478.8999023438</ele>
        <time>2011-10-01T12:43:46Z</time>
      </trkpt>
      <trkpt lat="44.08931" lon="7.43304">
        <ele>2478.419921875</ele>
        <time>2011-10-01T12:43:47Z</time>
      </trkpt>
      <trkpt lat="44.08936" lon="7.43295">
        <ele>2481.3000488281</ele>
        <time>2011-10-01T12:44:01Z</time>
      </trkpt>
      <trkpt lat="44.08936" lon="7.43294">
        <ele>2481.3000488281</ele>
        <time>2011-10-01T12:44:02Z</time>
      </trkpt>
      <trkpt lat="44.08941" lon="7.43288">
        <ele>2484.1799316406</ele>
        <time>2011-10-01T12:44:15Z</time>
      </trkpt>
      <trkpt lat="44.08944" lon="7.43285">
        <ele>2485.6298828125</ele>
        <time>2011-10-01T12:44:26Z</time>
      </trkpt>
      <trkpt lat="44.08948" lon="7.43285">
        <ele>2486.5900878906</ele>
        <time>2011-10-01T12:44:29Z</time>
      </trkpt>
      <trkpt lat="44.08955" lon="7.43281">
        <ele>2487.5500488281</ele>
        <time>2011-10-01T12:44:40Z</time>
      </trkpt>
      <trkpt lat="44.08965" lon="7.43282">
        <ele>2487.5500488281</ele>
        <time>2011-10-01T12:44:51Z</time>
      </trkpt>
      <trkpt lat="44.08966" lon="7.43278">
        <ele>2488.0300292969</ele>
        <time>2011-10-01T12:44:55Z</time>
      </trkpt>
      <trkpt lat="44.08967" lon="7.43276">
        <ele>2488.9899902344</ele>
        <time>2011-10-01T12:44:58Z</time>
      </trkpt>
      <trkpt lat="44.08974" lon="7.43269">
        <ele>2489.4699707031</ele>
        <time>2011-10-01T12:45:07Z</time>
      </trkpt>
      <trkpt lat="44.0898" lon="7.4326">
        <ele>2489.9499511719</ele>
        <time>2011-10-01T12:45:18Z</time>
      </trkpt>
      <trkpt lat="44.08981" lon="7.43252">
        <ele>2490.9099121094</ele>
        <time>2011-10-01T12:45:29Z</time>
      </trkpt>
      <trkpt lat="44.08984" lon="7.43246">
        <ele>2491.3898925781</ele>
        <time>2011-10-01T12:45:35Z</time>
      </trkpt>
      <trkpt lat="44.08989" lon="7.43242">
        <ele>2491.3898925781</ele>
        <time>2011-10-01T12:45:41Z</time>
      </trkpt>
      <trkpt lat="44.08992" lon="7.43241">
        <ele>2491.3898925781</ele>
        <time>2011-10-01T12:45:44Z</time>
      </trkpt>
      <trkpt lat="44.08998" lon="7.43237">
        <ele>2492.3601074219</ele>
        <time>2011-10-01T12:45:55Z</time>
      </trkpt>
      <trkpt lat="44.09003" lon="7.43247">
        <ele>2492.8400878906</ele>
        <time>2011-10-01T12:46:09Z</time>
      </trkpt>
      <trkpt lat="44.09003" lon="7.43247">
        <ele>2492.8400878906</ele>
        <time>2011-10-01T12:46:23Z</time>
      </trkpt>
      <trkpt lat="44.09005" lon="7.4325">
        <ele>2492.8400878906</ele>
        <time>2011-10-01T12:46:58Z</time>
      </trkpt>
      <trkpt lat="44.08991" lon="7.43226">
        <ele>2493.3200683594</ele>
        <time>2011-10-01T12:47:38Z</time>
      </trkpt>
      <trkpt lat="44.08992" lon="7.43221">
        <ele>2494.7600097656</ele>
        <time>2011-10-01T12:49:08Z</time>
      </trkpt>
      <trkpt lat="44.08997" lon="7.43229">
        <ele>2494.2800292969</ele>
        <time>2011-10-01T12:49:29Z</time>
      </trkpt>
      <trkpt lat="44.09" lon="7.43226">
        <ele>2494.2800292969</ele>
        <time>2011-10-01T12:49:50Z</time>
      </trkpt>
      <trkpt lat="44.09011" lon="7.43223">
        <ele>2496.6799316406</ele>
        <time>2011-10-01T12:50:02Z</time>
      </trkpt>
      <trkpt lat="44.09021" lon="7.43222">
        <ele>2496.1999511719</ele>
        <time>2011-10-01T12:50:11Z</time>
      </trkpt>
      <trkpt lat="44.09023" lon="7.43217">
        <ele>2496.6799316406</ele>
        <time>2011-10-01T12:50:15Z</time>
      </trkpt>
      <trkpt lat="44.09032" lon="7.43206">
        <ele>2497.6398925781</ele>
        <time>2011-10-01T12:50:28Z</time>
      </trkpt>
      <trkpt lat="44.09032" lon="7.43202">
        <ele>2498.6000976562</ele>
        <time>2011-10-01T12:50:31Z</time>
      </trkpt>
      <trkpt lat="44.09034" lon="7.43193">
        <ele>2501.0100097656</ele>
        <time>2011-10-01T12:50:43Z</time>
      </trkpt>
      <trkpt lat="44.09029" lon="7.43186">
        <ele>2504.3701171875</ele>
        <time>2011-10-01T12:50:57Z</time>
      </trkpt>
      <trkpt lat="44.09025" lon="7.43177">
        <ele>2505.330078125</ele>
        <time>2011-10-01T12:51:13Z</time>
      </trkpt>
      <trkpt lat="44.09029" lon="7.43172">
        <ele>2508.6999511719</ele>
        <time>2011-10-01T12:51:30Z</time>
      </trkpt>
      <trkpt lat="44.09035" lon="7.43168">
        <ele>2511.580078125</ele>
        <time>2011-10-01T12:51:52Z</time>
      </trkpt>
      <trkpt lat="44.0904" lon="7.43163">
        <ele>2514.9499511719</ele>
        <time>2011-10-01T12:52:03Z</time>
      </trkpt>
      <trkpt lat="44.09045" lon="7.43153">
        <ele>2518.3100585938</ele>
        <time>2011-10-01T12:52:18Z</time>
      </trkpt>
      <trkpt lat="44.09047" lon="7.43151">
        <ele>2518.7900390625</ele>
        <time>2011-10-01T12:52:20Z</time>
      </trkpt>
      <trkpt lat="44.09048" lon="7.43146">
        <ele>2518.3100585938</ele>
        <time>2011-10-01T12:52:24Z</time>
      </trkpt>
      <trkpt lat="44.09052" lon="7.43139">
        <ele>2519.75</ele>
        <time>2011-10-01T12:52:33Z</time>
      </trkpt>
      <trkpt lat="44.09061" lon="7.43134">
        <ele>2521.6799316406</ele>
        <time>2011-10-01T12:52:46Z</time>
      </trkpt>
      <trkpt lat="44.09064" lon="7.43132">
        <ele>2525.0400390625</ele>
        <time>2011-10-01T12:52:57Z</time>
      </trkpt>
      <trkpt lat="44.09064" lon="7.43127">
        <ele>2528.3999023438</ele>
        <time>2011-10-01T12:53:07Z</time>
      </trkpt>
      <trkpt lat="44.09066" lon="7.4312">
        <ele>2530.8100585938</ele>
        <time>2011-10-01T12:53:21Z</time>
      </trkpt>
      <trkpt lat="44.09071" lon="7.43117">
        <ele>2532.25</ele>
        <time>2011-10-01T12:53:31Z</time>
      </trkpt>
      <trkpt lat="44.09077" lon="7.43117">
        <ele>2535.1298828125</ele>
        <time>2011-10-01T12:53:43Z</time>
      </trkpt>
      <trkpt lat="44.09078" lon="7.4311">
        <ele>2538.5</ele>
        <time>2011-10-01T12:53:55Z</time>
      </trkpt>
      <trkpt lat="44.09081" lon="7.43101">
        <ele>2541.8601074219</ele>
        <time>2011-10-01T12:54:07Z</time>
      </trkpt>
      <trkpt lat="44.09089" lon="7.43087">
        <ele>2543.3100585938</ele>
        <time>2011-10-01T12:54:23Z</time>
      </trkpt>
      <trkpt lat="44.09098" lon="7.43073">
        <ele>2543.3100585938</ele>
        <time>2011-10-01T12:54:37Z</time>
      </trkpt>
      <trkpt lat="44.091" lon="7.43071">
        <ele>2544.2700195312</ele>
        <time>2011-10-01T12:54:39Z</time>
      </trkpt>
      <trkpt lat="44.09101" lon="7.43068">
        <ele>2544.75</ele>
        <time>2011-10-01T12:54:41Z</time>
      </trkpt>
      <trkpt lat="44.09111" lon="7.43055">
        <ele>2542.8200683594</ele>
        <time>2011-10-01T12:54:54Z</time>
      </trkpt>
      <trkpt lat="44.09112" lon="7.43054">
        <ele>2541.8601074219</ele>
        <time>2011-10-01T12:54:55Z</time>
      </trkpt>
      <trkpt lat="44.09117" lon="7.43053">
        <ele>2541.8601074219</ele>
        <time>2011-10-01T12:54:59Z</time>
      </trkpt>
      <trkpt lat="44.0912" lon="7.43053">
        <ele>2541.8601074219</ele>
        <time>2011-10-01T12:55:02Z</time>
      </trkpt>
      <trkpt lat="44.09126" lon="7.43048">
        <ele>2542.8200683594</ele>
        <time>2011-10-01T12:55:09Z</time>
      </trkpt>
      <trkpt lat="44.0913" lon="7.43045">
        <ele>2542.3400878906</ele>
        <time>2011-10-01T12:55:15Z</time>
      </trkpt>
      <trkpt lat="44.09133" lon="7.43041">
        <ele>2542.8200683594</ele>
        <time>2011-10-01T12:55:20Z</time>
      </trkpt>
      <trkpt lat="44.09136" lon="7.43038">
        <ele>2542.3400878906</ele>
        <time>2011-10-01T12:55:24Z</time>
      </trkpt>
      <trkpt lat="44.09143" lon="7.43025">
        <ele>2543.3100585938</ele>
        <time>2011-10-01T12:55:37Z</time>
      </trkpt>
      <trkpt lat="44.09143" lon="7.43024">
        <ele>2543.7900390625</ele>
        <time>2011-10-01T12:55:39Z</time>
      </trkpt>
      <trkpt lat="44.09151" lon="7.43015">
        <ele>2545.2299804688</ele>
        <time>2011-10-01T12:55:51Z</time>
      </trkpt>
      <trkpt lat="44.09156" lon="7.43011">
        <ele>2546.669921875</ele>
        <time>2011-10-01T12:55:56Z</time>
      </trkpt>
      <trkpt lat="44.09162" lon="7.43009">
        <ele>2546.669921875</ele>
        <time>2011-10-01T12:56:06Z</time>
      </trkpt>
      <trkpt lat="44.09166" lon="7.43006">
        <ele>2548.1101074219</ele>
        <time>2011-10-01T12:56:15Z</time>
      </trkpt>
      <trkpt lat="44.09167" lon="7.42997">
        <ele>2549.5500488281</ele>
        <time>2011-10-01T12:56:23Z</time>
      </trkpt>
      <trkpt lat="44.09171" lon="7.42985">
        <ele>2551.4799804688</ele>
        <time>2011-10-01T12:56:34Z</time>
      </trkpt>
      <trkpt lat="44.09172" lon="7.42981">
        <ele>2551.9599609375</ele>
        <time>2011-10-01T12:56:38Z</time>
      </trkpt>
      <trkpt lat="44.09175" lon="7.42973">
        <ele>2551.9599609375</ele>
        <time>2011-10-01T12:56:45Z</time>
      </trkpt>
      <trkpt lat="44.0918" lon="7.42962">
        <ele>2552.4399414062</ele>
        <time>2011-10-01T12:56:58Z</time>
      </trkpt>
      <trkpt lat="44.09184" lon="7.42958">
        <ele>2554.8400878906</ele>
        <time>2011-10-01T12:57:07Z</time>
      </trkpt>
      <trkpt lat="44.09185" lon="7.42958">
        <ele>2553.8798828125</ele>
        <time>2011-10-01T12:57:11Z</time>
      </trkpt>
      <trkpt lat="44.09192" lon="7.42955">
        <ele>2552.4399414062</ele>
        <time>2011-10-01T12:57:21Z</time>
      </trkpt>
      <trkpt lat="44.092" lon="7.42956">
        <ele>2552.919921875</ele>
        <time>2011-10-01T12:57:28Z</time>
      </trkpt>
      <trkpt lat="44.09217" lon="7.42953">
        <ele>2550.5100097656</ele>
        <time>2011-10-01T12:57:42Z</time>
      </trkpt>
      <trkpt lat="44.09218" lon="7.42953">
        <ele>2551</ele>
        <time>2011-10-01T12:57:43Z</time>
      </trkpt>
      <trkpt lat="44.09224" lon="7.42953">
        <ele>2551.9599609375</ele>
        <time>2011-10-01T12:57:51Z</time>
      </trkpt>
      <trkpt lat="44.09232" lon="7.42953">
        <ele>2551.9599609375</ele>
        <time>2011-10-01T12:58:02Z</time>
      </trkpt>
      <trkpt lat="44.09238" lon="7.4295">
        <ele>2552.919921875</ele>
        <time>2011-10-01T12:58:11Z</time>
      </trkpt>
      <trkpt lat="44.09243" lon="7.42953">
        <ele>2553.8798828125</ele>
        <time>2011-10-01T12:58:18Z</time>
      </trkpt>
      <trkpt lat="44.09245" lon="7.42955">
        <ele>2553.8798828125</ele>
        <time>2011-10-01T12:58:21Z</time>
      </trkpt>
      <trkpt lat="44.09255" lon="7.42961">
        <ele>2554.8400878906</ele>
        <time>2011-10-01T12:58:31Z</time>
      </trkpt>
      <trkpt lat="44.09266" lon="7.42965">
        <ele>2557.7299804688</ele>
        <time>2011-10-01T12:58:44Z</time>
      </trkpt>
      <trkpt lat="44.09267" lon="7.42965">
        <ele>2558.6899414062</ele>
        <time>2011-10-01T12:58:45Z</time>
      </trkpt>
      <trkpt lat="44.09271" lon="7.42963">
        <ele>2559.6499023438</ele>
        <time>2011-10-01T12:58:51Z</time>
      </trkpt>
      <trkpt lat="44.09275" lon="7.42954">
        <ele>2565.419921875</ele>
        <time>2011-10-01T12:59:01Z</time>
      </trkpt>
      <trkpt lat="44.09277" lon="7.42954">
        <ele>2561.5700683594</ele>
        <time>2011-10-01T12:59:02Z</time>
      </trkpt>
      <trkpt lat="44.09286" lon="7.42948">
        <ele>2564.4499511719</ele>
        <time>2011-10-01T12:59:15Z</time>
      </trkpt>
      <trkpt lat="44.09297" lon="7.4294">
        <ele>2563.9699707031</ele>
        <time>2011-10-01T12:59:26Z</time>
      </trkpt>
      <trkpt lat="44.09305" lon="7.42934">
        <ele>2566.8601074219</ele>
        <time>2011-10-01T12:59:34Z</time>
      </trkpt>
      <trkpt lat="44.09309" lon="7.42928">
        <ele>2568.7800292969</ele>
        <time>2011-10-01T12:59:41Z</time>
      </trkpt>
      <trkpt lat="44.09312" lon="7.42925">
        <ele>2567.8200683594</ele>
        <time>2011-10-01T12:59:45Z</time>
      </trkpt>
      <trkpt lat="44.09314" lon="7.42924">
        <ele>2568.7800292969</ele>
        <time>2011-10-01T12:59:47Z</time>
      </trkpt>
      <trkpt lat="44.0932" lon="7.42919">
        <ele>2569.2600097656</ele>
        <time>2011-10-01T12:59:53Z</time>
      </trkpt>
      <trkpt lat="44.09328" lon="7.42914">
        <ele>2570.6999511719</ele>
        <time>2011-10-01T13:00:01Z</time>
      </trkpt>
      <trkpt lat="44.09336" lon="7.42909">
        <ele>2573.5900878906</ele>
        <time>2011-10-01T13:00:09Z</time>
      </trkpt>
      <trkpt lat="44.09341" lon="7.42908">
        <ele>2574.5500488281</ele>
        <time>2011-10-01T13:00:14Z</time>
      </trkpt>
      <trkpt lat="44.09355" lon="7.42907">
        <ele>2576.4699707031</ele>
        <time>2011-10-01T13:00:27Z</time>
      </trkpt>
      <trkpt lat="44.09364" lon="7.42905">
        <ele>2579.8400878906</ele>
        <time>2011-10-01T13:00:37Z</time>
      </trkpt>
      <trkpt lat="44.09366" lon="7.42904">
        <ele>2580.3200683594</ele>
        <time>2011-10-01T13:00:39Z</time>
      </trkpt>
      <trkpt lat="44.09376" lon="7.42903">
        <ele>2584.1599121094</ele>
        <time>2011-10-01T13:00:53Z</time>
      </trkpt>
      <trkpt lat="44.09383" lon="7.42904">
        <ele>2587.0400390625</ele>
        <time>2011-10-01T13:01:04Z</time>
      </trkpt>
      <trkpt lat="44.09387" lon="7.42905">
        <ele>2589.4499511719</ele>
        <time>2011-10-01T13:01:17Z</time>
      </trkpt>
      <trkpt lat="44.09389" lon="7.42902">
        <ele>2590.4099121094</ele>
        <time>2011-10-01T13:01:21Z</time>
      </trkpt>
      <trkpt lat="44.09392" lon="7.42896">
        <ele>2592.8100585938</ele>
        <time>2011-10-01T13:01:27Z</time>
      </trkpt>
      <trkpt lat="44.09402" lon="7.42902">
        <ele>2594.7399902344</ele>
        <time>2011-10-01T13:01:36Z</time>
      </trkpt>
      <trkpt lat="44.09402" lon="7.42902">
        <ele>2594.7399902344</ele>
        <time>2011-10-01T13:01:37Z</time>
      </trkpt>
      <trkpt lat="44.09406" lon="7.42895">
        <ele>2598.1000976562</ele>
        <time>2011-10-01T13:01:47Z</time>
      </trkpt>
      <trkpt lat="44.09414" lon="7.42891">
        <ele>2601.4599609375</ele>
        <time>2011-10-01T13:02:00Z</time>
      </trkpt>
      <trkpt lat="44.09415" lon="7.42891">
        <ele>2600.5</ele>
        <time>2011-10-01T13:02:02Z</time>
      </trkpt>
      <trkpt lat="44.09418" lon="7.42887">
        <ele>2601.9499511719</ele>
        <time>2011-10-01T13:02:08Z</time>
      </trkpt>
      <trkpt lat="44.0943" lon="7.42873">
        <ele>2602.9099121094</ele>
        <time>2011-10-01T13:02:24Z</time>
      </trkpt>
      <trkpt lat="44.09431" lon="7.42872">
        <ele>2602.9099121094</ele>
        <time>2011-10-01T13:02:25Z</time>
      </trkpt>
      <trkpt lat="44.09447" lon="7.42859">
        <ele>2603.8701171875</ele>
        <time>2011-10-01T13:02:42Z</time>
      </trkpt>
      <trkpt lat="44.09458" lon="7.4285">
        <ele>2606.2700195312</ele>
        <time>2011-10-01T13:02:55Z</time>
      </trkpt>
      <trkpt lat="44.09459" lon="7.42841">
        <ele>2607.2299804688</ele>
        <time>2011-10-01T13:03:01Z</time>
      </trkpt>
      <trkpt lat="44.09463" lon="7.42842">
        <ele>2606.75</ele>
        <time>2011-10-01T13:03:07Z</time>
      </trkpt>
      <trkpt lat="44.09476" lon="7.42843">
        <ele>2609.1599121094</ele>
        <time>2011-10-01T13:03:20Z</time>
      </trkpt>
      <trkpt lat="44.09478" lon="7.42843">
        <ele>2609.6398925781</ele>
        <time>2011-10-01T13:03:22Z</time>
      </trkpt>
      <trkpt lat="44.09491" lon="7.42839">
        <ele>2613.4799804688</ele>
        <time>2011-10-01T13:03:38Z</time>
      </trkpt>
      <trkpt lat="44.09494" lon="7.42835">
        <ele>2614.919921875</ele>
        <time>2011-10-01T13:03:45Z</time>
      </trkpt>
      <trkpt lat="44.09496" lon="7.42832">
        <ele>2615.8798828125</ele>
        <time>2011-10-01T13:03:49Z</time>
      </trkpt>
      <trkpt lat="44.09496" lon="7.42831">
        <ele>2616.3701171875</ele>
        <time>2011-10-01T13:03:50Z</time>
      </trkpt>
      <trkpt lat="44.09501" lon="7.42822">
        <ele>2618.7700195312</ele>
        <time>2011-10-01T13:04:01Z</time>
      </trkpt>
      <trkpt lat="44.09501" lon="7.42821">
        <ele>2618.7700195312</ele>
        <time>2011-10-01T13:04:03Z</time>
      </trkpt>
      <trkpt lat="44.09508" lon="7.4281">
        <ele>2622.1298828125</ele>
        <time>2011-10-01T13:04:16Z</time>
      </trkpt>
      <trkpt lat="44.0951" lon="7.42809">
        <ele>2622.6101074219</ele>
        <time>2011-10-01T13:04:18Z</time>
      </trkpt>
      <trkpt lat="44.09514" lon="7.42804">
        <ele>2623.0900878906</ele>
        <time>2011-10-01T13:04:24Z</time>
      </trkpt>
      <trkpt lat="44.09525" lon="7.42802">
        <ele>2626.9399414062</ele>
        <time>2011-10-01T13:04:37Z</time>
      </trkpt>
      <trkpt lat="44.09533" lon="7.42803">
        <ele>2628.3798828125</ele>
        <time>2011-10-01T13:04:47Z</time>
      </trkpt>
      <trkpt lat="44.09534" lon="7.42803">
        <ele>2628.3798828125</ele>
        <time>2011-10-01T13:04:48Z</time>
      </trkpt>
      <trkpt lat="44.09541" lon="7.42801">
        <ele>2631.2700195312</ele>
        <time>2011-10-01T13:05:01Z</time>
      </trkpt>
      <trkpt lat="44.09542" lon="7.428">
        <ele>2630.7900390625</ele>
        <time>2011-10-01T13:05:20Z</time>
      </trkpt>
      <trkpt lat="44.09544" lon="7.428">
        <ele>2631.2700195312</ele>
        <time>2011-10-01T13:05:30Z</time>
      </trkpt>
      <trkpt lat="44.09546" lon="7.42801">
        <ele>2632.2299804688</ele>
        <time>2011-10-01T13:05:32Z</time>
      </trkpt>
      <trkpt lat="44.09553" lon="7.42801">
        <ele>2633.669921875</ele>
        <time>2011-10-01T13:05:41Z</time>
      </trkpt>
      <trkpt lat="44.09556" lon="7.42799">
        <ele>2635.5900878906</ele>
        <time>2011-10-01T13:05:46Z</time>
      </trkpt>
      <trkpt lat="44.09557" lon="7.428">
        <ele>2636.0700683594</ele>
        <time>2011-10-01T13:05:48Z</time>
      </trkpt>
      <trkpt lat="44.09565" lon="7.42804">
        <ele>2638.4799804688</ele>
        <time>2011-10-01T13:06:00Z</time>
      </trkpt>
      <trkpt lat="44.09569" lon="7.42803">
        <ele>2639.919921875</ele>
        <time>2011-10-01T13:06:06Z</time>
      </trkpt>
      <trkpt lat="44.0957" lon="7.42798">
        <ele>2642.3200683594</ele>
        <time>2011-10-01T13:06:12Z</time>
      </trkpt>
      <trkpt lat="44.09567" lon="7.42785">
        <ele>2644.7199707031</ele>
        <time>2011-10-01T13:06:23Z</time>
      </trkpt>
      <trkpt lat="44.09573" lon="7.4278">
        <ele>2647.1298828125</ele>
        <time>2011-10-01T13:06:34Z</time>
      </trkpt>
      <trkpt lat="44.09579" lon="7.42773">
        <ele>2650.4899902344</ele>
        <time>2011-10-01T13:06:46Z</time>
      </trkpt>
      <trkpt lat="44.09584" lon="7.42771">
        <ele>2653.8601074219</ele>
        <time>2011-10-01T13:06:54Z</time>
      </trkpt>
      <trkpt lat="44.09586" lon="7.42772">
        <ele>2654.3400878906</ele>
        <time>2011-10-01T13:06:58Z</time>
      </trkpt>
      <trkpt lat="44.09593" lon="7.42769">
        <ele>2658.1799316406</ele>
        <time>2011-10-01T13:07:11Z</time>
      </trkpt>
      <trkpt lat="44.09598" lon="7.42768">
        <ele>2661.5500488281</ele>
        <time>2011-10-01T13:07:22Z</time>
      </trkpt>
      <trkpt lat="44.096" lon="7.42764">
        <ele>2663.9499511719</ele>
        <time>2011-10-01T13:07:34Z</time>
      </trkpt>
      <trkpt lat="44.09605" lon="7.42763">
        <ele>2666.3500976562</ele>
        <time>2011-10-01T13:07:46Z</time>
      </trkpt>
      <trkpt lat="44.09608" lon="7.42763">
        <ele>2667.3100585938</ele>
        <time>2011-10-01T13:07:50Z</time>
      </trkpt>
      <trkpt lat="44.09616" lon="7.42765">
        <ele>2669.2399902344</ele>
        <time>2011-10-01T13:08:03Z</time>
      </trkpt>
      <trkpt lat="44.0962" lon="7.42767">
        <ele>2670.1999511719</ele>
        <time>2011-10-01T13:08:08Z</time>
      </trkpt>
      <trkpt lat="44.09622" lon="7.42767">
        <ele>2671.6398925781</ele>
        <time>2011-10-01T13:08:10Z</time>
      </trkpt>
      <trkpt lat="44.09633" lon="7.42781">
        <ele>2672.1201171875</ele>
        <time>2011-10-01T13:08:25Z</time>
      </trkpt>
      <trkpt lat="44.09639" lon="7.42788">
        <ele>2674.5200195312</ele>
        <time>2011-10-01T13:08:33Z</time>
      </trkpt>
      <trkpt lat="44.09646" lon="7.4279">
        <ele>2677.4099121094</ele>
        <time>2011-10-01T13:08:42Z</time>
      </trkpt>
      <trkpt lat="44.09647" lon="7.42791">
        <ele>2677.8898925781</ele>
        <time>2011-10-01T13:08:45Z</time>
      </trkpt>
      <trkpt lat="44.0965" lon="7.42793">
        <ele>2679.8100585938</ele>
        <time>2011-10-01T13:08:54Z</time>
      </trkpt>
      <trkpt lat="44.09652" lon="7.42786">
        <ele>2682.6999511719</ele>
        <time>2011-10-01T13:09:01Z</time>
      </trkpt>
      <trkpt lat="44.09657" lon="7.4279">
        <ele>2684.1398925781</ele>
        <time>2011-10-01T13:09:14Z</time>
      </trkpt>
      <trkpt lat="44.09657" lon="7.42782">
        <ele>2686.0600585938</ele>
        <time>2011-10-01T13:09:19Z</time>
      </trkpt>
      <trkpt lat="44.09658" lon="7.42775">
        <ele>2687.0200195312</ele>
        <time>2011-10-01T13:09:24Z</time>
      </trkpt>
      <trkpt lat="44.09658" lon="7.42771">
        <ele>2688.4599609375</ele>
        <time>2011-10-01T13:09:27Z</time>
      </trkpt>
      <trkpt lat="44.09662" lon="7.42769">
        <ele>2690.8701171875</ele>
        <time>2011-10-01T13:09:40Z</time>
      </trkpt>
      <trkpt lat="44.09664" lon="7.42767">
        <ele>2690.8701171875</ele>
        <time>2011-10-01T13:10:08Z</time>
      </trkpt>
      <trkpt lat="44.09664" lon="7.42766">
        <ele>2691.3500976562</ele>
        <time>2011-10-01T13:10:37Z</time>
      </trkpt>
      <trkpt lat="44.09664" lon="7.42767">
        <ele>2690.3898925781</ele>
        <time>2011-10-01T13:10:57Z</time>
      </trkpt>
      <trkpt lat="44.09664" lon="7.42765">
        <ele>2690.3898925781</ele>
        <time>2011-10-01T13:11:19Z</time>
      </trkpt>
      <trkpt lat="44.09664" lon="7.42763">
        <ele>2689.4299316406</ele>
        <time>2011-10-01T13:11:24Z</time>
      </trkpt>
      <trkpt lat="44.09664" lon="7.42765">
        <ele>2689.4299316406</ele>
        <time>2011-10-01T13:11:39Z</time>
      </trkpt>
      <trkpt lat="44.09664" lon="7.42764">
        <ele>2691.3500976562</ele>
        <time>2011-10-01T13:12:37Z</time>
      </trkpt>
      <trkpt lat="44.09663" lon="7.42765">
        <ele>2691.3500976562</ele>
        <time>2011-10-01T13:12:57Z</time>
      </trkpt>
      <trkpt lat="44.09663" lon="7.42765">
        <ele>2691.3500976562</ele>
        <time>2011-10-01T13:13:09Z</time>
      </trkpt>
      <trkpt lat="44.09663" lon="7.42765">
        <ele>2688.4599609375</ele>
        <time>2011-10-01T13:13:38Z</time>
      </trkpt>
      <trkpt lat="44.09663" lon="7.42765">
        <ele>2692.3100585938</ele>
        <time>2011-10-01T13:13:42Z</time>
      </trkpt>
      <trkpt lat="44.09663" lon="7.42765">
        <ele>2689.9099121094</ele>
        <time>2011-10-01T13:14:01Z</time>
      </trkpt>
      <trkpt lat="44.09663" lon="7.42764">
        <ele>2691.3500976562</ele>
        <time>2011-10-01T13:15:03Z</time>
      </trkpt>
      <trkpt lat="44.09666" lon="7.42767">
        <ele>2692.3100585938</ele>
        <time>2011-10-01T13:15:45Z</time>
      </trkpt>
      <trkpt lat="44.09666" lon="7.42765">
        <ele>2693.2700195312</ele>
        <time>2011-10-01T13:16:25Z</time>
      </trkpt>
      <trkpt lat="44.09666" lon="7.42766">
        <ele>2693.2700195312</ele>
        <time>2011-10-01T13:18:12Z</time>
      </trkpt>
      <trkpt lat="44.09665" lon="7.42767">
        <ele>2692.3100585938</ele>
        <time>2011-10-01T13:18:47Z</time>
      </trkpt>
      <trkpt lat="44.09666" lon="7.42765">
        <ele>2690.8701171875</ele>
        <time>2011-10-01T13:19:01Z</time>
      </trkpt>
      <trkpt lat="44.09667" lon="7.42765">
        <ele>2690.3898925781</ele>
        <time>2011-10-01T13:19:43Z</time>
      </trkpt>
      <trkpt lat="44.09668" lon="7.42763">
        <ele>2687.0200195312</ele>
        <time>2011-10-01T13:20:04Z</time>
      </trkpt>
      <trkpt lat="44.09666" lon="7.42751">
        <ele>2685.1000976562</ele>
        <time>2011-10-01T13:20:16Z</time>
      </trkpt>
      <trkpt lat="44.09665" lon="7.4275">
        <ele>2683.6599121094</ele>
        <time>2011-10-01T13:20:18Z</time>
      </trkpt>
      <trkpt lat="44.09665" lon="7.42745">
        <ele>2682.6999511719</ele>
        <time>2011-10-01T13:20:24Z</time>
      </trkpt>
      <trkpt lat="44.09669" lon="7.4274">
        <ele>2679.8100585938</ele>
        <time>2011-10-01T13:20:32Z</time>
      </trkpt>
      <trkpt lat="44.09671" lon="7.42738">
        <ele>2677.4099121094</ele>
        <time>2011-10-01T13:20:54Z</time>
      </trkpt>
      <trkpt lat="44.09671" lon="7.42734">
        <ele>2675.9699707031</ele>
        <time>2011-10-01T13:21:06Z</time>
      </trkpt>
      <trkpt lat="44.09669" lon="7.42731">
        <ele>2674.0400390625</ele>
        <time>2011-10-01T13:21:16Z</time>
      </trkpt>
      <trkpt lat="44.09667" lon="7.4273">
        <ele>2673.080078125</ele>
        <time>2011-10-01T13:21:19Z</time>
      </trkpt>
      <trkpt lat="44.09669" lon="7.42725">
        <ele>2670.6799316406</ele>
        <time>2011-10-01T13:21:29Z</time>
      </trkpt>
      <trkpt lat="44.09665" lon="7.42722">
        <ele>2667.8000488281</ele>
        <time>2011-10-01T13:21:38Z</time>
      </trkpt>
      <trkpt lat="44.09662" lon="7.42717">
        <ele>2665.3898925781</ele>
        <time>2011-10-01T13:21:46Z</time>
      </trkpt>
      <trkpt lat="44.09664" lon="7.42716">
        <ele>2664.4299316406</ele>
        <time>2011-10-01T13:21:48Z</time>
      </trkpt>
      <trkpt lat="44.09668" lon="7.42711">
        <ele>2662.0300292969</ele>
        <time>2011-10-01T13:22:00Z</time>
      </trkpt>
      <trkpt lat="44.09664" lon="7.42709">
        <ele>2660.1101074219</ele>
        <time>2011-10-01T13:22:05Z</time>
      </trkpt>
      <trkpt lat="44.09662" lon="7.42703">
        <ele>2659.1398925781</ele>
        <time>2011-10-01T13:22:14Z</time>
      </trkpt>
      <trkpt lat="44.09665" lon="7.42704">
        <ele>2657.2199707031</ele>
        <time>2011-10-01T13:22:19Z</time>
      </trkpt>
      <trkpt lat="44.09666" lon="7.42702">
        <ele>2655.7800292969</ele>
        <time>2011-10-01T13:22:33Z</time>
      </trkpt>
      <trkpt lat="44.09674" lon="7.42699">
        <ele>2654.3400878906</ele>
        <time>2011-10-01T13:22:47Z</time>
      </trkpt>
      <trkpt lat="44.09671" lon="7.42698">
        <ele>2653.3798828125</ele>
        <time>2011-10-01T13:23:05Z</time>
      </trkpt>
      <trkpt lat="44.09665" lon="7.42702">
        <ele>2653.8601074219</ele>
        <time>2011-10-01T13:23:30Z</time>
      </trkpt>
      <trkpt lat="44.09663" lon="7.42701">
        <ele>2653.8601074219</ele>
        <time>2011-10-01T13:24:11Z</time>
      </trkpt>
      <trkpt lat="44.09666" lon="7.427">
        <ele>2653.3798828125</ele>
        <time>2011-10-01T13:24:29Z</time>
      </trkpt>
      <trkpt lat="44.09664" lon="7.42694">
        <ele>2651.4499511719</ele>
        <time>2011-10-01T13:24:38Z</time>
      </trkpt>
      <trkpt lat="44.09665" lon="7.42688">
        <ele>2649.5300292969</ele>
        <time>2011-10-01T13:24:47Z</time>
      </trkpt>
      <trkpt lat="44.09665" lon="7.42686">
        <ele>2648.5700683594</ele>
        <time>2011-10-01T13:24:50Z</time>
      </trkpt>
      <trkpt lat="44.09664" lon="7.42675">
        <ele>2645.6899414062</ele>
        <time>2011-10-01T13:25:03Z</time>
      </trkpt>
      <trkpt lat="44.09666" lon="7.42669">
        <ele>2644.7199707031</ele>
        <time>2011-10-01T13:25:09Z</time>
      </trkpt>
      <trkpt lat="44.09665" lon="7.42662">
        <ele>2643.2800292969</ele>
        <time>2011-10-01T13:25:18Z</time>
      </trkpt>
      <trkpt lat="44.09666" lon="7.42654">
        <ele>2640.8798828125</ele>
        <time>2011-10-01T13:25:28Z</time>
      </trkpt>
      <trkpt lat="44.09668" lon="7.42647">
        <ele>2639.919921875</ele>
        <time>2011-10-01T13:25:40Z</time>
      </trkpt>
      <trkpt lat="44.09673" lon="7.42643">
        <ele>2637.5100097656</ele>
        <time>2011-10-01T13:25:52Z</time>
      </trkpt>
      <trkpt lat="44.09674" lon="7.42636">
        <ele>2635.5900878906</ele>
        <time>2011-10-01T13:25:59Z</time>
      </trkpt>
      <trkpt lat="44.09677" lon="7.4263">
        <ele>2633.1899414062</ele>
        <time>2011-10-01T13:26:09Z</time>
      </trkpt>
      <trkpt lat="44.09681" lon="7.42632">
        <ele>2633.1899414062</ele>
        <time>2011-10-01T13:26:24Z</time>
      </trkpt>
      <trkpt lat="44.09684" lon="7.42629">
        <ele>2630.7900390625</ele>
        <time>2011-10-01T13:26:36Z</time>
      </trkpt>
      <trkpt lat="44.09687" lon="7.42625">
        <ele>2629.3400878906</ele>
        <time>2011-10-01T13:26:41Z</time>
      </trkpt>
      <trkpt lat="44.09689" lon="7.42623">
        <ele>2628.3798828125</ele>
        <time>2011-10-01T13:26:51Z</time>
      </trkpt>
      <trkpt lat="44.09692" lon="7.42618">
        <ele>2627.419921875</ele>
        <time>2011-10-01T13:27:00Z</time>
      </trkpt>
      <trkpt lat="44.0969" lon="7.42613">
        <ele>2626.4599609375</ele>
        <time>2011-10-01T13:27:13Z</time>
      </trkpt>
      <trkpt lat="44.09692" lon="7.42609">
        <ele>2625.9799804688</ele>
        <time>2011-10-01T13:27:22Z</time>
      </trkpt>
      <trkpt lat="44.09695" lon="7.42607">
        <ele>2625.9799804688</ele>
        <time>2011-10-01T13:27:26Z</time>
      </trkpt>
      <trkpt lat="44.09698" lon="7.42603">
        <ele>2625.9799804688</ele>
        <time>2011-10-01T13:27:31Z</time>
      </trkpt>
      <trkpt lat="44.09701" lon="7.42601">
        <ele>2625.9799804688</ele>
        <time>2011-10-01T13:27:34Z</time>
      </trkpt>
      <trkpt lat="44.09706" lon="7.42588">
        <ele>2624.5400390625</ele>
        <time>2011-10-01T13:27:47Z</time>
      </trkpt>
      <trkpt lat="44.09704" lon="7.42577">
        <ele>2624.0600585938</ele>
        <time>2011-10-01T13:27:59Z</time>
      </trkpt>
      <trkpt lat="44.09702" lon="7.42569">
        <ele>2624.0600585938</ele>
        <time>2011-10-01T13:28:10Z</time>
      </trkpt>
      <trkpt lat="44.09702" lon="7.42568">
        <ele>2623.580078125</ele>
        <time>2011-10-01T13:28:21Z</time>
      </trkpt>
      <trkpt lat="44.09703" lon="7.42565">
        <ele>2622.1298828125</ele>
        <time>2011-10-01T13:28:26Z</time>
      </trkpt>
      <trkpt lat="44.09698" lon="7.42549">
        <ele>2620.6899414062</ele>
        <time>2011-10-01T13:28:36Z</time>
      </trkpt>
      <trkpt lat="44.09699" lon="7.42541">
        <ele>2619.7299804688</ele>
        <time>2011-10-01T13:28:43Z</time>
      </trkpt>
      <trkpt lat="44.09697" lon="7.42528">
        <ele>2620.6899414062</ele>
        <time>2011-10-01T13:28:54Z</time>
      </trkpt>
      <trkpt lat="44.09691" lon="7.42518">
        <ele>2619.7299804688</ele>
        <time>2011-10-01T13:29:04Z</time>
      </trkpt>
      <trkpt lat="44.09687" lon="7.42515">
        <ele>2620.6899414062</ele>
        <time>2011-10-01T13:29:14Z</time>
      </trkpt>
      <trkpt lat="44.09682" lon="7.42513">
        <ele>2620.6899414062</ele>
        <time>2011-10-01T13:29:24Z</time>
      </trkpt>
      <trkpt lat="44.09677" lon="7.42509">
        <ele>2620.2099609375</ele>
        <time>2011-10-01T13:29:32Z</time>
      </trkpt>
      <trkpt lat="44.09682" lon="7.42499">
        <ele>2618.2900390625</ele>
        <time>2011-10-01T13:29:43Z</time>
      </trkpt>
      <trkpt lat="44.09683" lon="7.42488">
        <ele>2615.3999023438</ele>
        <time>2011-10-01T13:29:52Z</time>
      </trkpt>
      <trkpt lat="44.0968" lon="7.42475">
        <ele>2615.8798828125</ele>
        <time>2011-10-01T13:29:58Z</time>
      </trkpt>
      <trkpt lat="44.09675" lon="7.42469">
        <ele>2615.3999023438</ele>
        <time>2011-10-01T13:30:16Z</time>
      </trkpt>
      <trkpt lat="44.09674" lon="7.42467">
        <ele>2613.9599609375</ele>
        <time>2011-10-01T13:30:31Z</time>
      </trkpt>
      <trkpt lat="44.09673" lon="7.42468">
        <ele>2614.919921875</ele>
        <time>2011-10-01T13:31:07Z</time>
      </trkpt>
      <trkpt lat="44.09672" lon="7.42468">
        <ele>2614.919921875</ele>
        <time>2011-10-01T13:31:32Z</time>
      </trkpt>
      <trkpt lat="44.09671" lon="7.4246">
        <ele>2613</ele>
        <time>2011-10-01T13:31:52Z</time>
      </trkpt>
      <trkpt lat="44.09669" lon="7.42448">
        <ele>2612.0400390625</ele>
        <time>2011-10-01T13:32:05Z</time>
      </trkpt>
      <trkpt lat="44.09669" lon="7.42438">
        <ele>2609.6398925781</ele>
        <time>2011-10-01T13:32:16Z</time>
      </trkpt>
      <trkpt lat="44.09667" lon="7.42429">
        <ele>2608.1899414062</ele>
        <time>2011-10-01T13:32:27Z</time>
      </trkpt>
      <trkpt lat="44.09673" lon="7.42425">
        <ele>2604.830078125</ele>
        <time>2011-10-01T13:32:42Z</time>
      </trkpt>
      <trkpt lat="44.09673" lon="7.42425">
        <ele>2604.830078125</ele>
        <time>2011-10-01T13:32:43Z</time>
      </trkpt>
      <trkpt lat="44.09679" lon="7.42419">
        <ele>2601.4599609375</ele>
        <time>2011-10-01T13:32:58Z</time>
      </trkpt>
      <trkpt lat="44.09679" lon="7.42418">
        <ele>2601.4599609375</ele>
        <time>2011-10-01T13:32:59Z</time>
      </trkpt>
      <trkpt lat="44.09681" lon="7.42414">
        <ele>2599.5400390625</ele>
        <time>2011-10-01T13:33:04Z</time>
      </trkpt>
      <trkpt lat="44.09677" lon="7.42399">
        <ele>2596.1799316406</ele>
        <time>2011-10-01T13:33:16Z</time>
      </trkpt>
      <trkpt lat="44.09681" lon="7.42396">
        <ele>2593.7700195312</ele>
        <time>2011-10-01T13:33:29Z</time>
      </trkpt>
      <trkpt lat="44.09679" lon="7.42388">
        <ele>2590.4099121094</ele>
        <time>2011-10-01T13:33:37Z</time>
      </trkpt>
      <trkpt lat="44.09679" lon="7.42387">
        <ele>2590.4099121094</ele>
        <time>2011-10-01T13:33:38Z</time>
      </trkpt>
      <trkpt lat="44.09681" lon="7.42379">
        <ele>2588.9699707031</ele>
        <time>2011-10-01T13:33:45Z</time>
      </trkpt>
      <trkpt lat="44.09684" lon="7.42369">
        <ele>2584.1599121094</ele>
        <time>2011-10-01T13:33:56Z</time>
      </trkpt>
      <trkpt lat="44.09685" lon="7.42368">
        <ele>2584.1599121094</ele>
        <time>2011-10-01T13:33:57Z</time>
      </trkpt>
      <trkpt lat="44.0969" lon="7.4236">
        <ele>2582.2399902344</ele>
        <time>2011-10-01T13:34:09Z</time>
      </trkpt>
      <trkpt lat="44.09691" lon="7.4236">
        <ele>2582.7199707031</ele>
        <time>2011-10-01T13:34:25Z</time>
      </trkpt>
      <trkpt lat="44.09691" lon="7.42358">
        <ele>2582.2399902344</ele>
        <time>2011-10-01T13:34:37Z</time>
      </trkpt>
      <trkpt lat="44.09687" lon="7.42348">
        <ele>2578.8701171875</ele>
        <time>2011-10-01T13:34:49Z</time>
      </trkpt>
      <trkpt lat="44.09684" lon="7.4234">
        <ele>2576.9499511719</ele>
        <time>2011-10-01T13:35:11Z</time>
      </trkpt>
      <trkpt lat="44.09679" lon="7.42336">
        <ele>2575.9899902344</ele>
        <time>2011-10-01T13:35:27Z</time>
      </trkpt>
      <trkpt lat="44.09679" lon="7.42337">
        <ele>2575.9899902344</ele>
        <time>2011-10-01T13:35:44Z</time>
      </trkpt>
      <trkpt lat="44.09674" lon="7.42334">
        <ele>2574.0700683594</ele>
        <time>2011-10-01T13:35:55Z</time>
      </trkpt>
      <trkpt lat="44.09673" lon="7.4233">
        <ele>2574.0700683594</ele>
        <time>2011-10-01T13:35:59Z</time>
      </trkpt>
      <trkpt lat="44.09672" lon="7.42319">
        <ele>2573.5900878906</ele>
        <time>2011-10-01T13:36:07Z</time>
      </trkpt>
      <trkpt lat="44.0967" lon="7.42317">
        <ele>2572.1398925781</ele>
        <time>2011-10-01T13:36:10Z</time>
      </trkpt>
      <trkpt lat="44.09664" lon="7.42318">
        <ele>2569.7399902344</ele>
        <time>2011-10-01T13:36:20Z</time>
      </trkpt>
      <trkpt lat="44.0966" lon="7.42322">
        <ele>2567.3400878906</ele>
        <time>2011-10-01T13:36:25Z</time>
      </trkpt>
      <trkpt lat="44.09652" lon="7.42323">
        <ele>2563.9699707031</ele>
        <time>2011-10-01T13:36:33Z</time>
      </trkpt>
      <trkpt lat="44.0965" lon="7.42323">
        <ele>2564.4499511719</ele>
        <time>2011-10-01T13:36:34Z</time>
      </trkpt>
      <trkpt lat="44.09643" lon="7.4233">
        <ele>2562.0500488281</ele>
        <time>2011-10-01T13:36:41Z</time>
      </trkpt>
      <trkpt lat="44.09636" lon="7.42327">
        <ele>2560.1298828125</ele>
        <time>2011-10-01T13:36:47Z</time>
      </trkpt>
      <trkpt lat="44.09632" lon="7.42327">
        <ele>2559.169921875</ele>
        <time>2011-10-01T13:36:55Z</time>
      </trkpt>
      <trkpt lat="44.09629" lon="7.42323">
        <ele>2556.2800292969</ele>
        <time>2011-10-01T13:37:02Z</time>
      </trkpt>
      <trkpt lat="44.09628" lon="7.42323">
        <ele>2554.8400878906</ele>
        <time>2011-10-01T13:37:03Z</time>
      </trkpt>
      <trkpt lat="44.09624" lon="7.42321">
        <ele>2553.8798828125</ele>
        <time>2011-10-01T13:37:07Z</time>
      </trkpt>
      <trkpt lat="44.09621" lon="7.4232">
        <ele>2552.4399414062</ele>
        <time>2011-10-01T13:37:11Z</time>
      </trkpt>
      <trkpt lat="44.09618" lon="7.4232">
        <ele>2551</ele>
        <time>2011-10-01T13:37:14Z</time>
      </trkpt>
      <trkpt lat="44.09616" lon="7.42316">
        <ele>2549.5500488281</ele>
        <time>2011-10-01T13:37:19Z</time>
      </trkpt>
      <trkpt lat="44.0961" lon="7.4231">
        <ele>2546.669921875</ele>
        <time>2011-10-01T13:37:25Z</time>
      </trkpt>
      <trkpt lat="44.09605" lon="7.42307">
        <ele>2546.1899414062</ele>
        <time>2011-10-01T13:37:30Z</time>
      </trkpt>
      <trkpt lat="44.09598" lon="7.42303">
        <ele>2543.7900390625</ele>
        <time>2011-10-01T13:37:40Z</time>
      </trkpt>
      <trkpt lat="44.09595" lon="7.42302">
        <ele>2543.3100585938</ele>
        <time>2011-10-01T13:37:43Z</time>
      </trkpt>
      <trkpt lat="44.09586" lon="7.42301">
        <ele>2542.3400878906</ele>
        <time>2011-10-01T13:37:52Z</time>
      </trkpt>
      <trkpt lat="44.09585" lon="7.42302">
        <ele>2540.8999023438</ele>
        <time>2011-10-01T13:37:54Z</time>
      </trkpt>
      <trkpt lat="44.09573" lon="7.42302">
        <ele>2541.3798828125</ele>
        <time>2011-10-01T13:38:03Z</time>
      </trkpt>
      <trkpt lat="44.0957" lon="7.423">
        <ele>2539.4599609375</ele>
        <time>2011-10-01T13:38:06Z</time>
      </trkpt>
      <trkpt lat="44.0956" lon="7.42297">
        <ele>2538.9799804688</ele>
        <time>2011-10-01T13:38:13Z</time>
      </trkpt>
      <trkpt lat="44.09553" lon="7.42297">
        <ele>2538.9799804688</ele>
        <time>2011-10-01T13:38:17Z</time>
      </trkpt>
      <trkpt lat="44.09549" lon="7.42292">
        <ele>2538.9799804688</ele>
        <time>2011-10-01T13:38:22Z</time>
      </trkpt>
      <trkpt lat="44.09547" lon="7.42282">
        <ele>2538.0200195312</ele>
        <time>2011-10-01T13:38:30Z</time>
      </trkpt>
      <trkpt lat="44.09543" lon="7.42277">
        <ele>2537.5400390625</ele>
        <time>2011-10-01T13:38:37Z</time>
      </trkpt>
      <trkpt lat="44.09539" lon="7.42276">
        <ele>2536.1000976562</ele>
        <time>2011-10-01T13:38:44Z</time>
      </trkpt>
      <trkpt lat="44.09533" lon="7.4227">
        <ele>2534.169921875</ele>
        <time>2011-10-01T13:38:56Z</time>
      </trkpt>
      <trkpt lat="44.09529" lon="7.42267">
        <ele>2533.6899414062</ele>
        <time>2011-10-01T13:39:02Z</time>
      </trkpt>
      <trkpt lat="44.09526" lon="7.42271">
        <ele>2532.25</ele>
        <time>2011-10-01T13:39:08Z</time>
      </trkpt>
      <trkpt lat="44.09523" lon="7.4227">
        <ele>2531.7700195312</ele>
        <time>2011-10-01T13:39:13Z</time>
      </trkpt>
      <trkpt lat="44.09518" lon="7.42267">
        <ele>2529.3701171875</ele>
        <time>2011-10-01T13:39:23Z</time>
      </trkpt>
      <trkpt lat="44.09513" lon="7.42261">
        <ele>2528.8898925781</ele>
        <time>2011-10-01T13:39:36Z</time>
      </trkpt>
      <trkpt lat="44.09511" lon="7.42261">
        <ele>2527.919921875</ele>
        <time>2011-10-01T13:39:43Z</time>
      </trkpt>
      <trkpt lat="44.09509" lon="7.4226">
        <ele>2527.4399414062</ele>
        <time>2011-10-01T13:39:46Z</time>
      </trkpt>
      <trkpt lat="44.09507" lon="7.42258">
        <ele>2526.9599609375</ele>
        <time>2011-10-01T13:39:49Z</time>
      </trkpt>
      <trkpt lat="44.09505" lon="7.42255">
        <ele>2525.5200195312</ele>
        <time>2011-10-01T13:39:53Z</time>
      </trkpt>
      <trkpt lat="44.09502" lon="7.42255">
        <ele>2524.5600585938</ele>
        <time>2011-10-01T13:39:59Z</time>
      </trkpt>
      <trkpt lat="44.09501" lon="7.42258">
        <ele>2524.080078125</ele>
        <time>2011-10-01T13:40:02Z</time>
      </trkpt>
      <trkpt lat="44.09499" lon="7.42255">
        <ele>2523.6000976562</ele>
        <time>2011-10-01T13:40:06Z</time>
      </trkpt>
      <trkpt lat="44.09494" lon="7.42249">
        <ele>2521.6799316406</ele>
        <time>2011-10-01T13:40:11Z</time>
      </trkpt>
      <trkpt lat="44.09487" lon="7.42243">
        <ele>2521.6799316406</ele>
        <time>2011-10-01T13:40:19Z</time>
      </trkpt>
      <trkpt lat="44.09484" lon="7.42244">
        <ele>2521.1899414062</ele>
        <time>2011-10-01T13:40:22Z</time>
      </trkpt>
      <trkpt lat="44.0948" lon="7.42243">
        <ele>2519.75</ele>
        <time>2011-10-01T13:40:26Z</time>
      </trkpt>
      <trkpt lat="44.09477" lon="7.42239">
        <ele>2518.7900390625</ele>
        <time>2011-10-01T13:40:30Z</time>
      </trkpt>
      <trkpt lat="44.09473" lon="7.42237">
        <ele>2517.830078125</ele>
        <time>2011-10-01T13:40:36Z</time>
      </trkpt>
      <trkpt lat="44.09467" lon="7.42237">
        <ele>2517.3500976562</ele>
        <time>2011-10-01T13:40:42Z</time>
      </trkpt>
      <trkpt lat="44.0946" lon="7.42236">
        <ele>2516.8701171875</ele>
        <time>2011-10-01T13:40:48Z</time>
      </trkpt>
      <trkpt lat="44.09454" lon="7.42235">
        <ele>2517.3500976562</ele>
        <time>2011-10-01T13:40:52Z</time>
      </trkpt>
      <trkpt lat="44.09447" lon="7.4223">
        <ele>2516.8701171875</ele>
        <time>2011-10-01T13:40:57Z</time>
      </trkpt>
      <trkpt lat="44.09442" lon="7.42226">
        <ele>2514.4699707031</ele>
        <time>2011-10-01T13:41:01Z</time>
      </trkpt>
      <trkpt lat="44.09439" lon="7.42225">
        <ele>2513.0200195312</ele>
        <time>2011-10-01T13:41:03Z</time>
      </trkpt>
      <trkpt lat="44.0943" lon="7.42217">
        <ele>2510.1398925781</ele>
        <time>2011-10-01T13:41:13Z</time>
      </trkpt>
      <trkpt lat="44.09419" lon="7.42215">
        <ele>2507.2600097656</ele>
        <time>2011-10-01T13:41:24Z</time>
      </trkpt>
      <trkpt lat="44.09417" lon="7.42216">
        <ele>2506.2900390625</ele>
        <time>2011-10-01T13:41:29Z</time>
      </trkpt>
      <trkpt lat="44.09405" lon="7.42213">
        <ele>2502.9299316406</ele>
        <time>2011-10-01T13:41:41Z</time>
      </trkpt>
      <trkpt lat="44.09385" lon="7.42209">
        <ele>2500.0500488281</ele>
        <time>2011-10-01T13:41:52Z</time>
      </trkpt>
      <trkpt lat="44.09385" lon="7.42209">
        <ele>2500.5300292969</ele>
        <time>2011-10-01T13:41:58Z</time>
      </trkpt>
      <trkpt lat="44.09381" lon="7.42209">
        <ele>2499.080078125</ele>
        <time>2011-10-01T13:42:03Z</time>
      </trkpt>
      <trkpt lat="44.09376" lon="7.42207">
        <ele>2497.1599121094</ele>
        <time>2011-10-01T13:42:07Z</time>
      </trkpt>
      <trkpt lat="44.09369" lon="7.42205">
        <ele>2496.6799316406</ele>
        <time>2011-10-01T13:42:14Z</time>
      </trkpt>
      <trkpt lat="44.09364" lon="7.42201">
        <ele>2495.7199707031</ele>
        <time>2011-10-01T13:42:21Z</time>
      </trkpt>
      <trkpt lat="44.09357" lon="7.42192">
        <ele>2493.3200683594</ele>
        <time>2011-10-01T13:42:27Z</time>
      </trkpt>
      <trkpt lat="44.09351" lon="7.42186">
        <ele>2491.8701171875</ele>
        <time>2011-10-01T13:42:31Z</time>
      </trkpt>
      <trkpt lat="44.09348" lon="7.42182">
        <ele>2491.8701171875</ele>
        <time>2011-10-01T13:42:36Z</time>
      </trkpt>
      <trkpt lat="44.09344" lon="7.42183">
        <ele>2490.4299316406</ele>
        <time>2011-10-01T13:42:41Z</time>
      </trkpt>
      <trkpt lat="44.09343" lon="7.42183">
        <ele>2489.4699707031</ele>
        <time>2011-10-01T13:42:43Z</time>
      </trkpt>
      <trkpt lat="44.09337" lon="7.42183">
        <ele>2488.0300292969</ele>
        <time>2011-10-01T13:42:48Z</time>
      </trkpt>
      <trkpt lat="44.09335" lon="7.42185">
        <ele>2486.5900878906</ele>
        <time>2011-10-01T13:42:57Z</time>
      </trkpt>
      <trkpt lat="44.09334" lon="7.42186">
        <ele>2485.6298828125</ele>
        <time>2011-10-01T13:42:59Z</time>
      </trkpt>
      <trkpt lat="44.0933" lon="7.42185">
        <ele>2483.2199707031</ele>
        <time>2011-10-01T13:43:04Z</time>
      </trkpt>
      <trkpt lat="44.09328" lon="7.42183">
        <ele>2483.6999511719</ele>
        <time>2011-10-01T13:43:07Z</time>
      </trkpt>
      <trkpt lat="44.0933" lon="7.42176">
        <ele>2482.2600097656</ele>
        <time>2011-10-01T13:43:18Z</time>
      </trkpt>
      <trkpt lat="44.09327" lon="7.42173">
        <ele>2480.3400878906</ele>
        <time>2011-10-01T13:43:30Z</time>
      </trkpt>
      <trkpt lat="44.09325" lon="7.42168">
        <ele>2478.8999023438</ele>
        <time>2011-10-01T13:43:38Z</time>
      </trkpt>
      <trkpt lat="44.09315" lon="7.42162">
        <ele>2476.4899902344</ele>
        <time>2011-10-01T13:43:51Z</time>
      </trkpt>
      <trkpt lat="44.09309" lon="7.42157">
        <ele>2473.1298828125</ele>
        <time>2011-10-01T13:43:59Z</time>
      </trkpt>
      <trkpt lat="44.09306" lon="7.42155">
        <ele>2473.6101074219</ele>
        <time>2011-10-01T13:44:01Z</time>
      </trkpt>
      <trkpt lat="44.09295" lon="7.42145">
        <ele>2473.1298828125</ele>
        <time>2011-10-01T13:44:14Z</time>
      </trkpt>
      <trkpt lat="44.09292" lon="7.42143">
        <ele>2475.5300292969</ele>
        <time>2011-10-01T13:44:27Z</time>
      </trkpt>
      <trkpt lat="44.09292" lon="7.42143">
        <ele>2475.0500488281</ele>
        <time>2011-10-01T13:44:28Z</time>
      </trkpt>
      <trkpt lat="44.09287" lon="7.4214">
        <ele>2471.6899414062</ele>
        <time>2011-10-01T13:44:41Z</time>
      </trkpt>
      <trkpt lat="44.09287" lon="7.42141">
        <ele>2471.6899414062</ele>
        <time>2011-10-01T13:44:42Z</time>
      </trkpt>
      <trkpt lat="44.09284" lon="7.4214">
        <ele>2471.2099609375</ele>
        <time>2011-10-01T13:44:46Z</time>
      </trkpt>
      <trkpt lat="44.0928" lon="7.42137">
        <ele>2467.8400878906</ele>
        <time>2011-10-01T13:44:58Z</time>
      </trkpt>
      <trkpt lat="44.09279" lon="7.42137">
        <ele>2465.919921875</ele>
        <time>2011-10-01T13:45:03Z</time>
      </trkpt>
      <trkpt lat="44.09279" lon="7.42138">
        <ele>2464.9599609375</ele>
        <time>2011-10-01T13:45:04Z</time>
      </trkpt>
      <trkpt lat="44.09273" lon="7.42137">
        <ele>2463.0400390625</ele>
        <time>2011-10-01T13:45:11Z</time>
      </trkpt>
      <trkpt lat="44.09267" lon="7.42133">
        <ele>2461.1101074219</ele>
        <time>2011-10-01T13:45:16Z</time>
      </trkpt>
      <trkpt lat="44.09251" lon="7.42111">
        <ele>2457.75</ele>
        <time>2011-10-01T13:45:26Z</time>
      </trkpt>
      <trkpt lat="44.09234" lon="7.42097">
        <ele>2456.7900390625</ele>
        <time>2011-10-01T13:45:36Z</time>
      </trkpt>
      <trkpt lat="44.09222" lon="7.42088">
        <ele>2453.419921875</ele>
        <time>2011-10-01T13:45:44Z</time>
      </trkpt>
      <trkpt lat="44.09206" lon="7.42076">
        <ele>2452.4599609375</ele>
        <time>2011-10-01T13:45:54Z</time>
      </trkpt>
      <trkpt lat="44.09202" lon="7.4206">
        <ele>2450.5400390625</ele>
        <time>2011-10-01T13:46:05Z</time>
      </trkpt>
      <trkpt lat="44.09206" lon="7.42046">
        <ele>2449.580078125</ele>
        <time>2011-10-01T13:46:18Z</time>
      </trkpt>
      <trkpt lat="44.09207" lon="7.42023">
        <ele>2447.6499023438</ele>
        <time>2011-10-01T13:46:32Z</time>
      </trkpt>
      <trkpt lat="44.09211" lon="7.41999">
        <ele>2445.7299804688</ele>
        <time>2011-10-01T13:46:43Z</time>
      </trkpt>
      <trkpt lat="44.09211" lon="7.41991">
        <ele>2443.8100585938</ele>
        <time>2011-10-01T13:46:47Z</time>
      </trkpt>
      <trkpt lat="44.0921" lon="7.41972">
        <ele>2441.4099121094</ele>
        <time>2011-10-01T13:46:57Z</time>
      </trkpt>
      <trkpt lat="44.09207" lon="7.41967">
        <ele>2441.4099121094</ele>
        <time>2011-10-01T13:47:02Z</time>
      </trkpt>
      <trkpt lat="44.09206" lon="7.41966">
        <ele>2439.4799804688</ele>
        <time>2011-10-01T13:47:04Z</time>
      </trkpt>
      <trkpt lat="44.09206" lon="7.41953">
        <ele>2436.6000976562</ele>
        <time>2011-10-01T13:47:13Z</time>
      </trkpt>
      <trkpt lat="44.09208" lon="7.41947">
        <ele>2434.6799316406</ele>
        <time>2011-10-01T13:47:17Z</time>
      </trkpt>
      <trkpt lat="44.0921" lon="7.41945">
        <ele>2433.7099609375</ele>
        <time>2011-10-01T13:47:19Z</time>
      </trkpt>
      <trkpt lat="44.09214" lon="7.41941">
        <ele>2433.2299804688</ele>
        <time>2011-10-01T13:47:23Z</time>
      </trkpt>
      <trkpt lat="44.09218" lon="7.41923">
        <ele>2431.7900390625</ele>
        <time>2011-10-01T13:47:35Z</time>
      </trkpt>
      <trkpt lat="44.09219" lon="7.41916">
        <ele>2430.3500976562</ele>
        <time>2011-10-01T13:47:40Z</time>
      </trkpt>
      <trkpt lat="44.09219" lon="7.41904">
        <ele>2427.4699707031</ele>
        <time>2011-10-01T13:47:48Z</time>
      </trkpt>
      <trkpt lat="44.09221" lon="7.4188">
        <ele>2427.9499511719</ele>
        <time>2011-10-01T13:48:04Z</time>
      </trkpt>
      <trkpt lat="44.0922" lon="7.41876">
        <ele>2428.4299316406</ele>
        <time>2011-10-01T13:48:28Z</time>
      </trkpt>
      <trkpt lat="44.0922" lon="7.41877">
        <ele>2426.0200195312</ele>
        <time>2011-10-01T13:49:01Z</time>
      </trkpt>
      <trkpt lat="44.09221" lon="7.41878">
        <ele>2426.0200195312</ele>
        <time>2011-10-01T13:49:52Z</time>
      </trkpt>
      <trkpt lat="44.0922" lon="7.41878">
        <ele>2426.5</ele>
        <time>2011-10-01T13:50:32Z</time>
      </trkpt>
      <trkpt lat="44.0922" lon="7.41878">
        <ele>2426.0200195312</ele>
        <time>2011-10-01T13:51:10Z</time>
      </trkpt>
      <trkpt lat="44.09221" lon="7.41876">
        <ele>2423.6201171875</ele>
        <time>2011-10-01T13:51:37Z</time>
      </trkpt>
      <trkpt lat="44.0922" lon="7.41876">
        <ele>2424.1000976562</ele>
        <time>2011-10-01T13:52:15Z</time>
      </trkpt>
      <trkpt lat="44.09222" lon="7.41868">
        <ele>2420.2600097656</ele>
        <time>2011-10-01T13:52:42Z</time>
      </trkpt>
      <trkpt lat="44.09223" lon="7.41862">
        <ele>2418.8100585938</ele>
        <time>2011-10-01T13:52:54Z</time>
      </trkpt>
      <trkpt lat="44.09223" lon="7.41858">
        <ele>2414.9699707031</ele>
        <time>2011-10-01T13:53:01Z</time>
      </trkpt>
      <trkpt lat="44.0922" lon="7.41846">
        <ele>2412.5700683594</ele>
        <time>2011-10-01T13:53:13Z</time>
      </trkpt>
      <trkpt lat="44.09216" lon="7.41849">
        <ele>2409.1999511719</ele>
        <time>2011-10-01T13:53:27Z</time>
      </trkpt>
      <trkpt lat="44.09211" lon="7.41847">
        <ele>2407.7600097656</ele>
        <time>2011-10-01T13:53:38Z</time>
      </trkpt>
      <trkpt lat="44.09211" lon="7.41846">
        <ele>2406.3200683594</ele>
        <time>2011-10-01T13:53:40Z</time>
      </trkpt>
      <trkpt lat="44.09211" lon="7.41841">
        <ele>2402.9499511719</ele>
        <time>2011-10-01T13:53:53Z</time>
      </trkpt>
      <trkpt lat="44.09208" lon="7.4184">
        <ele>2400.5500488281</ele>
        <time>2011-10-01T13:54:04Z</time>
      </trkpt>
      <trkpt lat="44.09204" lon="7.41831">
        <ele>2397.669921875</ele>
        <time>2011-10-01T13:54:17Z</time>
      </trkpt>
      <trkpt lat="44.09204" lon="7.41831">
        <ele>2397.669921875</ele>
        <time>2011-10-01T13:54:18Z</time>
      </trkpt>
      <trkpt lat="44.09203" lon="7.41831">
        <ele>2396.2199707031</ele>
        <time>2011-10-01T13:54:20Z</time>
      </trkpt>
      <trkpt lat="44.09203" lon="7.41829">
        <ele>2395.7399902344</ele>
        <time>2011-10-01T13:54:22Z</time>
      </trkpt>
      <trkpt lat="44.09203" lon="7.41825">
        <ele>2394.7800292969</ele>
        <time>2011-10-01T13:54:28Z</time>
      </trkpt>
      <trkpt lat="44.09197" lon="7.4183">
        <ele>2391.8999023438</ele>
        <time>2011-10-01T13:54:40Z</time>
      </trkpt>
      <trkpt lat="44.09196" lon="7.4183">
        <ele>2391.419921875</ele>
        <time>2011-10-01T13:54:41Z</time>
      </trkpt>
      <trkpt lat="44.09195" lon="7.41826">
        <ele>2389.0100097656</ele>
        <time>2011-10-01T13:54:47Z</time>
      </trkpt>
      <trkpt lat="44.09194" lon="7.41819">
        <ele>2387.0900878906</ele>
        <time>2011-10-01T13:54:54Z</time>
      </trkpt>
      <trkpt lat="44.09195" lon="7.41801">
        <ele>2387.0900878906</ele>
        <time>2011-10-01T13:55:07Z</time>
      </trkpt>
      <trkpt lat="44.09199" lon="7.41795">
        <ele>2385.169921875</ele>
        <time>2011-10-01T13:55:19Z</time>
      </trkpt>
      <trkpt lat="44.09199" lon="7.41794">
        <ele>2384.6899414062</ele>
        <time>2011-10-01T13:55:20Z</time>
      </trkpt>
      <trkpt lat="44.092" lon="7.4179">
        <ele>2383.25</ele>
        <time>2011-10-01T13:55:23Z</time>
      </trkpt>
      <trkpt lat="44.092" lon="7.41785">
        <ele>2383.25</ele>
        <time>2011-10-01T13:55:26Z</time>
      </trkpt>
      <trkpt lat="44.09198" lon="7.41781">
        <ele>2381.8000488281</ele>
        <time>2011-10-01T13:55:29Z</time>
      </trkpt>
      <trkpt lat="44.09199" lon="7.41771">
        <ele>2378.919921875</ele>
        <time>2011-10-01T13:55:36Z</time>
      </trkpt>
      <trkpt lat="44.09199" lon="7.41767">
        <ele>2379.3999023438</ele>
        <time>2011-10-01T13:55:39Z</time>
      </trkpt>
      <trkpt lat="44.09196" lon="7.41765">
        <ele>2377.4799804688</ele>
        <time>2011-10-01T13:55:42Z</time>
      </trkpt>
      <trkpt lat="44.09195" lon="7.41764">
        <ele>2377.4799804688</ele>
        <time>2011-10-01T13:55:43Z</time>
      </trkpt>
      <trkpt lat="44.09192" lon="7.4176">
        <ele>2376.0400390625</ele>
        <time>2011-10-01T13:55:46Z</time>
      </trkpt>
      <trkpt lat="44.09185" lon="7.41753">
        <ele>2375.5500488281</ele>
        <time>2011-10-01T13:55:51Z</time>
      </trkpt>
      <trkpt lat="44.09182" lon="7.41743">
        <ele>2373.1499023438</ele>
        <time>2011-10-01T13:55:59Z</time>
      </trkpt>
      <trkpt lat="44.09175" lon="7.41741">
        <ele>2369.3100585938</ele>
        <time>2011-10-01T13:56:06Z</time>
      </trkpt>
      <trkpt lat="44.09174" lon="7.41739">
        <ele>2368.830078125</ele>
        <time>2011-10-01T13:56:10Z</time>
      </trkpt>
      <trkpt lat="44.09174" lon="7.41736">
        <ele>2367.3798828125</ele>
        <time>2011-10-01T13:56:14Z</time>
      </trkpt>
      <trkpt lat="44.09174" lon="7.41734">
        <ele>2366.419921875</ele>
        <time>2011-10-01T13:56:16Z</time>
      </trkpt>
      <trkpt lat="44.09169" lon="7.41733">
        <ele>2364.5</ele>
        <time>2011-10-01T13:56:29Z</time>
      </trkpt>
      <trkpt lat="44.0917" lon="7.41726">
        <ele>2361.6201171875</ele>
        <time>2011-10-01T13:56:36Z</time>
      </trkpt>
      <trkpt lat="44.09172" lon="7.41719">
        <ele>2359.2099609375</ele>
        <time>2011-10-01T13:56:44Z</time>
      </trkpt>
      <trkpt lat="44.09174" lon="7.41717">
        <ele>2357.2900390625</ele>
        <time>2011-10-01T13:56:48Z</time>
      </trkpt>
      <trkpt lat="44.09174" lon="7.41716">
        <ele>2356.330078125</ele>
        <time>2011-10-01T13:56:50Z</time>
      </trkpt>
      <trkpt lat="44.09179" lon="7.41706">
        <ele>2352.9599609375</ele>
        <time>2011-10-01T13:57:02Z</time>
      </trkpt>
      <trkpt lat="44.09175" lon="7.41703">
        <ele>2351.0400390625</ele>
        <time>2011-10-01T13:57:09Z</time>
      </trkpt>
      <trkpt lat="44.09173" lon="7.41702">
        <ele>2349.6000976562</ele>
        <time>2011-10-01T13:57:12Z</time>
      </trkpt>
      <trkpt lat="44.09173" lon="7.41694">
        <ele>2346.2299804688</ele>
        <time>2011-10-01T13:57:19Z</time>
      </trkpt>
      <trkpt lat="44.09172" lon="7.41688">
        <ele>2343.830078125</ele>
        <time>2011-10-01T13:57:25Z</time>
      </trkpt>
      <trkpt lat="44.0917" lon="7.41685">
        <ele>2342.3898925781</ele>
        <time>2011-10-01T13:57:27Z</time>
      </trkpt>
      <trkpt lat="44.09163" lon="7.41668">
        <ele>2340.9499511719</ele>
        <time>2011-10-01T13:57:37Z</time>
      </trkpt>
      <trkpt lat="44.09163" lon="7.41665">
        <ele>2340.4699707031</ele>
        <time>2011-10-01T13:57:39Z</time>
      </trkpt>
      <trkpt lat="44.0916" lon="7.41659">
        <ele>2339.5100097656</ele>
        <time>2011-10-01T13:57:43Z</time>
      </trkpt>
      <trkpt lat="44.09156" lon="7.41648">
        <ele>2337.1000976562</ele>
        <time>2011-10-01T13:57:51Z</time>
      </trkpt>
      <trkpt lat="44.09151" lon="7.41645">
        <ele>2334.2199707031</ele>
        <time>2011-10-01T13:57:59Z</time>
      </trkpt>
      <trkpt lat="44.09149" lon="7.41645">
        <ele>2333.2600097656</ele>
        <time>2011-10-01T13:58:03Z</time>
      </trkpt>
      <trkpt lat="44.09148" lon="7.41645">
        <ele>2332.3000488281</ele>
        <time>2011-10-01T13:58:04Z</time>
      </trkpt>
      <trkpt lat="44.09143" lon="7.4164">
        <ele>2330.3701171875</ele>
        <time>2011-10-01T13:58:16Z</time>
      </trkpt>
      <trkpt lat="44.09139" lon="7.41641">
        <ele>2327.9699707031</ele>
        <time>2011-10-01T13:58:37Z</time>
      </trkpt>
      <trkpt lat="44.09135" lon="7.41637">
        <ele>2326.0500488281</ele>
        <time>2011-10-01T13:58:44Z</time>
      </trkpt>
      <trkpt lat="44.09135" lon="7.41635">
        <ele>2325.5700683594</ele>
        <time>2011-10-01T13:58:46Z</time>
      </trkpt>
      <trkpt lat="44.09133" lon="7.41633">
        <ele>2324.6101074219</ele>
        <time>2011-10-01T13:58:54Z</time>
      </trkpt>
      <trkpt lat="44.09131" lon="7.41633">
        <ele>2324.1201171875</ele>
        <time>2011-10-01T13:58:56Z</time>
      </trkpt>
      <trkpt lat="44.09126" lon="7.41628">
        <ele>2321.2399902344</ele>
        <time>2011-10-01T13:59:06Z</time>
      </trkpt>
      <trkpt lat="44.0912" lon="7.41625">
        <ele>2320.2800292969</ele>
        <time>2011-10-01T13:59:19Z</time>
      </trkpt>
      <trkpt lat="44.09116" lon="7.41618">
        <ele>2318.3601074219</ele>
        <time>2011-10-01T13:59:27Z</time>
      </trkpt>
      <trkpt lat="44.09114" lon="7.41618">
        <ele>2316.9099121094</ele>
        <time>2011-10-01T13:59:38Z</time>
      </trkpt>
      <trkpt lat="44.09113" lon="7.41617">
        <ele>2316.9099121094</ele>
        <time>2011-10-01T13:59:43Z</time>
      </trkpt>
      <trkpt lat="44.09112" lon="7.41613">
        <ele>2315.9499511719</ele>
        <time>2011-10-01T13:59:47Z</time>
      </trkpt>
      <trkpt lat="44.09107" lon="7.41594">
        <ele>2314.0300292969</ele>
        <time>2011-10-01T14:00:00Z</time>
      </trkpt>
      <trkpt lat="44.09106" lon="7.41589">
        <ele>2311.6298828125</ele>
        <time>2011-10-01T14:00:03Z</time>
      </trkpt>
      <trkpt lat="44.09104" lon="7.41582">
        <ele>2311.6298828125</ele>
        <time>2011-10-01T14:00:07Z</time>
      </trkpt>
      <trkpt lat="44.09099" lon="7.41573">
        <ele>2307.3000488281</ele>
        <time>2011-10-01T14:00:16Z</time>
      </trkpt>
      <trkpt lat="44.09098" lon="7.41573">
        <ele>2308.2600097656</ele>
        <time>2011-10-01T14:00:17Z</time>
      </trkpt>
      <trkpt lat="44.09096" lon="7.41567">
        <ele>2306.8200683594</ele>
        <time>2011-10-01T14:00:22Z</time>
      </trkpt>
      <trkpt lat="44.09091" lon="7.4156">
        <ele>2304.419921875</ele>
        <time>2011-10-01T14:00:31Z</time>
      </trkpt>
      <trkpt lat="44.09085" lon="7.41546">
        <ele>2301.5300292969</ele>
        <time>2011-10-01T14:00:40Z</time>
      </trkpt>
      <trkpt lat="44.09084" lon="7.41543">
        <ele>2301.0500488281</ele>
        <time>2011-10-01T14:00:42Z</time>
      </trkpt>
      <trkpt lat="44.0908" lon="7.41538">
        <ele>2299.6101074219</ele>
        <time>2011-10-01T14:00:46Z</time>
      </trkpt>
      <trkpt lat="44.09074" lon="7.41531">
        <ele>2298.6499023438</ele>
        <time>2011-10-01T14:00:50Z</time>
      </trkpt>
      <trkpt lat="44.09071" lon="7.41522">
        <ele>2298.169921875</ele>
        <time>2011-10-01T14:00:54Z</time>
      </trkpt>
      <trkpt lat="44.09065" lon="7.41504">
        <ele>2295.2800292969</ele>
        <time>2011-10-01T14:01:04Z</time>
      </trkpt>
      <trkpt lat="44.09058" lon="7.41501">
        <ele>2294.3200683594</ele>
        <time>2011-10-01T14:01:15Z</time>
      </trkpt>
      <trkpt lat="44.09049" lon="7.41501">
        <ele>2293.8400878906</ele>
        <time>2011-10-01T14:01:29Z</time>
      </trkpt>
      <trkpt lat="44.09045" lon="7.41502">
        <ele>2292.8798828125</ele>
        <time>2011-10-01T14:01:49Z</time>
      </trkpt>
      <trkpt lat="44.09042" lon="7.41506">
        <ele>2290.9599609375</ele>
        <time>2011-10-01T14:01:53Z</time>
      </trkpt>
      <trkpt lat="44.09039" lon="7.41513">
        <ele>2288.5600585938</ele>
        <time>2011-10-01T14:01:59Z</time>
      </trkpt>
      <trkpt lat="44.09036" lon="7.41514">
        <ele>2288.5600585938</ele>
        <time>2011-10-01T14:02:01Z</time>
      </trkpt>
      <trkpt lat="44.09032" lon="7.41522">
        <ele>2286.6298828125</ele>
        <time>2011-10-01T14:02:15Z</time>
      </trkpt>
      <trkpt lat="44.0903" lon="7.41525">
        <ele>2284.7099609375</ele>
        <time>2011-10-01T14:02:33Z</time>
      </trkpt>
      <trkpt lat="44.09027" lon="7.41522">
        <ele>2285.669921875</ele>
        <time>2011-10-01T14:03:01Z</time>
      </trkpt>
      <trkpt lat="44.09022" lon="7.41517">
        <ele>2284.7099609375</ele>
        <time>2011-10-01T14:03:07Z</time>
      </trkpt>
      <trkpt lat="44.09014" lon="7.41496">
        <ele>2285.1899414062</ele>
        <time>2011-10-01T14:03:24Z</time>
      </trkpt>
      <trkpt lat="44.09013" lon="7.41495">
        <ele>2285.669921875</ele>
        <time>2011-10-01T14:03:32Z</time>
      </trkpt>
      <trkpt lat="44.09011" lon="7.41494">
        <ele>2284.7099609375</ele>
        <time>2011-10-01T14:03:34Z</time>
      </trkpt>
      <trkpt lat="44.09005" lon="7.41494">
        <ele>2283.2700195312</ele>
        <time>2011-10-01T14:03:49Z</time>
      </trkpt>
      <trkpt lat="44.09013" lon="7.4149">
        <ele>2284.7099609375</ele>
        <time>2011-10-01T14:04:06Z</time>
      </trkpt>
      <trkpt lat="44.0901" lon="7.41482">
        <ele>2286.1499023438</ele>
        <time>2011-10-01T14:04:20Z</time>
      </trkpt>
      <trkpt lat="44.0901" lon="7.41481">
        <ele>2285.1899414062</ele>
        <time>2011-10-01T14:04:21Z</time>
      </trkpt>
      <trkpt lat="44.09005" lon="7.41463">
        <ele>2285.1899414062</ele>
        <time>2011-10-01T14:04:35Z</time>
      </trkpt>
      <trkpt lat="44.09002" lon="7.41457">
        <ele>2286.1499023438</ele>
        <time>2011-10-01T14:04:41Z</time>
      </trkpt>
      <trkpt lat="44.09002" lon="7.41456">
        <ele>2287.1101074219</ele>
        <time>2011-10-01T14:04:43Z</time>
      </trkpt>
      <trkpt lat="44.09002" lon="7.41457">
        <ele>2286.6298828125</ele>
        <time>2011-10-01T14:04:48Z</time>
      </trkpt>
      <trkpt lat="44.08996" lon="7.41446">
        <ele>2285.1899414062</ele>
        <time>2011-10-01T14:05:09Z</time>
      </trkpt>
      <trkpt lat="44.08996" lon="7.41445">
        <ele>2284.7099609375</ele>
        <time>2011-10-01T14:05:10Z</time>
      </trkpt>
      <trkpt lat="44.08993" lon="7.41438">
        <ele>2284.2299804688</ele>
        <time>2011-10-01T14:05:15Z</time>
      </trkpt>
      <trkpt lat="44.08986" lon="7.41411">
        <ele>2281.3500976562</ele>
        <time>2011-10-01T14:05:29Z</time>
      </trkpt>
      <trkpt lat="44.08984" lon="7.41407">
        <ele>2280.3798828125</ele>
        <time>2011-10-01T14:05:31Z</time>
      </trkpt>
      <trkpt lat="44.08979" lon="7.41397">
        <ele>2278.9399414062</ele>
        <time>2011-10-01T14:05:36Z</time>
      </trkpt>
      <trkpt lat="44.08979" lon="7.41391">
        <ele>2278.4599609375</ele>
        <time>2011-10-01T14:05:41Z</time>
      </trkpt>
      <trkpt lat="44.08976" lon="7.41391">
        <ele>2277.0200195312</ele>
        <time>2011-10-01T14:05:44Z</time>
      </trkpt>
      <trkpt lat="44.08972" lon="7.41387">
        <ele>2275.1000976562</ele>
        <time>2011-10-01T14:05:51Z</time>
      </trkpt>
      <trkpt lat="44.0897" lon="7.41384">
        <ele>2273.169921875</ele>
        <time>2011-10-01T14:05:55Z</time>
      </trkpt>
      <trkpt lat="44.08964" lon="7.41381">
        <ele>2269.8100585938</ele>
        <time>2011-10-01T14:06:00Z</time>
      </trkpt>
      <trkpt lat="44.08962" lon="7.41375">
        <ele>2268.8500976562</ele>
        <time>2011-10-01T14:06:04Z</time>
      </trkpt>
      <trkpt lat="44.08967" lon="7.4137">
        <ele>2267.8898925781</ele>
        <time>2011-10-01T14:06:10Z</time>
      </trkpt>
      <trkpt lat="44.08969" lon="7.41366">
        <ele>2265.9599609375</ele>
        <time>2011-10-01T14:06:16Z</time>
      </trkpt>
      <trkpt lat="44.08967" lon="7.41361">
        <ele>2263.5600585938</ele>
        <time>2011-10-01T14:06:23Z</time>
      </trkpt>
      <trkpt lat="44.08963" lon="7.41357">
        <ele>2261.1599121094</ele>
        <time>2011-10-01T14:06:33Z</time>
      </trkpt>
      <trkpt lat="44.08961" lon="7.41355">
        <ele>2260.1999511719</ele>
        <time>2011-10-01T14:06:35Z</time>
      </trkpt>
      <trkpt lat="44.08963" lon="7.41348">
        <ele>2256.830078125</ele>
        <time>2011-10-01T14:06:44Z</time>
      </trkpt>
      <trkpt lat="44.08963" lon="7.41347">
        <ele>2256.830078125</ele>
        <time>2011-10-01T14:06:45Z</time>
      </trkpt>
      <trkpt lat="44.08964" lon="7.41347">
        <ele>2257.3100585938</ele>
        <time>2011-10-01T14:06:46Z</time>
      </trkpt>
      <trkpt lat="44.08965" lon="7.41342">
        <ele>2253.9499511719</ele>
        <time>2011-10-01T14:06:54Z</time>
      </trkpt>
      <trkpt lat="44.08963" lon="7.41341">
        <ele>2253.4699707031</ele>
        <time>2011-10-01T14:06:57Z</time>
      </trkpt>
      <trkpt lat="44.08957" lon="7.41342">
        <ele>2251.5400390625</ele>
        <time>2011-10-01T14:07:03Z</time>
      </trkpt>
      <trkpt lat="44.08954" lon="7.41341">
        <ele>2250.1000976562</ele>
        <time>2011-10-01T14:07:07Z</time>
      </trkpt>
      <trkpt lat="44.08952" lon="7.41336">
        <ele>2246.2600097656</ele>
        <time>2011-10-01T14:07:16Z</time>
      </trkpt>
      <trkpt lat="44.08951" lon="7.41336">
        <ele>2247.2199707031</ele>
        <time>2011-10-01T14:07:17Z</time>
      </trkpt>
      <trkpt lat="44.0895" lon="7.41336">
        <ele>2247.2199707031</ele>
        <time>2011-10-01T14:07:18Z</time>
      </trkpt>
      <trkpt lat="44.08944" lon="7.41343">
        <ele>2244.8200683594</ele>
        <time>2011-10-01T14:07:25Z</time>
      </trkpt>
      <trkpt lat="44.08938" lon="7.41348">
        <ele>2243.8500976562</ele>
        <time>2011-10-01T14:07:30Z</time>
      </trkpt>
      <trkpt lat="44.08931" lon="7.41355">
        <ele>2241.4499511719</ele>
        <time>2011-10-01T14:07:38Z</time>
      </trkpt>
      <trkpt lat="44.08928" lon="7.41359">
        <ele>2240.0100097656</ele>
        <time>2011-10-01T14:07:41Z</time>
      </trkpt>
      <trkpt lat="44.08926" lon="7.41367">
        <ele>2237.6101074219</ele>
        <time>2011-10-01T14:07:46Z</time>
      </trkpt>
      <trkpt lat="44.08925" lon="7.41371">
        <ele>2236.1599121094</ele>
        <time>2011-10-01T14:07:48Z</time>
      </trkpt>
      <trkpt lat="44.08923" lon="7.41376">
        <ele>2234.7199707031</ele>
        <time>2011-10-01T14:07:50Z</time>
      </trkpt>
      <trkpt lat="44.08923" lon="7.41387">
        <ele>2234.7199707031</ele>
        <time>2011-10-01T14:07:58Z</time>
      </trkpt>
      <trkpt lat="44.08924" lon="7.41392">
        <ele>2234.7199707031</ele>
        <time>2011-10-01T14:08:01Z</time>
      </trkpt>
      <trkpt lat="44.08923" lon="7.41397">
        <ele>2233.7600097656</ele>
        <time>2011-10-01T14:08:04Z</time>
      </trkpt>
      <trkpt lat="44.08921" lon="7.41395">
        <ele>2232.8000488281</ele>
        <time>2011-10-01T14:08:08Z</time>
      </trkpt>
      <trkpt lat="44.0892" lon="7.41389">
        <ele>2231.8400878906</ele>
        <time>2011-10-01T14:08:12Z</time>
      </trkpt>
      <trkpt lat="44.08917" lon="7.41386">
        <ele>2230.3999023438</ele>
        <time>2011-10-01T14:08:16Z</time>
      </trkpt>
      <trkpt lat="44.08914" lon="7.41372">
        <ele>2228.9499511719</ele>
        <time>2011-10-01T14:08:26Z</time>
      </trkpt>
      <trkpt lat="44.08912" lon="7.41364">
        <ele>2227.0300292969</ele>
        <time>2011-10-01T14:08:31Z</time>
      </trkpt>
      <trkpt lat="44.08907" lon="7.41351">
        <ele>2224.1499023438</ele>
        <time>2011-10-01T14:08:39Z</time>
      </trkpt>
      <trkpt lat="44.08905" lon="7.41349">
        <ele>2222.2199707031</ele>
        <time>2011-10-01T14:08:45Z</time>
      </trkpt>
      <trkpt lat="44.08904" lon="7.41353">
        <ele>2221.2600097656</ele>
        <time>2011-10-01T14:08:48Z</time>
      </trkpt>
      <trkpt lat="44.089" lon="7.41351">
        <ele>2219.8200683594</ele>
        <time>2011-10-01T14:08:55Z</time>
      </trkpt>
      <trkpt lat="44.08897" lon="7.41344">
        <ele>2216.9399414062</ele>
        <time>2011-10-01T14:09:00Z</time>
      </trkpt>
      <trkpt lat="44.08895" lon="7.41338">
        <ele>2214.0500488281</ele>
        <time>2011-10-01T14:09:07Z</time>
      </trkpt>
      <trkpt lat="44.08895" lon="7.41337">
        <ele>2214.5300292969</ele>
        <time>2011-10-01T14:09:08Z</time>
      </trkpt>
      <trkpt lat="44.08894" lon="7.41336">
        <ele>2213.5700683594</ele>
        <time>2011-10-01T14:09:10Z</time>
      </trkpt>
      <trkpt lat="44.08891" lon="7.41334">
        <ele>2212.6101074219</ele>
        <time>2011-10-01T14:09:13Z</time>
      </trkpt>
      <trkpt lat="44.08887" lon="7.41335">
        <ele>2211.6499023438</ele>
        <time>2011-10-01T14:09:17Z</time>
      </trkpt>
      <trkpt lat="44.08882" lon="7.41335">
        <ele>2208.2900390625</ele>
        <time>2011-10-01T14:09:24Z</time>
      </trkpt>
      <trkpt lat="44.0888" lon="7.4133">
        <ele>2205.8798828125</ele>
        <time>2011-10-01T14:09:28Z</time>
      </trkpt>
      <trkpt lat="44.08879" lon="7.41329">
        <ele>2205.3999023438</ele>
        <time>2011-10-01T14:09:29Z</time>
      </trkpt>
      <trkpt lat="44.08876" lon="7.41328">
        <ele>2204.4399414062</ele>
        <time>2011-10-01T14:09:32Z</time>
      </trkpt>
      <trkpt lat="44.08873" lon="7.41328">
        <ele>2203</ele>
        <time>2011-10-01T14:09:34Z</time>
      </trkpt>
      <trkpt lat="44.08868" lon="7.41322">
        <ele>2200.5900878906</ele>
        <time>2011-10-01T14:09:39Z</time>
      </trkpt>
      <trkpt lat="44.08866" lon="7.41321">
        <ele>2199.6298828125</ele>
        <time>2011-10-01T14:09:41Z</time>
      </trkpt>
      <trkpt lat="44.08864" lon="7.41321">
        <ele>2199.6298828125</ele>
        <time>2011-10-01T14:09:43Z</time>
      </trkpt>
      <trkpt lat="44.0886" lon="7.41323">
        <ele>2197.7099609375</ele>
        <time>2011-10-01T14:09:46Z</time>
      </trkpt>
      <trkpt lat="44.08857" lon="7.41323">
        <ele>2195.7900390625</ele>
        <time>2011-10-01T14:09:48Z</time>
      </trkpt>
      <trkpt lat="44.08854" lon="7.4132">
        <ele>2194.830078125</ele>
        <time>2011-10-01T14:09:51Z</time>
      </trkpt>
      <trkpt lat="44.0885" lon="7.41314">
        <ele>2193.8701171875</ele>
        <time>2011-10-01T14:09:58Z</time>
      </trkpt>
      <trkpt lat="44.08849" lon="7.41309">
        <ele>2193.3898925781</ele>
        <time>2011-10-01T14:10:05Z</time>
      </trkpt>
      <trkpt lat="44.0885" lon="7.41308">
        <ele>2191.4599609375</ele>
        <time>2011-10-01T14:10:11Z</time>
      </trkpt>
      <trkpt lat="44.08852" lon="7.41307">
        <ele>2190.0200195312</ele>
        <time>2011-10-01T14:10:14Z</time>
      </trkpt>
      <trkpt lat="44.08852" lon="7.41306">
        <ele>2189.0600585938</ele>
        <time>2011-10-01T14:10:16Z</time>
      </trkpt>
      <trkpt lat="44.0885" lon="7.413">
        <ele>2187.6201171875</ele>
        <time>2011-10-01T14:10:22Z</time>
      </trkpt>
      <trkpt lat="44.08847" lon="7.41296">
        <ele>2185.2099609375</ele>
        <time>2011-10-01T14:10:27Z</time>
      </trkpt>
      <trkpt lat="44.08842" lon="7.41291">
        <ele>2181.8500976562</ele>
        <time>2011-10-01T14:10:36Z</time>
      </trkpt>
      <trkpt lat="44.08841" lon="7.41288">
        <ele>2180.4099121094</ele>
        <time>2011-10-01T14:10:39Z</time>
      </trkpt>
      <trkpt lat="44.08839" lon="7.41281">
        <ele>2176.5600585938</ele>
        <time>2011-10-01T14:10:49Z</time>
      </trkpt>
      <trkpt lat="44.08839" lon="7.4128">
        <ele>2176.5600585938</ele>
        <time>2011-10-01T14:10:50Z</time>
      </trkpt>
      <trkpt lat="44.08838" lon="7.41274">
        <ele>2176.080078125</ele>
        <time>2011-10-01T14:10:59Z</time>
      </trkpt>
      <trkpt lat="44.08837" lon="7.41274">
        <ele>2174.6398925781</ele>
        <time>2011-10-01T14:11:01Z</time>
      </trkpt>
      <trkpt lat="44.08831" lon="7.41266">
        <ele>2172.2399902344</ele>
        <time>2011-10-01T14:11:13Z</time>
      </trkpt>
      <trkpt lat="44.08831" lon="7.41263">
        <ele>2172.7199707031</ele>
        <time>2011-10-01T14:11:16Z</time>
      </trkpt>
      <trkpt lat="44.08829" lon="7.41251">
        <ele>2168.3898925781</ele>
        <time>2011-10-01T14:11:27Z</time>
      </trkpt>
      <trkpt lat="44.08828" lon="7.41245">
        <ele>2165.5100097656</ele>
        <time>2011-10-01T14:11:37Z</time>
      </trkpt>
      <trkpt lat="44.08825" lon="7.41243">
        <ele>2162.1398925781</ele>
        <time>2011-10-01T14:11:50Z</time>
      </trkpt>
      <trkpt lat="44.08824" lon="7.41226">
        <ele>2159.7399902344</ele>
        <time>2011-10-01T14:11:57Z</time>
      </trkpt>
      <trkpt lat="44.08824" lon="7.41223">
        <ele>2159.2600097656</ele>
        <time>2011-10-01T14:11:58Z</time>
      </trkpt>
      <trkpt lat="44.08821" lon="7.41214">
        <ele>2160.2199707031</ele>
        <time>2011-10-01T14:12:02Z</time>
      </trkpt>
      <trkpt lat="44.0882" lon="7.41208">
        <ele>2158.3000488281</ele>
        <time>2011-10-01T14:12:06Z</time>
      </trkpt>
      <trkpt lat="44.08819" lon="7.412">
        <ele>2155.8898925781</ele>
        <time>2011-10-01T14:12:15Z</time>
      </trkpt>
      <trkpt lat="44.08824" lon="7.41188">
        <ele>2151.0900878906</ele>
        <time>2011-10-01T14:12:23Z</time>
      </trkpt>
      <trkpt lat="44.08825" lon="7.41187">
        <ele>2154.4499511719</ele>
        <time>2011-10-01T14:12:24Z</time>
      </trkpt>
      <trkpt lat="44.08821" lon="7.41181">
        <ele>2149.6499023438</ele>
        <time>2011-10-01T14:12:31Z</time>
      </trkpt>
      <trkpt lat="44.0882" lon="7.41178">
        <ele>2150.6101074219</ele>
        <time>2011-10-01T14:12:33Z</time>
      </trkpt>
      <trkpt lat="44.0882" lon="7.41176">
        <ele>2151.5700683594</ele>
        <time>2011-10-01T14:12:35Z</time>
      </trkpt>
      <trkpt lat="44.08817" lon="7.41174">
        <ele>2149.6499023438</ele>
        <time>2011-10-01T14:12:42Z</time>
      </trkpt>
      <trkpt lat="44.08816" lon="7.41173">
        <ele>2150.1298828125</ele>
        <time>2011-10-01T14:12:43Z</time>
      </trkpt>
      <trkpt lat="44.08813" lon="7.41165">
        <ele>2146.7600097656</ele>
        <time>2011-10-01T14:12:51Z</time>
      </trkpt>
      <trkpt lat="44.08809" lon="7.41162">
        <ele>2143.3999023438</ele>
        <time>2011-10-01T14:13:02Z</time>
      </trkpt>
      <trkpt lat="44.08808" lon="7.41161">
        <ele>2142.4399414062</ele>
        <time>2011-10-01T14:13:04Z</time>
      </trkpt>
      <trkpt lat="44.08808" lon="7.4116">
        <ele>2142.919921875</ele>
        <time>2011-10-01T14:13:05Z</time>
      </trkpt>
      <trkpt lat="44.08805" lon="7.41143">
        <ele>2140.0300292969</ele>
        <time>2011-10-01T14:13:14Z</time>
      </trkpt>
      <trkpt lat="44.08804" lon="7.4114">
        <ele>2139.0700683594</ele>
        <time>2011-10-01T14:13:17Z</time>
      </trkpt>
      <trkpt lat="44.08803" lon="7.41136">
        <ele>2137.1499023438</ele>
        <time>2011-10-01T14:13:20Z</time>
      </trkpt>
      <trkpt lat="44.088" lon="7.41139">
        <ele>2136.669921875</ele>
        <time>2011-10-01T14:13:24Z</time>
      </trkpt>
      <trkpt lat="44.08798" lon="7.41137">
        <ele>2134.7399902344</ele>
        <time>2011-10-01T14:13:28Z</time>
      </trkpt>
      <trkpt lat="44.08796" lon="7.4113">
        <ele>2132.8200683594</ele>
        <time>2011-10-01T14:13:34Z</time>
      </trkpt>
      <trkpt lat="44.08795" lon="7.41128">
        <ele>2132.3400878906</ele>
        <time>2011-10-01T14:13:36Z</time>
      </trkpt>
      <trkpt lat="44.08792" lon="7.41126">
        <ele>2129.9399414062</ele>
        <time>2011-10-01T14:13:39Z</time>
      </trkpt>
      <trkpt lat="44.0879" lon="7.41122">
        <ele>2128.9799804688</ele>
        <time>2011-10-01T14:13:44Z</time>
      </trkpt>
      <trkpt lat="44.08786" lon="7.41114">
        <ele>2126.5700683594</ele>
        <time>2011-10-01T14:13:54Z</time>
      </trkpt>
      <trkpt lat="44.08786" lon="7.4111">
        <ele>2126.5700683594</ele>
        <time>2011-10-01T14:14:04Z</time>
      </trkpt>
      <trkpt lat="44.08785" lon="7.4111">
        <ele>2124.6499023438</ele>
        <time>2011-10-01T14:14:08Z</time>
      </trkpt>
      <trkpt lat="44.08779" lon="7.41101">
        <ele>2124.169921875</ele>
        <time>2011-10-01T14:14:24Z</time>
      </trkpt>
      <trkpt lat="44.08779" lon="7.41104">
        <ele>2124.6499023438</ele>
        <time>2011-10-01T14:14:29Z</time>
      </trkpt>
      <trkpt lat="44.08779" lon="7.41107">
        <ele>2125.1298828125</ele>
        <time>2011-10-01T14:14:33Z</time>
      </trkpt>
      <trkpt lat="44.08775" lon="7.41109">
        <ele>2128.0200195312</ele>
        <time>2011-10-01T14:14:40Z</time>
      </trkpt>
      <trkpt lat="44.08773" lon="7.41106">
        <ele>2128.5</ele>
        <time>2011-10-01T14:14:54Z</time>
      </trkpt>
      <trkpt lat="44.08773" lon="7.41105">
        <ele>2127.5300292969</ele>
        <time>2011-10-01T14:14:56Z</time>
      </trkpt>
      <trkpt lat="44.08767" lon="7.41091">
        <ele>2127.0500488281</ele>
        <time>2011-10-01T14:15:15Z</time>
      </trkpt>
      <trkpt lat="44.0876" lon="7.41079">
        <ele>2127.5300292969</ele>
        <time>2011-10-01T14:15:20Z</time>
      </trkpt>
      <trkpt lat="44.08757" lon="7.41067">
        <ele>2129.4599609375</ele>
        <time>2011-10-01T14:15:32Z</time>
      </trkpt>
      <trkpt lat="44.08752" lon="7.41064">
        <ele>2128.5</ele>
        <time>2011-10-01T14:15:36Z</time>
      </trkpt>
      <trkpt lat="44.0875" lon="7.41055">
        <ele>2127.0500488281</ele>
        <time>2011-10-01T14:15:44Z</time>
      </trkpt>
      <trkpt lat="44.08746" lon="7.41051">
        <ele>2124.6499023438</ele>
        <time>2011-10-01T14:15:53Z</time>
      </trkpt>
      <trkpt lat="44.08743" lon="7.41046">
        <ele>2122.25</ele>
        <time>2011-10-01T14:15:59Z</time>
      </trkpt>
      <trkpt lat="44.08744" lon="7.41044">
        <ele>2122.25</ele>
        <time>2011-10-01T14:16:02Z</time>
      </trkpt>
      <trkpt lat="44.08743" lon="7.41044">
        <ele>2121.2900390625</ele>
        <time>2011-10-01T14:16:04Z</time>
      </trkpt>
      <trkpt lat="44.0874" lon="7.41034">
        <ele>2117.4399414062</ele>
        <time>2011-10-01T14:16:15Z</time>
      </trkpt>
      <trkpt lat="44.0874" lon="7.41033">
        <ele>2116.9599609375</ele>
        <time>2011-10-01T14:16:16Z</time>
      </trkpt>
      <trkpt lat="44.08739" lon="7.41029">
        <ele>2116.4799804688</ele>
        <time>2011-10-01T14:16:19Z</time>
      </trkpt>
      <trkpt lat="44.08738" lon="7.41025">
        <ele>2115.0400390625</ele>
        <time>2011-10-01T14:16:22Z</time>
      </trkpt>
      <trkpt lat="44.08736" lon="7.41018">
        <ele>2113.1201171875</ele>
        <time>2011-10-01T14:16:30Z</time>
      </trkpt>
      <trkpt lat="44.08737" lon="7.41014">
        <ele>2110.2299804688</ele>
        <time>2011-10-01T14:16:34Z</time>
      </trkpt>
      <trkpt lat="44.08737" lon="7.4101">
        <ele>2108.3100585938</ele>
        <time>2011-10-01T14:16:41Z</time>
      </trkpt>
      <trkpt lat="44.08733" lon="7.41006">
        <ele>2106.8701171875</ele>
        <time>2011-10-01T14:16:46Z</time>
      </trkpt>
      <trkpt lat="44.08727" lon="7.41002">
        <ele>2103.5</ele>
        <time>2011-10-01T14:16:52Z</time>
      </trkpt>
      <trkpt lat="44.08725" lon="7.40996">
        <ele>2100.1398925781</ele>
        <time>2011-10-01T14:16:59Z</time>
      </trkpt>
      <trkpt lat="44.08724" lon="7.40995">
        <ele>2100.1398925781</ele>
        <time>2011-10-01T14:17:00Z</time>
      </trkpt>
      <trkpt lat="44.08718" lon="7.4099">
        <ele>2098.2099609375</ele>
        <time>2011-10-01T14:17:05Z</time>
      </trkpt>
      <trkpt lat="44.08709" lon="7.40988">
        <ele>2095.330078125</ele>
        <time>2011-10-01T14:17:14Z</time>
      </trkpt>
      <trkpt lat="44.08707" lon="7.40989">
        <ele>2094.8500976562</ele>
        <time>2011-10-01T14:17:15Z</time>
      </trkpt>
      <trkpt lat="44.08702" lon="7.40989">
        <ele>2094.8500976562</ele>
        <time>2011-10-01T14:17:18Z</time>
      </trkpt>
      <trkpt lat="44.087" lon="7.40978">
        <ele>2093.8898925781</ele>
        <time>2011-10-01T14:17:26Z</time>
      </trkpt>
      <trkpt lat="44.08701" lon="7.40976">
        <ele>2092.9299316406</ele>
        <time>2011-10-01T14:17:28Z</time>
      </trkpt>
      <trkpt lat="44.08699" lon="7.40969">
        <ele>2092.4499511719</ele>
        <time>2011-10-01T14:17:33Z</time>
      </trkpt>
      <trkpt lat="44.08695" lon="7.40952">
        <ele>2090.5200195312</ele>
        <time>2011-10-01T14:17:44Z</time>
      </trkpt>
      <trkpt lat="44.08689" lon="7.40951">
        <ele>2089.080078125</ele>
        <time>2011-10-01T14:17:55Z</time>
      </trkpt>
      <trkpt lat="44.08686" lon="7.40943">
        <ele>2085.2399902344</ele>
        <time>2011-10-01T14:18:03Z</time>
      </trkpt>
      <trkpt lat="44.08683" lon="7.40936">
        <ele>2083.7900390625</ele>
        <time>2011-10-01T14:18:12Z</time>
      </trkpt>
      <trkpt lat="44.08677" lon="7.40932">
        <ele>2081.8701171875</ele>
        <time>2011-10-01T14:18:20Z</time>
      </trkpt>
      <trkpt lat="44.08676" lon="7.40931">
        <ele>2082.830078125</ele>
        <time>2011-10-01T14:18:21Z</time>
      </trkpt>
      <trkpt lat="44.08675" lon="7.40926">
        <ele>2080.9099121094</ele>
        <time>2011-10-01T14:18:25Z</time>
      </trkpt>
      <trkpt lat="44.08673" lon="7.40921">
        <ele>2079.9499511719</ele>
        <time>2011-10-01T14:18:29Z</time>
      </trkpt>
      <trkpt lat="44.08672" lon="7.40918">
        <ele>2078.5100097656</ele>
        <time>2011-10-01T14:18:32Z</time>
      </trkpt>
      <trkpt lat="44.08673" lon="7.40914">
        <ele>2077.5500488281</ele>
        <time>2011-10-01T14:18:36Z</time>
      </trkpt>
      <trkpt lat="44.08673" lon="7.40913">
        <ele>2076.5900878906</ele>
        <time>2011-10-01T14:18:38Z</time>
      </trkpt>
      <trkpt lat="44.08672" lon="7.40909">
        <ele>2076.1000976562</ele>
        <time>2011-10-01T14:18:42Z</time>
      </trkpt>
      <trkpt lat="44.08666" lon="7.40897">
        <ele>2072.7399902344</ele>
        <time>2011-10-01T14:18:50Z</time>
      </trkpt>
      <trkpt lat="44.08664" lon="7.40889">
        <ele>2071.7800292969</ele>
        <time>2011-10-01T14:18:55Z</time>
      </trkpt>
      <trkpt lat="44.08664" lon="7.40884">
        <ele>2069.8601074219</ele>
        <time>2011-10-01T14:18:58Z</time>
      </trkpt>
      <trkpt lat="44.08652" lon="7.40876">
        <ele>2066.9699707031</ele>
        <time>2011-10-01T14:19:08Z</time>
      </trkpt>
      <trkpt lat="44.0865" lon="7.40873">
        <ele>2065.0500488281</ele>
        <time>2011-10-01T14:19:10Z</time>
      </trkpt>
      <trkpt lat="44.08647" lon="7.40865">
        <ele>2063.1298828125</ele>
        <time>2011-10-01T14:19:18Z</time>
      </trkpt>
      <trkpt lat="44.08646" lon="7.40857">
        <ele>2059.7600097656</ele>
        <time>2011-10-01T14:19:33Z</time>
      </trkpt>
      <trkpt lat="44.08641" lon="7.40856">
        <ele>2057.8400878906</ele>
        <time>2011-10-01T14:19:40Z</time>
      </trkpt>
      <trkpt lat="44.08635" lon="7.40854">
        <ele>2054.4699707031</ele>
        <time>2011-10-01T14:19:49Z</time>
      </trkpt>
      <trkpt lat="44.08635" lon="7.40853">
        <ele>2054.9599609375</ele>
        <time>2011-10-01T14:19:50Z</time>
      </trkpt>
      <trkpt lat="44.08634" lon="7.40848">
        <ele>2052.0700683594</ele>
        <time>2011-10-01T14:19:57Z</time>
      </trkpt>
      <trkpt lat="44.08632" lon="7.40845">
        <ele>2051.1101074219</ele>
        <time>2011-10-01T14:20:00Z</time>
      </trkpt>
      <trkpt lat="44.08624" lon="7.40835">
        <ele>2047.75</ele>
        <time>2011-10-01T14:20:11Z</time>
      </trkpt>
      <trkpt lat="44.08614" lon="7.40819">
        <ele>2045.8199462891</ele>
        <time>2011-10-01T14:20:22Z</time>
      </trkpt>
      <trkpt lat="44.08614" lon="7.4081">
        <ele>2044.3800048828</ele>
        <time>2011-10-01T14:20:34Z</time>
      </trkpt>
      <trkpt lat="44.08614" lon="7.40809">
        <ele>2043.9000244141</ele>
        <time>2011-10-01T14:20:36Z</time>
      </trkpt>
      <trkpt lat="44.08613" lon="7.40802">
        <ele>2041.9799804688</ele>
        <time>2011-10-01T14:20:41Z</time>
      </trkpt>
      <trkpt lat="44.08604" lon="7.40787">
        <ele>2041.5</ele>
        <time>2011-10-01T14:20:55Z</time>
      </trkpt>
      <trkpt lat="44.08603" lon="7.40776">
        <ele>2038.6099853516</ele>
        <time>2011-10-01T14:21:03Z</time>
      </trkpt>
      <trkpt lat="44.08596" lon="7.4077">
        <ele>2034.7700195312</ele>
        <time>2011-10-01T14:21:11Z</time>
      </trkpt>
      <trkpt lat="44.08587" lon="7.40765">
        <ele>2032.3599853516</ele>
        <time>2011-10-01T14:21:19Z</time>
      </trkpt>
      <trkpt lat="44.08578" lon="7.40755">
        <ele>2029.4799804688</ele>
        <time>2011-10-01T14:21:29Z</time>
      </trkpt>
      <trkpt lat="44.08579" lon="7.40751">
        <ele>2029.9599609375</ele>
        <time>2011-10-01T14:21:32Z</time>
      </trkpt>
      <trkpt lat="44.08575" lon="7.40745">
        <ele>2029</ele>
        <time>2011-10-01T14:21:39Z</time>
      </trkpt>
      <trkpt lat="44.08569" lon="7.40742">
        <ele>2027.5600585938</ele>
        <time>2011-10-01T14:21:46Z</time>
      </trkpt>
      <trkpt lat="44.08566" lon="7.4074">
        <ele>2026.1199951172</ele>
        <time>2011-10-01T14:21:49Z</time>
      </trkpt>
      <trkpt lat="44.08562" lon="7.40736">
        <ele>2025.1500244141</ele>
        <time>2011-10-01T14:22:03Z</time>
      </trkpt>
      <trkpt lat="44.08562" lon="7.40737">
        <ele>2024.1899414062</ele>
        <time>2011-10-01T14:22:17Z</time>
      </trkpt>
      <trkpt lat="44.08562" lon="7.40737">
        <ele>2023.7099609375</ele>
        <time>2011-10-01T14:22:33Z</time>
      </trkpt>
      <trkpt lat="44.08563" lon="7.40737">
        <ele>2025.6400146484</ele>
        <time>2011-10-01T14:22:36Z</time>
      </trkpt>
      <trkpt lat="44.08561" lon="7.40737">
        <ele>2024.6700439453</ele>
        <time>2011-10-01T14:23:28Z</time>
      </trkpt>
      <trkpt lat="44.0856" lon="7.40736">
        <ele>2023.2299804688</ele>
        <time>2011-10-01T14:23:57Z</time>
      </trkpt>
      <trkpt lat="44.0856" lon="7.40736">
        <ele>2020.3499755859</ele>
        <time>2011-10-01T14:25:26Z</time>
      </trkpt>
      <trkpt lat="44.08559" lon="7.40735">
        <ele>2021.7900390625</ele>
        <time>2011-10-01T14:26:00Z</time>
      </trkpt>
      <trkpt lat="44.08554" lon="7.40733">
        <ele>2018.9100341797</ele>
        <time>2011-10-01T14:26:10Z</time>
      </trkpt>
      <trkpt lat="44.08546" lon="7.40728">
        <ele>2016.0200195312</ele>
        <time>2011-10-01T14:26:25Z</time>
      </trkpt>
      <trkpt lat="44.08545" lon="7.40728">
        <ele>2015.5400390625</ele>
        <time>2011-10-01T14:26:27Z</time>
      </trkpt>
      <trkpt lat="44.08536" lon="7.4073">
        <ele>2013.6199951172</ele>
        <time>2011-10-01T14:26:41Z</time>
      </trkpt>
      <trkpt lat="44.08529" lon="7.4074">
        <ele>2011.2199707031</ele>
        <time>2011-10-01T14:26:55Z</time>
      </trkpt>
      <trkpt lat="44.08524" lon="7.40738">
        <ele>2010.25</ele>
        <time>2011-10-01T14:27:01Z</time>
      </trkpt>
      <trkpt lat="44.08521" lon="7.40737">
        <ele>2008.8100585938</ele>
        <time>2011-10-01T14:27:04Z</time>
      </trkpt>
      <trkpt lat="44.08517" lon="7.40733">
        <ele>2006.8900146484</ele>
        <time>2011-10-01T14:27:08Z</time>
      </trkpt>
      <trkpt lat="44.08516" lon="7.4073">
        <ele>2005.4499511719</ele>
        <time>2011-10-01T14:27:10Z</time>
      </trkpt>
      <trkpt lat="44.08507" lon="7.40734">
        <ele>2003.0400390625</ele>
        <time>2011-10-01T14:27:17Z</time>
      </trkpt>
      <trkpt lat="44.08504" lon="7.40736">
        <ele>2002.5600585938</ele>
        <time>2011-10-01T14:27:19Z</time>
      </trkpt>
      <trkpt lat="44.08501" lon="7.40735">
        <ele>2000.1600341797</ele>
        <time>2011-10-01T14:27:23Z</time>
      </trkpt>
      <trkpt lat="44.08492" lon="7.40741">
        <ele>1997.7600097656</ele>
        <time>2011-10-01T14:27:33Z</time>
      </trkpt>
      <trkpt lat="44.08483" lon="7.40737">
        <ele>1993.9100341797</ele>
        <time>2011-10-01T14:27:42Z</time>
      </trkpt>
      <trkpt lat="44.08482" lon="7.40737">
        <ele>1993.4300537109</ele>
        <time>2011-10-01T14:27:43Z</time>
      </trkpt>
      <trkpt lat="44.08472" lon="7.40725">
        <ele>1990.0699462891</ele>
        <time>2011-10-01T14:27:52Z</time>
      </trkpt>
      <trkpt lat="44.08463" lon="7.4072">
        <ele>1989.0999755859</ele>
        <time>2011-10-01T14:27:56Z</time>
      </trkpt>
      <trkpt lat="44.08458" lon="7.40717">
        <ele>1987.6600341797</ele>
        <time>2011-10-01T14:27:58Z</time>
      </trkpt>
      <trkpt lat="44.08452" lon="7.40715">
        <ele>1986.2199707031</ele>
        <time>2011-10-01T14:28:01Z</time>
      </trkpt>
      <trkpt lat="44.08444" lon="7.40717">
        <ele>1985.2600097656</ele>
        <time>2011-10-01T14:28:06Z</time>
      </trkpt>
      <trkpt lat="44.08438" lon="7.40714">
        <ele>1984.3000488281</ele>
        <time>2011-10-01T14:28:13Z</time>
      </trkpt>
      <trkpt lat="44.08438" lon="7.40704">
        <ele>1981.4100341797</ele>
        <time>2011-10-01T14:28:19Z</time>
      </trkpt>
      <trkpt lat="44.08437" lon="7.40701">
        <ele>1980.9300537109</ele>
        <time>2011-10-01T14:28:22Z</time>
      </trkpt>
      <trkpt lat="44.08427" lon="7.40696">
        <ele>1978.5300292969</ele>
        <time>2011-10-01T14:28:29Z</time>
      </trkpt>
      <trkpt lat="44.08414" lon="7.40705">
        <ele>1977.5699462891</ele>
        <time>2011-10-01T14:28:37Z</time>
      </trkpt>
      <trkpt lat="44.08411" lon="7.40714">
        <ele>1976.1300048828</ele>
        <time>2011-10-01T14:28:42Z</time>
      </trkpt>
      <trkpt lat="44.08408" lon="7.40715">
        <ele>1974.1999511719</ele>
        <time>2011-10-01T14:28:48Z</time>
      </trkpt>
      <trkpt lat="44.08401" lon="7.40718">
        <ele>1971.8000488281</ele>
        <time>2011-10-01T14:28:54Z</time>
      </trkpt>
      <trkpt lat="44.08397" lon="7.40718">
        <ele>1970.8399658203</ele>
        <time>2011-10-01T14:28:57Z</time>
      </trkpt>
      <trkpt lat="44.08393" lon="7.40717">
        <ele>1969.4000244141</ele>
        <time>2011-10-01T14:28:59Z</time>
      </trkpt>
      <trkpt lat="44.0839" lon="7.40719">
        <ele>1969.4000244141</ele>
        <time>2011-10-01T14:29:03Z</time>
      </trkpt>
      <trkpt lat="44.08388" lon="7.40719">
        <ele>1968.4399414062</ele>
        <time>2011-10-01T14:29:05Z</time>
      </trkpt>
      <trkpt lat="44.08387" lon="7.40719">
        <ele>1966.9899902344</ele>
        <time>2011-10-01T14:29:07Z</time>
      </trkpt>
      <trkpt lat="44.08386" lon="7.40717">
        <ele>1966.5100097656</ele>
        <time>2011-10-01T14:29:09Z</time>
      </trkpt>
      <trkpt lat="44.08387" lon="7.4071">
        <ele>1963.6300048828</ele>
        <time>2011-10-01T14:29:15Z</time>
      </trkpt>
      <trkpt lat="44.08381" lon="7.40708">
        <ele>1961.7099609375</ele>
        <time>2011-10-01T14:29:22Z</time>
      </trkpt>
      <trkpt lat="44.08377" lon="7.40708">
        <ele>1960.2700195312</ele>
        <time>2011-10-01T14:29:25Z</time>
      </trkpt>
      <trkpt lat="44.08378" lon="7.40702">
        <ele>1958.3399658203</ele>
        <time>2011-10-01T14:29:30Z</time>
      </trkpt>
      <trkpt lat="44.0838" lon="7.40698">
        <ele>1957.8599853516</ele>
        <time>2011-10-01T14:29:34Z</time>
      </trkpt>
      <trkpt lat="44.08377" lon="7.40696">
        <ele>1955.4599609375</ele>
        <time>2011-10-01T14:29:38Z</time>
      </trkpt>
      <trkpt lat="44.08365" lon="7.40693">
        <ele>1951.6099853516</ele>
        <time>2011-10-01T14:29:48Z</time>
      </trkpt>
      <trkpt lat="44.08364" lon="7.40693">
        <ele>1951.6099853516</ele>
        <time>2011-10-01T14:29:49Z</time>
      </trkpt>
      <trkpt lat="44.08358" lon="7.40688">
        <ele>1948.7299804688</ele>
        <time>2011-10-01T14:29:54Z</time>
      </trkpt>
      <trkpt lat="44.08356" lon="7.40673">
        <ele>1947.2900390625</ele>
        <time>2011-10-01T14:29:59Z</time>
      </trkpt>
      <trkpt lat="44.08345" lon="7.40665">
        <ele>1944.4000244141</ele>
        <time>2011-10-01T14:30:09Z</time>
      </trkpt>
      <trkpt lat="44.08344" lon="7.40663">
        <ele>1942.9599609375</ele>
        <time>2011-10-01T14:30:11Z</time>
      </trkpt>
      <trkpt lat="44.08344" lon="7.40659">
        <ele>1942</ele>
        <time>2011-10-01T14:30:15Z</time>
      </trkpt>
      <trkpt lat="44.08348" lon="7.40657">
        <ele>1940.5600585938</ele>
        <time>2011-10-01T14:30:18Z</time>
      </trkpt>
      <trkpt lat="44.08356" lon="7.40654">
        <ele>1942</ele>
        <time>2011-10-01T14:30:23Z</time>
      </trkpt>
      <trkpt lat="44.08358" lon="7.40653">
        <ele>1941.0400390625</ele>
        <time>2011-10-01T14:30:25Z</time>
      </trkpt>
      <trkpt lat="44.08362" lon="7.4065">
        <ele>1940.0799560547</ele>
        <time>2011-10-01T14:30:29Z</time>
      </trkpt>
      <trkpt lat="44.08363" lon="7.40649">
        <ele>1938.1600341797</ele>
        <time>2011-10-01T14:30:31Z</time>
      </trkpt>
      <trkpt lat="44.08366" lon="7.40645">
        <ele>1937.6700439453</ele>
        <time>2011-10-01T14:30:35Z</time>
      </trkpt>
      <trkpt lat="44.08365" lon="7.40642">
        <ele>1935.75</ele>
        <time>2011-10-01T14:30:38Z</time>
      </trkpt>
      <trkpt lat="44.08371" lon="7.40631">
        <ele>1933.3499755859</ele>
        <time>2011-10-01T14:30:47Z</time>
      </trkpt>
      <trkpt lat="44.08373" lon="7.40629">
        <ele>1932.8699951172</ele>
        <time>2011-10-01T14:30:49Z</time>
      </trkpt>
      <trkpt lat="44.08377" lon="7.40626">
        <ele>1932.3900146484</ele>
        <time>2011-10-01T14:30:53Z</time>
      </trkpt>
      <trkpt lat="44.08378" lon="7.40623">
        <ele>1930.4599609375</ele>
        <time>2011-10-01T14:30:56Z</time>
      </trkpt>
      <trkpt lat="44.08379" lon="7.4062">
        <ele>1929.9799804688</ele>
        <time>2011-10-01T14:30:58Z</time>
      </trkpt>
      <trkpt lat="44.08381" lon="7.40613">
        <ele>1928.0600585938</ele>
        <time>2011-10-01T14:31:03Z</time>
      </trkpt>
      <trkpt lat="44.08385" lon="7.40607">
        <ele>1927.5799560547</ele>
        <time>2011-10-01T14:31:07Z</time>
      </trkpt>
      <trkpt lat="44.08387" lon="7.40604">
        <ele>1925.6600341797</ele>
        <time>2011-10-01T14:31:10Z</time>
      </trkpt>
      <trkpt lat="44.08388" lon="7.40593">
        <ele>1924.2199707031</ele>
        <time>2011-10-01T14:31:20Z</time>
      </trkpt>
      <trkpt lat="44.08387" lon="7.40593">
        <ele>1924.2199707031</ele>
        <time>2011-10-01T14:31:22Z</time>
      </trkpt>
      <trkpt lat="44.0838" lon="7.40593">
        <ele>1922.7700195312</ele>
        <time>2011-10-01T14:31:28Z</time>
      </trkpt>
      <trkpt lat="44.08377" lon="7.40591">
        <ele>1921.3299560547</ele>
        <time>2011-10-01T14:31:31Z</time>
      </trkpt>
      <trkpt lat="44.08377" lon="7.40587">
        <ele>1919.8900146484</ele>
        <time>2011-10-01T14:31:35Z</time>
      </trkpt>
      <trkpt lat="44.08382" lon="7.40578">
        <ele>1917.0100097656</ele>
        <time>2011-10-01T14:31:45Z</time>
      </trkpt>
      <trkpt lat="44.08384" lon="7.40576">
        <ele>1916.0400390625</ele>
        <time>2011-10-01T14:31:47Z</time>
      </trkpt>
      <trkpt lat="44.08387" lon="7.4057">
        <ele>1913.1600341797</ele>
        <time>2011-10-01T14:31:55Z</time>
      </trkpt>
      <trkpt lat="44.08387" lon="7.40569">
        <ele>1914.1199951172</ele>
        <time>2011-10-01T14:31:56Z</time>
      </trkpt>
      <trkpt lat="44.08391" lon="7.40558">
        <ele>1910.7600097656</ele>
        <time>2011-10-01T14:32:08Z</time>
      </trkpt>
      <trkpt lat="44.0839" lon="7.40556">
        <ele>1908.8299560547</ele>
        <time>2011-10-01T14:32:13Z</time>
      </trkpt>
      <trkpt lat="44.0839" lon="7.40552">
        <ele>1907.8699951172</ele>
        <time>2011-10-01T14:32:17Z</time>
      </trkpt>
      <trkpt lat="44.08398" lon="7.40544">
        <ele>1904.9899902344</ele>
        <time>2011-10-01T14:32:24Z</time>
      </trkpt>
      <trkpt lat="44.08404" lon="7.40537">
        <ele>1902.1099853516</ele>
        <time>2011-10-01T14:32:30Z</time>
      </trkpt>
      <trkpt lat="44.08409" lon="7.4053">
        <ele>1899.2199707031</ele>
        <time>2011-10-01T14:32:37Z</time>
      </trkpt>
      <trkpt lat="44.08412" lon="7.40527">
        <ele>1897.7800292969</ele>
        <time>2011-10-01T14:32:41Z</time>
      </trkpt>
      <trkpt lat="44.08412" lon="7.40523">
        <ele>1896.3399658203</ele>
        <time>2011-10-01T14:32:46Z</time>
      </trkpt>
      <trkpt lat="44.08413" lon="7.40518">
        <ele>1896.8199462891</ele>
        <time>2011-10-01T14:32:50Z</time>
      </trkpt>
      <trkpt lat="44.08414" lon="7.40515">
        <ele>1894.9000244141</ele>
        <time>2011-10-01T14:32:52Z</time>
      </trkpt>
      <trkpt lat="44.0842" lon="7.40506">
        <ele>1893.4499511719</ele>
        <time>2011-10-01T14:33:00Z</time>
      </trkpt>
      <trkpt lat="44.08427" lon="7.40496">
        <ele>1890.5699462891</ele>
        <time>2011-10-01T14:33:12Z</time>
      </trkpt>
      <trkpt lat="44.08429" lon="7.40493">
        <ele>1889.1300048828</ele>
        <time>2011-10-01T14:33:17Z</time>
      </trkpt>
      <trkpt lat="44.08428" lon="7.40491">
        <ele>1888.1700439453</ele>
        <time>2011-10-01T14:33:19Z</time>
      </trkpt>
      <trkpt lat="44.08425" lon="7.40488">
        <ele>1886.2399902344</ele>
        <time>2011-10-01T14:33:23Z</time>
      </trkpt>
      <trkpt lat="44.08429" lon="7.40477">
        <ele>1882.4000244141</ele>
        <time>2011-10-01T14:33:33Z</time>
      </trkpt>
      <trkpt lat="44.08431" lon="7.4047">
        <ele>1879.5100097656</ele>
        <time>2011-10-01T14:33:39Z</time>
      </trkpt>
      <trkpt lat="44.08435" lon="7.40461">
        <ele>1878.0699462891</ele>
        <time>2011-10-01T14:33:47Z</time>
      </trkpt>
      <trkpt lat="44.08436" lon="7.40459">
        <ele>1876.6300048828</ele>
        <time>2011-10-01T14:33:49Z</time>
      </trkpt>
      <trkpt lat="44.08446" lon="7.40454">
        <ele>1875.1899414062</ele>
        <time>2011-10-01T14:33:57Z</time>
      </trkpt>
      <trkpt lat="44.08447" lon="7.40453">
        <ele>1875.1899414062</ele>
        <time>2011-10-01T14:33:59Z</time>
      </trkpt>
      <trkpt lat="44.08452" lon="7.40449">
        <ele>1873.2700195312</ele>
        <time>2011-10-01T14:34:04Z</time>
      </trkpt>
      <trkpt lat="44.08455" lon="7.4044">
        <ele>1870.3800048828</ele>
        <time>2011-10-01T14:34:12Z</time>
      </trkpt>
      <trkpt lat="44.08453" lon="7.40439">
        <ele>1869.4200439453</ele>
        <time>2011-10-01T14:34:17Z</time>
      </trkpt>
      <trkpt lat="44.08453" lon="7.40437">
        <ele>1867.9799804688</ele>
        <time>2011-10-01T14:34:19Z</time>
      </trkpt>
      <trkpt lat="44.08459" lon="7.40432">
        <ele>1865.5799560547</ele>
        <time>2011-10-01T14:34:26Z</time>
      </trkpt>
      <trkpt lat="44.08453" lon="7.40428">
        <ele>1862.2099609375</ele>
        <time>2011-10-01T14:34:35Z</time>
      </trkpt>
      <trkpt lat="44.08453" lon="7.40425">
        <ele>1861.7299804688</ele>
        <time>2011-10-01T14:34:39Z</time>
      </trkpt>
      <trkpt lat="44.08449" lon="7.40423">
        <ele>1857.8900146484</ele>
        <time>2011-10-01T14:34:46Z</time>
      </trkpt>
      <trkpt lat="44.0845" lon="7.40418">
        <ele>1856.4399414062</ele>
        <time>2011-10-01T14:34:51Z</time>
      </trkpt>
      <trkpt lat="44.08449" lon="7.40407">
        <ele>1854.5200195312</ele>
        <time>2011-10-01T14:34:57Z</time>
      </trkpt>
      <trkpt lat="44.0845" lon="7.40403">
        <ele>1853.5600585938</ele>
        <time>2011-10-01T14:35:01Z</time>
      </trkpt>
      <trkpt lat="44.08447" lon="7.404">
        <ele>1850.6800537109</ele>
        <time>2011-10-01T14:35:06Z</time>
      </trkpt>
      <trkpt lat="44.08447" lon="7.40393">
        <ele>1848.75</ele>
        <time>2011-10-01T14:35:10Z</time>
      </trkpt>
      <trkpt lat="44.08447" lon="7.40389">
        <ele>1848.2700195312</ele>
        <time>2011-10-01T14:35:12Z</time>
      </trkpt>
      <trkpt lat="44.08447" lon="7.40383">
        <ele>1846.8299560547</ele>
        <time>2011-10-01T14:35:15Z</time>
      </trkpt>
      <trkpt lat="44.08448" lon="7.40379">
        <ele>1845.8699951172</ele>
        <time>2011-10-01T14:35:17Z</time>
      </trkpt>
      <trkpt lat="44.0845" lon="7.40374">
        <ele>1845.8699951172</ele>
        <time>2011-10-01T14:35:19Z</time>
      </trkpt>
      <trkpt lat="44.08455" lon="7.40368">
        <ele>1844.9100341797</ele>
        <time>2011-10-01T14:35:25Z</time>
      </trkpt>
      <trkpt lat="44.08458" lon="7.40368">
        <ele>1844.4300537109</ele>
        <time>2011-10-01T14:35:29Z</time>
      </trkpt>
      <trkpt lat="44.08475" lon="7.40371">
        <ele>1841.5400390625</ele>
        <time>2011-10-01T14:35:40Z</time>
      </trkpt>
      <trkpt lat="44.08483" lon="7.40372">
        <ele>1840.0999755859</ele>
        <time>2011-10-01T14:35:53Z</time>
      </trkpt>
      <trkpt lat="44.08483" lon="7.40371">
        <ele>1841.5400390625</ele>
        <time>2011-10-01T14:36:03Z</time>
      </trkpt>
      <trkpt lat="44.08483" lon="7.40371">
        <ele>1839.6199951172</ele>
        <time>2011-10-01T14:36:06Z</time>
      </trkpt>
      <trkpt lat="44.08479" lon="7.40364">
        <ele>1838.6600341797</ele>
        <time>2011-10-01T14:36:12Z</time>
      </trkpt>
      <trkpt lat="44.08478" lon="7.40361">
        <ele>1836.7399902344</ele>
        <time>2011-10-01T14:36:15Z</time>
      </trkpt>
      <trkpt lat="44.08472" lon="7.40353">
        <ele>1833.3699951172</ele>
        <time>2011-10-01T14:36:26Z</time>
      </trkpt>
      <trkpt lat="44.08467" lon="7.40347">
        <ele>1830.4899902344</ele>
        <time>2011-10-01T14:36:36Z</time>
      </trkpt>
      <trkpt lat="44.08466" lon="7.40345">
        <ele>1829.5300292969</ele>
        <time>2011-10-01T14:36:38Z</time>
      </trkpt>
      <trkpt lat="44.08461" lon="7.40342">
        <ele>1826.6400146484</ele>
        <time>2011-10-01T14:36:46Z</time>
      </trkpt>
      <trkpt lat="44.0846" lon="7.40338">
        <ele>1825.6800537109</ele>
        <time>2011-10-01T14:36:49Z</time>
      </trkpt>
      <trkpt lat="44.08458" lon="7.40332">
        <ele>1822.8000488281</ele>
        <time>2011-10-01T14:36:54Z</time>
      </trkpt>
      <trkpt lat="44.08457" lon="7.40331">
        <ele>1822.3199462891</ele>
        <time>2011-10-01T14:36:55Z</time>
      </trkpt>
      <trkpt lat="44.08452" lon="7.40324">
        <ele>1820.3900146484</ele>
        <time>2011-10-01T14:37:02Z</time>
      </trkpt>
      <trkpt lat="44.08449" lon="7.40322">
        <ele>1819.4300537109</ele>
        <time>2011-10-01T14:37:05Z</time>
      </trkpt>
      <trkpt lat="44.0844" lon="7.40317">
        <ele>1816.0699462891</ele>
        <time>2011-10-01T14:37:12Z</time>
      </trkpt>
      <trkpt lat="44.08439" lon="7.40317">
        <ele>1815.5899658203</ele>
        <time>2011-10-01T14:37:13Z</time>
      </trkpt>
      <trkpt lat="44.0843" lon="7.4031">
        <ele>1813.1800537109</ele>
        <time>2011-10-01T14:37:20Z</time>
      </trkpt>
      <trkpt lat="44.08428" lon="7.40309">
        <ele>1812.6999511719</ele>
        <time>2011-10-01T14:37:23Z</time>
      </trkpt>
      <trkpt lat="44.08425" lon="7.40306">
        <ele>1810.7800292969</ele>
        <time>2011-10-01T14:37:27Z</time>
      </trkpt>
      <trkpt lat="44.08424" lon="7.40305">
        <ele>1809.8199462891</ele>
        <time>2011-10-01T14:37:29Z</time>
      </trkpt>
      <trkpt lat="44.0842" lon="7.40304">
        <ele>1809.8199462891</ele>
        <time>2011-10-01T14:37:32Z</time>
      </trkpt>
      <trkpt lat="44.08407" lon="7.40298">
        <ele>1807.9000244141</ele>
        <time>2011-10-01T14:37:44Z</time>
      </trkpt>
      <trkpt lat="44.08394" lon="7.40292">
        <ele>1808.8599853516</ele>
        <time>2011-10-01T14:38:00Z</time>
      </trkpt>
      <trkpt lat="44.08397" lon="7.40287">
        <ele>1807.4200439453</ele>
        <time>2011-10-01T14:38:16Z</time>
      </trkpt>
      <trkpt lat="44.08397" lon="7.40288">
        <ele>1807.9000244141</ele>
        <time>2011-10-01T14:38:28Z</time>
      </trkpt>
      <trkpt lat="44.08396" lon="7.40289">
        <ele>1807.4200439453</ele>
        <time>2011-10-01T14:38:41Z</time>
      </trkpt>
      <trkpt lat="44.08395" lon="7.40288">
        <ele>1808.3800048828</ele>
        <time>2011-10-01T14:39:03Z</time>
      </trkpt>
      <trkpt lat="44.08394" lon="7.40285">
        <ele>1807.4200439453</ele>
        <time>2011-10-01T14:39:24Z</time>
      </trkpt>
      <trkpt lat="44.0839" lon="7.40288">
        <ele>1806.9399414062</ele>
        <time>2011-10-01T14:39:37Z</time>
      </trkpt>
      <trkpt lat="44.08392" lon="7.40284">
        <ele>1807.4200439453</ele>
        <time>2011-10-01T14:39:57Z</time>
      </trkpt>
      <trkpt lat="44.08394" lon="7.40283">
        <ele>1806.9399414062</ele>
        <time>2011-10-01T14:40:15Z</time>
      </trkpt>
      <trkpt lat="44.08394" lon="7.40278">
        <ele>1805.4899902344</ele>
        <time>2011-10-01T14:40:27Z</time>
      </trkpt>
      <trkpt lat="44.08396" lon="7.40277">
        <ele>1805.0100097656</ele>
        <time>2011-10-01T14:40:40Z</time>
      </trkpt>
      <trkpt lat="44.08394" lon="7.40274">
        <ele>1801.6500244141</ele>
        <time>2011-10-01T14:40:48Z</time>
      </trkpt>
      <trkpt lat="44.0839" lon="7.4027">
        <ele>1798.2800292969</ele>
        <time>2011-10-01T14:40:55Z</time>
      </trkpt>
      <trkpt lat="44.0839" lon="7.4027">
        <ele>1798.2800292969</ele>
        <time>2011-10-01T14:40:56Z</time>
      </trkpt>
      <trkpt lat="44.08393" lon="7.40265">
        <ele>1798.2800292969</ele>
        <time>2011-10-01T14:41:01Z</time>
      </trkpt>
      <trkpt lat="44.08392" lon="7.40254">
        <ele>1796.8399658203</ele>
        <time>2011-10-01T14:41:06Z</time>
      </trkpt>
      <trkpt lat="44.0839" lon="7.40249">
        <ele>1796.3599853516</ele>
        <time>2011-10-01T14:41:18Z</time>
      </trkpt>
      <trkpt lat="44.0839" lon="7.40247">
        <ele>1796.8399658203</ele>
        <time>2011-10-01T14:41:20Z</time>
      </trkpt>
      <trkpt lat="44.08388" lon="7.40244">
        <ele>1796.8399658203</ele>
        <time>2011-10-01T14:41:23Z</time>
      </trkpt>
      <trkpt lat="44.08383" lon="7.40234">
        <ele>1796.8399658203</ele>
        <time>2011-10-01T14:41:31Z</time>
      </trkpt>
      <trkpt lat="44.08376" lon="7.40224">
        <ele>1799.2399902344</ele>
        <time>2011-10-01T14:41:41Z</time>
      </trkpt>
      <trkpt lat="44.08375" lon="7.40214">
        <ele>1800.6899414062</ele>
        <time>2011-10-01T14:41:53Z</time>
      </trkpt>
      <trkpt lat="44.08375" lon="7.40215">
        <ele>1796.8399658203</ele>
        <time>2011-10-01T14:41:55Z</time>
      </trkpt>
      <trkpt lat="44.08375" lon="7.40215">
        <ele>1801.6500244141</ele>
        <time>2011-10-01T14:41:56Z</time>
      </trkpt>
      <trkpt lat="44.08375" lon="7.40214">
        <ele>1798.2800292969</ele>
        <time>2011-10-01T14:42:10Z</time>
      </trkpt>
      <trkpt lat="44.08373" lon="7.40213">
        <ele>1799.7299804688</ele>
        <time>2011-10-01T14:42:13Z</time>
      </trkpt>
      <trkpt lat="44.0837" lon="7.40213">
        <ele>1798.2800292969</ele>
        <time>2011-10-01T14:42:17Z</time>
      </trkpt>
      <trkpt lat="44.08364" lon="7.40213">
        <ele>1798.2800292969</ele>
        <time>2011-10-01T14:42:21Z</time>
      </trkpt>
      <trkpt lat="44.08362" lon="7.40214">
        <ele>1797.3199462891</ele>
        <time>2011-10-01T14:42:23Z</time>
      </trkpt>
      <trkpt lat="44.08358" lon="7.40219">
        <ele>1795.4000244141</ele>
        <time>2011-10-01T14:42:26Z</time>
      </trkpt>
      <trkpt lat="44.08356" lon="7.4022">
        <ele>1794.9200439453</ele>
        <time>2011-10-01T14:42:28Z</time>
      </trkpt>
      <trkpt lat="44.08347" lon="7.40215">
        <ele>1793.4799804688</ele>
        <time>2011-10-01T14:42:33Z</time>
      </trkpt>
      <trkpt lat="44.08339" lon="7.40215">
        <ele>1793.9599609375</ele>
        <time>2011-10-01T14:42:37Z</time>
      </trkpt>
      <trkpt lat="44.08333" lon="7.40215">
        <ele>1793.9599609375</ele>
        <time>2011-10-01T14:42:40Z</time>
      </trkpt>
      <trkpt lat="44.08321" lon="7.40219">
        <ele>1792.0300292969</ele>
        <time>2011-10-01T14:42:47Z</time>
      </trkpt>
      <trkpt lat="44.08317" lon="7.40218">
        <ele>1791.0699462891</ele>
        <time>2011-10-01T14:42:49Z</time>
      </trkpt>
      <trkpt lat="44.083" lon="7.40216">
        <ele>1790.1099853516</ele>
        <time>2011-10-01T14:42:59Z</time>
      </trkpt>
      <trkpt lat="44.08294" lon="7.40215">
        <ele>1789.6300048828</ele>
        <time>2011-10-01T14:43:02Z</time>
      </trkpt>
      <trkpt lat="44.0829" lon="7.40212">
        <ele>1789.6300048828</ele>
        <time>2011-10-01T14:43:05Z</time>
      </trkpt>
      <trkpt lat="44.08288" lon="7.40212">
        <ele>1788.1899414062</ele>
        <time>2011-10-01T14:43:07Z</time>
      </trkpt>
      <trkpt lat="44.0828" lon="7.4021">
        <ele>1788.1899414062</ele>
        <time>2011-10-01T14:43:13Z</time>
      </trkpt>
      <trkpt lat="44.08275" lon="7.40209">
        <ele>1786.75</ele>
        <time>2011-10-01T14:43:17Z</time>
      </trkpt>
      <trkpt lat="44.08266" lon="7.40207">
        <ele>1785.7900390625</ele>
        <time>2011-10-01T14:43:22Z</time>
      </trkpt>
      <trkpt lat="44.08252" lon="7.40208">
        <ele>1783.3800048828</ele>
        <time>2011-10-01T14:43:31Z</time>
      </trkpt>
      <trkpt lat="44.08248" lon="7.40205">
        <ele>1782.9000244141</ele>
        <time>2011-10-01T14:43:35Z</time>
      </trkpt>
      <trkpt lat="44.08245" lon="7.40206">
        <ele>1781.4599609375</ele>
        <time>2011-10-01T14:43:38Z</time>
      </trkpt>
      <trkpt lat="44.08242" lon="7.4021">
        <ele>1780.0200195312</ele>
        <time>2011-10-01T14:43:42Z</time>
      </trkpt>
      <trkpt lat="44.08233" lon="7.40209">
        <ele>1779.5400390625</ele>
        <time>2011-10-01T14:43:48Z</time>
      </trkpt>
      <trkpt lat="44.0823" lon="7.40207">
        <ele>1779.0600585938</ele>
        <time>2011-10-01T14:43:50Z</time>
      </trkpt>
      <trkpt lat="44.0822" lon="7.40204">
        <ele>1778.0999755859</ele>
        <time>2011-10-01T14:43:55Z</time>
      </trkpt>
      <trkpt lat="44.08196" lon="7.40197">
        <ele>1778.0999755859</ele>
        <time>2011-10-01T14:44:08Z</time>
      </trkpt>
      <trkpt lat="44.08186" lon="7.40198">
        <ele>1776.6500244141</ele>
        <time>2011-10-01T14:44:13Z</time>
      </trkpt>
      <trkpt lat="44.0818" lon="7.40192">
        <ele>1776.1700439453</ele>
        <time>2011-10-01T14:44:19Z</time>
      </trkpt>
      <trkpt lat="44.08177" lon="7.40195">
        <ele>1774.7299804688</ele>
        <time>2011-10-01T14:44:23Z</time>
      </trkpt>
      <trkpt lat="44.08175" lon="7.40201">
        <ele>1773.2900390625</ele>
        <time>2011-10-01T14:44:26Z</time>
      </trkpt>
      <trkpt lat="44.08168" lon="7.40204">
        <ele>1770.8900146484</ele>
        <time>2011-10-01T14:44:31Z</time>
      </trkpt>
      <trkpt lat="44.08164" lon="7.40206">
        <ele>1769.4399414062</ele>
        <time>2011-10-01T14:44:36Z</time>
      </trkpt>
      <trkpt lat="44.08158" lon="7.40203">
        <ele>1768</ele>
        <time>2011-10-01T14:44:41Z</time>
      </trkpt>
      <trkpt lat="44.08154" lon="7.40203">
        <ele>1766.5600585938</ele>
        <time>2011-10-01T14:44:44Z</time>
      </trkpt>
      <trkpt lat="44.08147" lon="7.40205">
        <ele>1765.5999755859</ele>
        <time>2011-10-01T14:44:48Z</time>
      </trkpt>
      <trkpt lat="44.08143" lon="7.40208">
        <ele>1765.1199951172</ele>
        <time>2011-10-01T14:44:52Z</time>
      </trkpt>
      <trkpt lat="44.08141" lon="7.4021">
        <ele>1764.1600341797</ele>
        <time>2011-10-01T14:44:54Z</time>
      </trkpt>
      <trkpt lat="44.08138" lon="7.40212">
        <ele>1763.6800537109</ele>
        <time>2011-10-01T14:44:56Z</time>
      </trkpt>
      <trkpt lat="44.08135" lon="7.40215">
        <ele>1762.7099609375</ele>
        <time>2011-10-01T14:44:58Z</time>
      </trkpt>
      <trkpt lat="44.08133" lon="7.40215">
        <ele>1762.7099609375</ele>
        <time>2011-10-01T14:44:59Z</time>
      </trkpt>
      <trkpt lat="44.08122" lon="7.40219">
        <ele>1760.7900390625</ele>
        <time>2011-10-01T14:45:05Z</time>
      </trkpt>
      <trkpt lat="44.08119" lon="7.40219">
        <ele>1760.7900390625</ele>
        <time>2011-10-01T14:45:07Z</time>
      </trkpt>
      <trkpt lat="44.08116" lon="7.40217">
        <ele>1760.3100585938</ele>
        <time>2011-10-01T14:45:09Z</time>
      </trkpt>
      <trkpt lat="44.0811" lon="7.40217">
        <ele>1759.8299560547</ele>
        <time>2011-10-01T14:45:14Z</time>
      </trkpt>
      <trkpt lat="44.08101" lon="7.40222">
        <ele>1757.9100341797</ele>
        <time>2011-10-01T14:45:19Z</time>
      </trkpt>
      <trkpt lat="44.08098" lon="7.40222">
        <ele>1757.4300537109</ele>
        <time>2011-10-01T14:45:21Z</time>
      </trkpt>
      <trkpt lat="44.08089" lon="7.40221">
        <ele>1756.9499511719</ele>
        <time>2011-10-01T14:45:25Z</time>
      </trkpt>
      <trkpt lat="44.08084" lon="7.40224">
        <ele>1755.5</ele>
        <time>2011-10-01T14:45:29Z</time>
      </trkpt>
      <trkpt lat="44.08083" lon="7.40226">
        <ele>1755.9899902344</ele>
        <time>2011-10-01T14:45:30Z</time>
      </trkpt>
      <trkpt lat="44.08076" lon="7.40232">
        <ele>1754.5400390625</ele>
        <time>2011-10-01T14:45:34Z</time>
      </trkpt>
      <trkpt lat="44.08073" lon="7.40235">
        <ele>1755.9899902344</ele>
        <time>2011-10-01T14:45:36Z</time>
      </trkpt>
      <trkpt lat="44.08068" lon="7.4024">
        <ele>1754.5400390625</ele>
        <time>2011-10-01T14:45:41Z</time>
      </trkpt>
      <trkpt lat="44.0806" lon="7.40246">
        <ele>1753.0999755859</ele>
        <time>2011-10-01T14:45:46Z</time>
      </trkpt>
      <trkpt lat="44.08055" lon="7.40247">
        <ele>1751.6600341797</ele>
        <time>2011-10-01T14:45:48Z</time>
      </trkpt>
      <trkpt lat="44.08049" lon="7.40247">
        <ele>1750.6999511719</ele>
        <time>2011-10-01T14:45:51Z</time>
      </trkpt>
      <trkpt lat="44.08035" lon="7.40255">
        <ele>1749.7399902344</ele>
        <time>2011-10-01T14:45:58Z</time>
      </trkpt>
      <trkpt lat="44.08029" lon="7.40262">
        <ele>1748.7800292969</ele>
        <time>2011-10-01T14:46:02Z</time>
      </trkpt>
      <trkpt lat="44.08025" lon="7.4027">
        <ele>1747.3299560547</ele>
        <time>2011-10-01T14:46:06Z</time>
      </trkpt>
      <trkpt lat="44.08017" lon="7.40274">
        <ele>1745.8900146484</ele>
        <time>2011-10-01T14:46:10Z</time>
      </trkpt>
      <trkpt lat="44.08009" lon="7.40279">
        <ele>1747.3299560547</ele>
        <time>2011-10-01T14:46:14Z</time>
      </trkpt>
      <trkpt lat="44.07999" lon="7.40283">
        <ele>1746.3699951172</ele>
        <time>2011-10-01T14:46:19Z</time>
      </trkpt>
      <trkpt lat="44.07986" lon="7.40283">
        <ele>1745.4100341797</ele>
        <time>2011-10-01T14:46:27Z</time>
      </trkpt>
      <trkpt lat="44.07971" lon="7.40284">
        <ele>1743.9699707031</ele>
        <time>2011-10-01T14:46:37Z</time>
      </trkpt>
      <trkpt lat="44.07965" lon="7.40286">
        <ele>1742.0500488281</ele>
        <time>2011-10-01T14:46:40Z</time>
      </trkpt>
      <trkpt lat="44.07957" lon="7.40291">
        <ele>1742.0500488281</ele>
        <time>2011-10-01T14:46:44Z</time>
      </trkpt>
      <trkpt lat="44.07938" lon="7.40299">
        <ele>1738.1999511719</ele>
        <time>2011-10-01T14:46:53Z</time>
      </trkpt>
      <trkpt lat="44.07933" lon="7.40301">
        <ele>1737.7199707031</ele>
        <time>2011-10-01T14:46:56Z</time>
      </trkpt>
      <trkpt lat="44.07913" lon="7.40285">
        <ele>1736.7600097656</ele>
        <time>2011-10-01T14:47:06Z</time>
      </trkpt>
      <trkpt lat="44.07907" lon="7.40284">
        <ele>1735.3199462891</ele>
        <time>2011-10-01T14:47:09Z</time>
      </trkpt>
      <trkpt lat="44.07898" lon="7.40282">
        <ele>1735.8000488281</ele>
        <time>2011-10-01T14:47:13Z</time>
      </trkpt>
      <trkpt lat="44.07894" lon="7.4028">
        <ele>1734.3599853516</ele>
        <time>2011-10-01T14:47:16Z</time>
      </trkpt>
      <trkpt lat="44.07885" lon="7.4028">
        <ele>1731.4699707031</ele>
        <time>2011-10-01T14:47:22Z</time>
      </trkpt>
      <trkpt lat="44.0788" lon="7.40279">
        <ele>1731.4699707031</ele>
        <time>2011-10-01T14:47:24Z</time>
      </trkpt>
      <trkpt lat="44.07856" lon="7.40274">
        <ele>1728.5899658203</ele>
        <time>2011-10-01T14:47:37Z</time>
      </trkpt>
      <trkpt lat="44.07853" lon="7.40275">
        <ele>1729.0699462891</ele>
        <time>2011-10-01T14:47:38Z</time>
      </trkpt>
      <trkpt lat="44.07845" lon="7.40277">
        <ele>1729.0699462891</ele>
        <time>2011-10-01T14:47:41Z</time>
      </trkpt>
      <trkpt lat="44.07837" lon="7.40279">
        <ele>1727.6300048828</ele>
        <time>2011-10-01T14:47:45Z</time>
      </trkpt>
      <trkpt lat="44.07818" lon="7.40263">
        <ele>1725.2199707031</ele>
        <time>2011-10-01T14:47:55Z</time>
      </trkpt>
      <trkpt lat="44.07805" lon="7.40253">
        <ele>1724.2600097656</ele>
        <time>2011-10-01T14:48:02Z</time>
      </trkpt>
      <trkpt lat="44.078" lon="7.40244">
        <ele>1724.7399902344</ele>
        <time>2011-10-01T14:48:06Z</time>
      </trkpt>
      <trkpt lat="44.07786" lon="7.40222">
        <ele>1723.7800292969</ele>
        <time>2011-10-01T14:48:16Z</time>
      </trkpt>
      <trkpt lat="44.0778" lon="7.40209">
        <ele>1722.8199462891</ele>
        <time>2011-10-01T14:48:21Z</time>
      </trkpt>
      <trkpt lat="44.07753" lon="7.4019">
        <ele>1720.9000244141</ele>
        <time>2011-10-01T14:48:33Z</time>
      </trkpt>
      <trkpt lat="44.07744" lon="7.4018">
        <ele>1721.3800048828</ele>
        <time>2011-10-01T14:48:38Z</time>
      </trkpt>
      <trkpt lat="44.07737" lon="7.40169">
        <ele>1719.4599609375</ele>
        <time>2011-10-01T14:48:45Z</time>
      </trkpt>
      <trkpt lat="44.07718" lon="7.40172">
        <ele>1717.5300292969</ele>
        <time>2011-10-01T14:48:53Z</time>
      </trkpt>
      <trkpt lat="44.07685" lon="7.40165">
        <ele>1716.5699462891</ele>
        <time>2011-10-01T14:49:06Z</time>
      </trkpt>
      <trkpt lat="44.07672" lon="7.40167">
        <ele>1715.1300048828</ele>
        <time>2011-10-01T14:49:11Z</time>
      </trkpt>
      <trkpt lat="44.07652" lon="7.40169">
        <ele>1711.7600097656</ele>
        <time>2011-10-01T14:49:19Z</time>
      </trkpt>
      <trkpt lat="44.07649" lon="7.40169">
        <ele>1715.1300048828</ele>
        <time>2011-10-01T14:49:20Z</time>
      </trkpt>
      <trkpt lat="44.0762" lon="7.40175">
        <ele>1713.6899414062</ele>
        <time>2011-10-01T14:49:32Z</time>
      </trkpt>
      <trkpt lat="44.07591" lon="7.4018">
        <ele>1712.7299804688</ele>
        <time>2011-10-01T14:49:44Z</time>
      </trkpt>
      <trkpt lat="44.07565" lon="7.40182">
        <ele>1711.7600097656</ele>
        <time>2011-10-01T14:49:54Z</time>
      </trkpt>
      <trkpt lat="44.07536" lon="7.40173">
        <ele>1710.3199462891</ele>
        <time>2011-10-01T14:50:06Z</time>
      </trkpt>
      <trkpt lat="44.07504" lon="7.40163">
        <ele>1706.9599609375</ele>
        <time>2011-10-01T14:50:19Z</time>
      </trkpt>
      <trkpt lat="44.07474" lon="7.40142">
        <ele>1706.9599609375</ele>
        <time>2011-10-01T14:50:32Z</time>
      </trkpt>
      <trkpt lat="44.07457" lon="7.4013">
        <ele>1704.0699462891</ele>
        <time>2011-10-01T14:50:40Z</time>
      </trkpt>
      <trkpt lat="44.07438" lon="7.40095">
        <ele>1703.1099853516</ele>
        <time>2011-10-01T14:50:52Z</time>
      </trkpt>
      <trkpt lat="44.07427" lon="7.4008">
        <ele>1703.1099853516</ele>
        <time>2011-10-01T14:50:58Z</time>
      </trkpt>
      <trkpt lat="44.07414" lon="7.40068">
        <ele>1703.1099853516</ele>
        <time>2011-10-01T14:51:10Z</time>
      </trkpt>
      <trkpt lat="44.07414" lon="7.40063">
        <ele>1702.6300048828</ele>
        <time>2011-10-01T14:51:39Z</time>
      </trkpt>
      <trkpt lat="44.07413" lon="7.40059">
        <ele>1702.1500244141</ele>
        <time>2011-10-01T14:52:04Z</time>
      </trkpt>
      <trkpt lat="44.07417" lon="7.40052">
        <ele>1701.1899414062</ele>
        <time>2011-10-01T14:52:16Z</time>
      </trkpt>
      <trkpt lat="44.07417" lon="7.40051">
        <ele>1702.1500244141</ele>
        <time>2011-10-01T14:52:32Z</time>
      </trkpt>
      <trkpt lat="44.07415" lon="7.40054">
        <ele>1700.2299804688</ele>
        <time>2011-10-01T14:53:24Z</time>
      </trkpt>
      <trkpt lat="44.07414" lon="7.40053">
        <ele>1701.1899414062</ele>
        <time>2011-10-01T14:53:31Z</time>
      </trkpt>
      <trkpt lat="44.07407" lon="7.40037">
        <ele>1699.75</ele>
        <time>2011-10-01T14:53:48Z</time>
      </trkpt>
      <trkpt lat="44.07406" lon="7.40029">
        <ele>1699.2700195312</ele>
        <time>2011-10-01T14:54:02Z</time>
      </trkpt>
      <trkpt lat="44.07402" lon="7.40022">
        <ele>1698.7900390625</ele>
        <time>2011-10-01T14:54:10Z</time>
      </trkpt>
      <trkpt lat="44.074" lon="7.40017">
        <ele>1699.2700195312</ele>
        <time>2011-10-01T14:54:13Z</time>
      </trkpt>
      <trkpt lat="44.07397" lon="7.4">
        <ele>1697.3399658203</ele>
        <time>2011-10-01T14:54:26Z</time>
      </trkpt>
      <trkpt lat="44.07383" lon="7.39979">
        <ele>1695.9000244141</ele>
        <time>2011-10-01T14:54:42Z</time>
      </trkpt>
      <trkpt lat="44.07367" lon="7.39969">
        <ele>1694.4599609375</ele>
        <time>2011-10-01T14:54:57Z</time>
      </trkpt>
      <trkpt lat="44.07348" lon="7.39962">
        <ele>1693.0200195312</ele>
        <time>2011-10-01T14:55:13Z</time>
      </trkpt>
      <trkpt lat="44.07323" lon="7.39957">
        <ele>1693.0200195312</ele>
        <time>2011-10-01T14:55:31Z</time>
      </trkpt>
      <trkpt lat="44.07296" lon="7.39963">
        <ele>1693.0200195312</ele>
        <time>2011-10-01T14:55:44Z</time>
      </trkpt>
      <trkpt lat="44.07269" lon="7.39975">
        <ele>1691.5799560547</ele>
        <time>2011-10-01T14:55:57Z</time>
      </trkpt>
      <trkpt lat="44.07238" lon="7.39981">
        <ele>1690.1400146484</ele>
        <time>2011-10-01T14:56:11Z</time>
      </trkpt>
      <trkpt lat="44.07221" lon="7.39983">
        <ele>1689.1700439453</ele>
        <time>2011-10-01T14:56:18Z</time>
      </trkpt>
      <trkpt lat="44.07215" lon="7.3998">
        <ele>1687.7299804688</ele>
        <time>2011-10-01T14:56:21Z</time>
      </trkpt>
      <trkpt lat="44.07192" lon="7.3996">
        <ele>1687.25</ele>
        <time>2011-10-01T14:56:34Z</time>
      </trkpt>
      <trkpt lat="44.0718" lon="7.39947">
        <ele>1685.3299560547</ele>
        <time>2011-10-01T14:56:40Z</time>
      </trkpt>
      <trkpt lat="44.07175" lon="7.39943">
        <ele>1686.2900390625</ele>
        <time>2011-10-01T14:56:42Z</time>
      </trkpt>
      <trkpt lat="44.07144" lon="7.39931">
        <ele>1684.3699951172</ele>
        <time>2011-10-01T14:56:56Z</time>
      </trkpt>
      <trkpt lat="44.0711" lon="7.39934">
        <ele>1681.9599609375</ele>
        <time>2011-10-01T14:57:10Z</time>
      </trkpt>
      <trkpt lat="44.07082" lon="7.39919">
        <ele>1678.5999755859</ele>
        <time>2011-10-01T14:57:23Z</time>
      </trkpt>
      <trkpt lat="44.07062" lon="7.39888">
        <ele>1675.2299804688</ele>
        <time>2011-10-01T14:57:36Z</time>
      </trkpt>
      <trkpt lat="44.07034" lon="7.39867">
        <ele>1672.8299560547</ele>
        <time>2011-10-01T14:57:49Z</time>
      </trkpt>
      <trkpt lat="44.07026" lon="7.39865">
        <ele>1669.4699707031</ele>
        <time>2011-10-01T14:57:52Z</time>
      </trkpt>
      <trkpt lat="44.07003" lon="7.39859">
        <ele>1669.4699707031</ele>
        <time>2011-10-01T14:58:02Z</time>
      </trkpt>
      <trkpt lat="44.07001" lon="7.39851">
        <ele>1669.4699707031</ele>
        <time>2011-10-01T14:58:06Z</time>
      </trkpt>
      <trkpt lat="44.07" lon="7.3985">
        <ele>1668.0200195312</ele>
        <time>2011-10-01T14:58:09Z</time>
      </trkpt>
      <trkpt lat="44.06994" lon="7.39841">
        <ele>1666.0999755859</ele>
        <time>2011-10-01T14:58:16Z</time>
      </trkpt>
      <trkpt lat="44.06992" lon="7.39832">
        <ele>1663.6999511719</ele>
        <time>2011-10-01T14:58:20Z</time>
      </trkpt>
      <trkpt lat="44.06989" lon="7.39819">
        <ele>1661.7800292969</ele>
        <time>2011-10-01T14:58:25Z</time>
      </trkpt>
      <trkpt lat="44.06986" lon="7.39809">
        <ele>1660.8100585938</ele>
        <time>2011-10-01T14:58:29Z</time>
      </trkpt>
      <trkpt lat="44.06984" lon="7.39801">
        <ele>1658.4100341797</ele>
        <time>2011-10-01T14:58:33Z</time>
      </trkpt>
      <trkpt lat="44.06984" lon="7.39785">
        <ele>1657.9300537109</ele>
        <time>2011-10-01T14:58:40Z</time>
      </trkpt>
      <trkpt lat="44.06978" lon="7.39783">
        <ele>1655.5300292969</ele>
        <time>2011-10-01T14:58:45Z</time>
      </trkpt>
      <trkpt lat="44.06976" lon="7.39788">
        <ele>1653.5999755859</ele>
        <time>2011-10-01T14:58:48Z</time>
      </trkpt>
      <trkpt lat="44.06973" lon="7.3979">
        <ele>1652.1600341797</ele>
        <time>2011-10-01T14:58:50Z</time>
      </trkpt>
      <trkpt lat="44.06969" lon="7.39789">
        <ele>1651.1999511719</ele>
        <time>2011-10-01T14:58:53Z</time>
      </trkpt>
      <trkpt lat="44.06967" lon="7.3979">
        <ele>1650.2399902344</ele>
        <time>2011-10-01T14:58:55Z</time>
      </trkpt>
      <trkpt lat="44.06964" lon="7.39794">
        <ele>1648.8000488281</ele>
        <time>2011-10-01T14:58:58Z</time>
      </trkpt>
      <trkpt lat="44.06959" lon="7.398">
        <ele>1645.9100341797</ele>
        <time>2011-10-01T14:59:02Z</time>
      </trkpt>
      <trkpt lat="44.0695" lon="7.39807">
        <ele>1642.5500488281</ele>
        <time>2011-10-01T14:59:08Z</time>
      </trkpt>
      <trkpt lat="44.06948" lon="7.39808">
        <ele>1642.0699462891</ele>
        <time>2011-10-01T14:59:09Z</time>
      </trkpt>
      <trkpt lat="44.0694" lon="7.39803">
        <ele>1640.6300048828</ele>
        <time>2011-10-01T14:59:14Z</time>
      </trkpt>
      <trkpt lat="44.06929" lon="7.39786">
        <ele>1637.2600097656</ele>
        <time>2011-10-01T14:59:22Z</time>
      </trkpt>
      <trkpt lat="44.06914" lon="7.3976">
        <ele>1635.3399658203</ele>
        <time>2011-10-01T14:59:34Z</time>
      </trkpt>
      <trkpt lat="44.0691" lon="7.39733">
        <ele>1631.9799804688</ele>
        <time>2011-10-01T14:59:44Z</time>
      </trkpt>
      <trkpt lat="44.06897" lon="7.397">
        <ele>1629.5699462891</ele>
        <time>2011-10-01T14:59:56Z</time>
      </trkpt>
      <trkpt lat="44.06882" lon="7.39678">
        <ele>1626.6899414062</ele>
        <time>2011-10-01T15:00:05Z</time>
      </trkpt>
      <trkpt lat="44.06861" lon="7.39642">
        <ele>1622.8399658203</ele>
        <time>2011-10-01T15:00:19Z</time>
      </trkpt>
      <trkpt lat="44.06834" lon="7.39633">
        <ele>1620.4399414062</ele>
        <time>2011-10-01T15:00:31Z</time>
      </trkpt>
      <trkpt lat="44.06824" lon="7.39615">
        <ele>1619</ele>
        <time>2011-10-01T15:00:38Z</time>
      </trkpt>
      <trkpt lat="44.06806" lon="7.39588">
        <ele>1616.1099853516</ele>
        <time>2011-10-01T15:00:50Z</time>
      </trkpt>
      <trkpt lat="44.06801" lon="7.39584">
        <ele>1616.5899658203</ele>
        <time>2011-10-01T15:00:54Z</time>
      </trkpt>
      <trkpt lat="44.06793" lon="7.39575">
        <ele>1616.1099853516</ele>
        <time>2011-10-01T15:01:03Z</time>
      </trkpt>
      <trkpt lat="44.06792" lon="7.39581">
        <ele>1616.1099853516</ele>
        <time>2011-10-01T15:01:07Z</time>
      </trkpt>
      <trkpt lat="44.06794" lon="7.39592">
        <ele>1615.1500244141</ele>
        <time>2011-10-01T15:01:11Z</time>
      </trkpt>
      <trkpt lat="44.06791" lon="7.3961">
        <ele>1613.7099609375</ele>
        <time>2011-10-01T15:01:18Z</time>
      </trkpt>
      <trkpt lat="44.06783" lon="7.39621">
        <ele>1612.75</ele>
        <time>2011-10-01T15:01:24Z</time>
      </trkpt>
      <trkpt lat="44.06759" lon="7.39627">
        <ele>1611.3100585938</ele>
        <time>2011-10-01T15:01:35Z</time>
      </trkpt>
      <trkpt lat="44.06733" lon="7.39618">
        <ele>1608.9000244141</ele>
        <time>2011-10-01T15:01:48Z</time>
      </trkpt>
      <trkpt lat="44.06708" lon="7.39611">
        <ele>1606.9799804688</ele>
        <time>2011-10-01T15:01:59Z</time>
      </trkpt>
      <trkpt lat="44.067" lon="7.39615">
        <ele>1607.4599609375</ele>
        <time>2011-10-01T15:02:03Z</time>
      </trkpt>
      <trkpt lat="44.06698" lon="7.39647">
        <ele>1606.9799804688</ele>
        <time>2011-10-01T15:02:13Z</time>
      </trkpt>
      <trkpt lat="44.06696" lon="7.39653">
        <ele>1607.4599609375</ele>
        <time>2011-10-01T15:02:15Z</time>
      </trkpt>
      <trkpt lat="44.06691" lon="7.39664">
        <ele>1606.9799804688</ele>
        <time>2011-10-01T15:02:19Z</time>
      </trkpt>
      <trkpt lat="44.06672" lon="7.39684">
        <ele>1606.9799804688</ele>
        <time>2011-10-01T15:02:30Z</time>
      </trkpt>
      <trkpt lat="44.06661" lon="7.39687">
        <ele>1606.5</ele>
        <time>2011-10-01T15:02:35Z</time>
      </trkpt>
      <trkpt lat="44.06629" lon="7.39673">
        <ele>1605.5400390625</ele>
        <time>2011-10-01T15:02:50Z</time>
      </trkpt>
      <trkpt lat="44.066" lon="7.39658">
        <ele>1604.0999755859</ele>
        <time>2011-10-01T15:03:03Z</time>
      </trkpt>
      <trkpt lat="44.06596" lon="7.39656">
        <ele>1605.5400390625</ele>
        <time>2011-10-01T15:03:05Z</time>
      </trkpt>
      <trkpt lat="44.06585" lon="7.39652">
        <ele>1605.5400390625</ele>
        <time>2011-10-01T15:03:10Z</time>
      </trkpt>
      <trkpt lat="44.06566" lon="7.39629">
        <ele>1606.0200195312</ele>
        <time>2011-10-01T15:03:23Z</time>
      </trkpt>
      <trkpt lat="44.06557" lon="7.39592">
        <ele>1606.0200195312</ele>
        <time>2011-10-01T15:03:35Z</time>
      </trkpt>
      <trkpt lat="44.06547" lon="7.39559">
        <ele>1605.5400390625</ele>
        <time>2011-10-01T15:03:47Z</time>
      </trkpt>
      <trkpt lat="44.06544" lon="7.39547">
        <ele>1605.0600585938</ele>
        <time>2011-10-01T15:03:51Z</time>
      </trkpt>
      <trkpt lat="44.06541" lon="7.3953">
        <ele>1602.1700439453</ele>
        <time>2011-10-01T15:03:57Z</time>
      </trkpt>
      <trkpt lat="44.06532" lon="7.39518">
        <ele>1598.8100585938</ele>
        <time>2011-10-01T15:04:02Z</time>
      </trkpt>
      <trkpt lat="44.06508" lon="7.39496">
        <ele>1597.3699951172</ele>
        <time>2011-10-01T15:04:12Z</time>
      </trkpt>
      <trkpt lat="44.06483" lon="7.39484">
        <ele>1597.8499755859</ele>
        <time>2011-10-01T15:04:22Z</time>
      </trkpt>
      <trkpt lat="44.06451" lon="7.39472">
        <ele>1595.4499511719</ele>
        <time>2011-10-01T15:04:35Z</time>
      </trkpt>
      <trkpt lat="44.06446" lon="7.39468">
        <ele>1594</ele>
        <time>2011-10-01T15:04:37Z</time>
      </trkpt>
      <trkpt lat="44.06427" lon="7.39438">
        <ele>1592.5600585938</ele>
        <time>2011-10-01T15:04:48Z</time>
      </trkpt>
      <trkpt lat="44.06404" lon="7.39412">
        <ele>1590.6400146484</ele>
        <time>2011-10-01T15:05:00Z</time>
      </trkpt>
      <trkpt lat="44.06372" lon="7.39386">
        <ele>1589.6800537109</ele>
        <time>2011-10-01T15:05:14Z</time>
      </trkpt>
      <trkpt lat="44.06339" lon="7.39364">
        <ele>1588.7199707031</ele>
        <time>2011-10-01T15:05:27Z</time>
      </trkpt>
      <trkpt lat="44.06316" lon="7.39333">
        <ele>1587.75</ele>
        <time>2011-10-01T15:05:38Z</time>
      </trkpt>
      <trkpt lat="44.06305" lon="7.39304">
        <ele>1585.3499755859</ele>
        <time>2011-10-01T15:05:47Z</time>
      </trkpt>
      <trkpt lat="44.06279" lon="7.39267">
        <ele>1584.8699951172</ele>
        <time>2011-10-01T15:05:59Z</time>
      </trkpt>
      <trkpt lat="44.06267" lon="7.39232">
        <ele>1587.75</ele>
        <time>2011-10-01T15:06:09Z</time>
      </trkpt>
      <trkpt lat="44.06266" lon="7.39217">
        <ele>1586.3100585938</ele>
        <time>2011-10-01T15:06:17Z</time>
      </trkpt>
      <trkpt lat="44.06271" lon="7.39205">
        <ele>1583.9100341797</ele>
        <time>2011-10-01T15:06:22Z</time>
      </trkpt>
      <trkpt lat="44.06292" lon="7.39192">
        <ele>1583.4300537109</ele>
        <time>2011-10-01T15:06:33Z</time>
      </trkpt>
      <trkpt lat="44.06298" lon="7.39193">
        <ele>1584.3900146484</ele>
        <time>2011-10-01T15:06:36Z</time>
      </trkpt>
      <trkpt lat="44.06311" lon="7.39206">
        <ele>1585.8299560547</ele>
        <time>2011-10-01T15:06:42Z</time>
      </trkpt>
      <trkpt lat="44.06315" lon="7.39216">
        <ele>1587.2700195312</ele>
        <time>2011-10-01T15:06:45Z</time>
      </trkpt>
      <trkpt lat="44.06323" lon="7.39217">
        <ele>1588.2399902344</ele>
        <time>2011-10-01T15:06:51Z</time>
      </trkpt>
      <trkpt lat="44.06323" lon="7.39171">
        <ele>1590.1600341797</ele>
        <time>2011-10-01T15:07:02Z</time>
      </trkpt>
      <trkpt lat="44.06324" lon="7.39159">
        <ele>1590.1600341797</ele>
        <time>2011-10-01T15:07:05Z</time>
      </trkpt>
      <trkpt lat="44.06327" lon="7.39146">
        <ele>1591.1199951172</ele>
        <time>2011-10-01T15:07:09Z</time>
      </trkpt>
      <trkpt lat="44.06335" lon="7.39132">
        <ele>1594.4799804688</ele>
        <time>2011-10-01T15:07:14Z</time>
      </trkpt>
      <trkpt lat="44.06341" lon="7.39125">
        <ele>1596.4100341797</ele>
        <time>2011-10-01T15:07:19Z</time>
      </trkpt>
      <trkpt lat="44.06342" lon="7.39126">
        <ele>1592.5600585938</ele>
        <time>2011-10-01T15:07:20Z</time>
      </trkpt>
      <trkpt lat="44.06342" lon="7.39127">
        <ele>1593.5200195312</ele>
        <time>2011-10-01T15:07:22Z</time>
      </trkpt>
    </trkseg>
  </trk>
</gpx>